
Distance (Route):
Temperature : 0°C
Humidity : 0%
Pressure : 0hPa| Receiver | Date | Latitude | Longitude | Direction | Speed | Altitude | Climb | Temperature | Humidity | Pressure | Voltage | Killtimer | Uptime | BKT | XDATA |
|---|---|---|---|---|---|---|---|---|---|---|---|---|---|---|---|
| EA3GEO | 2026-09-06 01:03:34 | 41.44057 | 2.22207 | 112° | 16km/h | 310m | -10.0m/s | 0°C | 0% | 0hPa | 0V | 00:00:00 | 00:00:00 | 00:00:00 | |
| EA3IBE | 2026-09-06 01:03:29 | 41.44066 | 2.22180 | 112° | 16km/h | 362m | -10.4m/s | 0°C | 0% | 0hPa | 0V | 00:00:00 | 00:00:00 | 00:00:00 | |
| EA3GEO | 2026-09-06 01:03:28 | 41.44067 | 2.22175 | 111° | 18km/h | 372m | -10.5m/s | 0°C | 0% | 0hPa | 0V | 00:00:00 | 00:00:00 | 00:00:00 | |
| EA3IBE | 2026-09-06 01:03:24 | 41.44070 | 2.22148 | 90° | 20km/h | 415m | -10.6m/s | 0°C | 0% | 0hPa | 0V | 00:00:00 | 00:00:00 | 00:00:00 | |
| EA3GEO | 2026-09-06 01:03:23 | 41.44070 | 2.22141 | 84° | 18km/h | 426m | -11.2m/s | 0°C | 0% | 0hPa | 0V | 00:00:00 | 00:00:00 | 00:00:00 | |
| EA3IBE | 2026-09-06 01:03:17 | 41.44077 | 2.22093 | 108° | 27km/h | 494m | -11.7m/s | 0°C | 0% | 0hPa | 0V | 00:00:00 | 00:00:00 | 00:00:00 | |
| EA3GEO | 2026-09-06 01:03:17 | 41.44077 | 2.22093 | 108° | 27km/h | 494m | -11.7m/s | 0°C | 0% | 0hPa | 0V | 00:00:00 | 00:00:00 | 00:00:00 | |
| EA3IBE | 2026-09-06 01:03:12 | 41.44088 | 2.22051 | 109° | 27km/h | 551m | -11.2m/s | 0°C | 0% | 0hPa | 0V | 00:00:00 | 00:00:00 | 00:00:00 | |
| EA3GEO | 2026-09-06 01:03:11 | 41.44090 | 2.22042 | 110° | 27km/h | 562m | -11.1m/s | 0°C | 0% | 0hPa | 0V | 00:00:00 | 00:00:00 | 00:00:00 | |
| EA3IBE | 2026-09-06 01:03:07 | 41.44097 | 2.22007 | 104° | 27km/h | 607m | -11.2m/s | 0°C | 0% | 0hPa | 0V | 00:00:00 | 00:00:00 | 00:00:00 | |
| EA3GEO | 2026-09-06 01:03:05 | 41.44100 | 2.21988 | 101° | 27km/h | 629m | -10.9m/s | 0°C | 0% | 0hPa | 0V | 00:00:00 | 00:00:00 | 00:00:00 | |
| EA3IBE | 2026-09-06 01:03:01 | 41.44102 | 2.21948 | 90° | 31km/h | 673m | -10.8m/s | 0°C | 0% | 0hPa | 0V | 00:00:00 | 00:00:00 | 00:00:00 | |
| EA3IBE | 2026-09-06 01:02:56 | 41.44099 | 2.21893 | 86° | 37km/h | 728m | -11.0m/s | 0°C | 0% | 0hPa | 0V | 00:00:00 | 00:00:00 | 00:00:00 | |
| EA3GEO | 2026-09-06 01:02:54 | 41.44097 | 2.21867 | 84° | 40km/h | 750m | -11.0m/s | 0°C | 0% | 0hPa | 0V | 00:00:00 | 00:00:00 | 00:00:00 | |
| EA3IBE | 2026-09-06 01:02:50 | 41.44096 | 2.21810 | 90° | 44km/h | 793m | -11.0m/s | 0°C | 0% | 0hPa | 0V | 00:00:00 | 00:00:00 | 00:00:00 | |
| EA3GEO | 2026-09-06 01:02:48 | 41.44095 | 2.21780 | 89° | 44km/h | 815m | -11.2m/s | 0°C | 0% | 0hPa | 0V | 00:00:00 | 00:00:00 | 00:00:00 | |
| EA3IBE | 2026-09-06 01:02:45 | 41.44094 | 2.21736 | 88° | 42km/h | 849m | -11.3m/s | 0°C | 0% | 0hPa | 0V | 00:00:00 | 00:00:00 | 00:00:00 | |
| EA3GEO | 2026-09-06 01:02:43 | 41.44092 | 2.21708 | 84° | 42km/h | 872m | -11.3m/s | 0°C | 0% | 0hPa | 0V | 00:00:00 | 00:00:00 | 00:00:00 | |
| EA3IBE | 2026-09-06 01:02:40 | 41.44088 | 2.21665 | 86° | 44km/h | 905m | -10.6m/s | 0°C | 0% | 0hPa | 0V | 00:00:00 | 00:00:00 | 00:00:00 | |
| EA3GEO | 2026-09-06 01:02:37 | 41.44087 | 2.21625 | 88° | 42km/h | 936m | -10.7m/s | 0°C | 0% | 0hPa | 0V | 00:00:00 | 00:00:00 | 00:00:00 | |
| EA3IBE | 2026-09-06 01:02:35 | 41.44086 | 2.21598 | 93° | 38km/h | 958m | -10.8m/s | 0°C | 0% | 0hPa | 0V | 00:00:00 | 00:00:00 | 00:00:00 | |
| EA3GEO | 2026-09-06 01:02:31 | 41.44087 | 2.21545 | 94° | 37km/h | 999m | -10.7m/s | 0°C | 0% | 0hPa | 0V | 00:00:00 | 00:00:00 | 00:00:00 | |
| EA3IBE | 2026-09-06 01:02:30 | 41.44087 | 2.21533 | 92° | 35km/h | 1010m | -10.6m/s | 0°C | 0% | 0hPa | 0V | 00:00:00 | 00:00:00 | 00:00:00 | |
| EA3GEO | 2026-09-06 01:02:26 | 41.44085 | 2.21485 | 85° | 35km/h | 1052m | -10.2m/s | 0°C | 0% | 0hPa | 0V | 00:00:00 | 00:00:00 | 00:00:00 | |
| EA3IBE | 2026-09-06 01:02:24 | 41.44083 | 2.21463 | 84° | 33km/h | 1076m | -10.6m/s | 0°C | 0% | 0hPa | 0V | 00:00:00 | 00:00:00 | 00:00:00 | |
| EA3IBE | 2026-09-06 01:02:19 | 41.44077 | 2.21414 | 71° | 22km/h | 1129m | -10.8m/s | 0°C | 0% | 0hPa | 0V | 00:00:00 | 00:00:00 | 00:00:00 | |
| EA3GEO | 2026-09-06 01:02:15 | 41.44070 | 2.21375 | 77° | 38km/h | 1173m | -12.0m/s | 0°C | 0% | 0hPa | 0V | 00:00:00 | 00:00:00 | 00:00:00 | |
| EA3IBE | 2026-09-06 01:02:14 | 41.44068 | 2.21364 | 75° | 35km/h | 1185m | -11.0m/s | 0°C | 0% | 0hPa | 0V | 00:00:00 | 00:00:00 | 00:00:00 | |
| EA3IBE | 2026-09-06 01:02:09 | 41.44056 | 2.21313 | 88° | 24km/h | 1239m | -10.9m/s | 0°C | 0% | 0hPa | 0V | 00:00:00 | 00:00:00 | 00:00:00 | |
| EA3GEO | 2026-09-06 01:02:09 | 41.44056 | 2.21313 | 88° | 24km/h | 1239m | -10.9m/s | 0°C | 0% | 0hPa | 0V | 00:00:00 | 00:00:00 | 00:00:00 | |
| EA3GEO | 2026-09-06 01:01:57 | 41.44042 | 2.21235 | 72° | 20km/h | 1376m | -11.2m/s | 0°C | 0% | 0hPa | 0V | 00:00:00 | 00:00:00 | 00:00:00 | |
| EA3IBE | 2026-09-06 01:01:57 | 41.44042 | 2.21235 | 72° | 20km/h | 1376m | -11.2m/s | 0°C | 0% | 0hPa | 0V | 00:00:00 | 00:00:00 | 00:00:00 | |
| EA3GEO | 2026-09-06 01:01:52 | 41.44036 | 2.21206 | 69° | 15km/h | 1429m | -10.2m/s | 0°C | 0% | 0hPa | 0V | 00:00:00 | 00:00:00 | 00:00:00 | |
| EA3IBE | 2026-09-06 01:01:48 | 41.44033 | 2.21191 | 80° | 13km/h | 1472m | -9.7m/s | 0°C | 0% | 0hPa | 0V | 00:00:00 | 00:00:00 | 00:00:00 | |
| EA3GEO | 2026-09-06 01:01:46 | 41.44032 | 2.21184 | 72° | 13km/h | 1493m | -11.0m/s | 0°C | 0% | 0hPa | 0V | 00:00:00 | 00:00:00 | 00:00:00 | |
| EA3IBE | 2026-09-06 01:01:41 | 41.44030 | 2.21167 | 75° | 11km/h | 1551m | -10.6m/s | 0°C | 0% | 0hPa | 0V | 00:00:00 | 00:00:00 | 00:00:00 | |
| EA3GEO | 2026-09-06 01:01:41 | 41.44030 | 2.21167 | 75° | 11km/h | 1551m | -10.6m/s | 0°C | 0% | 0hPa | 0V | 00:00:00 | 00:00:00 | 00:00:00 | |
| EA3IBE | 2026-09-06 01:01:36 | 41.44026 | 2.21152 | 67° | 13km/h | 1605m | -10.6m/s | 0°C | 0% | 0hPa | 0V | 00:00:00 | 00:00:00 | 00:00:00 | |
| EA3GEO | 2026-09-06 01:01:35 | 41.44025 | 2.21148 | 97° | 7km/h | 1617m | -11.6m/s | 0°C | 0% | 0hPa | 0V | 00:00:00 | 00:00:00 | 00:00:00 | |
| EA3GEO | 2026-09-06 01:01:30 | 41.44020 | 2.21136 | 52° | 9km/h | 1668m | -9.2m/s | 0°C | 0% | 0hPa | 0V | 00:00:00 | 00:00:00 | 00:00:00 | |
| EA3IBE | 2026-09-06 01:01:30 | 41.44020 | 2.21136 | 52° | 9km/h | 1668m | -9.2m/s | 0°C | 0% | 0hPa | 0V | 00:00:00 | 00:00:00 | 00:00:00 | |
| EA3GEO | 2026-09-06 01:01:24 | 41.44008 | 2.21125 | 22° | 9km/h | 1733m | -11.2m/s | 0°C | 0% | 0hPa | 0V | 00:00:00 | 00:00:00 | 00:00:00 | |
| EA3IBE | 2026-09-06 01:01:24 | 41.44008 | 2.21125 | 22° | 9km/h | 1733m | -11.2m/s | 0°C | 0% | 0hPa | 0V | 00:00:00 | 00:00:00 | 00:00:00 | |
| EA3IBE | 2026-09-06 01:01:19 | 41.43996 | 2.21114 | 43° | 15km/h | 1787m | -10.4m/s | 0°C | 0% | 0hPa | 0V | 00:00:00 | 00:00:00 | 00:00:00 | |
| EA3GEO | 2026-09-06 01:01:18 | 41.43994 | 2.21110 | 46° | 13km/h | 1798m | -10.1m/s | 0°C | 0% | 0hPa | 0V | 00:00:00 | 00:00:00 | 00:00:00 | |
| EA3IBE | 2026-09-06 01:01:13 | 41.43981 | 2.21096 | 45° | 16km/h | 1849m | -10.4m/s | 0°C | 0% | 0hPa | 0V | 00:00:00 | 00:00:00 | 00:00:00 | |
| EA3GEO | 2026-09-06 01:01:13 | 41.43981 | 2.21096 | 45° | 16km/h | 1849m | -10.4m/s | 0°C | 0% | 0hPa | 0V | 00:00:00 | 00:00:00 | 00:00:00 | |
| EA3GEO | 2026-09-06 01:01:08 | 41.43967 | 2.21081 | 37° | 16km/h | 1902m | -11.5m/s | 0°C | 0% | 0hPa | 0V | 00:00:00 | 00:00:00 | 00:00:00 | |
| EA3IBE | 2026-09-06 01:01:07 | 41.43964 | 2.21078 | 45° | 13km/h | 1914m | -10.8m/s | 0°C | 0% | 0hPa | 0V | 00:00:00 | 00:00:00 | 00:00:00 | |
| EA3GEO | 2026-09-06 01:01:02 | 41.43950 | 2.21063 | 43° | 11km/h | 1972m | -11.8m/s | 0°C | 0% | 0hPa | 0V | 00:00:00 | 00:00:00 | 00:00:00 | |
| EA3IBE | 2026-09-06 01:01:01 | 41.43947 | 2.21060 | 36° | 15km/h | 1984m | -11.8m/s | 0°C | 0% | 0hPa | 0V | 00:00:00 | 00:00:00 | 00:00:00 | |
| EA3GEO | 2026-09-06 01:00:56 | 41.43935 | 2.21045 | 38° | 18km/h | 2046m | -9.7m/s | 0°C | 0% | 0hPa | 0V | 00:00:00 | 00:00:00 | 00:00:00 | |
| EA3IBE | 2026-09-06 01:00:55 | 41.43931 | 2.21041 | 46° | 16km/h | 2057m | -11.7m/s | 0°C | 0% | 0hPa | 0V | 00:00:00 | 00:00:00 | 00:00:00 | |
| EA3GEO | 2026-09-06 01:00:50 | 41.43917 | 2.21027 | 47° | 16km/h | 2114m | -10.1m/s | 0°C | 0% | 0hPa | 0V | 00:00:00 | 00:00:00 | 00:00:00 | |
| EA3IBE | 2026-09-06 01:00:49 | 41.43915 | 2.21023 | 50° | 15km/h | 2126m | -10.0m/s | 0°C | 0% | 0hPa | 0V | 00:00:00 | 00:00:00 | 00:00:00 | |
| EA3GEO | 2026-09-06 01:00:44 | 41.43901 | 2.21008 | 42° | 13km/h | 2182m | -11.2m/s | 0°C | 0% | 0hPa | 0V | 00:00:00 | 00:00:00 | 00:00:00 | |
| EA3IBE | 2026-09-06 01:00:43 | 41.43899 | 2.21006 | 50° | 11km/h | 2193m | -10.7m/s | 0°C | 0% | 0hPa | 0V | 00:00:00 | 00:00:00 | 00:00:00 | |
| EA3GEO | 2026-09-06 01:00:39 | 41.43887 | 2.20992 | 43° | 11km/h | 2240m | -10.9m/s | 0°C | 0% | 0hPa | 0V | 00:00:00 | 00:00:00 | 00:00:00 | |
| EA3IBE | 2026-09-06 01:00:37 | 41.43882 | 2.20986 | 42° | 11km/h | 2261m | -10.6m/s | 0°C | 0% | 0hPa | 0V | 00:00:00 | 00:00:00 | 00:00:00 | |
| EA3GEO | 2026-09-06 01:00:33 | 41.43871 | 2.20977 | 44° | 13km/h | 2306m | -11.9m/s | 0°C | 0% | 0hPa | 0V | 00:00:00 | 00:00:00 | 00:00:00 | |
| EA3IBE | 2026-09-06 01:00:27 | 41.43855 | 2.20962 | 31° | 16km/h | 2376m | -11.4m/s | 0°C | 0% | 0hPa | 0V | 00:00:00 | 00:00:00 | 00:00:00 | |
| EA3GEO | 2026-09-06 01:00:22 | 41.43845 | 2.20942 | 58° | 9km/h | 2433m | -10.1m/s | 0°C | 0% | 0hPa | 0V | 00:00:00 | 00:00:00 | 00:00:00 | |
| EA3GEO | 2026-09-06 01:00:18 | 41.43836 | 2.20919 | 66° | 13km/h | 2498m | -11.5m/s | 0°C | 0% | 0hPa | 0V | 00:00:00 | 00:00:00 | 00:00:00 | |
| EA3GEO | 2026-09-06 01:00:10 | 41.43827 | 2.20892 | 76° | 15km/h | 2571m | -9.8m/s | 0°C | 0% | 0hPa | 0V | 00:00:00 | 00:00:00 | 00:00:00 | |
| EA3GEO | 2026-09-06 01:00:05 | 41.43821 | 2.20868 | 80° | 15km/h | 2626m | -11.0m/s | 0°C | 0% | 0hPa | 0V | 00:00:00 | 00:00:00 | 00:00:00 | |
| EA3GEO | 2026-09-06 00:59:59 | 41.43815 | 2.20833 | 81° | 22km/h | 2697m | -10.2m/s | 0°C | 0% | 0hPa | 0V | 00:00:00 | 00:00:00 | 00:00:00 | |
| EA3IBE | 2026-09-06 00:59:55 | 41.43812 | 2.20808 | 90° | 15km/h | 2741m | -10.6m/s | 0°C | 0% | 0hPa | 0V | 00:00:00 | 00:00:00 | 00:00:00 | |
| EA3GEO | 2026-09-06 00:59:53 | 41.43811 | 2.20798 | 80° | 18km/h | 2763m | -10.4m/s | 0°C | 0% | 0hPa | 0V | 00:00:00 | 00:00:00 | 00:00:00 | |
| EA3GEO | 2026-09-06 00:59:48 | 41.43809 | 2.20771 | 100° | 15km/h | 2816m | -11.2m/s | 0°C | 0% | 0hPa | 0V | 00:00:00 | 00:00:00 | 00:00:00 | |
| EA3GEO | 2026-09-06 00:59:42 | 41.43811 | 2.20738 | 97° | 15km/h | 2885m | -12.2m/s | 0°C | 0% | 0hPa | 0V | 00:00:00 | 00:00:00 | 00:00:00 | |
| EA3GEO | 2026-09-06 00:59:36 | 41.43813 | 2.20701 | 98° | 20km/h | 2955m | -11.3m/s | 0°C | 0% | 0hPa | 0V | 00:00:00 | 00:00:00 | 00:00:00 | |
| EA3GEO | 2026-09-06 00:59:31 | 41.43818 | 2.20674 | 113° | 15km/h | 3013m | -11.8m/s | 0°C | 0% | 0hPa | 0V | 00:00:00 | 00:00:00 | 00:00:00 | |
| EA3GEO | 2026-09-06 00:59:25 | 41.43823 | 2.20646 | 101° | 16km/h | 3081m | -12.3m/s | 0°C | 0% | 0hPa | 0V | 00:00:00 | 00:00:00 | 00:00:00 | |
| EA3GEO | 2026-09-06 00:59:20 | 41.43824 | 2.20622 | 101° | 13km/h | 3139m | -10.7m/s | 0°C | 0% | 0hPa | 0V | 00:00:00 | 00:00:00 | 00:00:00 | |
| EA3GEO | 2026-09-06 00:59:13 | 41.43825 | 2.20598 | 107° | 9km/h | 3227m | -10.8m/s | 0°C | 0% | 0hPa | 0V | 00:00:00 | 00:00:00 | 00:00:00 | |
| EA3GEO | 2026-09-06 00:59:07 | 41.43826 | 2.20579 | 90° | 13km/h | 3295m | -10.9m/s | 0°C | 0% | 0hPa | 0V | 00:00:00 | 00:00:00 | 00:00:00 | |
| EA3GEO | 2026-09-06 00:59:02 | 41.43829 | 2.20561 | 88° | 5km/h | 3355m | -11.7m/s | 0°C | 0% | 0hPa | 0V | 00:00:00 | 00:00:00 | 00:00:00 | |
| EA3GEO | 2026-09-06 00:58:57 | 41.43834 | 2.20543 | 139° | 11km/h | 3412m | -10.6m/s | 0°C | 0% | 0hPa | 0V | 00:00:00 | 00:00:00 | 00:00:00 | |
| EA3GEO | 2026-09-06 00:58:52 | 41.43843 | 2.20526 | 118° | 13km/h | 3469m | -11.6m/s | 0°C | 0% | 0hPa | 0V | 00:00:00 | 00:00:00 | 00:00:00 | |
| EA3GEO | 2026-09-06 00:58:46 | 41.43853 | 2.20504 | 142° | 11km/h | 3538m | -11.7m/s | 0°C | 0% | 0hPa | 0V | 00:00:00 | 00:00:00 | 00:00:00 | |
| EA3GEO | 2026-09-06 00:58:41 | 41.43864 | 2.20487 | 141° | 16km/h | 3599m | -11.0m/s | 0°C | 0% | 0hPa | 0V | 00:00:00 | 00:00:00 | 00:00:00 | |
| EA3GEO | 2026-09-06 00:58:35 | 41.43885 | 2.20463 | 115° | 13km/h | 3669m | -11.8m/s | 0°C | 0% | 0hPa | 0V | 00:00:00 | 00:00:00 | 00:00:00 | |
| EA3GEO | 2026-09-06 00:58:29 | 41.43901 | 2.20440 | 128° | 15km/h | 3742m | -10.1m/s | 0°C | 0% | 0hPa | 0V | 00:00:00 | 00:00:00 | 00:00:00 | |
| EA3GEO | 2026-09-06 00:58:24 | 41.43910 | 2.20418 | 112° | 18km/h | 3801m | -9.4m/s | 0°C | 0% | 0hPa | 0V | 00:00:00 | 00:00:00 | 00:00:00 | |
| EA3GEO | 2026-09-06 00:58:18 | 41.43922 | 2.20393 | 131° | 13km/h | 3869m | -13.1m/s | 0°C | 0% | 0hPa | 0V | 00:00:00 | 00:00:00 | 00:00:00 | |
| EA3GEO | 2026-09-06 00:58:12 | 41.43932 | 2.20371 | 136° | 13km/h | 3941m | -12.7m/s | 0°C | 0% | 0hPa | 0V | 00:00:00 | 00:00:00 | 00:00:00 | |
| EA3GEO | 2026-09-06 00:58:06 | 41.43941 | 2.20351 | 113° | 11km/h | 4013m | -10.1m/s | 0°C | 0% | 0hPa | 0V | 00:00:00 | 00:00:00 | 00:00:00 | |
| EA3GEO | 2026-09-06 00:58:01 | 41.43946 | 2.20334 | 91° | 16km/h | 4073m | -10.1m/s | 0°C | 0% | 0hPa | 0V | 00:00:00 | 00:00:00 | 00:00:00 | |
| EA3GEO | 2026-09-06 00:57:55 | 41.43951 | 2.20307 | 111° | 11km/h | 4143m | -12.5m/s | 0°C | 0% | 0hPa | 0V | 00:00:00 | 00:00:00 | 00:00:00 | |
| EA3GEO | 2026-09-06 00:57:50 | 41.43956 | 2.20287 | 96° | 15km/h | 4204m | -11.8m/s | 0°C | 0% | 0hPa | 0V | 00:00:00 | 00:00:00 | 00:00:00 | |
| EA3GEO | 2026-09-06 00:57:44 | 41.43962 | 2.20262 | 109° | 18km/h | 4275m | -10.7m/s | 0°C | 0% | 0hPa | 0V | 00:00:00 | 00:00:00 | 00:00:00 | |
| EA3GEO | 2026-09-06 00:57:37 | 41.43970 | 2.20232 | 100° | 15km/h | 4357m | -10.1m/s | 0°C | 0% | 0hPa | 0V | 00:00:00 | 00:00:00 | 00:00:00 | |
| EA3GEO | 2026-09-06 00:57:32 | 41.43973 | 2.20209 | 105° | 15km/h | 4416m | -11.4m/s | 0°C | 0% | 0hPa | 0V | 00:00:00 | 00:00:00 | 00:00:00 | |
| EA3GEO | 2026-09-06 00:57:25 | 41.43979 | 2.20171 | 100° | 16km/h | 4503m | -11.9m/s | 0°C | 0% | 0hPa | 0V | 00:00:00 | 00:00:00 | 00:00:00 | |
| EA3GEO | 2026-09-06 00:57:19 | 41.43987 | 2.20142 | 125° | 16km/h | 4571m | -11.1m/s | 0°C | 0% | 0hPa | 0V | 00:00:00 | 00:00:00 | 00:00:00 | |
| EA3GEO | 2026-09-06 00:57:14 | 41.44000 | 2.20123 | 133° | 16km/h | 4633m | -12.2m/s | 0°C | 0% | 0hPa | 0V | 00:00:00 | 00:00:00 | 00:00:00 | |
| EA3GEO | 2026-09-06 00:57:09 | 41.44019 | 2.20097 | 137° | 18km/h | 4706m | -11.6m/s | 0°C | 0% | 0hPa | 0V | 00:00:00 | 00:00:00 | 00:00:00 | |
| EA3GEO | 2026-09-06 00:57:02 | 41.44038 | 2.20072 | 145° | 18km/h | 4779m | -12.4m/s | 0°C | 0% | 0hPa | 0V | 00:00:00 | 00:00:00 | 00:00:00 | |
| EA3GEO | 2026-09-06 00:56:57 | 41.44053 | 2.20052 | 120° | 22km/h | 4838m | -8.0m/s | 0°C | 0% | 0hPa | 0V | 00:00:00 | 00:00:00 | 00:00:00 | |
| EA3GEO | 2026-09-06 00:56:51 | 41.44065 | 2.20023 | 122° | 15km/h | 4905m | -11.5m/s | 0°C | 0% | 0hPa | 0V | 00:00:00 | 00:00:00 | 00:00:00 | |
| EA3GEO | 2026-09-06 00:56:46 | 41.44073 | 2.19996 | 106° | 15km/h | 4965m | -11.9m/s | 0°C | 0% | 0hPa | 0V | 00:00:00 | 00:00:00 | 00:00:00 | |
| EA3GEO | 2026-09-06 00:56:40 | 41.44081 | 2.19962 | 90° | 18km/h | 5037m | -12.3m/s | 0°C | 0% | 0hPa | 0V | 00:00:00 | 00:00:00 | 00:00:00 | |
| EA3GEO | 2026-09-06 00:56:34 | 41.44084 | 2.19932 | 110° | 9km/h | 5113m | -10.6m/s | 0°C | 0% | 0hPa | 0V | 00:00:00 | 00:00:00 | 00:00:00 | |
| EA3GEO | 2026-09-06 00:56:28 | 41.44090 | 2.19909 | 87° | 13km/h | 5185m | -11.1m/s | 0°C | 0% | 0hPa | 0V | 00:00:00 | 00:00:00 | 00:00:00 | |
| EA3GEO | 2026-09-06 00:56:22 | 41.44092 | 2.19887 | 98° | 13km/h | 5257m | -10.6m/s | 0°C | 0% | 0hPa | 0V | 00:00:00 | 00:00:00 | 00:00:00 | |
| EA3GEO | 2026-09-06 00:56:17 | 41.44095 | 2.19864 | 106° | 15km/h | 5312m | -9.6m/s | 0°C | 0% | 0hPa | 0V | 00:00:00 | 00:00:00 | 00:00:00 | |
| EA3GEO | 2026-09-06 00:56:12 | 41.44101 | 2.19841 | 97° | 15km/h | 5371m | -11.4m/s | 0°C | 0% | 0hPa | 0V | 00:00:00 | 00:00:00 | 00:00:00 | |
| EA3GEO | 2026-09-06 00:56:06 | 41.44107 | 2.19815 | 103° | 11km/h | 5442m | -11.7m/s | 0°C | 0% | 0hPa | 0V | 00:00:00 | 00:00:00 | 00:00:00 | |
| EA3IBE | 2026-09-06 00:55:54 | 41.44108 | 2.19756 | 92° | 16km/h | 5585m | -11.9m/s | 0°C | 0% | 0hPa | 0V | 00:00:00 | 00:00:00 | 00:00:00 | |
| EA3GEO | 2026-09-06 00:55:48 | 41.44102 | 2.19719 | 79° | 18km/h | 5660m | -11.2m/s | 0°C | 0% | 0hPa | 0V | 00:00:00 | 00:00:00 | 00:00:00 | |
| EA3GEO | 2026-09-06 00:55:36 | 41.44098 | 2.19623 | 99° | 20km/h | 5813m | -12.5m/s | 0°C | 0% | 0hPa | 0V | 00:00:00 | 00:00:00 | 00:00:00 | |
| EA3GEO | 2026-09-06 00:55:30 | 41.44101 | 2.19584 | 113° | 20km/h | 5889m | -10.5m/s | 0°C | 0% | 0hPa | 0V | 00:00:00 | 00:00:00 | 00:00:00 | |
| EA3GEO | 2026-09-06 00:55:18 | 41.44119 | 2.19517 | 125° | 18km/h | 6040m | -12.3m/s | 0°C | 0% | 0hPa | 0V | 00:00:00 | 00:00:00 | 00:00:00 | |
| EA3GEO | 2026-09-06 00:55:12 | 41.44126 | 2.19483 | 104° | 18km/h | 6115m | -12.2m/s | 0°C | 0% | 0hPa | 0V | 00:00:00 | 00:00:00 | 00:00:00 | |
| EA3GEO | 2026-09-06 00:55:06 | 41.44134 | 2.19451 | 110° | 16km/h | 6193m | -12.4m/s | 0°C | 0% | 0hPa | 0V | 00:00:00 | 00:00:00 | 00:00:00 | |
| EA3IBE | 2026-09-06 00:55:05 | 41.44136 | 2.19446 | 121° | 15km/h | 6207m | -12.9m/s | 0°C | 0% | 0hPa | 0V | 00:00:00 | 00:00:00 | 00:00:00 | |
| EA3GEO | 2026-09-06 00:55:01 | 41.44140 | 2.19429 | 108° | 11km/h | 6258m | -11.9m/s | 0°C | 0% | 0hPa | 0V | 00:00:00 | 00:00:00 | 00:00:00 | |
| EA3IBE | 2026-09-06 00:54:59 | 41.44142 | 2.19420 | 121° | 16km/h | 6283m | -11.0m/s | 0°C | 0% | 0hPa | 0V | 00:00:00 | 00:00:00 | 00:00:00 | |
| EA3GEO | 2026-09-06 00:54:56 | 41.44147 | 2.19406 | 99° | 13km/h | 6319m | -10.7m/s | 0°C | 0% | 0hPa | 0V | 00:00:00 | 00:00:00 | 00:00:00 | |
| EA3GEO | 2026-09-06 00:54:50 | 41.44155 | 2.19378 | 105° | 16km/h | 6394m | -12.3m/s | 0°C | 0% | 0hPa | 0V | 00:00:00 | 00:00:00 | 00:00:00 | |
| EA3GEO | 2026-09-06 00:54:44 | 41.44163 | 2.19346 | 107° | 20km/h | 6467m | -11.3m/s | 0°C | 0% | 0hPa | 0V | 00:00:00 | 00:00:00 | 00:00:00 | |
| EA3GEO | 2026-09-06 00:54:38 | 41.44165 | 2.19309 | 79° | 18km/h | 6540m | -11.1m/s | 0°C | 0% | 0hPa | 0V | 00:00:00 | 00:00:00 | 00:00:00 | |
| EA3IBE | 2026-09-06 00:54:36 | 41.44163 | 2.19296 | 73° | 18km/h | 6563m | -11.3m/s | 0°C | 0% | 0hPa | 0V | 00:00:00 | 00:00:00 | 00:00:00 | |
| EA3GEO | 2026-09-06 00:54:32 | 41.44158 | 2.19268 | 87° | 18km/h | 6614m | -11.5m/s | 0°C | 0% | 0hPa | 0V | 00:00:00 | 00:00:00 | 00:00:00 | |
| EA3IBE | 2026-09-06 00:54:27 | 41.44155 | 2.19234 | 87° | 20km/h | 6669m | -12.2m/s | 0°C | 0% | 0hPa | 0V | 00:00:00 | 00:00:00 | 00:00:00 | |
| EA3GEO | 2026-09-06 00:54:22 | 41.44151 | 2.19198 | 96° | 18km/h | 6733m | -13.5m/s | 0°C | 0% | 0hPa | 0V | 00:00:00 | 00:00:00 | 00:00:00 | |
| EA3GEO | 2026-09-06 00:54:16 | 41.44151 | 2.19156 | 81° | 24km/h | 6809m | -12.8m/s | 0°C | 0% | 0hPa | 0V | 00:00:00 | 00:00:00 | 00:00:00 | |
| EA3GEO | 2026-09-06 00:54:10 | 41.44152 | 2.19117 | 99° | 18km/h | 6886m | -10.8m/s | 0°C | 0% | 0hPa | 0V | 00:00:00 | 00:00:00 | 00:00:00 | |
| EA3IBE | 2026-09-06 00:54:07 | 41.44155 | 2.19099 | 116° | 20km/h | 6924m | -12.3m/s | 0°C | 0% | 0hPa | 0V | 00:00:00 | 00:00:00 | 00:00:00 | |
| EA3GEO | 2026-09-06 00:54:05 | 41.44158 | 2.19088 | 111° | 18km/h | 6948m | -11.4m/s | 0°C | 0% | 0hPa | 0V | 00:00:00 | 00:00:00 | 00:00:00 | |
| EA3GEO | 2026-09-06 00:53:59 | 41.44169 | 2.19051 | 124° | 22km/h | 7026m | -13.7m/s | 0°C | 0% | 0hPa | 0V | 00:00:00 | 00:00:00 | 00:00:00 | |
| EA3IBE | 2026-09-06 00:53:55 | 41.44176 | 2.19027 | 118° | 18km/h | 7077m | -13.4m/s | 0°C | 0% | 0hPa | 0V | 00:00:00 | 00:00:00 | 00:00:00 | |
| EA3GEO | 2026-09-06 00:53:53 | 41.44179 | 2.19015 | 115° | 20km/h | 7104m | -12.0m/s | 0°C | 0% | 0hPa | 0V | 00:00:00 | 00:00:00 | 00:00:00 | |
| EA3IBE | 2026-09-06 00:53:49 | 41.44186 | 2.18994 | 122° | 16km/h | 7156m | -12.9m/s | 0°C | 0% | 0hPa | 0V | 00:00:00 | 00:00:00 | 00:00:00 | |
| EA3GEO | 2026-09-06 00:53:48 | 41.44187 | 2.18989 | 100° | 18km/h | 7169m | -12.7m/s | 0°C | 0% | 0hPa | 0V | 00:00:00 | 00:00:00 | 00:00:00 | |
| EA3GEO | 2026-09-06 00:53:42 | 41.44191 | 2.18962 | 111° | 13km/h | 7244m | -12.3m/s | 0°C | 0% | 0hPa | 0V | 00:00:00 | 00:00:00 | 00:00:00 | |
| EA3IBE | 2026-09-06 00:53:38 | 41.44193 | 2.18944 | 92° | 13km/h | 7294m | -12.4m/s | 0°C | 0% | 0hPa | 0V | 00:00:00 | 00:00:00 | 00:00:00 | |
| EA3GEO | 2026-09-06 00:53:36 | 41.44192 | 2.18935 | 90° | 13km/h | 7321m | -12.8m/s | 0°C | 0% | 0hPa | 0V | 00:00:00 | 00:00:00 | 00:00:00 | |
| EA3IBE | 2026-09-06 00:53:33 | 41.44191 | 2.18920 | 74° | 15km/h | 7361m | -11.1m/s | 0°C | 0% | 0hPa | 0V | 00:00:00 | 00:00:00 | 00:00:00 | |
| EA3GEO | 2026-09-06 00:53:30 | 41.44190 | 2.18906 | 74° | 16km/h | 7398m | -11.3m/s | 0°C | 0% | 0hPa | 0V | 00:00:00 | 00:00:00 | 00:00:00 | |
| EA3GEO | 2026-09-06 00:53:25 | 41.44188 | 2.18880 | 88° | 18km/h | 7463m | -12.0m/s | 0°C | 0% | 0hPa | 0V | 00:00:00 | 00:00:00 | 00:00:00 | |
| EA3IBE | 2026-09-06 00:53:19 | 41.44184 | 2.18847 | 87° | 16km/h | 7535m | -11.2m/s | 0°C | 0% | 0hPa | 0V | 00:00:00 | 00:00:00 | 00:00:00 | |
| EA3GEO | 2026-09-06 00:53:14 | 41.44181 | 2.18818 | 98° | 16km/h | 7597m | -12.4m/s | 0°C | 0% | 0hPa | 0V | 00:00:00 | 00:00:00 | 00:00:00 | |
| EA3IBE | 2026-09-06 00:53:12 | 41.44180 | 2.18808 | 87° | 16km/h | 7623m | -11.9m/s | 0°C | 0% | 0hPa | 0V | 00:00:00 | 00:00:00 | 00:00:00 | |
| EA3GEO | 2026-09-06 00:53:08 | 41.44177 | 2.18788 | 87° | 11km/h | 7673m | -12.1m/s | 0°C | 0% | 0hPa | 0V | 00:00:00 | 00:00:00 | 00:00:00 | |
| EA3GEO | 2026-09-06 00:53:03 | 41.44173 | 2.18766 | 76° | 9km/h | 7737m | -10.1m/s | 0°C | 0% | 0hPa | 0V | 00:00:00 | 00:00:00 | 00:00:00 | |
| EA3IBE | 2026-09-06 00:53:00 | 41.44171 | 2.18754 | 80° | 16km/h | 7771m | -11.9m/s | 0°C | 0% | 0hPa | 0V | 00:00:00 | 00:00:00 | 00:00:00 | |
| EA3GEO | 2026-09-06 00:52:58 | 41.44169 | 2.18746 | 70° | 11km/h | 7794m | -10.4m/s | 0°C | 0% | 0hPa | 0V | 00:00:00 | 00:00:00 | 00:00:00 | |
| EA3IBE | 2026-09-06 00:52:54 | 41.44165 | 2.18731 | 71° | 13km/h | 7840m | -12.0m/s | 0°C | 0% | 0hPa | 0V | 00:00:00 | 00:00:00 | 00:00:00 | |
| EA3GEO | 2026-09-06 00:52:52 | 41.44164 | 2.18722 | 81° | 15km/h | 7864m | -11.0m/s | 0°C | 0% | 0hPa | 0V | 00:00:00 | 00:00:00 | 00:00:00 | |
| EA3IBE | 2026-09-06 00:52:47 | 41.44159 | 2.18701 | 79° | 13km/h | 7922m | -9.7m/s | 0°C | 0% | 0hPa | 0V | 00:00:00 | 00:00:00 | 00:00:00 | |
| EA3GEO | 2026-09-06 00:52:41 | 41.44152 | 2.18676 | 57° | 16km/h | 7992m | -12.1m/s | 0°C | 0% | 0hPa | 0V | 00:00:00 | 00:00:00 | 00:00:00 | |
| EA3IBE | 2026-09-06 00:52:39 | 41.44148 | 2.18669 | 58° | 13km/h | 8016m | -10.9m/s | 0°C | 0% | 0hPa | 0V | 00:00:00 | 00:00:00 | 00:00:00 | |
| EA3GEO | 2026-09-06 00:52:35 | 41.44141 | 2.18654 | 61° | 15km/h | 8062m | -11.8m/s | 0°C | 0% | 0hPa | 0V | 00:00:00 | 00:00:00 | 00:00:00 | |
| EA3IBE | 2026-09-06 00:52:31 | 41.44132 | 2.18639 | 55° | 15km/h | 8105m | -10.6m/s | 0°C | 0% | 0hPa | 0V | 00:00:00 | 00:00:00 | 00:00:00 | |
| EA3GEO | 2026-09-06 00:52:29 | 41.44128 | 2.18633 | 48° | 13km/h | 8125m | -8.4m/s | 0°C | 0% | 0hPa | 0V | 00:00:00 | 00:00:00 | 00:00:00 | |
| EA3GEO | 2026-09-06 00:52:25 | 41.44117 | 2.18615 | 49° | 13km/h | 8174m | -11.1m/s | 0°C | 0% | 0hPa | 0V | 00:00:00 | 00:00:00 | 00:00:00 | |
| EA3IBE | 2026-09-06 00:52:18 | 41.44103 | 2.18595 | 41° | 11km/h | 8250m | -12.7m/s | 0°C | 0% | 0hPa | 0V | 00:00:00 | 00:00:00 | 00:00:00 | |
| EA3GEO | 2026-09-06 00:52:12 | 41.44087 | 2.18577 | 36° | 15km/h | 8329m | -13.5m/s | 0°C | 0% | 0hPa | 0V | 00:00:00 | 00:00:00 | 00:00:00 | |
| EA3IBE | 2026-09-06 00:52:11 | 41.44084 | 2.18574 | 30° | 13km/h | 8343m | -12.6m/s | 0°C | 0% | 0hPa | 0V | 00:00:00 | 00:00:00 | 00:00:00 | |
| EA3GEO | 2026-09-06 00:52:06 | 41.44070 | 2.18562 | 36° | 15km/h | 8405m | -12.8m/s | 0°C | 0% | 0hPa | 0V | 00:00:00 | 00:00:00 | 00:00:00 | |
| EA3IBE | 2026-09-06 00:52:05 | 41.44067 | 2.18560 | 31° | 9km/h | 8417m | -11.5m/s | 0°C | 0% | 0hPa | 0V | 00:00:00 | 00:00:00 | 00:00:00 | |
| EA3GEO | 2026-09-06 00:52:01 | 41.44054 | 2.18551 | 31° | 15km/h | 8466m | -12.5m/s | 0°C | 0% | 0hPa | 0V | 00:00:00 | 00:00:00 | 00:00:00 | |
| EA3IBE | 2026-09-06 00:51:59 | 41.44049 | 2.18546 | 24° | 13km/h | 8491m | -12.0m/s | 0°C | 0% | 0hPa | 0V | 00:00:00 | 00:00:00 | 00:00:00 | |
| EA3GEO | 2026-09-06 00:51:55 | 41.44035 | 2.18536 | 34° | 15km/h | 8540m | -12.5m/s | 0°C | 0% | 0hPa | 0V | 00:00:00 | 00:00:00 | 00:00:00 | |
| EA3IBE | 2026-09-06 00:51:52 | 41.44024 | 2.18527 | 38° | 16km/h | 8579m | -12.7m/s | 0°C | 0% | 0hPa | 0V | 00:00:00 | 00:00:00 | 00:00:00 | |
| EA3GEO | 2026-09-06 00:51:49 | 41.44016 | 2.18515 | 43° | 15km/h | 8619m | -12.2m/s | 0°C | 0% | 0hPa | 0V | 00:00:00 | 00:00:00 | 00:00:00 | |
| EA3IBE | 2026-09-06 00:51:45 | 41.44004 | 2.18501 | 46° | 15km/h | 8668m | -11.2m/s | 0°C | 0% | 0hPa | 0V | 00:00:00 | 00:00:00 | 00:00:00 | |
| EA3GEO | 2026-09-06 00:51:43 | 41.43999 | 2.18494 | 49° | 16km/h | 8694m | -12.1m/s | 0°C | 0% | 0hPa | 0V | 00:00:00 | 00:00:00 | 00:00:00 | |
| EA3IBE | 2026-09-06 00:51:39 | 41.43986 | 2.18479 | 41° | 15km/h | 8743m | -12.7m/s | 0°C | 0% | 0hPa | 0V | 00:00:00 | 00:00:00 | 00:00:00 | |
| EA3GEO | 2026-09-06 00:51:37 | 41.43980 | 2.18472 | 35° | 16km/h | 8768m | -10.0m/s | 0°C | 0% | 0hPa | 0V | 00:00:00 | 00:00:00 | 00:00:00 | |
| EA3IBE | 2026-09-06 00:51:31 | 41.43960 | 2.18452 | 33° | 13km/h | 8841m | -12.6m/s | 0°C | 0% | 0hPa | 0V | 00:00:00 | 00:00:00 | 00:00:00 | |
| EA3GEO | 2026-09-06 00:51:25 | 41.43941 | 2.18435 | 41° | 9km/h | 8915m | -12.3m/s | 0°C | 0% | 0hPa | 0V | 00:00:00 | 00:00:00 | 00:00:00 | |
| EA3IBE | 2026-09-06 00:51:23 | 41.43936 | 2.18431 | 34° | 11km/h | 8941m | -12.0m/s | 0°C | 0% | 0hPa | 0V | 00:00:00 | 00:00:00 | 00:00:00 | |
| EA3GEO | 2026-09-06 00:51:19 | 41.43924 | 2.18423 | 19° | 16km/h | 8989m | -10.8m/s | 0°C | 0% | 0hPa | 0V | 00:00:00 | 00:00:00 | 00:00:00 | |
| EA3GEO | 2026-09-06 00:51:14 | 41.43908 | 2.18416 | 355° | 13km/h | 9044m | -12.6m/s | 0°C | 0% | 0hPa | 0V | 00:00:00 | 00:00:00 | 00:00:00 | |
| EA3IBE | 2026-09-06 00:51:13 | 41.43904 | 2.18416 | 1° | 15km/h | 9058m | -12.4m/s | 0°C | 0% | 0hPa | 0V | 00:00:00 | 00:00:00 | 00:00:00 | |
| EA3GEO | 2026-09-06 00:51:08 | 41.43889 | 2.18415 | 8° | 13km/h | 9118m | -12.6m/s | 0°C | 0% | 0hPa | 0V | 00:00:00 | 00:00:00 | 00:00:00 | |
| EA3IBE | 2026-09-06 00:51:05 | 41.43880 | 2.18414 | 355° | 11km/h | 9155m | -10.4m/s | 0°C | 0% | 0hPa | 0V | 00:00:00 | 00:00:00 | 00:00:00 | |
| EA3GEO | 2026-09-06 00:51:02 | 41.43873 | 2.18418 | 336° | 7km/h | 9187m | -9.8m/s | 0°C | 0% | 0hPa | 0V | 00:00:00 | 00:00:00 | 00:00:00 | |
| EA3IBE | 2026-09-06 00:50:55 | 41.43859 | 2.18430 | 317° | 11km/h | 9270m | -12.1m/s | 0°C | 0% | 0hPa | 0V | 00:00:00 | 00:00:00 | 00:00:00 | |
| EA3IBE | 2026-09-06 00:50:50 | 41.43849 | 2.18442 | 294° | 11km/h | 9335m | -12.6m/s | 0°C | 0% | 0hPa | 0V | 00:00:00 | 00:00:00 | 00:00:00 | |
| EA3GEO | 2026-09-06 00:50:43 | 41.43839 | 2.18466 | 308° | 15km/h | 9432m | -12.5m/s | 0°C | 0% | 0hPa | 0V | 00:00:00 | 00:00:00 | 00:00:00 | |
| EA3IBE | 2026-09-06 00:50:42 | 41.43838 | 2.18470 | 286° | 11km/h | 9445m | -12.1m/s | 0°C | 0% | 0hPa | 0V | 00:00:00 | 00:00:00 | 00:00:00 | |
| EA3GEO | 2026-09-06 00:50:37 | 41.43834 | 2.18490 | 281° | 15km/h | 9510m | -11.7m/s | 0°C | 0% | 0hPa | 0V | 00:00:00 | 00:00:00 | 00:00:00 | |
| EA3IBE | 2026-09-06 00:50:36 | 41.43834 | 2.18495 | 272° | 15km/h | 9522m | -10.1m/s | 0°C | 0% | 0hPa | 0V | 00:00:00 | 00:00:00 | 00:00:00 | |
| EA3IBE | 2026-09-06 00:50:31 | 41.43828 | 2.18517 | 285° | 15km/h | 9584m | -10.2m/s | 0°C | 0% | 0hPa | 0V | 00:00:00 | 00:00:00 | 00:00:00 | |
| EA3GEO | 2026-09-06 00:50:25 | 41.43821 | 2.18543 | 291° | 15km/h | 9662m | -12.8m/s | 0°C | 0% | 0hPa | 0V | 00:00:00 | 00:00:00 | 00:00:00 | |
| EA3IBE | 2026-09-06 00:50:21 | 41.43819 | 2.18561 | 280° | 16km/h | 9715m | -13.7m/s | 0°C | 0% | 0hPa | 0V | 00:00:00 | 00:00:00 | 00:00:00 | |
| EA3GEO | 2026-09-06 00:50:19 | 41.43819 | 2.18570 | 278° | 15km/h | 9738m | -9.1m/s | 0°C | 0% | 0hPa | 0V | 00:00:00 | 00:00:00 | 00:00:00 | |
| EA3IBE | 2026-09-06 00:50:16 | 41.43816 | 2.18581 | 269° | 11km/h | 9772m | -10.9m/s | 0°C | 0% | 0hPa | 0V | 00:00:00 | 00:00:00 | 00:00:00 | |
| EA3GEO | 2026-09-06 00:50:13 | 41.43813 | 2.18592 | 289° | 11km/h | 9809m | -12.0m/s | 0°C | 0% | 0hPa | 0V | 00:00:00 | 00:00:00 | 00:00:00 | |
| EA3IBE | 2026-09-06 00:50:09 | 41.43809 | 2.18605 | 295° | 11km/h | 9863m | -11.8m/s | 0°C | 0% | 0hPa | 0V | 00:00:00 | 00:00:00 | 00:00:00 | |
| EA3GEO | 2026-09-06 00:50:08 | 41.43808 | 2.18608 | 276° | 9km/h | 9876m | -11.4m/s | 0°C | 0% | 0hPa | 0V | 00:00:00 | 00:00:00 | 00:00:00 | |
| EA3GEO | 2026-09-06 00:50:03 | 41.43800 | 2.18622 | 319° | 7km/h | 9940m | -11.1m/s | 0°C | 0% | 0hPa | 0V | 00:00:00 | 00:00:00 | 00:00:00 | |
| EA3IBE | 2026-09-06 00:50:01 | 41.43797 | 2.18627 | 326° | 11km/h | 9967m | -11.9m/s | 0°C | 0% | 0hPa | 0V | 00:00:00 | 00:00:00 | 00:00:00 | |
| EA3GEO | 2026-09-06 00:49:57 | 41.43788 | 2.18639 | 321° | 15km/h | 10018m | -12.6m/s | 0°C | 0% | 0hPa | 0V | 00:00:00 | 00:00:00 | 00:00:00 | |
| EA3IBE | 2026-09-06 00:49:56 | 41.43785 | 2.18643 | 290° | 13km/h | 10032m | -11.2m/s | 0°C | 0% | 0hPa | 0V | 00:00:00 | 00:00:00 | 00:00:00 | |
| EA3IBE | 2026-09-06 00:49:50 | 41.43773 | 2.18661 | 326° | 9km/h | 10104m | -12.2m/s | 0°C | 0% | 0hPa | 0V | 00:00:00 | 00:00:00 | 00:00:00 | |
| EA3IBE | 2026-09-06 00:49:44 | 41.43759 | 2.18682 | 301° | 16km/h | 10176m | -12.9m/s | 0°C | 0% | 0hPa | 0V | 00:00:00 | 00:00:00 | 00:00:00 | |
| EA3GEO | 2026-09-06 00:49:37 | 41.43746 | 2.18712 | 306° | 16km/h | 10257m | -9.3m/s | 0°C | 0% | 0hPa | 0V | 00:00:00 | 00:00:00 | 00:00:00 | |
| EA3IBE | 2026-09-06 00:49:36 | 41.43744 | 2.18717 | 307° | 15km/h | 10268m | -10.8m/s | 0°C | 0% | 0hPa | 0V | 00:00:00 | 00:00:00 | 00:00:00 | |
| EA3GEO | 2026-09-06 00:49:31 | 41.43735 | 2.18735 | 300° | 15km/h | 10329m | -12.0m/s | 0°C | 0% | 0hPa | 0V | 00:00:00 | 00:00:00 | 00:00:00 | |
| EA3IBE | 2026-09-06 00:49:30 | 41.43733 | 2.18739 | 320° | 16km/h | 10341m | -8.7m/s | 0°C | 0% | 0hPa | 0V | 00:00:00 | 00:00:00 | 00:00:00 | |
| EA3GEO | 2026-09-06 00:49:25 | 41.43723 | 2.18758 | 300° | 13km/h | 10397m | -12.4m/s | 0°C | 0% | 0hPa | 0V | 00:00:00 | 00:00:00 | 00:00:00 | |
| EA3IBE | 2026-09-06 00:49:24 | 41.43722 | 2.18763 | 279° | 13km/h | 10410m | -11.6m/s | 0°C | 0% | 0hPa | 0V | 00:00:00 | 00:00:00 | 00:00:00 | |
| EA3GEO | 2026-09-06 00:49:19 | 41.43715 | 2.18780 | 284° | 9km/h | 10473m | -12.8m/s | 0°C | 0% | 0hPa | 0V | 00:00:00 | 00:00:00 | 00:00:00 | |
| EA3IBE | 2026-09-06 00:49:17 | 41.43712 | 2.18786 | 301° | 5km/h | 10500m | -11.3m/s | 0°C | 0% | 0hPa | 0V | 00:00:00 | 00:00:00 | 00:00:00 | |
| EA3GEO | 2026-09-06 00:49:14 | 41.43710 | 2.18792 | 254° | 7km/h | 10538m | -15.4m/s | 0°C | 0% | 0hPa | 0V | 00:00:00 | 00:00:00 | 00:00:00 | |
| EA3IBE | 2026-09-06 00:49:10 | 41.43708 | 2.18800 | 281° | 5km/h | 10599m | -13.2m/s | 0°C | 0% | 0hPa | 0V | 00:00:00 | 00:00:00 | 00:00:00 | |
| EA3GEO | 2026-09-06 00:49:08 | 41.43707 | 2.18804 | 302° | 9km/h | 10629m | -14.7m/s | 0°C | 0% | 0hPa | 0V | 00:00:00 | 00:00:00 | 00:00:00 | |
| EA3IBE | 2026-09-06 00:49:04 | 41.43704 | 2.18813 | 291° | 7km/h | 10688m | -15.1m/s | 0°C | 0% | 0hPa | 0V | 00:00:00 | 00:00:00 | 00:00:00 | |
| EA3GEO | 2026-09-06 00:49:03 | 41.43703 | 2.18816 | 320° | 9km/h | 10704m | -12.7m/s | 0°C | 0% | 0hPa | 0V | 00:00:00 | 00:00:00 | 00:00:00 | |
| EA3IBE | 2026-09-06 00:48:57 | 41.43693 | 2.18825 | 346° | 11km/h | 10789m | -10.4m/s | 0°C | 0% | 0hPa | 0V | 00:00:00 | 00:00:00 | 00:00:00 | |
| EA3IBE | 2026-09-06 00:48:52 | 41.43677 | 2.18828 | 359° | 15km/h | 10856m | -12.6m/s | 0°C | 0% | 0hPa | 0V | 00:00:00 | 00:00:00 | 00:00:00 | |
| EA3GEO | 2026-09-06 00:48:46 | 41.43654 | 2.18832 | 3° | 16km/h | 10943m | -13.5m/s | 0°C | 0% | 0hPa | 0V | 00:00:00 | 00:00:00 | 00:00:00 | |
| EA3IBE | 2026-09-06 00:48:44 | 41.43642 | 2.18831 | 7° | 13km/h | 10989m | -12.7m/s | 0°C | 0% | 0hPa | 0V | 00:00:00 | 00:00:00 | 00:00:00 | |
| EA3GEO | 2026-09-06 00:48:41 | 41.43636 | 2.18831 | 352° | 16km/h | 11016m | -13.9m/s | 0°C | 0% | 0hPa | 0V | 00:00:00 | 00:00:00 | 00:00:00 | |
| EA3GEO | 2026-09-06 00:48:35 | 41.43611 | 2.18833 | 1° | 22km/h | 11101m | -13.5m/s | 0°C | 0% | 0hPa | 0V | 00:00:00 | 00:00:00 | 00:00:00 | |
| EA3IBE | 2026-09-06 00:48:34 | 41.43606 | 2.18833 | 2° | 20km/h | 11115m | -13.0m/s | 0°C | 0% | 0hPa | 0V | 00:00:00 | 00:00:00 | 00:00:00 | |
| EA3GEO | 2026-09-06 00:48:28 | 41.43578 | 2.18827 | 7° | 22km/h | 11199m | -15.1m/s | 0°C | 0% | 0hPa | 0V | 00:00:00 | 00:00:00 | 00:00:00 | |
| EA3GEO | 2026-09-06 00:48:23 | 41.43552 | 2.18823 | 9° | 24km/h | 11273m | -14.1m/s | 0°C | 0% | 0hPa | 0V | 00:00:00 | 00:00:00 | 00:00:00 | |
| EA3IBE | 2026-09-06 00:48:17 | 41.43518 | 2.18814 | 5° | 24km/h | 11361m | -15.6m/s | 0°C | 0% | 0hPa | 0V | 00:00:00 | 00:00:00 | 00:00:00 | |
| EA3IBE | 2026-09-06 00:48:12 | 41.43486 | 2.18808 | 360° | 33km/h | 11438m | -15.2m/s | 0°C | 0% | 0hPa | 0V | 00:00:00 | 00:00:00 | 00:00:00 | |
| EA3GEO | 2026-09-06 00:48:05 | 41.43438 | 2.18802 | 6° | 31km/h | 11547m | -14.6m/s | 0°C | 0% | 0hPa | 0V | 00:00:00 | 00:00:00 | 00:00:00 | |
| EA3IBE | 2026-09-06 00:48:03 | 41.43423 | 2.18800 | 359° | 31km/h | 11578m | -13.8m/s | 0°C | 0% | 0hPa | 0V | 00:00:00 | 00:00:00 | 00:00:00 | |
| EA3GEO | 2026-09-06 00:47:59 | 41.43393 | 2.18799 | 358° | 33km/h | 11640m | -13.0m/s | 0°C | 0% | 0hPa | 0V | 00:00:00 | 00:00:00 | 00:00:00 | |
| EA3IBE | 2026-09-06 00:47:57 | 41.43378 | 2.18799 | 1° | 29km/h | 11670m | -14.5m/s | 0°C | 0% | 0hPa | 0V | 00:00:00 | 00:00:00 | 00:00:00 | |
| EA3GEO | 2026-09-06 00:47:54 | 41.43356 | 2.18796 | 3° | 29km/h | 11719m | -15.4m/s | 0°C | 0% | 0hPa | 0V | 00:00:00 | 00:00:00 | 00:00:00 | |
| EA3IBE | 2026-09-06 00:47:50 | 41.43327 | 2.18793 | 360° | 27km/h | 11781m | -14.2m/s | 0°C | 0% | 0hPa | 0V | 00:00:00 | 00:00:00 | 00:00:00 | |
| EA3GEO | 2026-09-06 00:47:47 | 41.43306 | 2.18792 | 6° | 26km/h | 11829m | -15.9m/s | 0°C | 0% | 0hPa | 0V | 00:00:00 | 00:00:00 | 00:00:00 | |
| EA3IBE | 2026-09-06 00:47:44 | 41.43286 | 2.18791 | 361° | 24km/h | 11873m | -16.3m/s | 0°C | 0% | 0hPa | 0V | 00:00:00 | 00:00:00 | 00:00:00 | |
| EA3GEO | 2026-09-06 00:47:41 | 41.43268 | 2.18789 | 5° | 27km/h | 11922m | -14.0m/s | 0°C | 0% | 0hPa | 0V | 00:00:00 | 00:00:00 | 00:00:00 | |
| EA3IBE | 2026-09-06 00:47:37 | 41.43240 | 2.18787 | 5° | 27km/h | 11987m | -16.0m/s | 0°C | 0% | 0hPa | 0V | 00:00:00 | 00:00:00 | 00:00:00 | |
| EA3GEO | 2026-09-06 00:47:32 | 41.43204 | 2.18786 | 4° | 27km/h | 12067m | -15.0m/s | 0°C | 0% | 0hPa | 0V | 00:00:00 | 00:00:00 | 00:00:00 | |
| EA3IBE | 2026-09-06 00:47:31 | 41.43197 | 2.18786 | 359° | 26km/h | 12083m | -15.8m/s | 0°C | 0% | 0hPa | 0V | 00:00:00 | 00:00:00 | 00:00:00 | |
| EA3GEO | 2026-09-06 00:47:26 | 41.43162 | 2.18787 | 10° | 29km/h | 12169m | -17.3m/s | 0°C | 0% | 0hPa | 0V | 00:00:00 | 00:00:00 | 00:00:00 | |
| EA3IBE | 2026-09-06 00:47:25 | 41.43155 | 2.18786 | 2° | 29km/h | 12187m | -15.2m/s | 0°C | 0% | 0hPa | 0V | 00:00:00 | 00:00:00 | 00:00:00 | |
| EA3GEO | 2026-09-06 00:47:21 | 41.43129 | 2.18781 | 9° | 31km/h | 12249m | -16.0m/s | 0°C | 0% | 0hPa | 0V | 00:00:00 | 00:00:00 | 00:00:00 | |
| EA3IBE | 2026-09-06 00:47:20 | 41.43121 | 2.18781 | 1° | 31km/h | 12266m | -15.4m/s | 0°C | 0% | 0hPa | 0V | 00:00:00 | 00:00:00 | 00:00:00 | |
| EA3IBE | 2026-09-06 00:47:15 | 41.43082 | 2.18776 | 4° | 31km/h | 12349m | -17.0m/s | 0°C | 0% | 0hPa | 0V | 00:00:00 | 00:00:00 | 00:00:00 | |
| EA3GEO | 2026-09-06 00:47:10 | 41.43045 | 2.18772 | 5° | 31km/h | 12432m | -15.9m/s | 0°C | 0% | 0hPa | 0V | 00:00:00 | 00:00:00 | 00:00:00 | |
| EA3IBE | 2026-09-06 00:47:09 | 41.43037 | 2.18772 | 2° | 29km/h | 12449m | -16.4m/s | 0°C | 0% | 0hPa | 0V | 00:00:00 | 00:00:00 | 00:00:00 | |
| EA3GEO | 2026-09-06 00:47:04 | 41.42997 | 2.18772 | 360° | 33km/h | 12537m | -16.0m/s | 0°C | 0% | 0hPa | 0V | 00:00:00 | 00:00:00 | 00:00:00 | |
| EA3IBE | 2026-09-06 00:47:03 | 41.42988 | 2.18773 | 356° | 38km/h | 12554m | -16.1m/s | 0°C | 0% | 0hPa | 0V | 00:00:00 | 00:00:00 | 00:00:00 | |
| EA3GEO | 2026-09-06 00:46:58 | 41.42946 | 2.18773 | 360° | 35km/h | 12640m | -15.7m/s | 0°C | 0% | 0hPa | 0V | 00:00:00 | 00:00:00 | 00:00:00 | |
| EA3IBE | 2026-09-06 00:46:57 | 41.42937 | 2.18773 | 357° | 33km/h | 12657m | -14.9m/s | 0°C | 0% | 0hPa | 0V | 00:00:00 | 00:00:00 | 00:00:00 | |
| EA3GEO | 2026-09-06 00:46:47 | 41.42865 | 2.18765 | 6° | 27km/h | 12820m | -16.5m/s | 0°C | 0% | 0hPa | 0V | 00:00:00 | 00:00:00 | 00:00:00 | |
| EA3IBE | 2026-09-06 00:46:46 | 41.42858 | 2.18763 | 12° | 27km/h | 12837m | -15.6m/s | 0°C | 0% | 0hPa | 0V | 00:00:00 | 00:00:00 | 00:00:00 | |
| EA3IBE | 2026-09-06 00:46:41 | 41.42826 | 2.18751 | 18° | 20km/h | 12921m | -17.3m/s | 0°C | 0% | 0hPa | 0V | 00:00:00 | 00:00:00 | 00:00:00 | |
| EA3GEO | 2026-09-06 00:46:39 | 41.42815 | 2.18746 | 21° | 26km/h | 12956m | -17.8m/s | 0°C | 0% | 0hPa | 0V | 00:00:00 | 00:00:00 | 00:00:00 | |
| EA3IBE | 2026-09-06 00:46:35 | 41.42794 | 2.18736 | 25° | 20km/h | 13029m | -16.9m/s | 0°C | 0% | 0hPa | 0V | 00:00:00 | 00:00:00 | 00:00:00 | |
| EA3GEO | 2026-09-06 00:46:33 | 41.42786 | 2.18731 | 17° | 20km/h | 13067m | -17.7m/s | 0°C | 0% | 0hPa | 0V | 00:00:00 | 00:00:00 | 00:00:00 | |
| EA3IBE | 2026-09-06 00:46:30 | 41.42775 | 2.18724 | 21° | 15km/h | 13121m | -18.0m/s | 0°C | 0% | 0hPa | 0V | 00:00:00 | 00:00:00 | 00:00:00 | |
| EA3GEO | 2026-09-06 00:46:28 | 41.42769 | 2.18720 | 19° | 15km/h | 13157m | -16.6m/s | 0°C | 0% | 0hPa | 0V | 00:00:00 | 00:00:00 | 00:00:00 | |
| EA3IBE | 2026-09-06 00:46:23 | 41.42754 | 2.18712 | 21° | 13km/h | 13244m | -16.4m/s | 0°C | 0% | 0hPa | 0V | 00:00:00 | 00:00:00 | 00:00:00 | |
| EA3GEO | 2026-09-06 00:46:22 | 41.42751 | 2.18710 | 16° | 11km/h | 13261m | -16.7m/s | 0°C | 0% | 0hPa | 0V | 00:00:00 | 00:00:00 | 00:00:00 | |
| EA3IBE | 2026-09-06 00:46:17 | 41.42739 | 2.18709 | 357° | 13km/h | 13356m | -17.8m/s | 0°C | 0% | 0hPa | 0V | 00:00:00 | 00:00:00 | 00:00:00 | |
| EA3GEO | 2026-09-06 00:46:16 | 41.42736 | 2.18708 | 16° | 15km/h | 13374m | -18.8m/s | 0°C | 0% | 0hPa | 0V | 00:00:00 | 00:00:00 | 00:00:00 | |
| EA3GEO | 2026-09-06 00:46:10 | 41.42719 | 2.18711 | 342° | 9km/h | 13491m | -17.2m/s | 0°C | 0% | 0hPa | 0V | 00:00:00 | 00:00:00 | 00:00:00 | |
| EA3GEO | 2026-09-06 00:46:04 | 41.42713 | 2.18714 | 359° | 5km/h | 13598m | -17.0m/s | 0°C | 0% | 0hPa | 0V | 00:00:00 | 00:00:00 | 00:00:00 | |
| EA3IBE | 2026-09-06 00:46:01 | 41.42708 | 2.18710 | 50° | 15km/h | 13651m | -16.6m/s | 0°C | 0% | 0hPa | 0V | 00:00:00 | 00:00:00 | 00:00:00 | |
| EA3GEO | 2026-09-06 00:45:57 | 41.42700 | 2.18689 | 66° | 24km/h | 13722m | -18.6m/s | 0°C | 0% | 0hPa | 0V | 00:00:00 | 00:00:00 | 00:00:00 | |
| EA3GEO | 2026-09-06 00:45:52 | 41.42688 | 2.18642 | 52° | 24km/h | 13832m | -17.8m/s | 0°C | 0% | 0hPa | 0V | 00:00:00 | 00:00:00 | 00:00:00 | |
| EA3IBE | 2026-09-06 00:45:46 | 41.42672 | 2.18610 | 54° | 24km/h | 13922m | -17.1m/s | 0°C | 0% | 0hPa | 0V | 00:00:00 | 00:00:00 | 00:00:00 | |
| EA3GEO | 2026-09-06 00:45:41 | 41.42655 | 2.18574 | 55° | 24km/h | 14012m | -18.5m/s | 0°C | 0% | 0hPa | 0V | 00:00:00 | 00:00:00 | 00:00:00 | |
| EA3IBE | 2026-09-06 00:45:40 | 41.42652 | 2.18567 | 59° | 26km/h | 14032m | -18.6m/s | 0°C | 0% | 0hPa | 0V | 00:00:00 | 00:00:00 | 00:00:00 | |
| EA3IBE | 2026-09-06 00:45:35 | 41.42631 | 2.18528 | 45° | 16km/h | 14147m | -18.8m/s | 0°C | 0% | 0hPa | 0V | 00:00:00 | 00:00:00 | 00:00:00 | |
| EA3GEO | 2026-09-06 00:45:24 | 41.42601 | 2.18480 | 41° | 18km/h | 14337m | -18.2m/s | 0°C | 0% | 0hPa | 0V | 00:00:00 | 00:00:00 | 00:00:00 | |
| EA3IBE | 2026-09-06 00:45:23 | 41.42598 | 2.18476 | 44° | 16km/h | 14355m | -18.0m/s | 0°C | 0% | 0hPa | 0V | 00:00:00 | 00:00:00 | 00:00:00 | |
| EA3GEO | 2026-09-06 00:45:17 | 41.42584 | 2.18455 | 31° | 9km/h | 14469m | -18.7m/s | 0°C | 0% | 0hPa | 0V | 00:00:00 | 00:00:00 | 00:00:00 | |
| EA3IBE | 2026-09-06 00:45:16 | 41.42583 | 2.18453 | 90° | 7km/h | 14488m | -18.5m/s | 0°C | 0% | 0hPa | 0V | 00:00:00 | 00:00:00 | 00:00:00 | |
| EA3IBE | 2026-09-06 00:45:11 | 41.42579 | 2.18439 | 41° | 5km/h | 14584m | -21.0m/s | 0°C | 0% | 0hPa | 0V | 00:00:00 | 00:00:00 | 00:00:00 | |
| EA3GEO | 2026-09-06 00:45:08 | 41.42577 | 2.18432 | 78° | 7km/h | 14646m | -19.0m/s | 0°C | 0% | 0hPa | 0V | 00:00:00 | 00:00:00 | 00:00:00 | |
| EA3IBE | 2026-09-06 00:45:04 | 41.42576 | 2.18424 | 73° | 5km/h | 14727m | -20.5m/s | 0°C | 0% | 0hPa | 0V | 00:00:00 | 00:00:00 | 00:00:00 | |
| EA3GEO | 2026-09-06 00:44:57 | 41.42568 | 2.18413 | 7° | 15km/h | 14872m | -20.1m/s | 0°C | 0% | 0hPa | 0V | 00:00:00 | 00:00:00 | 00:00:00 | |
| EA3IBE | 2026-09-06 00:44:55 | 41.42560 | 2.18412 | 12° | 15km/h | 14913m | -20.4m/s | 0°C | 0% | 0hPa | 0V | 00:00:00 | 00:00:00 | 00:00:00 | |
| EA3GEO | 2026-09-06 00:44:50 | 41.42538 | 2.18398 | 41° | 20km/h | 15013m | -18.1m/s | 0°C | 0% | 0hPa | 0V | 00:00:00 | 00:00:00 | 00:00:00 | |
| EA3GEO | 2026-09-06 00:44:39 | 41.42514 | 2.18349 | 67° | 15km/h | 15227m | -20.0m/s | 0°C | 0% | 0hPa | 0V | 00:00:00 | 00:00:00 | 00:00:00 | |
| EA3IBE | 2026-09-06 00:44:35 | 41.42509 | 2.18328 | 68° | 20km/h | 15309m | -17.2m/s | 0°C | 0% | 0hPa | 0V | 00:00:00 | 00:00:00 | 00:00:00 | |
| EA3GEO | 2026-09-06 00:44:32 | 41.42506 | 2.18308 | 82° | 22km/h | 15367m | -19.5m/s | 0°C | 0% | 0hPa | 0V | 00:00:00 | 00:00:00 | 00:00:00 | |
| EA3IBE | 2026-09-06 00:44:27 | 41.42503 | 2.18273 | 88° | 18km/h | 15477m | -21.4m/s | 0°C | 0% | 0hPa | 0V | 00:00:00 | 00:00:00 | 00:00:00 | |
| EA3GEO | 2026-09-06 00:44:24 | 41.42503 | 2.18253 | 87° | 20km/h | 15540m | -18.2m/s | 0°C | 0% | 0hPa | 0V | 00:00:00 | 00:00:00 | 00:00:00 | |
| EA3GEO | 2026-09-06 00:44:18 | 41.42501 | 2.18213 | 77° | 22km/h | 15659m | -19.9m/s | 0°C | 0% | 0hPa | 0V | 00:00:00 | 00:00:00 | 00:00:00 | |
| EA3IBE | 2026-09-06 00:44:17 | 41.42500 | 2.18206 | 80° | 20km/h | 15680m | -19.4m/s | 0°C | 0% | 0hPa | 0V | 00:00:00 | 00:00:00 | 00:00:00 | |
| EA3IBE | 2026-09-06 00:44:11 | 41.42494 | 2.18166 | 69° | 16km/h | 15798m | -20.5m/s | 0°C | 0% | 0hPa | 0V | 00:00:00 | 00:00:00 | 00:00:00 | |
| EA3GEO | 2026-09-06 00:44:08 | 41.42492 | 2.18150 | 65° | 18km/h | 15861m | -19.0m/s | 0°C | 0% | 0hPa | 0V | 00:00:00 | 00:00:00 | 00:00:00 | |
| EA3IBE | 2026-09-06 00:44:06 | 41.42487 | 2.18140 | 58° | 16km/h | 15901m | -18.0m/s | 0°C | 0% | 0hPa | 0V | 00:00:00 | 00:00:00 | 00:00:00 | |
| EA3IBE | 2026-09-06 00:44:01 | 41.42477 | 2.18108 | 74° | 20km/h | 16004m | -21.7m/s | 0°C | 0% | 0hPa | 0V | 00:00:00 | 00:00:00 | 00:00:00 | |
| EA3IBE | 2026-09-06 00:43:55 | 41.42473 | 2.18071 | 82° | 20km/h | 16135m | -22.9m/s | 0°C | 0% | 0hPa | 0V | 00:00:00 | 00:00:00 | 00:00:00 | |
| EA3IBE | 2026-09-06 00:43:48 | 41.42476 | 2.18035 | 95° | 16km/h | 16287m | -21.1m/s | 0°C | 0% | 0hPa | 0V | 00:00:00 | 00:00:00 | 00:00:00 | |
| EA3GEO | 2026-09-06 00:43:46 | 41.42477 | 2.18023 | 81° | 20km/h | 16330m | -20.5m/s | 0°C | 0% | 0hPa | 0V | 00:00:00 | 00:00:00 | 00:00:00 | |
| EA3GEO | 2026-09-06 00:43:41 | 41.42472 | 2.17991 | 61° | 22km/h | 16438m | -21.0m/s | 0°C | 0% | 0hPa | 0V | 00:00:00 | 00:00:00 | 00:00:00 | |
| EA3GEO | 2026-09-06 00:43:35 | 41.42472 | 2.17962 | 111° | 11km/h | 16570m | -19.8m/s | 0°C | 0% | 0hPa | 0V | 00:00:00 | 00:00:00 | 00:00:00 | |
| EA3IBE | 2026-09-06 00:43:30 | 41.42475 | 2.17941 | 93° | 15km/h | 16672m | -21.0m/s | 0°C | 0% | 0hPa | 0V | 00:00:00 | 00:00:00 | 00:00:00 | |
| EA3IBE | 2026-09-06 00:43:24 | 41.42475 | 2.17909 | 93° | 16km/h | 16800m | -21.8m/s | 0°C | 0% | 0hPa | 0V | 00:00:00 | 00:00:00 | 00:00:00 | |
| EA3GEO | 2026-09-06 00:43:17 | 41.42472 | 2.17852 | 80° | 29km/h | 16942m | -21.2m/s | 0°C | 0% | 0hPa | 0V | 00:00:00 | 00:00:00 | 00:00:00 | |
| EA3IBE | 2026-09-06 00:43:16 | 41.42471 | 2.17843 | 83° | 26km/h | 16963m | -21.1m/s | 0°C | 0% | 0hPa | 0V | 00:00:00 | 00:00:00 | 00:00:00 | |
| EA3GEO | 2026-09-06 00:43:11 | 41.42468 | 2.17788 | 92° | 24km/h | 17095m | -23.4m/s | 0°C | 0% | 0hPa | 0V | 00:00:00 | 00:00:00 | 00:00:00 | |
| EA3IBE | 2026-09-06 00:43:10 | 41.42468 | 2.17788 | 92° | 24km/h | 17095m | -23.4m/s | 0°C | 0% | 0hPa | 0V | 00:00:00 | 00:00:00 | 00:00:00 | |
| EA3GEO | 2026-09-06 00:43:05 | 41.42475 | 2.17742 | 105° | 29km/h | 17202m | -16.9m/s | 0°C | 0% | 0hPa | 0V | 00:00:00 | 00:00:00 | 00:00:00 | |
| EA3IBE | 2026-09-06 00:43:03 | 41.42478 | 2.17722 | 106° | 31km/h | 17243m | -20.3m/s | 0°C | 0% | 0hPa | 0V | 00:00:00 | 00:00:00 | 00:00:00 | |
| EA3GEO | 2026-09-06 00:42:59 | 41.42485 | 2.17680 | 96° | 29km/h | 17331m | -20.7m/s | 0°C | 0% | 0hPa | 0V | 00:00:00 | 00:00:00 | 00:00:00 | |
| EA3IBE | 2026-09-06 00:42:57 | 41.42488 | 2.17659 | 95° | 27km/h | 17374m | -22.0m/s | 0°C | 0% | 0hPa | 0V | 00:00:00 | 00:00:00 | 00:00:00 | |
| EA3IBE | 2026-09-06 00:42:50 | 41.42503 | 2.17601 | 113° | 26km/h | 17516m | -19.0m/s | 0°C | 0% | 0hPa | 0V | 00:00:00 | 00:00:00 | 00:00:00 | |
| EA3GEO | 2026-09-06 00:42:47 | 41.42512 | 2.17577 | 112° | 27km/h | 17585m | -23.1m/s | 0°C | 0% | 0hPa | 0V | 00:00:00 | 00:00:00 | 00:00:00 | |
| EA3IBE | 2026-09-06 00:42:44 | 41.42522 | 2.17554 | 123° | 18km/h | 17654m | -23.3m/s | 0°C | 0% | 0hPa | 0V | 00:00:00 | 00:00:00 | 00:00:00 | |
| EA3IBE | 2026-09-06 00:42:37 | 41.42547 | 2.17514 | 147° | 24km/h | 17811m | -22.3m/s | 0°C | 0% | 0hPa | 0V | 00:00:00 | 00:00:00 | 00:00:00 | |
| EA3GEO | 2026-09-06 00:42:32 | 41.42573 | 2.17488 | 156° | 24km/h | 17917m | -20.5m/s | 0°C | 0% | 0hPa | 0V | 00:00:00 | 00:00:00 | 00:00:00 | |
| EA3IBE | 2026-09-06 00:42:21 | 41.42605 | 2.17465 | 184° | 9km/h | 18158m | -21.0m/s | 0°C | 0% | 0hPa | 0V | 00:00:00 | 00:00:00 | 00:00:00 | |
| EA3IBE | 2026-09-06 00:42:10 | 41.42637 | 2.17462 | 188° | 7km/h | 18426m | -23.0m/s | 0°C | 0% | 0hPa | 0V | 00:00:00 | 00:00:00 | 00:00:00 | |
| EA3IBE | 2026-09-06 00:42:04 | 41.42651 | 2.17448 | 132° | 15km/h | 18567m | -21.4m/s | 0°C | 0% | 0hPa | 0V | 00:00:00 | 00:00:00 | 00:00:00 | |
| EA3GEO | 2026-09-06 00:42:03 | 41.42653 | 2.17444 | 125° | 16km/h | 18589m | -22.2m/s | 0°C | 0% | 0hPa | 0V | 00:00:00 | 00:00:00 | 00:00:00 | |
| EA3IBE | 2026-09-06 00:41:59 | 41.42663 | 2.17425 | 132° | 18km/h | 18681m | -20.7m/s | 0°C | 0% | 0hPa | 0V | 00:00:00 | 00:00:00 | 00:00:00 | |
| EA3GEO | 2026-09-06 00:41:50 | 41.42688 | 2.17399 | 141° | 9km/h | 18881m | -25.0m/s | 0°C | 0% | 0hPa | 0V | 00:00:00 | 00:00:00 | 00:00:00 | |
| EA3GEO | 2026-09-06 00:41:45 | 41.42699 | 2.17386 | 144° | 18km/h | 19011m | -25.4m/s | 0°C | 0% | 0hPa | 0V | 00:00:00 | 00:00:00 | 00:00:00 | |
| EA3IBE | 2026-09-06 00:41:43 | 41.42703 | 2.17378 | 144° | 15km/h | 19062m | -25.4m/s | 0°C | 0% | 0hPa | 0V | 00:00:00 | 00:00:00 | 00:00:00 | |
| EA3GEO | 2026-09-06 00:41:40 | 41.42712 | 2.17364 | 129° | 18km/h | 19141m | -24.4m/s | 0°C | 0% | 0hPa | 0V | 00:00:00 | 00:00:00 | 00:00:00 | |
| EA3IBE | 2026-09-06 00:41:35 | 41.42727 | 2.17335 | 128° | 22km/h | 19261m | -24.8m/s | 0°C | 0% | 0hPa | 0V | 00:00:00 | 00:00:00 | 00:00:00 | |
| EA3GEO | 2026-09-06 00:41:30 | 41.42750 | 2.17308 | 141° | 22km/h | 19382m | -21.9m/s | 0°C | 0% | 0hPa | 0V | 00:00:00 | 00:00:00 | 00:00:00 | |
| EA3IBE | 2026-09-06 00:41:29 | 41.42754 | 2.17304 | 137° | 20km/h | 19406m | -24.3m/s | 0°C | 0% | 0hPa | 0V | 00:00:00 | 00:00:00 | 00:00:00 | |
| EA3GEO | 2026-09-06 00:41:24 | 41.42773 | 2.17290 | 170° | 11km/h | 19529m | -23.9m/s | 0°C | 0% | 0hPa | 0V | 00:00:00 | 00:00:00 | 00:00:00 | |
| EA3IBE | 2026-09-06 00:41:23 | 41.42776 | 2.17289 | 186° | 11km/h | 19553m | -23.5m/s | 0°C | 0% | 0hPa | 0V | 00:00:00 | 00:00:00 | 00:00:00 | |
| EA3GEO | 2026-09-06 00:41:17 | 41.42790 | 2.17282 | 188° | 5km/h | 19705m | -30.5m/s | 0°C | 0% | 0hPa | 0V | 00:00:00 | 00:00:00 | 00:00:00 | |
| EA3IBE | 2026-09-06 00:41:15 | 41.42795 | 2.17280 | 174° | 9km/h | 19762m | -25.6m/s | 0°C | 0% | 0hPa | 0V | 00:00:00 | 00:00:00 | 00:00:00 | |
| EA3IBE | 2026-09-06 00:41:08 | 41.42812 | 2.17284 | 204° | 16km/h | 19942m | -24.0m/s | 0°C | 0% | 0hPa | 0V | 00:00:00 | 00:00:00 | 00:00:00 | |
| EA3IBE | 2026-09-06 00:41:03 | 41.42814 | 2.17296 | 307° | 9km/h | 20068m | -21.7m/s | 0°C | 0% | 0hPa | 0V | 00:00:00 | 00:00:00 | 00:00:00 | |
| EA3GEO | 2026-09-06 00:40:59 | 41.42806 | 2.17306 | 344° | 11km/h | 20163m | -25.1m/s | 0°C | 0% | 0hPa | 0V | 00:00:00 | 00:00:00 | 00:00:00 | |
| EA3IBE | 2026-09-06 00:40:57 | 41.42799 | 2.17307 | 7° | 11km/h | 20216m | -24.3m/s | 0°C | 0% | 0hPa | 0V | 00:00:00 | 00:00:00 | 00:00:00 | |
| EA3IBE | 2026-09-06 00:40:50 | 41.42788 | 2.17294 | 111° | 11km/h | 20398m | -23.5m/s | 0°C | 0% | 0hPa | 0V | 00:00:00 | 00:00:00 | 00:00:00 | |
| EA3IBE | 2026-09-06 00:40:44 | 41.42808 | 2.17280 | 177° | 16km/h | 20553m | -25.1m/s | 0°C | 0% | 0hPa | 0V | 00:00:00 | 00:00:00 | 00:00:00 | |
| EA3GEO | 2026-09-06 00:40:39 | 41.42830 | 2.17280 | 169° | 13km/h | 20690m | -26.0m/s | 0°C | 0% | 0hPa | 0V | 00:00:00 | 00:00:00 | 00:00:00 | |
| EA3IBE | 2026-09-06 00:40:38 | 41.42832 | 2.17280 | 191° | 13km/h | 20716m | -23.8m/s | 0°C | 0% | 0hPa | 0V | 00:00:00 | 00:00:00 | 00:00:00 | |
| EA3GEO | 2026-09-06 00:40:30 | 41.42865 | 2.17277 | 182° | 24km/h | 20913m | -25.3m/s | 0°C | 0% | 0hPa | 0V | 00:00:00 | 00:00:00 | 00:00:00 | |
| EA3GEO | 2026-09-06 00:40:24 | 41.42905 | 2.17298 | 220° | 24km/h | 21069m | -22.5m/s | 0°C | 0% | 0hPa | 0V | 00:00:00 | 00:00:00 | 00:00:00 | |
| EA3IBE | 2026-09-06 00:40:13 | 41.42961 | 2.17358 | 218° | 26km/h | 21354m | -25.3m/s | 0°C | 0% | 0hPa | 0V | 00:00:00 | 00:00:00 | 00:00:00 | |
| EA3IBE | 2026-09-06 00:40:06 | 41.42989 | 2.17408 | 240° | 27km/h | 21533m | -22.2m/s | 0°C | 0% | 0hPa | 0V | 00:00:00 | 00:00:00 | 00:00:00 | |
| EA3GEO | 2026-09-06 00:40:04 | 41.42999 | 2.17424 | 234° | 27km/h | 21582m | -24.9m/s | 0°C | 0% | 0hPa | 0V | 00:00:00 | 00:00:00 | 00:00:00 | |
| EA3IBE | 2026-09-06 00:40:00 | 41.43014 | 2.17456 | 244° | 29km/h | 21687m | -24.5m/s | 0°C | 0% | 0hPa | 0V | 00:00:00 | 00:00:00 | 00:00:00 | |
| EA3GEO | 2026-09-06 00:39:53 | 41.43022 | 2.17520 | 297° | 24km/h | 21861m | -22.7m/s | 0°C | 0% | 0hPa | 0V | 00:00:00 | 00:00:00 | 00:00:00 | |
| EA3IBE | 2026-09-06 00:39:44 | 41.43022 | 2.17568 | 249° | 15km/h | 22085m | -22.5m/s | 0°C | 0% | 0hPa | 0V | 00:00:00 | 00:00:00 | 00:00:00 | |
| EA3GEO | 2026-09-06 00:39:28 | 41.43012 | 2.17669 | 321° | 27km/h | 22502m | -28.6m/s | 0°C | 0% | 0hPa | 0V | 00:00:00 | 00:00:00 | 00:00:00 | |
| EA3IBE | 2026-09-06 00:39:22 | 41.42994 | 2.17697 | 308° | 16km/h | 22664m | -27.9m/s | 0°C | 0% | 0hPa | 0V | 00:00:00 | 00:00:00 | 00:00:00 | |
| EA3IBE | 2026-09-06 00:39:18 | 41.42979 | 2.17721 | 327° | 20km/h | 22807m | -25.1m/s | 0°C | 0% | 0hPa | 0V | 00:00:00 | 00:00:00 | 00:00:00 | |
| EA3IBE | 2026-09-06 00:39:12 | 41.42964 | 2.17734 | 300° | 11km/h | 22936m | -24.4m/s | 0°C | 0% | 0hPa | 0V | 00:00:00 | 00:00:00 | 00:00:00 | |
| EA3IBE | 2026-09-06 00:39:04 | 41.42968 | 2.17762 | 264° | 16km/h | 23138m | -24.2m/s | 0°C | 0% | 0hPa | 0V | 00:00:00 | 00:00:00 | 00:00:00 | |
| EA3IBE | 2026-09-06 00:38:55 | 41.42990 | 2.17800 | 246° | 15km/h | 23369m | -26.8m/s | 0°C | 0% | 0hPa | 0V | 00:00:00 | 00:00:00 | 00:00:00 | |
| EA3GEO | 2026-09-06 00:38:49 | 41.42991 | 2.17829 | 271° | 15km/h | 23519m | -27.8m/s | 0°C | 0% | 0hPa | 0V | 00:00:00 | 00:00:00 | 00:00:00 | |
| EA3IBE | 2026-09-06 00:38:48 | 41.42991 | 2.17834 | 262° | 13km/h | 23547m | -27.5m/s | 0°C | 0% | 0hPa | 0V | 00:00:00 | 00:00:00 | 00:00:00 | |
| EA3GEO | 2026-09-06 00:38:43 | 41.42987 | 2.17852 | 316° | 13km/h | 23687m | -26.2m/s | 0°C | 0% | 0hPa | 0V | 00:00:00 | 00:00:00 | 00:00:00 | |
| EA3IBE | 2026-09-06 00:38:42 | 41.42985 | 2.17855 | 327° | 15km/h | 23713m | -25.1m/s | 0°C | 0% | 0hPa | 0V | 00:00:00 | 00:00:00 | 00:00:00 | |
| EA3GEO | 2026-09-06 00:38:38 | 41.42973 | 2.17863 | 332° | 11km/h | 23800m | -20.1m/s | 0°C | 0% | 0hPa | 0V | 00:00:00 | 00:00:00 | 00:00:00 | |
| EA3IBE | 2026-09-06 00:38:37 | 41.42971 | 2.17865 | 342° | 9km/h | 23821m | -21.5m/s | 0°C | 0% | 0hPa | 0V | 00:00:00 | 00:00:00 | 00:00:00 | |
| EA3GEO | 2026-09-06 00:38:32 | 41.42958 | 2.17873 | 332° | 16km/h | 23935m | -21.9m/s | 0°C | 0% | 0hPa | 0V | 00:00:00 | 00:00:00 | 00:00:00 | |
| EA3IBE | 2026-09-06 00:38:31 | 41.42953 | 2.17876 | 334° | 20km/h | 23956m | -19.1m/s | 0°C | 0% | 0hPa | 0V | 00:00:00 | 00:00:00 | 00:00:00 | |
| EA3GEO | 2026-09-06 00:38:24 | 41.42933 | 2.17895 | 335° | 11km/h | 24103m | -18.5m/s | 0°C | 0% | 0hPa | 0V | 00:00:00 | 00:00:00 | 00:00:00 | |
| EA3IBE | 2026-09-06 00:38:19 | 41.42921 | 2.17896 | 13° | 2km/h | 24219m | -27.5m/s | 0°C | 0% | 0hPa | 0V | 00:00:00 | 00:00:00 | 00:00:00 | |
| EA3IBE | 2026-09-06 00:38:14 | 41.42922 | 2.17897 | 151° | 2km/h | 24333m | -19.2m/s | 0°C | 0% | 0hPa | 0V | 00:00:00 | 00:00:00 | 00:00:00 | |
| EA3GEO | 2026-09-06 00:38:09 | 41.42925 | 2.17900 | 264° | 15km/h | 24439m | -24.7m/s | 0°C | 0% | 0hPa | 0V | 00:00:00 | 00:00:00 | 00:00:00 | |
| EA3IBE | 2026-09-06 00:38:07 | 41.42925 | 2.17913 | 269° | 18km/h | 24491m | -25.1m/s | 0°C | 0% | 0hPa | 0V | 00:00:00 | 00:00:00 | 00:00:00 | |
| EA3GEO | 2026-09-06 00:38:04 | 41.42922 | 2.17930 | 312° | 15km/h | 24564m | -23.8m/s | 0°C | 0% | 0hPa | 0V | 00:00:00 | 00:00:00 | 00:00:00 | |
| EA3IBE | 2026-09-06 00:38:02 | 41.42915 | 2.17936 | 346° | 16km/h | 24608m | -21.1m/s | 0°C | 0% | 0hPa | 0V | 00:00:00 | 00:00:00 | 00:00:00 | |
| EA3GEO | 2026-09-06 00:37:58 | 41.42900 | 2.17940 | 313° | 9km/h | 24736m | -24.6m/s | 0°C | 0% | 0hPa | 0V | 00:00:00 | 00:00:00 | 00:00:00 | |
| EA3IBE | 2026-09-06 00:37:55 | 41.42899 | 2.17946 | 280° | 13km/h | 24785m | -26.7m/s | 0°C | 0% | 0hPa | 0V | 00:00:00 | 00:00:00 | 00:00:00 | |
| EA3GEO | 2026-09-06 00:37:51 | 41.42895 | 2.17963 | 290° | 15km/h | 24896m | -27.9m/s | 0°C | 0% | 0hPa | 0V | 00:00:00 | 00:00:00 | 00:00:00 | |
| EA3IBE | 2026-09-06 00:37:50 | 41.42894 | 2.17967 | 300° | 13km/h | 24925m | -28.7m/s | 0°C | 0% | 0hPa | 0V | 00:00:00 | 00:00:00 | 00:00:00 | |
| EA3GEO | 2026-09-06 00:37:44 | 41.42884 | 2.17991 | 303° | 18km/h | 25078m | -25.5m/s | 0°C | 0% | 0hPa | 0V | 00:00:00 | 00:00:00 | 00:00:00 | |
| EA3IBE | 2026-09-06 00:37:39 | 41.42882 | 2.18027 | 263° | 26km/h | 25213m | -23.6m/s | 0°C | 0% | 0hPa | 0V | 00:00:00 | 00:00:00 | 00:00:00 | |
| EA3GEO | 2026-09-06 00:37:32 | 41.42876 | 2.18090 | 289° | 33km/h | 25373m | -18.7m/s | 0°C | 0% | 0hPa | 0V | 00:00:00 | 00:00:00 | 00:00:00 | |
| EA3IBE | 2026-09-06 00:37:27 | 41.42865 | 2.18149 | 286° | 35km/h | 25480m | -23.5m/s | 0°C | 0% | 0hPa | 0V | 00:00:00 | 00:00:00 | 00:00:00 | |
| EA3GEO | 2026-09-06 00:37:26 | 41.42862 | 2.18160 | 291° | 35km/h | 25505m | -25.7m/s | 0°C | 0% | 0hPa | 0V | 00:00:00 | 00:00:00 | 00:00:00 | |
| EA3IBE | 2026-09-06 00:37:21 | 41.42843 | 2.18206 | 310° | 31km/h | 25639m | -25.4m/s | 0°C | 0% | 0hPa | 0V | 00:00:00 | 00:00:00 | 00:00:00 | |
| EA3GEO | 2026-09-06 00:37:16 | 41.42822 | 2.18240 | 315° | 24km/h | 25775m | -30.6m/s | 0°C | 0% | 0hPa | 0V | 00:00:00 | 00:00:00 | 00:00:00 | |
| EA3IBE | 2026-09-06 00:37:15 | 41.42818 | 2.18246 | 316° | 24km/h | 25806m | -29.9m/s | 0°C | 0% | 0hPa | 0V | 00:00:00 | 00:00:00 | 00:00:00 | |
| EA3IBE | 2026-09-06 00:37:10 | 41.42798 | 2.18267 | 332° | 16km/h | 25949m | -26.7m/s | 0°C | 0% | 0hPa | 0V | 00:00:00 | 00:00:00 | 00:00:00 | |
| EA3GEO | 2026-09-06 00:37:04 | 41.42780 | 2.18285 | 317° | 22km/h | 26094m | -23.4m/s | 0°C | 0% | 0hPa | 0V | 00:00:00 | 00:00:00 | 00:00:00 | |
| EA3IBE | 2026-09-06 00:36:59 | 41.42754 | 2.18312 | 339° | 24km/h | 26227m | -30.6m/s | 0°C | 0% | 0hPa | 0V | 00:00:00 | 00:00:00 | 00:00:00 | |
| EA3IBE | 2026-09-06 00:36:48 | 41.42708 | 2.18318 | 38° | 18km/h | 26545m | -26.6m/s | 0°C | 0% | 0hPa | 0V | 00:00:00 | 00:00:00 | 00:00:00 | |
| EA3GEO | 2026-09-06 00:36:44 | 41.42696 | 2.18312 | 344° | 13km/h | 26679m | -36.1m/s | 0°C | 0% | 0hPa | 0V | 00:00:00 | 00:00:00 | 00:00:00 | |
| EA3IBE | 2026-09-06 00:36:42 | 41.42690 | 2.18315 | 341° | 15km/h | 26745m | -28.2m/s | 0°C | 0% | 0hPa | 0V | 00:00:00 | 00:00:00 | 00:00:00 | |
| EA3GEO | 2026-09-06 00:36:38 | 41.42670 | 2.18321 | 357° | 22km/h | 26843m | -21.5m/s | 0°C | 0% | 0hPa | 0V | 00:00:00 | 00:00:00 | 00:00:00 | |
| EA3IBE | 2026-09-06 00:36:35 | 41.42656 | 2.18326 | 335° | 20km/h | 26919m | -26.7m/s | 0°C | 0% | 0hPa | 0V | 00:00:00 | 00:00:00 | 00:00:00 | |
| EA3IBE | 2026-09-06 00:36:30 | 41.42627 | 2.18344 | 352° | 29km/h | 27065m | -31.1m/s | 0°C | 0% | 0hPa | 0V | 00:00:00 | 00:00:00 | 00:00:00 | |
| EA3GEO | 2026-09-06 00:36:24 | 41.42601 | 2.18339 | 25° | 5km/h | 27252m | -32.0m/s | 0°C | 0% | 0hPa | 0V | 00:00:00 | 00:00:00 | 00:00:00 | |
| EA3GEO | 2026-09-06 00:36:18 | 41.42593 | 2.18343 | 27° | 7km/h | 27443m | -32.7m/s | 0°C | 0% | 0hPa | 0V | 00:00:00 | 00:00:00 | 00:00:00 | |
| EA3IBE | 2026-09-06 00:36:13 | 41.42596 | 2.18335 | 179° | 16km/h | 27585m | -28.9m/s | 0°C | 0% | 0hPa | 0V | 00:00:00 | 00:00:00 | 00:00:00 | |
| EA3GEO | 2026-09-06 00:36:12 | 41.42600 | 2.18335 | 196° | 15km/h | 27614m | -29.1m/s | 0°C | 0% | 0hPa | 0V | 00:00:00 | 00:00:00 | 00:00:00 | |
| EA3IBE | 2026-09-06 00:36:07 | 41.42603 | 2.18345 | 310° | 11km/h | 27757m | -30.2m/s | 0°C | 0% | 0hPa | 0V | 00:00:00 | 00:00:00 | 00:00:00 | |
| EA3GEO | 2026-09-06 00:36:06 | 41.42601 | 2.18349 | 290° | 16km/h | 27788m | -32.0m/s | 0°C | 0% | 0hPa | 0V | 00:00:00 | 00:00:00 | 00:00:00 | |
| EA3IBE | 2026-09-06 00:36:02 | 41.42598 | 2.18373 | 284° | 15km/h | 27908m | -26.3m/s | 0°C | 0% | 0hPa | 0V | 00:00:00 | 00:00:00 | 00:00:00 | |
| EA3GEO | 2026-09-06 00:36:00 | 41.42595 | 2.18379 | 344° | 13km/h | 27961m | -28.7m/s | 0°C | 0% | 0hPa | 0V | 00:00:00 | 00:00:00 | 00:00:00 | |
| EA3IBE | 2026-09-06 00:35:55 | 41.42578 | 2.18375 | 350° | 4km/h | 28117m | -31.0m/s | 0°C | 0% | 0hPa | 0V | 00:00:00 | 00:00:00 | 00:00:00 | |
| EA3IBE | 2026-09-06 00:35:50 | 41.42579 | 2.18377 | 36° | 5km/h | 28269m | -30.1m/s | 0°C | 0% | 0hPa | 0V | 00:00:00 | 00:00:00 | 00:00:00 | |
| EA3IBE | 2026-09-06 00:35:45 | 41.42571 | 2.18373 | 267° | 5km/h | 28420m | -30.0m/s | 0°C | 0% | 0hPa | 0V | 00:00:00 | 00:00:00 | 00:00:00 | |
| EA3GEO | 2026-09-06 00:35:42 | 41.42577 | 2.18385 | 241° | 18km/h | 28513m | -30.3m/s | 0°C | 0% | 0hPa | 0V | 00:00:00 | 00:00:00 | 00:00:00 | |
| EA3IBE | 2026-09-06 00:35:39 | 41.42577 | 2.18392 | 9° | 11km/h | 28605m | -28.1m/s | 0°C | 0% | 0hPa | 0V | 00:00:00 | 00:00:00 | 00:00:00 | |
| EA3GEO | 2026-09-06 00:35:35 | 41.42557 | 2.18371 | 63° | 22km/h | 28716m | -24.5m/s | 0°C | 0% | 0hPa | 0V | 00:00:00 | 00:00:00 | 00:00:00 | |
| EA3IBE | 2026-09-06 00:35:33 | 41.42558 | 2.18364 | 185° | 13km/h | 28765m | -21.3m/s | 0°C | 0% | 0hPa | 0V | 00:00:00 | 00:00:00 | 00:00:00 | |
| EA3GEO | 2026-09-06 00:35:29 | 41.42569 | 2.18377 | 326° | 9km/h | 28886m | -38.2m/s | 0°C | 0% | 0hPa | 0V | 00:00:00 | 00:00:00 | 00:00:00 | |
| EA3IBE | 2026-09-06 00:35:27 | 41.42562 | 2.18377 | 16° | 15km/h | 28954m | -28.0m/s | 0°C | 0% | 0hPa | 0V | 00:00:00 | 00:00:00 | 00:00:00 | |
| EA3IBE | 2026-09-06 00:35:21 | 41.42549 | 2.18342 | 176° | 9km/h | 28956m | 6.8m/s | 0°C | 0% | 0hPa | 0V | 00:00:00 | 00:00:00 | 00:00:00 | |
| EA3IBE | 2026-09-06 00:35:16 | 41.42559 | 2.18341 | 114° | 9km/h | 28927m | 5.4m/s | 0°C | 0% | 0hPa | 0V | 00:00:00 | 00:00:00 | 00:00:00 | |
| EA3IBE | 2026-09-06 00:35:11 | 41.42566 | 2.18332 | 101° | 9km/h | 28900m | 6.3m/s | 0°C | 0% | 0hPa | 0V | 00:00:00 | 00:00:00 | 00:00:00 | |
| EA3GEO | 2026-09-06 00:35:05 | 41.42566 | 2.18324 | 241° | 9km/h | 28866m | 4.2m/s | 0°C | 0% | 0hPa | 0V | 00:00:00 | 00:00:00 | 00:00:00 | |
| EA3IBE | 2026-09-06 00:35:04 | 41.42567 | 2.18326 | 0° | 0km/h | 28861m | 6.3m/s | 0°C | 0% | 0hPa | 0V | 00:00:00 | 00:00:00 | 00:00:00 | |
| EA3IBE | 2026-09-06 00:34:59 | 41.42565 | 2.18307 | 94° | 5km/h | 28830m | 5.3m/s | 0°C | 0% | 0hPa | 0V | 00:00:00 | 00:00:00 | 00:00:00 | |
| EA3GEO | 2026-09-06 00:34:54 | 41.42559 | 2.18299 | 50° | 9km/h | 28802m | 5.3m/s | 0°C | 0% | 0hPa | 0V | 00:00:00 | 00:00:00 | 00:00:00 | |
| EA3IBE | 2026-09-06 00:34:53 | 41.42558 | 2.18298 | 70° | 4km/h | 28797m | 6.7m/s | 0°C | 0% | 0hPa | 0V | 00:00:00 | 00:00:00 | 00:00:00 | |
| EA3IBE | 2026-09-06 00:34:48 | 41.42554 | 2.18277 | 58° | 29km/h | 28769m | 5.5m/s | 0°C | 0% | 0hPa | 0V | 00:00:00 | 00:00:00 | 00:00:00 | |
| EA3GEO | 2026-09-06 00:34:43 | 41.42539 | 2.18271 | 318° | 7km/h | 28741m | 4.0m/s | 0°C | 0% | 0hPa | 0V | 00:00:00 | 00:00:00 | 00:00:00 | |
| EA3IBE | 2026-09-06 00:34:42 | 41.42538 | 2.18270 | 54° | 7km/h | 28736m | 6.2m/s | 0°C | 0% | 0hPa | 0V | 00:00:00 | 00:00:00 | 00:00:00 | |
| EA3IBE | 2026-09-06 00:34:37 | 41.42519 | 2.18244 | 352° | 15km/h | 28707m | 7.2m/s | 0°C | 0% | 0hPa | 0V | 00:00:00 | 00:00:00 | 00:00:00 | |
| EA3GEO | 2026-09-06 00:34:35 | 41.42516 | 2.18250 | 274° | 13km/h | 28695m | 4.8m/s | 0°C | 0% | 0hPa | 0V | 00:00:00 | 00:00:00 | 00:00:00 | |
| EA3IBE | 2026-09-06 00:34:31 | 41.42512 | 2.18245 | 55° | 18km/h | 28673m | 5.1m/s | 0°C | 0% | 0hPa | 0V | 00:00:00 | 00:00:00 | 00:00:00 | |
| EA3GEO | 2026-09-06 00:34:29 | 41.42505 | 2.18239 | 2° | 16km/h | 28660m | 6.5m/s | 0°C | 0% | 0hPa | 0V | 00:00:00 | 00:00:00 | 00:00:00 | |
| EA3IBE | 2026-09-06 00:34:26 | 41.42494 | 2.18242 | 356° | 11km/h | 28643m | 6.0m/s | 0°C | 0% | 0hPa | 0V | 00:00:00 | 00:00:00 | 00:00:00 | |
| EA3GEO | 2026-09-06 00:34:22 | 41.42491 | 2.18244 | 282° | 11km/h | 28621m | 7.5m/s | 0°C | 0% | 0hPa | 0V | 00:00:00 | 00:00:00 | 00:00:00 | |
| EA3IBE | 2026-09-06 00:34:21 | 41.42490 | 2.18248 | 292° | 15km/h | 28614m | 5.6m/s | 0°C | 0% | 0hPa | 0V | 00:00:00 | 00:00:00 | 00:00:00 | |
| EA3GEO | 2026-09-06 00:34:16 | 41.42482 | 2.18247 | 42° | 5km/h | 28587m | 4.5m/s | 0°C | 0% | 0hPa | 0V | 00:00:00 | 00:00:00 | 00:00:00 | |
| EA3IBE | 2026-09-06 00:34:11 | 41.42480 | 2.18267 | 252° | 7km/h | 28557m | 6.7m/s | 0°C | 0% | 0hPa | 0V | 00:00:00 | 00:00:00 | 00:00:00 | |
| EA3GEO | 2026-09-06 00:34:10 | 41.42480 | 2.18268 | 270° | 2km/h | 28551m | 5.2m/s | 0°C | 0% | 0hPa | 0V | 00:00:00 | 00:00:00 | 00:00:00 | |
| EA3IBE | 2026-09-06 00:34:05 | 41.42472 | 2.18279 | 305° | 9km/h | 28522m | 7.0m/s | 0°C | 0% | 0hPa | 0V | 00:00:00 | 00:00:00 | 00:00:00 | |
| EA3GEO | 2026-09-06 00:34:02 | 41.42471 | 2.18289 | 276° | 16km/h | 28505m | 7.4m/s | 0°C | 0% | 0hPa | 0V | 00:00:00 | 00:00:00 | 00:00:00 | |
| EA3IBE | 2026-09-06 00:34:00 | 41.42469 | 2.18302 | 287° | 20km/h | 28493m | 4.6m/s | 0°C | 0% | 0hPa | 0V | 00:00:00 | 00:00:00 | 00:00:00 | |
| EA3IBE | 2026-09-06 00:33:54 | 41.42464 | 2.18307 | 285° | 13km/h | 28461m | 7.4m/s | 0°C | 0% | 0hPa | 0V | 00:00:00 | 00:00:00 | 00:00:00 | |
| EA3GEO | 2026-09-06 00:33:53 | 41.42463 | 2.18314 | 278° | 26km/h | 28453m | 7.8m/s | 0°C | 0% | 0hPa | 0V | 00:00:00 | 00:00:00 | 00:00:00 | |
| EA3IBE | 2026-09-06 00:33:48 | 41.42471 | 2.18339 | 137° | 16km/h | 28426m | 4.9m/s | 0°C | 0% | 0hPa | 0V | 00:00:00 | 00:00:00 | 00:00:00 | |
| EA3GEO | 2026-09-06 00:33:46 | 41.42474 | 2.18334 | 50° | 4km/h | 28415m | 6.4m/s | 0°C | 0% | 0hPa | 0V | 00:00:00 | 00:00:00 | 00:00:00 | |
| EA3IBE | 2026-09-06 00:33:42 | 41.42464 | 2.18347 | 286° | 11km/h | 28394m | 6.0m/s | 0°C | 0% | 0hPa | 0V | 00:00:00 | 00:00:00 | 00:00:00 | |
| EA3GEO | 2026-09-06 00:33:40 | 41.42467 | 2.18352 | 200° | 13km/h | 28382m | 5.9m/s | 0°C | 0% | 0hPa | 0V | 00:00:00 | 00:00:00 | 00:00:00 | |
| EA3IBE | 2026-09-06 00:33:36 | 41.42480 | 2.18362 | 208° | 9km/h | 28358m | 6.2m/s | 0°C | 0% | 0hPa | 0V | 00:00:00 | 00:00:00 | 00:00:00 | |
| EA3GEO | 2026-09-06 00:33:32 | 41.42484 | 2.18362 | 291° | 7km/h | 28335m | 7.2m/s | 0°C | 0% | 0hPa | 0V | 00:00:00 | 00:00:00 | 00:00:00 | |
| EA3IBE | 2026-09-06 00:33:30 | 41.42483 | 2.18369 | 266° | 9km/h | 28323m | 4.5m/s | 0°C | 0% | 0hPa | 0V | 00:00:00 | 00:00:00 | 00:00:00 | |
| EA3GEO | 2026-09-06 00:33:26 | 41.42493 | 2.18362 | 134° | 5km/h | 28294m | 6.5m/s | 0°C | 0% | 0hPa | 0V | 00:00:00 | 00:00:00 | 00:00:00 | |
| EA3IBE | 2026-09-06 00:33:24 | 41.42493 | 2.18362 | 0° | 0km/h | 28288m | 4.9m/s | 0°C | 0% | 0hPa | 0V | 00:00:00 | 00:00:00 | 00:00:00 | |
| EA3GEO | 2026-09-06 00:33:19 | 41.42490 | 2.18361 | 298° | 2km/h | 28259m | 6.0m/s | 0°C | 0% | 0hPa | 0V | 00:00:00 | 00:00:00 | 00:00:00 | |
| EA3IBE | 2026-09-06 00:33:18 | 41.42490 | 2.18362 | 266° | 5km/h | 28252m | 6.3m/s | 0°C | 0% | 0hPa | 0V | 00:00:00 | 00:00:00 | 00:00:00 | |
| EA3IBE | 2026-09-06 00:33:13 | 41.42493 | 2.18353 | 74° | 18km/h | 28226m | 3.7m/s | 0°C | 0% | 0hPa | 0V | 00:00:00 | 00:00:00 | 00:00:00 | |
| EA3GEO | 2026-09-06 00:33:11 | 41.42488 | 2.18347 | 360° | 15km/h | 28216m | 7.0m/s | 0°C | 0% | 0hPa | 0V | 00:00:00 | 00:00:00 | 00:00:00 | |
| EA3IBE | 2026-09-06 00:33:07 | 41.42483 | 2.18360 | 174° | 7km/h | 28193m | 6.0m/s | 0°C | 0% | 0hPa | 0V | 00:00:00 | 00:00:00 | 00:00:00 | |
| EA3IBE | 2026-09-06 00:33:02 | 41.42475 | 2.18342 | 359° | 24km/h | 28165m | 5.1m/s | 0°C | 0% | 0hPa | 0V | 00:00:00 | 00:00:00 | 00:00:00 | |
| EA3GEO | 2026-09-06 00:33:00 | 41.42466 | 2.18343 | 341° | 9km/h | 28154m | 6.5m/s | 0°C | 0% | 0hPa | 0V | 00:00:00 | 00:00:00 | 00:00:00 | |
| EA3IBE | 2026-09-06 00:32:57 | 41.42466 | 2.18346 | 248° | 5km/h | 28137m | 5.9m/s | 0°C | 0% | 0hPa | 0V | 00:00:00 | 00:00:00 | 00:00:00 | |
| EA3IBE | 2026-09-06 00:32:52 | 41.42453 | 2.18336 | 48° | 24km/h | 28107m | 4.7m/s | 0°C | 0% | 0hPa | 0V | 00:00:00 | 00:00:00 | 00:00:00 | |
| EA3GEO | 2026-09-06 00:32:47 | 41.42439 | 2.18343 | 274° | 15km/h | 28080m | 5.6m/s | 0°C | 0% | 0hPa | 0V | 00:00:00 | 00:00:00 | 00:00:00 | |
| EA3IBE | 2026-09-06 00:32:41 | 41.42420 | 2.18340 | 357° | 29km/h | 28047m | 4.6m/s | 0°C | 0% | 0hPa | 0V | 00:00:00 | 00:00:00 | 00:00:00 | |
| EA3IBE | 2026-09-06 00:32:36 | 41.42400 | 2.18348 | 296° | 13km/h | 28021m | 7.0m/s | 0°C | 0% | 0hPa | 0V | 00:00:00 | 00:00:00 | 00:00:00 | |
| EA3GEO | 2026-09-06 00:32:35 | 41.42398 | 2.18352 | 303° | 18km/h | 28015m | 5.8m/s | 0°C | 0% | 0hPa | 0V | 00:00:00 | 00:00:00 | 00:00:00 | |
| EA3IBE | 2026-09-06 00:32:31 | 41.42389 | 2.18363 | 15° | 9km/h | 27991m | 5.5m/s | 0°C | 0% | 0hPa | 0V | 00:00:00 | 00:00:00 | 00:00:00 | |
| EA3GEO | 2026-09-06 00:32:29 | 41.42382 | 2.18363 | 350° | 20km/h | 27979m | 5.8m/s | 0°C | 0% | 0hPa | 0V | 00:00:00 | 00:00:00 | 00:00:00 | |
| EA3IBE | 2026-09-06 00:32:25 | 41.42371 | 2.18376 | 241° | 9km/h | 27958m | 6.7m/s | 0°C | 0% | 0hPa | 0V | 00:00:00 | 00:00:00 | 00:00:00 | |
| EA3GEO | 2026-09-06 00:32:23 | 41.42373 | 2.18381 | 260° | 7km/h | 27947m | 3.5m/s | 0°C | 0% | 0hPa | 0V | 00:00:00 | 00:00:00 | 00:00:00 | |
| EA3IBE | 2026-09-06 00:32:20 | 41.42364 | 2.18393 | 332° | 31km/h | 27931m | 5.5m/s | 0°C | 0% | 0hPa | 0V | 00:00:00 | 00:00:00 | 00:00:00 | |
| EA3GEO | 2026-09-06 00:32:14 | 41.42354 | 2.18420 | 268° | 18km/h | 27900m | 6.0m/s | 0°C | 0% | 0hPa | 0V | 00:00:00 | 00:00:00 | 00:00:00 | |
| EA3GEO | 2026-09-06 00:32:08 | 41.42339 | 2.18459 | 318° | 24km/h | 27865m | 6.1m/s | 0°C | 0% | 0hPa | 0V | 00:00:00 | 00:00:00 | 00:00:00 | |
| EA3IBE | 2026-09-06 00:32:03 | 41.42336 | 2.18487 | 223° | 22km/h | 27837m | 3.6m/s | 0°C | 0% | 0hPa | 0V | 00:00:00 | 00:00:00 | 00:00:00 | |
| EA3GEO | 2026-09-06 00:32:00 | 41.42336 | 2.18500 | 328° | 24km/h | 27822m | 7.6m/s | 0°C | 0% | 0hPa | 0V | 00:00:00 | 00:00:00 | 00:00:00 | |
| EA3IBE | 2026-09-06 00:31:57 | 41.42316 | 2.18512 | 333° | 20km/h | 27806m | 5.2m/s | 0°C | 0% | 0hPa | 0V | 00:00:00 | 00:00:00 | 00:00:00 | |
| EA3GEO | 2026-09-06 00:31:53 | 41.42324 | 2.18527 | 224° | 22km/h | 27785m | 5.7m/s | 0°C | 0% | 0hPa | 0V | 00:00:00 | 00:00:00 | 00:00:00 | |
| EA3IBE | 2026-09-06 00:31:51 | 41.42326 | 2.18536 | 303° | 13km/h | 27774m | 5.5m/s | 0°C | 0% | 0hPa | 0V | 00:00:00 | 00:00:00 | 00:00:00 | |
| EA3IBE | 2026-09-06 00:31:47 | 41.42316 | 2.18547 | 253° | 13km/h | 27749m | 5.1m/s | 0°C | 0% | 0hPa | 0V | 00:00:00 | 00:00:00 | 00:00:00 | |
| EA3GEO | 2026-09-06 00:31:44 | 41.42318 | 2.18558 | 256° | 24km/h | 27737m | 5.2m/s | 0°C | 0% | 0hPa | 0V | 00:00:00 | 00:00:00 | 00:00:00 | |
| EA3IBE | 2026-09-06 00:31:40 | 41.42327 | 2.18577 | 228° | 4km/h | 27716m | 4.9m/s | 0°C | 0% | 0hPa | 0V | 00:00:00 | 00:00:00 | 00:00:00 | |
| EA3GEO | 2026-09-06 00:31:39 | 41.42326 | 2.18578 | 358° | 7km/h | 27710m | 6.6m/s | 0°C | 0% | 0hPa | 0V | 00:00:00 | 00:00:00 | 00:00:00 | |
| EA3IBE | 2026-09-06 00:31:34 | 41.42318 | 2.18583 | 211° | 18km/h | 27683m | 6.2m/s | 0°C | 0% | 0hPa | 0V | 00:00:00 | 00:00:00 | 00:00:00 | |
| EA3GEO | 2026-09-06 00:31:33 | 41.42323 | 2.18587 | 216° | 26km/h | 27678m | 4.3m/s | 0°C | 0% | 0hPa | 0V | 00:00:00 | 00:00:00 | 00:00:00 | |
| EA3GEO | 2026-09-06 00:31:28 | 41.42330 | 2.18611 | 331° | 5km/h | 27651m | 5.5m/s | 0°C | 0% | 0hPa | 0V | 00:00:00 | 00:00:00 | 00:00:00 | |
| EA3IBE | 2026-09-06 00:31:22 | 41.42336 | 2.18614 | 259° | 9km/h | 27619m | 4.4m/s | 0°C | 0% | 0hPa | 0V | 00:00:00 | 00:00:00 | 00:00:00 | |
| EA3IBE | 2026-09-06 00:31:17 | 41.42342 | 2.18620 | 320° | 4km/h | 27591m | 6.3m/s | 0°C | 0% | 0hPa | 0V | 00:00:00 | 00:00:00 | 00:00:00 | |
| EA3GEO | 2026-09-06 00:31:14 | 41.42334 | 2.18622 | 352° | 13km/h | 27576m | 3.4m/s | 0°C | 0% | 0hPa | 0V | 00:00:00 | 00:00:00 | 00:00:00 | |
| EA3IBE | 2026-09-06 00:31:11 | 41.42335 | 2.18619 | 157° | 11km/h | 27558m | 4.6m/s | 0°C | 0% | 0hPa | 0V | 00:00:00 | 00:00:00 | 00:00:00 | |
| EA3GEO | 2026-09-06 00:31:09 | 41.42336 | 2.18619 | 318° | 9km/h | 27547m | 6.0m/s | 0°C | 0% | 0hPa | 0V | 00:00:00 | 00:00:00 | 00:00:00 | |
| EA3IBE | 2026-09-06 00:31:04 | 41.42323 | 2.18629 | 31° | 2km/h | 27519m | 5.4m/s | 0°C | 0% | 0hPa | 0V | 00:00:00 | 00:00:00 | 00:00:00 | |
| EA3GEO | 2026-09-06 00:31:03 | 41.42323 | 2.18629 | 18° | 5km/h | 27514m | 5.1m/s | 0°C | 0% | 0hPa | 0V | 00:00:00 | 00:00:00 | 00:00:00 | |
| EA3IBE | 2026-09-06 00:30:59 | 41.42315 | 2.18635 | 280° | 11km/h | 27492m | 5.7m/s | 0°C | 0% | 0hPa | 0V | 00:00:00 | 00:00:00 | 00:00:00 | |
| EA3GEO | 2026-09-06 00:30:57 | 41.42316 | 2.18640 | 284° | 5km/h | 27482m | 3.7m/s | 0°C | 0% | 0hPa | 0V | 00:00:00 | 00:00:00 | 00:00:00 | |
| EA3IBE | 2026-09-06 00:30:53 | 41.42303 | 2.18646 | 345° | 15km/h | 27460m | 4.8m/s | 0°C | 0% | 0hPa | 0V | 00:00:00 | 00:00:00 | 00:00:00 | |
| EA3GEO | 2026-09-06 00:30:51 | 41.42301 | 2.18650 | 251° | 9km/h | 27448m | 5.6m/s | 0°C | 0% | 0hPa | 0V | 00:00:00 | 00:00:00 | 00:00:00 | |
| EA3IBE | 2026-09-06 00:30:47 | 41.42300 | 2.18656 | 7° | 13km/h | 27425m | 5.1m/s | 0°C | 0% | 0hPa | 0V | 00:00:00 | 00:00:00 | 00:00:00 | |
| EA3GEO | 2026-09-06 00:30:44 | 41.42293 | 2.18653 | 40° | 4km/h | 27410m | 5.6m/s | 0°C | 0% | 0hPa | 0V | 00:00:00 | 00:00:00 | 00:00:00 | |
| EA3IBE | 2026-09-06 00:30:42 | 41.42292 | 2.18654 | 316° | 5km/h | 27399m | 6.7m/s | 0°C | 0% | 0hPa | 0V | 00:00:00 | 00:00:00 | 00:00:00 | |
| EA3GEO | 2026-09-06 00:30:38 | 41.42287 | 2.18662 | 252° | 5km/h | 27376m | 6.3m/s | 0°C | 0% | 0hPa | 0V | 00:00:00 | 00:00:00 | 00:00:00 | |
| EA3IBE | 2026-09-06 00:30:37 | 41.42287 | 2.18663 | 0° | 0km/h | 27371m | 4.1m/s | 0°C | 0% | 0hPa | 0V | 00:00:00 | 00:00:00 | 00:00:00 | |
| EA3GEO | 2026-09-06 00:30:31 | 41.42266 | 2.18660 | 302° | 7km/h | 27339m | 6.7m/s | 0°C | 0% | 0hPa | 0V | 00:00:00 | 00:00:00 | 00:00:00 | |
| EA3GEO | 2026-09-06 00:30:26 | 41.42258 | 2.18668 | 9° | 24km/h | 27311m | 5.6m/s | 0°C | 0% | 0hPa | 0V | 00:00:00 | 00:00:00 | 00:00:00 | |
| EA3IBE | 2026-09-06 00:30:25 | 41.42251 | 2.18667 | 17° | 24km/h | 27306m | 6.6m/s | 0°C | 0% | 0hPa | 0V | 00:00:00 | 00:00:00 | 00:00:00 | |
| EA3IBE | 2026-09-06 00:30:20 | 41.42228 | 2.18663 | 353° | 22km/h | 27277m | 6.2m/s | 0°C | 0% | 0hPa | 0V | 00:00:00 | 00:00:00 | 00:00:00 | |
| EA3GEO | 2026-09-06 00:30:08 | 41.42167 | 2.18665 | 335° | 15km/h | 27213m | 5.5m/s | 0°C | 0% | 0hPa | 0V | 00:00:00 | 00:00:00 | 00:00:00 | |
| EA3IBE | 2026-09-06 00:30:07 | 41.42164 | 2.18667 | 327° | 13km/h | 27207m | 6.3m/s | 0°C | 0% | 0hPa | 0V | 00:00:00 | 00:00:00 | 00:00:00 | |
| EA3IBE | 2026-09-06 00:29:57 | 41.42095 | 2.18678 | 347° | 37km/h | 27149m | 3.3m/s | 0°C | 0% | 0hPa | 0V | 00:00:00 | 00:00:00 | 00:00:00 | |
| EA3GEO | 2026-09-06 00:29:55 | 41.42082 | 2.18686 | 321° | 20km/h | 27137m | 6.9m/s | 0°C | 0% | 0hPa | 0V | 00:00:00 | 00:00:00 | 00:00:00 | |
| EA3IBE | 2026-09-06 00:29:52 | 41.42069 | 2.18695 | 349° | 29km/h | 27119m | 5.7m/s | 0°C | 0% | 0hPa | 0V | 00:00:00 | 00:00:00 | 00:00:00 | |
| EA3GEO | 2026-09-06 00:29:48 | 41.42036 | 2.18701 | 345° | 29km/h | 27097m | 5.3m/s | 0°C | 0% | 0hPa | 0V | 00:00:00 | 00:00:00 | 00:00:00 | |
| EA3IBE | 2026-09-06 00:29:47 | 41.42029 | 2.18704 | 339° | 29km/h | 27091m | 5.9m/s | 0°C | 0% | 0hPa | 0V | 00:00:00 | 00:00:00 | 00:00:00 | |
| EA3GEO | 2026-09-06 00:29:43 | 41.41999 | 2.18722 | 334° | 29km/h | 27069m | 3.8m/s | 0°C | 0% | 0hPa | 0V | 00:00:00 | 00:00:00 | 00:00:00 | |
| EA3IBE | 2026-09-06 00:29:42 | 41.41993 | 2.18727 | 321° | 26km/h | 27064m | 6.7m/s | 0°C | 0% | 0hPa | 0V | 00:00:00 | 00:00:00 | 00:00:00 | |
| EA3IBE | 2026-09-06 00:29:37 | 41.41964 | 2.18749 | 341° | 44km/h | 27034m | 5.1m/s | 0°C | 0% | 0hPa | 0V | 00:00:00 | 00:00:00 | 00:00:00 | |
| EA3GEO | 2026-09-06 00:29:32 | 41.41929 | 2.18785 | 321° | 26km/h | 27006m | 7.2m/s | 0°C | 0% | 0hPa | 0V | 00:00:00 | 00:00:00 | 00:00:00 | |
| EA3IBE | 2026-09-06 00:29:27 | 41.41902 | 2.18805 | 319° | 29km/h | 26974m | 5.3m/s | 0°C | 0% | 0hPa | 0V | 00:00:00 | 00:00:00 | 00:00:00 | |
| EA3GEO | 2026-09-06 00:29:26 | 41.41896 | 2.18812 | 323° | 37km/h | 26968m | 5.2m/s | 0°C | 0% | 0hPa | 0V | 00:00:00 | 00:00:00 | 00:00:00 | |
| EA3GEO | 2026-09-06 00:29:21 | 41.41854 | 2.18842 | 318° | 24km/h | 26939m | 6.9m/s | 0°C | 0% | 0hPa | 0V | 00:00:00 | 00:00:00 | 00:00:00 | |
| EA3IBE | 2026-09-06 00:29:16 | 41.41833 | 2.18857 | 350° | 31km/h | 26911m | 5.4m/s | 0°C | 0% | 0hPa | 0V | 00:00:00 | 00:00:00 | 00:00:00 | |
| EA3GEO | 2026-09-06 00:29:15 | 41.41825 | 2.18860 | 344° | 33km/h | 26905m | 5.2m/s | 0°C | 0% | 0hPa | 0V | 00:00:00 | 00:00:00 | 00:00:00 | |
| EA3GEO | 2026-09-06 00:29:05 | 41.41771 | 2.18899 | 338° | 24km/h | 26847m | 5.7m/s | 0°C | 0% | 0hPa | 0V | 00:00:00 | 00:00:00 | 00:00:00 | |
| EA3IBE | 2026-09-06 00:29:04 | 41.41765 | 2.18901 | 346° | 27km/h | 26842m | 6.9m/s | 0°C | 0% | 0hPa | 0V | 00:00:00 | 00:00:00 | 00:00:00 | |
| EA3IBE | 2026-09-06 00:28:59 | 41.41739 | 2.18913 | 318° | 13km/h | 26813m | 4.7m/s | 0°C | 0% | 0hPa | 0V | 00:00:00 | 00:00:00 | 00:00:00 | |
| EA3IBE | 2026-09-06 00:28:54 | 41.41711 | 2.18922 | 339° | 27km/h | 26786m | 6.5m/s | 0°C | 0% | 0hPa | 0V | 00:00:00 | 00:00:00 | 00:00:00 | |
| EA3GEO | 2026-09-06 00:28:49 | 41.41688 | 2.18944 | 1° | 22km/h | 26756m | 6.6m/s | 0°C | 0% | 0hPa | 0V | 00:00:00 | 00:00:00 | 00:00:00 | |
| EA3IBE | 2026-09-06 00:28:48 | 41.41682 | 2.18944 | 4° | 18km/h | 26750m | 5.2m/s | 0°C | 0% | 0hPa | 0V | 00:00:00 | 00:00:00 | 00:00:00 | |
| EA3GEO | 2026-09-06 00:28:44 | 41.41670 | 2.18947 | 353° | 16km/h | 26728m | 7.5m/s | 0°C | 0% | 0hPa | 0V | 00:00:00 | 00:00:00 | 00:00:00 | |
| EA3IBE | 2026-09-06 00:28:43 | 41.41664 | 2.18948 | 359° | 24km/h | 26721m | 7.2m/s | 0°C | 0% | 0hPa | 0V | 00:00:00 | 00:00:00 | 00:00:00 | |
| EA3GEO | 2026-09-06 00:28:38 | 41.41642 | 2.18960 | 315° | 15km/h | 26692m | 3.9m/s | 0°C | 0% | 0hPa | 0V | 00:00:00 | 00:00:00 | 00:00:00 | |
| EA3IBE | 2026-09-06 00:28:37 | 41.41638 | 2.18963 | 344° | 15km/h | 26687m | 5.5m/s | 0°C | 0% | 0hPa | 0V | 00:00:00 | 00:00:00 | 00:00:00 | |
| EA3IBE | 2026-09-06 00:28:32 | 41.41606 | 2.18963 | 340° | 20km/h | 26658m | 5.9m/s | 0°C | 0% | 0hPa | 0V | 00:00:00 | 00:00:00 | 00:00:00 | |
| EA3GEO | 2026-09-06 00:28:31 | 41.41602 | 2.18966 | 323° | 16km/h | 26652m | 5.7m/s | 0°C | 0% | 0hPa | 0V | 00:00:00 | 00:00:00 | 00:00:00 | |
| EA3IBE | 2026-09-06 00:28:27 | 41.41586 | 2.18974 | 350° | 20km/h | 26630m | 5.6m/s | 0°C | 0% | 0hPa | 0V | 00:00:00 | 00:00:00 | 00:00:00 | |
| EA3GEO | 2026-09-06 00:28:26 | 41.41580 | 2.18976 | 342° | 20km/h | 26624m | 6.5m/s | 0°C | 0% | 0hPa | 0V | 00:00:00 | 00:00:00 | 00:00:00 | |
| EA3GEO | 2026-09-06 00:28:21 | 41.41553 | 2.18983 | 356° | 16km/h | 26597m | 4.6m/s | 0°C | 0% | 0hPa | 0V | 00:00:00 | 00:00:00 | 00:00:00 | |
| EA3IBE | 2026-09-06 00:28:15 | 41.41543 | 2.18990 | 14° | 20km/h | 26562m | 5.0m/s | 0°C | 0% | 0hPa | 0V | 00:00:00 | 00:00:00 | 00:00:00 | |
| EA3GEO | 2026-09-06 00:28:13 | 41.41531 | 2.18989 | 347° | 24km/h | 26552m | 6.2m/s | 0°C | 0% | 0hPa | 0V | 00:00:00 | 00:00:00 | 00:00:00 | |
| EA3IBE | 2026-09-06 00:28:09 | 41.41518 | 2.19005 | 335° | 13km/h | 26530m | 6.3m/s | 0°C | 0% | 0hPa | 0V | 00:00:00 | 00:00:00 | 00:00:00 | |
| EA3GEO | 2026-09-06 00:28:06 | 41.41508 | 2.19002 | 21° | 11km/h | 26514m | 5.6m/s | 0°C | 0% | 0hPa | 0V | 00:00:00 | 00:00:00 | 00:00:00 | |
| EA3IBE | 2026-09-06 00:28:04 | 41.41502 | 2.19004 | 321° | 16km/h | 26503m | 5.2m/s | 0°C | 0% | 0hPa | 0V | 00:00:00 | 00:00:00 | 00:00:00 | |
| EA3GEO | 2026-09-06 00:27:59 | 41.41473 | 2.19027 | 333° | 18km/h | 26476m | 6.5m/s | 0°C | 0% | 0hPa | 0V | 00:00:00 | 00:00:00 | 00:00:00 | |
| EA3IBE | 2026-09-06 00:27:57 | 41.41468 | 2.19028 | 47° | 11km/h | 26464m | 4.9m/s | 0°C | 0% | 0hPa | 0V | 00:00:00 | 00:00:00 | 00:00:00 | |
| EA3GEO | 2026-09-06 00:27:53 | 41.41448 | 2.19022 | 339° | 31km/h | 26441m | 6.5m/s | 0°C | 0% | 0hPa | 0V | 00:00:00 | 00:00:00 | 00:00:00 | |
| EA3IBE | 2026-09-06 00:27:51 | 41.41435 | 2.19035 | 313° | 33km/h | 26430m | 3.0m/s | 0°C | 0% | 0hPa | 0V | 00:00:00 | 00:00:00 | 00:00:00 | |
| EA3GEO | 2026-09-06 00:27:47 | 41.41412 | 2.19046 | 20° | 27km/h | 26411m | 4.6m/s | 0°C | 0% | 0hPa | 0V | 00:00:00 | 00:00:00 | 00:00:00 | |
| EA3IBE | 2026-09-06 00:27:46 | 41.41405 | 2.19043 | 18° | 26km/h | 26407m | 4.8m/s | 0°C | 0% | 0hPa | 0V | 00:00:00 | 00:00:00 | 00:00:00 | |
| EA3IBE | 2026-09-06 00:27:40 | 41.41373 | 2.19063 | 332° | 27km/h | 26375m | 4.0m/s | 0°C | 0% | 0hPa | 0V | 00:00:00 | 00:00:00 | 00:00:00 | |
| EA3IBE | 2026-09-06 00:27:34 | 41.41340 | 2.19079 | 346° | 38km/h | 26343m | 4.4m/s | 0°C | 0% | 0hPa | 0V | 00:00:00 | 00:00:00 | 00:00:00 | |
| EA3GEO | 2026-09-06 00:27:29 | 41.41307 | 2.19112 | 326° | 26km/h | 26316m | 5.9m/s | 0°C | 0% | 0hPa | 0V | 00:00:00 | 00:00:00 | 00:00:00 | |
| EA3IBE | 2026-09-06 00:27:28 | 41.41301 | 2.19115 | 354° | 22km/h | 26310m | 5.9m/s | 0°C | 0% | 0hPa | 0V | 00:00:00 | 00:00:00 | 00:00:00 | |
| EA3IBE | 2026-09-06 00:27:23 | 41.41272 | 2.19123 | 335° | 37km/h | 26285m | 5.7m/s | 0°C | 0% | 0hPa | 0V | 00:00:00 | 00:00:00 | 00:00:00 | |
| EA3GEO | 2026-09-06 00:27:18 | 41.41229 | 2.19163 | 312° | 16km/h | 26253m | 3.7m/s | 0°C | 0% | 0hPa | 0V | 00:00:00 | 00:00:00 | 00:00:00 | |
| EA3IBE | 2026-09-06 00:27:13 | 41.41201 | 2.19176 | 342° | 44km/h | 26232m | 4.7m/s | 0°C | 0% | 0hPa | 0V | 00:00:00 | 00:00:00 | 00:00:00 | |
| EA3GEO | 2026-09-06 00:27:11 | 41.41183 | 2.19189 | 319° | 38km/h | 26222m | 5.4m/s | 0°C | 0% | 0hPa | 0V | 00:00:00 | 00:00:00 | 00:00:00 | |
| EA3IBE | 2026-09-06 00:27:07 | 41.41159 | 2.19220 | 327° | 22km/h | 26202m | 4.1m/s | 0°C | 0% | 0hPa | 0V | 00:00:00 | 00:00:00 | 00:00:00 | |
| EA3GEO | 2026-09-06 00:27:05 | 41.41153 | 2.19225 | 346° | 13km/h | 26191m | 5.3m/s | 0°C | 0% | 0hPa | 0V | 00:00:00 | 00:00:00 | 00:00:00 | |
| EA3IBE | 2026-09-06 00:27:02 | 41.41135 | 2.19233 | 337° | 40km/h | 26175m | 5.9m/s | 0°C | 0% | 0hPa | 0V | 00:00:00 | 00:00:00 | 00:00:00 | |
| EA3GEO | 2026-09-06 00:27:00 | 41.41117 | 2.19249 | 317° | 40km/h | 26167m | 4.7m/s | 0°C | 0% | 0hPa | 0V | 00:00:00 | 00:00:00 | 00:00:00 | |
| EA3IBE | 2026-09-06 00:26:57 | 41.41108 | 2.19272 | 284° | 13km/h | 26151m | 4.5m/s | 0°C | 0% | 0hPa | 0V | 00:00:00 | 00:00:00 | 00:00:00 | |
| EA3GEO | 2026-09-06 00:26:54 | 41.41099 | 2.19277 | 358° | 22km/h | 26135m | 4.0m/s | 0°C | 0% | 0hPa | 0V | 00:00:00 | 00:00:00 | 00:00:00 | |
| EA3IBE | 2026-09-06 00:26:50 | 41.41077 | 2.19295 | 312° | 37km/h | 26115m | 4.9m/s | 0°C | 0% | 0hPa | 0V | 00:00:00 | 00:00:00 | 00:00:00 | |
| EA3GEO | 2026-09-06 00:26:48 | 41.41063 | 2.19313 | 320° | 35km/h | 26104m | 4.3m/s | 0°C | 0% | 0hPa | 0V | 00:00:00 | 00:00:00 | 00:00:00 | |
| EA3IBE | 2026-09-06 00:26:44 | 41.41051 | 2.19332 | 283° | 5km/h | 26084m | 3.8m/s | 0°C | 0% | 0hPa | 0V | 00:00:00 | 00:00:00 | 00:00:00 | |
| EA3GEO | 2026-09-06 00:26:42 | 41.41047 | 2.19334 | 354° | 20km/h | 26074m | 6.2m/s | 0°C | 0% | 0hPa | 0V | 00:00:00 | 00:00:00 | 00:00:00 | |
| EA3IBE | 2026-09-06 00:26:38 | 41.41019 | 2.19353 | 312° | 31km/h | 26054m | 4.9m/s | 0°C | 0% | 0hPa | 0V | 00:00:00 | 00:00:00 | 00:00:00 | |
| EA3GEO | 2026-09-06 00:26:28 | 41.40981 | 2.19386 | 329° | 27km/h | 26002m | 3.5m/s | 0°C | 0% | 0hPa | 0V | 00:00:00 | 00:00:00 | 00:00:00 | |
| EA3IBE | 2026-09-06 00:26:26 | 41.40973 | 2.19396 | 299° | 16km/h | 25992m | 5.7m/s | 0°C | 0% | 0hPa | 0V | 00:00:00 | 00:00:00 | 00:00:00 | |
| EA3IBE | 2026-09-06 00:26:18 | 41.40949 | 2.19406 | 310° | 16km/h | 25951m | 4.7m/s | 0°C | 0% | 0hPa | 0V | 00:00:00 | 00:00:00 | 00:00:00 | |
| EA3GEO | 2026-09-06 00:26:16 | 41.40942 | 2.19414 | 327° | 20km/h | 25940m | 4.8m/s | 0°C | 0% | 0hPa | 0V | 00:00:00 | 00:00:00 | 00:00:00 | |
| EA3IBE | 2026-09-06 00:26:13 | 41.40931 | 2.19426 | 311° | 18km/h | 25924m | 5.4m/s | 0°C | 0% | 0hPa | 0V | 00:00:00 | 00:00:00 | 00:00:00 | |
| EA3GEO | 2026-09-06 00:26:11 | 41.40923 | 2.19436 | 330° | 26km/h | 25916m | 4.0m/s | 0°C | 0% | 0hPa | 0V | 00:00:00 | 00:00:00 | 00:00:00 | |
| EA3IBE | 2026-09-06 00:26:05 | 41.40886 | 2.19449 | 300° | 16km/h | 25884m | 4.5m/s | 0°C | 0% | 0hPa | 0V | 00:00:00 | 00:00:00 | 00:00:00 | |
| EA3GEO | 2026-09-06 00:26:03 | 41.40880 | 2.19461 | 317° | 27km/h | 25874m | 5.4m/s | 0°C | 0% | 0hPa | 0V | 00:00:00 | 00:00:00 | 00:00:00 | |
| EA3IBE | 2026-09-06 00:25:59 | 41.40853 | 2.19482 | 328° | 27km/h | 25855m | 5.1m/s | 0°C | 0% | 0hPa | 0V | 00:00:00 | 00:00:00 | 00:00:00 | |
| EA3GEO | 2026-09-06 00:25:57 | 41.40842 | 2.19493 | 325° | 31km/h | 25845m | 5.9m/s | 0°C | 0% | 0hPa | 0V | 00:00:00 | 00:00:00 | 00:00:00 | |
| EA3IBE | 2026-09-06 00:25:53 | 41.40821 | 2.19518 | 300° | 20km/h | 25823m | 5.1m/s | 0°C | 0% | 0hPa | 0V | 00:00:00 | 00:00:00 | 00:00:00 | |
| EA3GEO | 2026-09-06 00:25:51 | 41.40814 | 2.19531 | 314° | 27km/h | 25814m | 5.8m/s | 0°C | 0% | 0hPa | 0V | 00:00:00 | 00:00:00 | 00:00:00 | |
| EA3IBE | 2026-09-06 00:25:48 | 41.40792 | 2.19550 | 336° | 33km/h | 25798m | 4.7m/s | 0°C | 0% | 0hPa | 0V | 00:00:00 | 00:00:00 | 00:00:00 | |
| EA3IBE | 2026-09-06 00:25:43 | 41.40773 | 2.19577 | 301° | 31km/h | 25772m | 5.6m/s | 0°C | 0% | 0hPa | 0V | 00:00:00 | 00:00:00 | 00:00:00 | |
| EA3GEO | 2026-09-06 00:25:42 | 41.40769 | 2.19586 | 305° | 35km/h | 25767m | 4.3m/s | 0°C | 0% | 0hPa | 0V | 00:00:00 | 00:00:00 | 00:00:00 | |
| EA3IBE | 2026-09-06 00:25:37 | 41.40746 | 2.19621 | 322° | 29km/h | 25741m | 5.5m/s | 0°C | 0% | 0hPa | 0V | 00:00:00 | 00:00:00 | 00:00:00 | |
| EA3GEO | 2026-09-06 00:25:32 | 41.40727 | 2.19657 | 305° | 29km/h | 25712m | 6.1m/s | 0°C | 0% | 0hPa | 0V | 00:00:00 | 00:00:00 | 00:00:00 | |
| EA3IBE | 2026-09-06 00:25:27 | 41.40696 | 2.19695 | 317° | 20km/h | 25685m | 5.1m/s | 0°C | 0% | 0hPa | 0V | 00:00:00 | 00:00:00 | 00:00:00 | |
| EA3GEO | 2026-09-06 00:25:25 | 41.40692 | 2.19701 | 310° | 20km/h | 25680m | 4.1m/s | 0°C | 0% | 0hPa | 0V | 00:00:00 | 00:00:00 | 00:00:00 | |
| EA3IBE | 2026-09-06 00:25:20 | 41.40668 | 2.19746 | 301° | 37km/h | 25656m | 6.0m/s | 0°C | 0% | 0hPa | 0V | 00:00:00 | 00:00:00 | 00:00:00 | |
| EA3GEO | 2026-09-06 00:25:18 | 41.40661 | 2.19764 | 295° | 24km/h | 25644m | 4.9m/s | 0°C | 0% | 0hPa | 0V | 00:00:00 | 00:00:00 | 00:00:00 | |
| EA3IBE | 2026-09-06 00:25:14 | 41.40646 | 2.19794 | 300° | 31km/h | 25624m | 5.3m/s | 0°C | 0% | 0hPa | 0V | 00:00:00 | 00:00:00 | 00:00:00 | |
| EA3GEO | 2026-09-06 00:25:13 | 41.40640 | 2.19814 | 290° | 35km/h | 25613m | 4.6m/s | 0°C | 0% | 0hPa | 0V | 00:00:00 | 00:00:00 | 00:00:00 | |
| EA3IBE | 2026-09-06 00:25:08 | 41.40623 | 2.19858 | 295° | 33km/h | 25592m | 6.3m/s | 0°C | 0% | 0hPa | 0V | 00:00:00 | 00:00:00 | 00:00:00 | |
| EA3GEO | 2026-09-06 00:25:07 | 41.40621 | 2.19868 | 286° | 29km/h | 25586m | 5.9m/s | 0°C | 0% | 0hPa | 0V | 00:00:00 | 00:00:00 | 00:00:00 | |
| EA3IBE | 2026-09-06 00:25:03 | 41.40608 | 2.19910 | 301° | 44km/h | 25565m | 5.2m/s | 0°C | 0% | 0hPa | 0V | 00:00:00 | 00:00:00 | 00:00:00 | |
| EA3GEO | 2026-09-06 00:25:02 | 41.40603 | 2.19923 | 296° | 46km/h | 25560m | 4.4m/s | 0°C | 0% | 0hPa | 0V | 00:00:00 | 00:00:00 | 00:00:00 | |
| EA3IBE | 2026-09-06 00:24:57 | 41.40595 | 2.19986 | 287° | 33km/h | 25533m | 6.1m/s | 0°C | 0% | 0hPa | 0V | 00:00:00 | 00:00:00 | 00:00:00 | |
| EA3GEO | 2026-09-06 00:24:56 | 41.40592 | 2.19996 | 297° | 33km/h | 25528m | 5.3m/s | 0°C | 0% | 0hPa | 0V | 00:00:00 | 00:00:00 | 00:00:00 | |
| EA3IBE | 2026-09-06 00:24:51 | 41.40583 | 2.20053 | 277° | 42km/h | 25501m | 6.3m/s | 0°C | 0% | 0hPa | 0V | 00:00:00 | 00:00:00 | 00:00:00 | |
| EA3GEO | 2026-09-06 00:24:50 | 41.40582 | 2.20067 | 284° | 44km/h | 25494m | 6.1m/s | 0°C | 0% | 0hPa | 0V | 00:00:00 | 00:00:00 | 00:00:00 | |
| EA3GEO | 2026-09-06 00:24:45 | 41.40575 | 2.20119 | 279° | 24km/h | 25467m | 4.9m/s | 0°C | 0% | 0hPa | 0V | 00:00:00 | 00:00:00 | 00:00:00 | |
| EA3IBE | 2026-09-06 00:24:40 | 41.40565 | 2.20178 | 270° | 42km/h | 25438m | 5.2m/s | 0°C | 0% | 0hPa | 0V | 00:00:00 | 00:00:00 | 00:00:00 | |
| EA3GEO | 2026-09-06 00:24:39 | 41.40565 | 2.20192 | 270° | 38km/h | 25433m | 4.2m/s | 0°C | 0% | 0hPa | 0V | 00:00:00 | 00:00:00 | 00:00:00 | |
| EA3GEO | 2026-09-06 00:24:34 | 41.40556 | 2.20243 | 285° | 22km/h | 25405m | 6.9m/s | 0°C | 0% | 0hPa | 0V | 00:00:00 | 00:00:00 | 00:00:00 | |
| EA3IBE | 2026-09-06 00:24:29 | 41.40550 | 2.20293 | 281° | 40km/h | 25378m | 4.3m/s | 0°C | 0% | 0hPa | 0V | 00:00:00 | 00:00:00 | 00:00:00 | |
| EA3GEO | 2026-09-06 00:24:28 | 41.40549 | 2.20306 | 277° | 38km/h | 25373m | 5.9m/s | 0°C | 0% | 0hPa | 0V | 00:00:00 | 00:00:00 | 00:00:00 | |
| EA3IBE | 2026-09-06 00:24:24 | 41.40545 | 2.20343 | 301° | 27km/h | 25351m | 5.7m/s | 0°C | 0% | 0hPa | 0V | 00:00:00 | 00:00:00 | 00:00:00 | |
| EA3GEO | 2026-09-06 00:24:22 | 41.40539 | 2.20358 | 290° | 24km/h | 25341m | 5.3m/s | 0°C | 0% | 0hPa | 0V | 00:00:00 | 00:00:00 | 00:00:00 | |
| EA3IBE | 2026-09-06 00:24:19 | 41.40539 | 2.20382 | 270° | 29km/h | 25324m | 4.9m/s | 0°C | 0% | 0hPa | 0V | 00:00:00 | 00:00:00 | 00:00:00 | |
| EA3GEO | 2026-09-06 00:24:17 | 41.40536 | 2.20403 | 286° | 37km/h | 25313m | 4.7m/s | 0°C | 0% | 0hPa | 0V | 00:00:00 | 00:00:00 | 00:00:00 | |
| EA3IBE | 2026-09-06 00:24:12 | 41.40532 | 2.20446 | 280° | 16km/h | 25286m | 6.5m/s | 0°C | 0% | 0hPa | 0V | 00:00:00 | 00:00:00 | 00:00:00 | |
| EA3GEO | 2026-09-06 00:24:11 | 41.40530 | 2.20452 | 297° | 20km/h | 25280m | 5.7m/s | 0°C | 0% | 0hPa | 0V | 00:00:00 | 00:00:00 | 00:00:00 | |
| EA3IBE | 2026-09-06 00:24:06 | 41.40532 | 2.20497 | 257° | 31km/h | 25253m | 5.2m/s | 0°C | 0% | 0hPa | 0V | 00:00:00 | 00:00:00 | 00:00:00 | |
| EA3GEO | 2026-09-06 00:24:04 | 41.40533 | 2.20516 | 284° | 22km/h | 25242m | 4.6m/s | 0°C | 0% | 0hPa | 0V | 00:00:00 | 00:00:00 | 00:00:00 | |
| EA3IBE | 2026-09-06 00:24:01 | 41.40531 | 2.20529 | 266° | 9km/h | 25225m | 5.1m/s | 0°C | 0% | 0hPa | 0V | 00:00:00 | 00:00:00 | 00:00:00 | |
| EA3GEO | 2026-09-06 00:23:57 | 41.40526 | 2.20554 | 284° | 29km/h | 25204m | 3.7m/s | 0°C | 0% | 0hPa | 0V | 00:00:00 | 00:00:00 | 00:00:00 | |
| EA3IBE | 2026-09-06 00:23:56 | 41.40525 | 2.20563 | 271° | 27km/h | 25200m | 5.9m/s | 0°C | 0% | 0hPa | 0V | 00:00:00 | 00:00:00 | 00:00:00 | |
| EA3IBE | 2026-09-06 00:23:49 | 41.40523 | 2.20594 | 284° | 9km/h | 25161m | 6.2m/s | 0°C | 0% | 0hPa | 0V | 00:00:00 | 00:00:00 | 00:00:00 | |
| EA3IBE | 2026-09-06 00:23:44 | 41.40522 | 2.20626 | 306° | 26km/h | 25134m | 3.9m/s | 0°C | 0% | 0hPa | 0V | 00:00:00 | 00:00:00 | 00:00:00 | |
| EA3IBE | 2026-09-06 00:23:38 | 41.40516 | 2.20638 | 286° | 11km/h | 25101m | 5.3m/s | 0°C | 0% | 0hPa | 0V | 00:00:00 | 00:00:00 | 00:00:00 | |
| EA3GEO | 2026-09-06 00:23:34 | 41.40515 | 2.20664 | 284° | 24km/h | 25077m | 5.3m/s | 0°C | 0% | 0hPa | 0V | 00:00:00 | 00:00:00 | 00:00:00 | |
| EA3IBE | 2026-09-06 00:23:33 | 41.40512 | 2.20671 | 304° | 24km/h | 25072m | 6.6m/s | 0°C | 0% | 0hPa | 0V | 00:00:00 | 00:00:00 | 00:00:00 | |
| EA3IBE | 2026-09-06 00:23:27 | 41.40499 | 2.20673 | 273° | 11km/h | 25039m | 7.3m/s | 0°C | 0% | 0hPa | 0V | 00:00:00 | 00:00:00 | 00:00:00 | |
| EA3GEO | 2026-09-06 00:23:25 | 41.40497 | 2.20687 | 290° | 31km/h | 25027m | 5.1m/s | 0°C | 0% | 0hPa | 0V | 00:00:00 | 00:00:00 | 00:00:00 | |
| EA3IBE | 2026-09-06 00:23:20 | 41.40484 | 2.20711 | 16° | 15km/h | 25002m | 6.3m/s | 0°C | 0% | 0hPa | 0V | 00:00:00 | 00:00:00 | 00:00:00 | |
| EA3GEO | 2026-09-06 00:23:15 | 41.40469 | 2.20713 | 257° | 9km/h | 24974m | 5.1m/s | 0°C | 0% | 0hPa | 0V | 00:00:00 | 00:00:00 | 00:00:00 | |
| EA3IBE | 2026-09-06 00:23:14 | 41.40470 | 2.20717 | 271° | 15km/h | 24970m | 4.9m/s | 0°C | 0% | 0hPa | 0V | 00:00:00 | 00:00:00 | 00:00:00 | |
| EA3IBE | 2026-09-06 00:23:09 | 41.40459 | 2.20735 | 1° | 4km/h | 24941m | 5.0m/s | 0°C | 0% | 0hPa | 0V | 00:00:00 | 00:00:00 | 00:00:00 | |
| EA3GEO | 2026-09-06 00:23:08 | 41.40458 | 2.20735 | 347° | 2km/h | 24936m | 3.9m/s | 0°C | 0% | 0hPa | 0V | 00:00:00 | 00:00:00 | 00:00:00 | |
| EA3IBE | 2026-09-06 00:23:03 | 41.40454 | 2.20752 | 272° | 11km/h | 24910m | 6.0m/s | 0°C | 0% | 0hPa | 0V | 00:00:00 | 00:00:00 | 00:00:00 | |
| EA3GEO | 2026-09-06 00:23:00 | 41.40453 | 2.20762 | 295° | 16km/h | 24894m | 6.7m/s | 0°C | 0% | 0hPa | 0V | 00:00:00 | 00:00:00 | 00:00:00 | |
| EA3IBE | 2026-09-06 00:22:57 | 41.40448 | 2.20776 | 277° | 9km/h | 24877m | 6.1m/s | 0°C | 0% | 0hPa | 0V | 00:00:00 | 00:00:00 | 00:00:00 | |
| EA3GEO | 2026-09-06 00:22:54 | 41.40451 | 2.20783 | 265° | 13km/h | 24862m | 6.6m/s | 0°C | 0% | 0hPa | 0V | 00:00:00 | 00:00:00 | 00:00:00 | |
| EA3IBE | 2026-09-06 00:22:51 | 41.40452 | 2.20804 | 257° | 26km/h | 24845m | 5.5m/s | 0°C | 0% | 0hPa | 0V | 00:00:00 | 00:00:00 | 00:00:00 | |
| EA3GEO | 2026-09-06 00:22:48 | 41.40457 | 2.20825 | 270° | 18km/h | 24830m | 5.8m/s | 0°C | 0% | 0hPa | 0V | 00:00:00 | 00:00:00 | 00:00:00 | |
| EA3IBE | 2026-09-06 00:22:46 | 41.40455 | 2.20832 | 329° | 5km/h | 24819m | 5.6m/s | 0°C | 0% | 0hPa | 0V | 00:00:00 | 00:00:00 | 00:00:00 | |
| EA3IBE | 2026-09-06 00:22:41 | 41.40451 | 2.20843 | 278° | 26km/h | 24791m | 4.6m/s | 0°C | 0% | 0hPa | 0V | 00:00:00 | 00:00:00 | 00:00:00 | |
| EA3GEO | 2026-09-06 00:22:40 | 41.40450 | 2.20852 | 268° | 24km/h | 24786m | 4.6m/s | 0°C | 0% | 0hPa | 0V | 00:00:00 | 00:00:00 | 00:00:00 | |
| EA3IBE | 2026-09-06 00:22:35 | 41.40449 | 2.20865 | 17° | 13km/h | 24759m | 4.8m/s | 0°C | 0% | 0hPa | 0V | 00:00:00 | 00:00:00 | 00:00:00 | |
| EA3GEO | 2026-09-06 00:22:34 | 41.40446 | 2.20864 | 26° | 15km/h | 24754m | 5.9m/s | 0°C | 0% | 0hPa | 0V | 00:00:00 | 00:00:00 | 00:00:00 | |
| EA3IBE | 2026-09-06 00:22:30 | 41.40435 | 2.20870 | 292° | 24km/h | 24732m | 6.4m/s | 0°C | 0% | 0hPa | 0V | 00:00:00 | 00:00:00 | 00:00:00 | |
| EA3GEO | 2026-09-06 00:22:28 | 41.40433 | 2.20884 | 273° | 16km/h | 24723m | 5.2m/s | 0°C | 0% | 0hPa | 0V | 00:00:00 | 00:00:00 | 00:00:00 | |
| EA3IBE | 2026-09-06 00:22:25 | 41.40432 | 2.20883 | 60° | 16km/h | 24707m | 5.0m/s | 0°C | 0% | 0hPa | 0V | 00:00:00 | 00:00:00 | 00:00:00 | |
| EA3GEO | 2026-09-06 00:22:22 | 41.40420 | 2.20877 | 353° | 18km/h | 24692m | 5.0m/s | 0°C | 0% | 0hPa | 0V | 00:00:00 | 00:00:00 | 00:00:00 | |
| EA3IBE | 2026-09-06 00:22:18 | 41.40408 | 2.20886 | 303° | 15km/h | 24669m | 6.2m/s | 0°C | 0% | 0hPa | 0V | 00:00:00 | 00:00:00 | 00:00:00 | |
| EA3GEO | 2026-09-06 00:22:16 | 41.40404 | 2.20894 | 332° | 15km/h | 24659m | 2.9m/s | 0°C | 0% | 0hPa | 0V | 00:00:00 | 00:00:00 | 00:00:00 | |
| EA3IBE | 2026-09-06 00:22:13 | 41.40392 | 2.20889 | 38° | 24km/h | 24645m | 4.4m/s | 0°C | 0% | 0hPa | 0V | 00:00:00 | 00:00:00 | 00:00:00 | |
| EA3GEO | 2026-09-06 00:22:09 | 41.40371 | 2.20895 | 300° | 29km/h | 24624m | 4.3m/s | 0°C | 0% | 0hPa | 0V | 00:00:00 | 00:00:00 | 00:00:00 | |
| EA3IBE | 2026-09-06 00:22:08 | 41.40369 | 2.20903 | 284° | 24km/h | 24620m | 5.3m/s | 0°C | 0% | 0hPa | 0V | 00:00:00 | 00:00:00 | 00:00:00 | |
| EA3IBE | 2026-09-06 00:22:03 | 41.40358 | 2.20915 | 337° | 20km/h | 24595m | 4.7m/s | 0°C | 0% | 0hPa | 0V | 00:00:00 | 00:00:00 | 00:00:00 | |
| EA3IBE | 2026-09-06 00:21:58 | 41.40345 | 2.20932 | 305° | 11km/h | 24569m | 4.6m/s | 0°C | 0% | 0hPa | 0V | 00:00:00 | 00:00:00 | 00:00:00 | |
| EA3IBE | 2026-09-06 00:21:52 | 41.40333 | 2.20950 | 305° | 9km/h | 24537m | 4.9m/s | 0°C | 0% | 0hPa | 0V | 00:00:00 | 00:00:00 | 00:00:00 | |
| EA3IBE | 2026-09-06 00:21:47 | 41.40327 | 2.20976 | 267° | 18km/h | 24510m | 5.0m/s | 0°C | 0% | 0hPa | 0V | 00:00:00 | 00:00:00 | 00:00:00 | |
| EA3GEO | 2026-09-06 00:21:45 | 41.40327 | 2.20988 | 283° | 20km/h | 24499m | 6.3m/s | 0°C | 0% | 0hPa | 0V | 00:00:00 | 00:00:00 | 00:00:00 | |
| EA3IBE | 2026-09-06 00:21:42 | 41.40325 | 2.21005 | 252° | 11km/h | 24485m | 6.0m/s | 0°C | 0% | 0hPa | 0V | 00:00:00 | 00:00:00 | 00:00:00 | |
| EA3GEO | 2026-09-06 00:21:39 | 41.40328 | 2.21015 | 278° | 15km/h | 24470m | 6.1m/s | 0°C | 0% | 0hPa | 0V | 00:00:00 | 00:00:00 | 00:00:00 | |
| EA3IBE | 2026-09-06 00:21:36 | 41.40325 | 2.21034 | 271° | 18km/h | 24455m | 5.5m/s | 0°C | 0% | 0hPa | 0V | 00:00:00 | 00:00:00 | 00:00:00 | |
| EA3GEO | 2026-09-06 00:21:34 | 41.40328 | 2.21044 | 232° | 15km/h | 24445m | 4.6m/s | 0°C | 0% | 0hPa | 0V | 00:00:00 | 00:00:00 | 00:00:00 | |
| EA3IBE | 2026-09-06 00:21:30 | 41.40335 | 2.21058 | 220° | 5km/h | 24424m | 6.6m/s | 0°C | 0% | 0hPa | 0V | 00:00:00 | 00:00:00 | 00:00:00 | |
| EA3GEO | 2026-09-06 00:21:28 | 41.40336 | 2.21060 | 272° | 5km/h | 24414m | 4.8m/s | 0°C | 0% | 0hPa | 0V | 00:00:00 | 00:00:00 | 00:00:00 | |
| EA3IBE | 2026-09-06 00:21:24 | 41.40335 | 2.21081 | 255° | 16km/h | 24393m | 5.8m/s | 0°C | 0% | 0hPa | 0V | 00:00:00 | 00:00:00 | 00:00:00 | |
| EA3IBE | 2026-09-06 00:21:19 | 41.40341 | 2.21085 | 273° | 7km/h | 24367m | 4.5m/s | 0°C | 0% | 0hPa | 0V | 00:00:00 | 00:00:00 | 00:00:00 | |
| EA3IBE | 2026-09-06 00:21:13 | 41.40351 | 2.21102 | 261° | 13km/h | 24336m | 5.0m/s | 0°C | 0% | 0hPa | 0V | 00:00:00 | 00:00:00 | 00:00:00 | |
| EA3IBE | 2026-09-06 00:21:07 | 41.40362 | 2.21114 | 244° | 7km/h | 24305m | 5.4m/s | 0°C | 0% | 0hPa | 0V | 00:00:00 | 00:00:00 | 00:00:00 | |
| EA3IBE | 2026-09-06 00:21:02 | 41.40366 | 2.21118 | 273° | 4km/h | 24281m | 6.6m/s | 0°C | 0% | 0hPa | 0V | 00:00:00 | 00:00:00 | 00:00:00 | |
| EA3IBE | 2026-09-06 00:20:57 | 41.40370 | 2.21130 | 182° | 11km/h | 24253m | 4.3m/s | 0°C | 0% | 0hPa | 0V | 00:00:00 | 00:00:00 | 00:00:00 | |
| EA3IBE | 2026-09-06 00:20:52 | 41.40371 | 2.21127 | 0° | 0km/h | 24226m | 5.1m/s | 0°C | 0% | 0hPa | 0V | 00:00:00 | 00:00:00 | 00:00:00 | |
| EA3IBE | 2026-09-06 00:20:46 | 41.40367 | 2.21141 | 0° | 0km/h | 24196m | 6.2m/s | 0°C | 0% | 0hPa | 0V | 00:00:00 | 00:00:00 | 00:00:00 | |
| EA3IBE | 2026-09-06 00:20:40 | 41.40359 | 2.21140 | 345° | 16km/h | 24165m | 5.9m/s | 0°C | 0% | 0hPa | 0V | 00:00:00 | 00:00:00 | 00:00:00 | |
| EA3IBE | 2026-09-06 00:20:34 | 41.40353 | 2.21151 | 209° | 7km/h | 24133m | 5.7m/s | 0°C | 0% | 0hPa | 0V | 00:00:00 | 00:00:00 | 00:00:00 | |
| EA3GEO | 2026-09-06 00:20:30 | 41.40351 | 2.21151 | 320° | 16km/h | 24112m | 6.0m/s | 0°C | 0% | 0hPa | 0V | 00:00:00 | 00:00:00 | 00:00:00 | |
| EA3IBE | 2026-09-06 00:20:26 | 41.40341 | 2.21166 | 360° | 9km/h | 24090m | 6.3m/s | 0°C | 0% | 0hPa | 0V | 00:00:00 | 00:00:00 | 00:00:00 | |
| EA3IBE | 2026-09-06 00:20:20 | 41.40338 | 2.21182 | 276° | 15km/h | 24061m | 4.9m/s | 0°C | 0% | 0hPa | 0V | 00:00:00 | 00:00:00 | 00:00:00 | |
| EA3IBE | 2026-09-06 00:20:14 | 41.40323 | 2.21198 | 301° | 15km/h | 24026m | 5.7m/s | 0°C | 0% | 0hPa | 0V | 00:00:00 | 00:00:00 | 00:00:00 | |
| EA3GEO | 2026-09-06 00:20:12 | 41.40321 | 2.21206 | 298° | 15km/h | 24016m | 4.1m/s | 0°C | 0% | 0hPa | 0V | 00:00:00 | 00:00:00 | 00:00:00 | |
| EA3IBE | 2026-09-06 00:20:09 | 41.40315 | 2.21226 | 292° | 26km/h | 24000m | 4.8m/s | 0°C | 0% | 0hPa | 0V | 00:00:00 | 00:00:00 | 00:00:00 | |
| EA3GEO | 2026-09-06 00:20:06 | 41.40305 | 2.21239 | 3° | 16km/h | 23984m | 5.3m/s | 0°C | 0% | 0hPa | 0V | 00:00:00 | 00:00:00 | 00:00:00 | |
| EA3IBE | 2026-09-06 00:20:04 | 41.40297 | 2.21239 | 347° | 15km/h | 23974m | 7.0m/s | 0°C | 0% | 0hPa | 0V | 00:00:00 | 00:00:00 | 00:00:00 | |
| EA3GEO | 2026-09-06 00:20:00 | 41.40288 | 2.21262 | 293° | 20km/h | 23950m | 6.4m/s | 0°C | 0% | 0hPa | 0V | 00:00:00 | 00:00:00 | 00:00:00 | |
| EA3IBE | 2026-09-06 00:19:57 | 41.40278 | 2.21280 | 311° | 26km/h | 23935m | 6.2m/s | 0°C | 0% | 0hPa | 0V | 00:00:00 | 00:00:00 | 00:00:00 | |
| EA3GEO | 2026-09-06 00:19:54 | 41.40265 | 2.21298 | 325° | 20km/h | 23920m | 5.2m/s | 0°C | 0% | 0hPa | 0V | 00:00:00 | 00:00:00 | 00:00:00 | |
| EA3IBE | 2026-09-06 00:19:51 | 41.40258 | 2.21300 | 4° | 2km/h | 23902m | 4.4m/s | 0°C | 0% | 0hPa | 0V | 00:00:00 | 00:00:00 | 00:00:00 | |
| EA3GEO | 2026-09-06 00:19:48 | 41.40257 | 2.21313 | 281° | 24km/h | 23886m | 5.1m/s | 0°C | 0% | 0hPa | 0V | 00:00:00 | 00:00:00 | 00:00:00 | |
| EA3IBE | 2026-09-06 00:19:45 | 41.40247 | 2.21331 | 339° | 20km/h | 23869m | 5.7m/s | 0°C | 0% | 0hPa | 0V | 00:00:00 | 00:00:00 | 00:00:00 | |
| EA3GEO | 2026-09-06 00:19:42 | 41.40234 | 2.21340 | 305° | 15km/h | 23852m | 5.5m/s | 0°C | 0% | 0hPa | 0V | 00:00:00 | 00:00:00 | 00:00:00 | |
| EA3IBE | 2026-09-06 00:19:40 | 41.40233 | 2.21346 | 262° | 5km/h | 23841m | 6.2m/s | 0°C | 0% | 0hPa | 0V | 00:00:00 | 00:00:00 | 00:00:00 | |
| EA3GEO | 2026-09-06 00:19:36 | 41.40228 | 2.21353 | 318° | 18km/h | 23819m | 7.0m/s | 0°C | 0% | 0hPa | 0V | 00:00:00 | 00:00:00 | 00:00:00 | |
| EA3IBE | 2026-09-06 00:19:32 | 41.40212 | 2.21371 | 352° | 11km/h | 23797m | 5.8m/s | 0°C | 0% | 0hPa | 0V | 00:00:00 | 00:00:00 | 00:00:00 | |
| EA3GEO | 2026-09-06 00:19:30 | 41.40208 | 2.21371 | 334° | 4km/h | 23787m | 4.9m/s | 0°C | 0% | 0hPa | 0V | 00:00:00 | 00:00:00 | 00:00:00 | |
| EA3IBE | 2026-09-06 00:19:27 | 41.40205 | 2.21383 | 302° | 24km/h | 23770m | 4.3m/s | 0°C | 0% | 0hPa | 0V | 00:00:00 | 00:00:00 | 00:00:00 | |
| EA3GEO | 2026-09-06 00:19:24 | 41.40196 | 2.21395 | 337° | 11km/h | 23754m | 4.8m/s | 0°C | 0% | 0hPa | 0V | 00:00:00 | 00:00:00 | 00:00:00 | |
| EA3IBE | 2026-09-06 00:19:22 | 41.40192 | 2.21400 | 290° | 13km/h | 23744m | 5.6m/s | 0°C | 0% | 0hPa | 0V | 00:00:00 | 00:00:00 | 00:00:00 | |
| EA3GEO | 2026-09-06 00:19:18 | 41.40180 | 2.21418 | 334° | 22km/h | 23722m | 4.4m/s | 0°C | 0% | 0hPa | 0V | 00:00:00 | 00:00:00 | 00:00:00 | |
| EA3IBE | 2026-09-06 00:19:16 | 41.40173 | 2.21425 | 302° | 15km/h | 23713m | 5.5m/s | 0°C | 0% | 0hPa | 0V | 00:00:00 | 00:00:00 | 00:00:00 | |
| EA3GEO | 2026-09-06 00:19:12 | 41.40178 | 2.21445 | 268° | 11km/h | 23690m | 6.2m/s | 0°C | 0% | 0hPa | 0V | 00:00:00 | 00:00:00 | 00:00:00 | |
| EA3IBE | 2026-09-06 00:19:11 | 41.40177 | 2.21449 | 308° | 11km/h | 23684m | 5.6m/s | 0°C | 0% | 0hPa | 0V | 00:00:00 | 00:00:00 | 00:00:00 | |
| EA3GEO | 2026-09-06 00:19:07 | 41.40167 | 2.21469 | 291° | 20km/h | 23662m | 5.1m/s | 0°C | 0% | 0hPa | 0V | 00:00:00 | 00:00:00 | 00:00:00 | |
| EA3IBE | 2026-09-06 00:19:04 | 41.40163 | 2.21484 | 262° | 11km/h | 23645m | 4.3m/s | 0°C | 0% | 0hPa | 0V | 00:00:00 | 00:00:00 | 00:00:00 | |
| EA3GEO | 2026-09-06 00:19:00 | 41.40173 | 2.21507 | 251° | 22km/h | 23624m | 4.8m/s | 0°C | 0% | 0hPa | 0V | 00:00:00 | 00:00:00 | 00:00:00 | |
| EA3IBE | 2026-09-06 00:18:59 | 41.40174 | 2.21513 | 265° | 18km/h | 23619m | 5.6m/s | 0°C | 0% | 0hPa | 0V | 00:00:00 | 00:00:00 | 00:00:00 | |
| EA3GEO | 2026-09-06 00:18:54 | 41.40172 | 2.21543 | 247° | 24km/h | 23593m | 4.5m/s | 0°C | 0% | 0hPa | 0V | 00:00:00 | 00:00:00 | 00:00:00 | |
| EA3IBE | 2026-09-06 00:18:53 | 41.40174 | 2.21550 | 232° | 20km/h | 23588m | 5.6m/s | 0°C | 0% | 0hPa | 0V | 00:00:00 | 00:00:00 | 00:00:00 | |
| EA3GEO | 2026-09-06 00:18:48 | 41.40179 | 2.21574 | 272° | 26km/h | 23562m | 5.4m/s | 0°C | 0% | 0hPa | 0V | 00:00:00 | 00:00:00 | 00:00:00 | |
| EA3IBE | 2026-09-06 00:18:46 | 41.40179 | 2.21591 | 272° | 24km/h | 23553m | 5.4m/s | 0°C | 0% | 0hPa | 0V | 00:00:00 | 00:00:00 | 00:00:00 | |
| EA3GEO | 2026-09-06 00:18:40 | 41.40178 | 2.21627 | 277° | 24km/h | 23521m | 4.0m/s | 0°C | 0% | 0hPa | 0V | 00:00:00 | 00:00:00 | 00:00:00 | |
| EA3GEO | 2026-09-06 00:18:34 | 41.40179 | 2.21662 | 258° | 29km/h | 23487m | 5.1m/s | 0°C | 0% | 0hPa | 0V | 00:00:00 | 00:00:00 | 00:00:00 | |
| EA3IBE | 2026-09-06 00:18:29 | 41.40187 | 2.21696 | 257° | 20km/h | 23462m | 5.8m/s | 0°C | 0% | 0hPa | 0V | 00:00:00 | 00:00:00 | 00:00:00 | |
| EA3GEO | 2026-09-06 00:18:28 | 41.40188 | 2.21703 | 268° | 27km/h | 23456m | 4.9m/s | 0°C | 0% | 0hPa | 0V | 00:00:00 | 00:00:00 | 00:00:00 | |
| EA3IBE | 2026-09-06 00:18:24 | 41.40192 | 2.21728 | 207° | 13km/h | 23437m | 4.6m/s | 0°C | 0% | 0hPa | 0V | 00:00:00 | 00:00:00 | 00:00:00 | |
| EA3GEO | 2026-09-06 00:18:23 | 41.40195 | 2.21730 | 202° | 20km/h | 23433m | 3.8m/s | 0°C | 0% | 0hPa | 0V | 00:00:00 | 00:00:00 | 00:00:00 | |
| EA3IBE | 2026-09-06 00:18:19 | 41.40216 | 2.21760 | 251° | 31km/h | 23414m | 3.6m/s | 0°C | 0% | 0hPa | 0V | 00:00:00 | 00:00:00 | 00:00:00 | |
| EA3GEO | 2026-09-06 00:18:17 | 41.40218 | 2.21775 | 280° | 13km/h | 23402m | 6.0m/s | 0°C | 0% | 0hPa | 0V | 00:00:00 | 00:00:00 | 00:00:00 | |
| EA3IBE | 2026-09-06 00:18:12 | 41.40225 | 2.21800 | 240° | 27km/h | 23378m | 5.2m/s | 0°C | 0% | 0hPa | 0V | 00:00:00 | 00:00:00 | 00:00:00 | |
| EA3GEO | 2026-09-06 00:18:11 | 41.40229 | 2.21808 | 240° | 27km/h | 23373m | 5.6m/s | 0°C | 0% | 0hPa | 0V | 00:00:00 | 00:00:00 | 00:00:00 | |
| EA3IBE | 2026-09-06 00:18:07 | 41.40245 | 2.21837 | 232° | 29km/h | 23352m | 4.8m/s | 0°C | 0% | 0hPa | 0V | 00:00:00 | 00:00:00 | 00:00:00 | |
| EA3GEO | 2026-09-06 00:18:04 | 41.40251 | 2.21857 | 268° | 13km/h | 23338m | 4.1m/s | 0°C | 0% | 0hPa | 0V | 00:00:00 | 00:00:00 | 00:00:00 | |
| EA3IBE | 2026-09-06 00:18:01 | 41.40257 | 2.21871 | 227° | 22km/h | 23323m | 5.5m/s | 0°C | 0% | 0hPa | 0V | 00:00:00 | 00:00:00 | 00:00:00 | |
| EA3GEO | 2026-09-06 00:17:57 | 41.40273 | 2.21897 | 233° | 27km/h | 23301m | 5.5m/s | 0°C | 0% | 0hPa | 0V | 00:00:00 | 00:00:00 | 00:00:00 | |
| EA3IBE | 2026-09-06 00:17:56 | 41.40277 | 2.21903 | 224° | 26km/h | 23296m | 4.7m/s | 0°C | 0% | 0hPa | 0V | 00:00:00 | 00:00:00 | 00:00:00 | |
| EA3IBE | 2026-09-06 00:17:50 | 41.40295 | 2.21917 | 218° | 22km/h | 23268m | 4.8m/s | 0°C | 0% | 0hPa | 0V | 00:00:00 | 00:00:00 | 00:00:00 | |
| EA3GEO | 2026-09-06 00:17:47 | 41.40305 | 2.21939 | 259° | 27km/h | 23253m | 5.0m/s | 0°C | 0% | 0hPa | 0V | 00:00:00 | 00:00:00 | 00:00:00 | |
| EA3IBE | 2026-09-06 00:17:44 | 41.40309 | 2.21961 | 245° | 20km/h | 23239m | 5.7m/s | 0°C | 0% | 0hPa | 0V | 00:00:00 | 00:00:00 | 00:00:00 | |
| EA3GEO | 2026-09-06 00:17:42 | 41.40314 | 2.21972 | 241° | 18km/h | 23230m | 3.8m/s | 0°C | 0% | 0hPa | 0V | 00:00:00 | 00:00:00 | 00:00:00 | |
| EA3IBE | 2026-09-06 00:17:38 | 41.40318 | 2.22000 | 260° | 29km/h | 23211m | 5.9m/s | 0°C | 0% | 0hPa | 0V | 00:00:00 | 00:00:00 | 00:00:00 | |
| EA3GEO | 2026-09-06 00:17:35 | 41.40323 | 2.22030 | 263° | 29km/h | 23196m | 5.8m/s | 0°C | 0% | 0hPa | 0V | 00:00:00 | 00:00:00 | 00:00:00 | |
| EA3IBE | 2026-09-06 00:17:33 | 41.40324 | 2.22046 | 261° | 18km/h | 23186m | 4.8m/s | 0°C | 0% | 0hPa | 0V | 00:00:00 | 00:00:00 | 00:00:00 | |
| EA3GEO | 2026-09-06 00:17:30 | 41.40330 | 2.22062 | 245° | 20km/h | 23171m | 4.7m/s | 0°C | 0% | 0hPa | 0V | 00:00:00 | 00:00:00 | 00:00:00 | |
| EA3IBE | 2026-09-06 00:17:27 | 41.40333 | 2.22083 | 260° | 22km/h | 23155m | 5.6m/s | 0°C | 0% | 0hPa | 0V | 00:00:00 | 00:00:00 | 00:00:00 | |
| EA3GEO | 2026-09-06 00:17:25 | 41.40336 | 2.22097 | 249° | 20km/h | 23146m | 3.4m/s | 0°C | 0% | 0hPa | 0V | 00:00:00 | 00:00:00 | 00:00:00 | |
| EA3IBE | 2026-09-06 00:17:22 | 41.40337 | 2.22112 | 285° | 13km/h | 23131m | 4.1m/s | 0°C | 0% | 0hPa | 0V | 00:00:00 | 00:00:00 | 00:00:00 | |
| EA3GEO | 2026-09-06 00:17:18 | 41.40339 | 2.22132 | 270° | 13km/h | 23113m | 5.6m/s | 0°C | 0% | 0hPa | 0V | 00:00:00 | 00:00:00 | 00:00:00 | |
| EA3IBE | 2026-09-06 00:17:17 | 41.40338 | 2.22136 | 281° | 11km/h | 23107m | 4.7m/s | 0°C | 0% | 0hPa | 0V | 00:00:00 | 00:00:00 | 00:00:00 | |
| EA3GEO | 2026-09-06 00:17:12 | 41.40345 | 2.22158 | 248° | 13km/h | 23085m | 5.7m/s | 0°C | 0% | 0hPa | 0V | 00:00:00 | 00:00:00 | 00:00:00 | |
| EA3IBE | 2026-09-06 00:17:11 | 41.40345 | 2.22162 | 281° | 11km/h | 23079m | 4.8m/s | 0°C | 0% | 0hPa | 0V | 00:00:00 | 00:00:00 | 00:00:00 | |
| EA3IBE | 2026-09-06 00:17:06 | 41.40342 | 2.22189 | 281° | 18km/h | 23057m | 4.5m/s | 0°C | 0% | 0hPa | 0V | 00:00:00 | 00:00:00 | 00:00:00 | |
| EA3GEO | 2026-09-06 00:17:01 | 41.40338 | 2.22214 | 257° | 20km/h | 23033m | 3.7m/s | 0°C | 0% | 0hPa | 0V | 00:00:00 | 00:00:00 | 00:00:00 | |
| EA3IBE | 2026-09-06 00:17:00 | 41.40338 | 2.22220 | 268° | 20km/h | 23030m | 3.5m/s | 0°C | 0% | 0hPa | 0V | 00:00:00 | 00:00:00 | 00:00:00 | |
| EA3GEO | 2026-09-06 00:16:55 | 41.40325 | 2.22249 | 294° | 18km/h | 23004m | 5.2m/s | 0°C | 0% | 0hPa | 0V | 00:00:00 | 00:00:00 | 00:00:00 | |
| EA3IBE | 2026-09-06 00:16:49 | 41.40321 | 2.22278 | 288° | 16km/h | 22979m | 5.6m/s | 0°C | 0% | 0hPa | 0V | 00:00:00 | 00:00:00 | 00:00:00 | |
| EA3GEO | 2026-09-06 00:16:44 | 41.40307 | 2.22305 | 301° | 18km/h | 22955m | 5.8m/s | 0°C | 0% | 0hPa | 0V | 00:00:00 | 00:00:00 | 00:00:00 | |
| EA3GEO | 2026-09-06 00:16:38 | 41.40291 | 2.22338 | 313° | 27km/h | 22928m | 4.6m/s | 0°C | 0% | 0hPa | 0V | 00:00:00 | 00:00:00 | 00:00:00 | |
| EA3IBE | 2026-09-06 00:16:35 | 41.40279 | 2.22364 | 301° | 33km/h | 22915m | 3.5m/s | 0°C | 0% | 0hPa | 0V | 00:00:00 | 00:00:00 | 00:00:00 | |
| EA3GEO | 2026-09-06 00:16:32 | 41.40267 | 2.22385 | 311° | 18km/h | 22901m | 4.2m/s | 0°C | 0% | 0hPa | 0V | 00:00:00 | 00:00:00 | 00:00:00 | |
| EA3IBE | 2026-09-06 00:16:30 | 41.40265 | 2.22393 | 264° | 13km/h | 22891m | 3.5m/s | 0°C | 0% | 0hPa | 0V | 00:00:00 | 00:00:00 | 00:00:00 | |
| EA3GEO | 2026-09-06 00:16:26 | 41.40257 | 2.22414 | 312° | 27km/h | 22873m | 5.2m/s | 0°C | 0% | 0hPa | 0V | 00:00:00 | 00:00:00 | 00:00:00 | |
| EA3IBE | 2026-09-06 00:16:24 | 41.40249 | 2.22431 | 292° | 33km/h | 22862m | 5.3m/s | 0°C | 0% | 0hPa | 0V | 00:00:00 | 00:00:00 | 00:00:00 | |
| EA3GEO | 2026-09-06 00:16:21 | 41.40241 | 2.22459 | 305° | 26km/h | 22849m | 5.1m/s | 0°C | 0% | 0hPa | 0V | 00:00:00 | 00:00:00 | 00:00:00 | |
| EA3IBE | 2026-09-06 00:16:18 | 41.40233 | 2.22473 | 286° | 15km/h | 22835m | 5.4m/s | 0°C | 0% | 0hPa | 0V | 00:00:00 | 00:00:00 | 00:00:00 | |
| EA3GEO | 2026-09-06 00:16:15 | 41.40229 | 2.22494 | 298° | 29km/h | 22821m | 5.7m/s | 0°C | 0% | 0hPa | 0V | 00:00:00 | 00:00:00 | 00:00:00 | |
| EA3IBE | 2026-09-06 00:16:12 | 41.40218 | 2.22526 | 288° | 37km/h | 22807m | 5.2m/s | 0°C | 0% | 0hPa | 0V | 00:00:00 | 00:00:00 | 00:00:00 | |
| EA3GEO | 2026-09-06 00:16:10 | 41.40214 | 2.22548 | 276° | 29km/h | 22798m | 4.0m/s | 0°C | 0% | 0hPa | 0V | 00:00:00 | 00:00:00 | 00:00:00 | |
| EA3IBE | 2026-09-06 00:16:06 | 41.40208 | 2.22579 | 287° | 27km/h | 22780m | 5.4m/s | 0°C | 0% | 0hPa | 0V | 00:00:00 | 00:00:00 | 00:00:00 | |
| EA3GEO | 2026-09-06 00:16:04 | 41.40205 | 2.22601 | 282° | 38km/h | 22770m | 3.8m/s | 0°C | 0% | 0hPa | 0V | 00:00:00 | 00:00:00 | 00:00:00 | |
| EA3IBE | 2026-09-06 00:16:01 | 41.40194 | 2.22633 | 309° | 27km/h | 22756m | 4.8m/s | 0°C | 0% | 0hPa | 0V | 00:00:00 | 00:00:00 | 00:00:00 | |
| EA3GEO | 2026-09-06 00:15:57 | 41.40185 | 2.22657 | 292° | 24km/h | 22737m | 5.2m/s | 0°C | 0% | 0hPa | 0V | 00:00:00 | 00:00:00 | 00:00:00 | |
| EA3IBE | 2026-09-06 00:15:56 | 41.40182 | 2.22665 | 300° | 29km/h | 22731m | 5.2m/s | 0°C | 0% | 0hPa | 0V | 00:00:00 | 00:00:00 | 00:00:00 | |
| EA3GEO | 2026-09-06 00:15:51 | 41.40169 | 2.22713 | 293° | 26km/h | 22707m | 5.5m/s | 0°C | 0% | 0hPa | 0V | 00:00:00 | 00:00:00 | 00:00:00 | |
| EA3IBE | 2026-09-06 00:15:47 | 41.40158 | 2.22737 | 283° | 22km/h | 22687m | 5.1m/s | 0°C | 0% | 0hPa | 0V | 00:00:00 | 00:00:00 | 00:00:00 | |
| EA3GEO | 2026-09-06 00:15:46 | 41.40157 | 2.22745 | 280° | 27km/h | 22683m | 4.2m/s | 0°C | 0% | 0hPa | 0V | 00:00:00 | 00:00:00 | 00:00:00 | |
| EA3IBE | 2026-09-06 00:15:41 | 41.40146 | 2.22799 | 279° | 29km/h | 22658m | 4.8m/s | 0°C | 0% | 0hPa | 0V | 00:00:00 | 00:00:00 | 00:00:00 | |
| EA3GEO | 2026-09-06 00:15:34 | 41.40130 | 2.22849 | 279° | 37km/h | 22623m | 4.4m/s | 0°C | 0% | 0hPa | 0V | 00:00:00 | 00:00:00 | 00:00:00 | |
| EA3GEO | 2026-09-06 00:15:26 | 41.40120 | 2.22922 | 294° | 27km/h | 22583m | 4.1m/s | 0°C | 0% | 0hPa | 0V | 00:00:00 | 00:00:00 | 00:00:00 | |
| EA3GEO | 2026-09-06 00:15:21 | 41.40114 | 2.22978 | 275° | 33km/h | 22558m | 5.4m/s | 0°C | 0% | 0hPa | 0V | 00:00:00 | 00:00:00 | 00:00:00 | |
| EA3IBE | 2026-09-06 00:15:17 | 41.40110 | 2.23013 | 270° | 27km/h | 22539m | 5.9m/s | 0°C | 0% | 0hPa | 0V | 00:00:00 | 00:00:00 | 00:00:00 | |
| EA3GEO | 2026-09-06 00:15:16 | 41.40111 | 2.23034 | 268° | 31km/h | 22528m | 5.1m/s | 0°C | 0% | 0hPa | 0V | 00:00:00 | 00:00:00 | 00:00:00 | |
| EA3IBE | 2026-09-06 00:15:10 | 41.40111 | 2.23075 | 265° | 20km/h | 22502m | 4.0m/s | 0°C | 0% | 0hPa | 0V | 00:00:00 | 00:00:00 | 00:00:00 | |
| EA3GEO | 2026-09-06 00:15:09 | 41.40111 | 2.23082 | 278° | 20km/h | 22498m | 5.8m/s | 0°C | 0% | 0hPa | 0V | 00:00:00 | 00:00:00 | 00:00:00 | |
| EA3IBE | 2026-09-06 00:15:05 | 41.40110 | 2.23118 | 257° | 37km/h | 22477m | 5.3m/s | 0°C | 0% | 0hPa | 0V | 00:00:00 | 00:00:00 | 00:00:00 | |
| EA3GEO | 2026-09-06 00:15:03 | 41.40114 | 2.23142 | 257° | 33km/h | 22468m | 5.5m/s | 0°C | 0% | 0hPa | 0V | 00:00:00 | 00:00:00 | 00:00:00 | |
| EA3IBE | 2026-09-06 00:14:58 | 41.40121 | 2.23180 | 260° | 22km/h | 22442m | 3.9m/s | 0°C | 0% | 0hPa | 0V | 00:00:00 | 00:00:00 | 00:00:00 | |
| EA3GEO | 2026-09-06 00:14:57 | 41.40121 | 2.23187 | 271° | 22km/h | 22437m | 5.9m/s | 0°C | 0% | 0hPa | 0V | 00:00:00 | 00:00:00 | 00:00:00 | |
| EA3GEO | 2026-09-06 00:14:51 | 41.40132 | 2.23243 | 243° | 27km/h | 22409m | 4.0m/s | 0°C | 0% | 0hPa | 0V | 00:00:00 | 00:00:00 | 00:00:00 | |
| EA3GEO | 2026-09-06 00:14:45 | 41.40140 | 2.23269 | 245° | 22km/h | 22378m | 5.7m/s | 0°C | 0% | 0hPa | 0V | 00:00:00 | 00:00:00 | 00:00:00 | |
| EA3IBE | 2026-09-06 00:14:42 | 41.40149 | 2.23292 | 232° | 27km/h | 22363m | 5.8m/s | 0°C | 0% | 0hPa | 0V | 00:00:00 | 00:00:00 | 00:00:00 | |
| EA3GEO | 2026-09-06 00:14:40 | 41.40158 | 2.23303 | 214° | 18km/h | 22353m | 4.3m/s | 0°C | 0% | 0hPa | 0V | 00:00:00 | 00:00:00 | 00:00:00 | |
| EA3IBE | 2026-09-06 00:14:36 | 41.40162 | 2.23316 | 249° | 15km/h | 22335m | 5.5m/s | 0°C | 0% | 0hPa | 0V | 00:00:00 | 00:00:00 | 00:00:00 | |
| EA3GEO | 2026-09-06 00:14:35 | 41.40165 | 2.23321 | 231° | 20km/h | 22329m | 5.5m/s | 0°C | 0% | 0hPa | 0V | 00:00:00 | 00:00:00 | 00:00:00 | |
| EA3IBE | 2026-09-06 00:14:30 | 41.40178 | 2.23346 | 258° | 16km/h | 22303m | 5.8m/s | 0°C | 0% | 0hPa | 0V | 00:00:00 | 00:00:00 | 00:00:00 | |
| EA3GEO | 2026-09-06 00:14:29 | 41.40179 | 2.23352 | 256° | 16km/h | 22298m | 5.0m/s | 0°C | 0% | 0hPa | 0V | 00:00:00 | 00:00:00 | 00:00:00 | |
| EA3IBE | 2026-09-06 00:14:23 | 41.40185 | 2.23377 | 220° | 22km/h | 22267m | 4.6m/s | 0°C | 0% | 0hPa | 0V | 00:00:00 | 00:00:00 | 00:00:00 | |
| EA3GEO | 2026-09-06 00:14:18 | 41.40193 | 2.23401 | 274° | 16km/h | 22242m | 6.0m/s | 0°C | 0% | 0hPa | 0V | 00:00:00 | 00:00:00 | 00:00:00 | |
| EA3IBE | 2026-09-06 00:14:17 | 41.40193 | 2.23407 | 264° | 18km/h | 22236m | 5.1m/s | 0°C | 0% | 0hPa | 0V | 00:00:00 | 00:00:00 | 00:00:00 | |
| EA3IBE | 2026-09-06 00:14:11 | 41.40206 | 2.23443 | 228° | 22km/h | 22206m | 3.4m/s | 0°C | 0% | 0hPa | 0V | 00:00:00 | 00:00:00 | 00:00:00 | |
| EA3IBE | 2026-09-06 00:14:03 | 41.40209 | 2.23486 | 257° | 16km/h | 22164m | 5.1m/s | 0°C | 0% | 0hPa | 0V | 00:00:00 | 00:00:00 | 00:00:00 | |
| EA3IBE | 2026-09-06 00:13:58 | 41.40215 | 2.23510 | 302° | 16km/h | 22140m | 6.2m/s | 0°C | 0% | 0hPa | 0V | 00:00:00 | 00:00:00 | 00:00:00 | |
| EA3GEO | 2026-09-06 00:13:54 | 41.40206 | 2.23537 | 269° | 24km/h | 22118m | 3.5m/s | 0°C | 0% | 0hPa | 0V | 00:00:00 | 00:00:00 | 00:00:00 | |
| EA3IBE | 2026-09-06 00:13:52 | 41.40208 | 2.23551 | 259° | 16km/h | 22109m | 5.0m/s | 0°C | 0% | 0hPa | 0V | 00:00:00 | 00:00:00 | 00:00:00 | |
| EA3IBE | 2026-09-06 00:13:45 | 41.40210 | 2.23592 | 307° | 31km/h | 22076m | 4.6m/s | 0°C | 0% | 0hPa | 0V | 00:00:00 | 00:00:00 | 00:00:00 | |
| EA3IBE | 2026-09-06 00:13:40 | 41.40206 | 2.23642 | 252° | 26km/h | 22051m | 5.2m/s | 0°C | 0% | 0hPa | 0V | 00:00:00 | 00:00:00 | 00:00:00 | |
| EA3IBE | 2026-09-06 00:13:32 | 41.40210 | 2.23717 | 277° | 22km/h | 22014m | 4.1m/s | 0°C | 0% | 0hPa | 0V | 00:00:00 | 00:00:00 | 00:00:00 | |
| EA3IBE | 2026-09-06 00:13:25 | 41.40211 | 2.23788 | 271° | 38km/h | 21979m | 5.7m/s | 0°C | 0% | 0hPa | 0V | 00:00:00 | 00:00:00 | 00:00:00 | |
| EA3IBE | 2026-09-06 00:13:19 | 41.40210 | 2.23855 | 257° | 37km/h | 21949m | 5.3m/s | 0°C | 0% | 0hPa | 0V | 00:00:00 | 00:00:00 | 00:00:00 | |
| EA3GEO | 2026-09-06 00:13:18 | 41.40212 | 2.23867 | 252° | 37km/h | 21944m | 4.4m/s | 0°C | 0% | 0hPa | 0V | 00:00:00 | 00:00:00 | 00:00:00 | |
| EA3IBE | 2026-09-06 00:13:13 | 41.40223 | 2.23922 | 267° | 37km/h | 21917m | 4.3m/s | 0°C | 0% | 0hPa | 0V | 00:00:00 | 00:00:00 | 00:00:00 | |
| EA3GEO | 2026-09-06 00:13:09 | 41.40224 | 2.23965 | 257° | 33km/h | 21899m | 5.1m/s | 0°C | 0% | 0hPa | 0V | 00:00:00 | 00:00:00 | 00:00:00 | |
| EA3IBE | 2026-09-06 00:13:08 | 41.40227 | 2.23976 | 249° | 38km/h | 21893m | 5.8m/s | 0°C | 0% | 0hPa | 0V | 00:00:00 | 00:00:00 | 00:00:00 | |
| EA3GEO | 2026-09-06 00:13:03 | 41.40247 | 2.24023 | 245° | 26km/h | 21868m | 6.0m/s | 0°C | 0% | 0hPa | 0V | 00:00:00 | 00:00:00 | 00:00:00 | |
| EA3IBE | 2026-09-06 00:13:02 | 41.40249 | 2.24032 | 248° | 29km/h | 21862m | 4.9m/s | 0°C | 0% | 0hPa | 0V | 00:00:00 | 00:00:00 | 00:00:00 | |
| EA3GEO | 2026-09-06 00:12:56 | 41.40273 | 2.24086 | 231° | 42km/h | 21833m | 4.2m/s | 0°C | 0% | 0hPa | 0V | 00:00:00 | 00:00:00 | 00:00:00 | |
| EA3GEO | 2026-09-06 00:12:51 | 41.40295 | 2.24123 | 258° | 22km/h | 21807m | 5.4m/s | 0°C | 0% | 0hPa | 0V | 00:00:00 | 00:00:00 | 00:00:00 | |
| EA3IBE | 2026-09-06 00:12:50 | 41.40297 | 2.24131 | 252° | 27km/h | 21802m | 3.9m/s | 0°C | 0% | 0hPa | 0V | 00:00:00 | 00:00:00 | 00:00:00 | |
| EA3IBE | 2026-09-06 00:12:43 | 41.40338 | 2.24186 | 224° | 31km/h | 21769m | 4.8m/s | 0°C | 0% | 0hPa | 0V | 00:00:00 | 00:00:00 | 00:00:00 | |
| EA3IBE | 2026-09-06 00:12:35 | 41.40382 | 2.24231 | 209° | 33km/h | 21729m | 4.0m/s | 0°C | 0% | 0hPa | 0V | 00:00:00 | 00:00:00 | 00:00:00 | |
| EA3GEO | 2026-09-06 00:12:34 | 41.40389 | 2.24237 | 216° | 33km/h | 21724m | 5.8m/s | 0°C | 0% | 0hPa | 0V | 00:00:00 | 00:00:00 | 00:00:00 | |
| EA3IBE | 2026-09-06 00:12:30 | 41.40407 | 2.24261 | 229° | 18km/h | 21703m | 4.2m/s | 0°C | 0% | 0hPa | 0V | 00:00:00 | 00:00:00 | 00:00:00 | |
| EA3IBE | 2026-09-06 00:12:25 | 41.40429 | 2.24293 | 218° | 29km/h | 21678m | 4.8m/s | 0°C | 0% | 0hPa | 0V | 00:00:00 | 00:00:00 | 00:00:00 | |
| EA3GEO | 2026-09-06 00:12:17 | 41.40461 | 2.24343 | 233° | 24km/h | 21639m | 6.0m/s | 0°C | 0% | 0hPa | 0V | 00:00:00 | 00:00:00 | 00:00:00 | |
| EA3IBE | 2026-09-06 00:12:12 | 41.40488 | 2.24377 | 218° | 27km/h | 21614m | 4.9m/s | 0°C | 0% | 0hPa | 0V | 00:00:00 | 00:00:00 | 00:00:00 | |
| EA3GEO | 2026-09-06 00:12:11 | 41.40494 | 2.24383 | 222° | 29km/h | 21609m | 5.4m/s | 0°C | 0% | 0hPa | 0V | 00:00:00 | 00:00:00 | 00:00:00 | |
| EA3IBE | 2026-09-06 00:12:07 | 41.40514 | 2.24404 | 219° | 26km/h | 21590m | 4.1m/s | 0°C | 0% | 0hPa | 0V | 00:00:00 | 00:00:00 | 00:00:00 | |
| EA3IBE | 2026-09-06 00:12:02 | 41.40538 | 2.24441 | 208° | 24km/h | 21565m | 5.2m/s | 0°C | 0% | 0hPa | 0V | 00:00:00 | 00:00:00 | 00:00:00 | |
| EA3GEO | 2026-09-06 00:12:01 | 41.40544 | 2.24443 | 198° | 26km/h | 21560m | 3.8m/s | 0°C | 0% | 0hPa | 0V | 00:00:00 | 00:00:00 | 00:00:00 | |
| EA3GEO | 2026-09-06 00:11:56 | 41.40573 | 2.24461 | 200° | 24km/h | 21536m | 5.9m/s | 0°C | 0% | 0hPa | 0V | 00:00:00 | 00:00:00 | 00:00:00 | |
| EA3GEO | 2026-09-06 00:11:50 | 41.40617 | 2.24486 | 194° | 37km/h | 21508m | 5.0m/s | 0°C | 0% | 0hPa | 0V | 00:00:00 | 00:00:00 | 00:00:00 | |
| EA3GEO | 2026-09-06 00:11:45 | 41.40648 | 2.24500 | 214° | 24km/h | 21484m | 4.9m/s | 0°C | 0% | 0hPa | 0V | 00:00:00 | 00:00:00 | 00:00:00 | |
| EA3IBE | 2026-09-06 00:11:44 | 41.40653 | 2.24504 | 203° | 27km/h | 21479m | 5.2m/s | 0°C | 0% | 0hPa | 0V | 00:00:00 | 00:00:00 | 00:00:00 | |
| EA3IBE | 2026-09-06 00:11:39 | 41.40686 | 2.24518 | 196° | 29km/h | 21454m | 6.1m/s | 0°C | 0% | 0hPa | 0V | 00:00:00 | 00:00:00 | 00:00:00 | |
| EA3IBE | 2026-09-06 00:11:33 | 41.40724 | 2.24544 | 219° | 33km/h | 21425m | 5.7m/s | 0°C | 0% | 0hPa | 0V | 00:00:00 | 00:00:00 | 00:00:00 | |
| EA3GEO | 2026-09-06 00:11:28 | 41.40752 | 2.24566 | 199° | 22km/h | 21401m | 4.3m/s | 0°C | 0% | 0hPa | 0V | 00:00:00 | 00:00:00 | 00:00:00 | |
| EA3IBE | 2026-09-06 00:11:26 | 41.40764 | 2.24573 | 205° | 29km/h | 21391m | 4.5m/s | 0°C | 0% | 0hPa | 0V | 00:00:00 | 00:00:00 | 00:00:00 | |
| EA3IBE | 2026-09-06 00:11:21 | 41.40792 | 2.24592 | 204° | 27km/h | 21367m | 5.9m/s | 0°C | 0% | 0hPa | 0V | 00:00:00 | 00:00:00 | 00:00:00 | |
| EA3GEO | 2026-09-06 00:11:15 | 41.40823 | 2.24608 | 201° | 20km/h | 21338m | 5.5m/s | 0°C | 0% | 0hPa | 0V | 00:00:00 | 00:00:00 | 00:00:00 | |
| EA3IBE | 2026-09-06 00:11:12 | 41.40837 | 2.24614 | 194° | 15km/h | 21323m | 5.2m/s | 0°C | 0% | 0hPa | 0V | 00:00:00 | 00:00:00 | 00:00:00 | |
| EA3GEO | 2026-09-06 00:11:10 | 41.40845 | 2.24616 | 196° | 20km/h | 21314m | 5.4m/s | 0°C | 0% | 0hPa | 0V | 00:00:00 | 00:00:00 | 00:00:00 | |
| EA3IBE | 2026-09-06 00:11:06 | 41.40868 | 2.24625 | 200° | 16km/h | 21295m | 5.2m/s | 0°C | 0% | 0hPa | 0V | 00:00:00 | 00:00:00 | 00:00:00 | |
| EA3GEO | 2026-09-06 00:11:04 | 41.40875 | 2.24629 | 203° | 20km/h | 21285m | 5.8m/s | 0°C | 0% | 0hPa | 0V | 00:00:00 | 00:00:00 | 00:00:00 | |
| EA3IBE | 2026-09-06 00:11:01 | 41.40892 | 2.24638 | 201° | 22km/h | 21271m | 5.6m/s | 0°C | 0% | 0hPa | 0V | 00:00:00 | 00:00:00 | 00:00:00 | |
| EA3GEO | 2026-09-06 00:10:58 | 41.40906 | 2.24644 | 201° | 24km/h | 21257m | 5.3m/s | 0°C | 0% | 0hPa | 0V | 00:00:00 | 00:00:00 | 00:00:00 | |
| EA3IBE | 2026-09-06 00:10:56 | 41.40919 | 2.24651 | 204° | 31km/h | 21248m | 3.3m/s | 0°C | 0% | 0hPa | 0V | 00:00:00 | 00:00:00 | 00:00:00 | |
| EA3GEO | 2026-09-06 00:10:52 | 41.40942 | 2.24660 | 196° | 22km/h | 21229m | 4.5m/s | 0°C | 0% | 0hPa | 0V | 00:00:00 | 00:00:00 | 00:00:00 | |
| EA3IBE | 2026-09-06 00:10:50 | 41.40955 | 2.24667 | 205° | 31km/h | 21220m | 3.9m/s | 0°C | 0% | 0hPa | 0V | 00:00:00 | 00:00:00 | 00:00:00 | |
| EA3IBE | 2026-09-06 00:10:39 | 41.41018 | 2.24703 | 201° | 26km/h | 21168m | 5.4m/s | 0°C | 0% | 0hPa | 0V | 00:00:00 | 00:00:00 | 00:00:00 | |
| EA3IBE | 2026-09-06 00:10:33 | 41.41055 | 2.24722 | 190° | 27km/h | 21140m | 5.7m/s | 0°C | 0% | 0hPa | 0V | 00:00:00 | 00:00:00 | 00:00:00 | |
| EA3IBE | 2026-09-06 00:10:26 | 41.41100 | 2.24745 | 206° | 35km/h | 21108m | 4.0m/s | 0°C | 0% | 0hPa | 0V | 00:00:00 | 00:00:00 | 00:00:00 | |
| EA3IBE | 2026-09-06 00:10:21 | 41.41133 | 2.24754 | 187° | 27km/h | 21084m | 4.9m/s | 0°C | 0% | 0hPa | 0V | 00:00:00 | 00:00:00 | 00:00:00 | |
| EA3GEO | 2026-09-06 00:10:19 | 41.41146 | 2.24755 | 182° | 24km/h | 21074m | 5.9m/s | 0°C | 0% | 0hPa | 0V | 00:00:00 | 00:00:00 | 00:00:00 | |
| EA3IBE | 2026-09-06 00:10:16 | 41.41166 | 2.24754 | 181° | 33km/h | 21060m | 6.1m/s | 0°C | 0% | 0hPa | 0V | 00:00:00 | 00:00:00 | 00:00:00 | |
| EA3IBE | 2026-09-06 00:10:10 | 41.41207 | 2.24743 | 172° | 20km/h | 21032m | 5.0m/s | 0°C | 0% | 0hPa | 0V | 00:00:00 | 00:00:00 | 00:00:00 | |
| EA3IBE | 2026-09-06 00:10:03 | 41.41243 | 2.24736 | 169° | 26km/h | 20999m | 3.8m/s | 0°C | 0% | 0hPa | 0V | 00:00:00 | 00:00:00 | 00:00:00 | |
| EA3GEO | 2026-09-06 00:10:00 | 41.41256 | 2.24727 | 141° | 15km/h | 20985m | 4.3m/s | 0°C | 0% | 0hPa | 0V | 00:00:00 | 00:00:00 | 00:00:00 | |
| EA3GEO | 2026-09-06 00:09:50 | 41.41296 | 2.24702 | 127° | 18km/h | 20936m | 5.3m/s | 0°C | 0% | 0hPa | 0V | 00:00:00 | 00:00:00 | 00:00:00 | |
| EA3IBE | 2026-09-06 00:09:44 | 41.41312 | 2.24687 | 140° | 15km/h | 20909m | 4.7m/s | 0°C | 0% | 0hPa | 0V | 00:00:00 | 00:00:00 | 00:00:00 | |
| EA3GEO | 2026-09-06 00:09:43 | 41.41315 | 2.24682 | 134° | 22km/h | 20904m | 4.4m/s | 0°C | 0% | 0hPa | 0V | 00:00:00 | 00:00:00 | 00:00:00 | |
| EA3IBE | 2026-09-06 00:09:38 | 41.41342 | 2.24660 | 145° | 11km/h | 20882m | 5.8m/s | 0°C | 0% | 0hPa | 0V | 00:00:00 | 00:00:00 | 00:00:00 | |
| EA3GEO | 2026-09-06 00:09:37 | 41.41343 | 2.24658 | 86° | 5km/h | 20877m | 4.8m/s | 0°C | 0% | 0hPa | 0V | 00:00:00 | 00:00:00 | 00:00:00 | |
| EA3IBE | 2026-09-06 00:09:33 | 41.41347 | 2.24656 | 182° | 16km/h | 20859m | 4.3m/s | 0°C | 0% | 0hPa | 0V | 00:00:00 | 00:00:00 | 00:00:00 | |
| EA3GEO | 2026-09-06 00:09:32 | 41.41352 | 2.24656 | 169° | 18km/h | 20854m | 4.9m/s | 0°C | 0% | 0hPa | 0V | 00:00:00 | 00:00:00 | 00:00:00 | |
| EA3IBE | 2026-09-06 00:09:28 | 41.41365 | 2.24640 | 141° | 16km/h | 20836m | 5.4m/s | 0°C | 0% | 0hPa | 0V | 00:00:00 | 00:00:00 | 00:00:00 | |
| EA3GEO | 2026-09-06 00:09:26 | 41.41371 | 2.24636 | 166° | 11km/h | 20826m | 4.9m/s | 0°C | 0% | 0hPa | 0V | 00:00:00 | 00:00:00 | 00:00:00 | |
| EA3IBE | 2026-09-06 00:09:22 | 41.41381 | 2.24636 | 181° | 16km/h | 20806m | 4.2m/s | 0°C | 0% | 0hPa | 0V | 00:00:00 | 00:00:00 | 00:00:00 | |
| EA3GEO | 2026-09-06 00:09:20 | 41.41390 | 2.24632 | 148° | 18km/h | 20797m | 5.8m/s | 0°C | 0% | 0hPa | 0V | 00:00:00 | 00:00:00 | 00:00:00 | |
| EA3IBE | 2026-09-06 00:09:16 | 41.41404 | 2.24619 | 171° | 16km/h | 20777m | 4.3m/s | 0°C | 0% | 0hPa | 0V | 00:00:00 | 00:00:00 | 00:00:00 | |
| EA3GEO | 2026-09-06 00:09:15 | 41.41408 | 2.24618 | 175° | 15km/h | 20773m | 4.5m/s | 0°C | 0% | 0hPa | 0V | 00:00:00 | 00:00:00 | 00:00:00 | |
| EA3IBE | 2026-09-06 00:09:10 | 41.41426 | 2.24612 | 168° | 24km/h | 20748m | 4.3m/s | 0°C | 0% | 0hPa | 0V | 00:00:00 | 00:00:00 | 00:00:00 | |
| EA3GEO | 2026-09-06 00:09:08 | 41.41436 | 2.24606 | 144° | 24km/h | 20738m | 4.7m/s | 0°C | 0% | 0hPa | 0V | 00:00:00 | 00:00:00 | 00:00:00 | |
| EA3IBE | 2026-09-06 00:09:05 | 41.41451 | 2.24594 | 160° | 20km/h | 20723m | 4.9m/s | 0°C | 0% | 0hPa | 0V | 00:00:00 | 00:00:00 | 00:00:00 | |
| EA3GEO | 2026-09-06 00:09:02 | 41.41461 | 2.24590 | 163° | 11km/h | 20708m | 3.5m/s | 0°C | 0% | 0hPa | 0V | 00:00:00 | 00:00:00 | 00:00:00 | |
| EA3IBE | 2026-09-06 00:09:00 | 41.41468 | 2.24588 | 167° | 18km/h | 20700m | 4.8m/s | 0°C | 0% | 0hPa | 0V | 00:00:00 | 00:00:00 | 00:00:00 | |
| EA3GEO | 2026-09-06 00:08:56 | 41.41485 | 2.24573 | 141° | 22km/h | 20681m | 4.3m/s | 0°C | 0% | 0hPa | 0V | 00:00:00 | 00:00:00 | 00:00:00 | |
| EA3IBE | 2026-09-06 00:08:55 | 41.41489 | 2.24569 | 153° | 24km/h | 20676m | 5.6m/s | 0°C | 0% | 0hPa | 0V | 00:00:00 | 00:00:00 | 00:00:00 | |
| EA3GEO | 2026-09-06 00:08:50 | 41.41509 | 2.24552 | 121° | 20km/h | 20654m | 3.8m/s | 0°C | 0% | 0hPa | 0V | 00:00:00 | 00:00:00 | 00:00:00 | |
| EA3IBE | 2026-09-06 00:08:46 | 41.41530 | 2.24529 | 147° | 29km/h | 20635m | 4.7m/s | 0°C | 0% | 0hPa | 0V | 00:00:00 | 00:00:00 | 00:00:00 | |
| EA3GEO | 2026-09-06 00:08:45 | 41.41535 | 2.24523 | 138° | 24km/h | 20630m | 5.0m/s | 0°C | 0% | 0hPa | 0V | 00:00:00 | 00:00:00 | 00:00:00 | |
| EA3IBE | 2026-09-06 00:08:41 | 41.41549 | 2.24505 | 145° | 20km/h | 20611m | 4.0m/s | 0°C | 0% | 0hPa | 0V | 00:00:00 | 00:00:00 | 00:00:00 | |
| EA3GEO | 2026-09-06 00:08:39 | 41.41556 | 2.24496 | 125° | 20km/h | 20601m | 5.4m/s | 0°C | 0% | 0hPa | 0V | 00:00:00 | 00:00:00 | 00:00:00 | |
| EA3IBE | 2026-09-06 00:08:36 | 41.41565 | 2.24480 | 138° | 22km/h | 20587m | 5.2m/s | 0°C | 0% | 0hPa | 0V | 00:00:00 | 00:00:00 | 00:00:00 | |
| EA3GEO | 2026-09-06 00:08:33 | 41.41575 | 2.24465 | 119° | 16km/h | 20573m | 5.1m/s | 0°C | 0% | 0hPa | 0V | 00:00:00 | 00:00:00 | 00:00:00 | |
| EA3GEO | 2026-09-06 00:08:23 | 41.41599 | 2.24419 | 148° | 13km/h | 20527m | 3.7m/s | 0°C | 0% | 0hPa | 0V | 00:00:00 | 00:00:00 | 00:00:00 | |
| EA3IBE | 2026-09-06 00:08:17 | 41.41601 | 2.24383 | 108° | 20km/h | 20499m | 4.1m/s | 0°C | 0% | 0hPa | 0V | 00:00:00 | 00:00:00 | 00:00:00 | |
| EA3GEO | 2026-09-06 00:08:12 | 41.41605 | 2.24360 | 107° | 15km/h | 20475m | 3.6m/s | 0°C | 0% | 0hPa | 0V | 00:00:00 | 00:00:00 | 00:00:00 | |
| EA3IBE | 2026-09-06 00:08:06 | 41.41597 | 2.24327 | 79° | 15km/h | 20447m | 3.9m/s | 0°C | 0% | 0hPa | 0V | 00:00:00 | 00:00:00 | 00:00:00 | |
| EA3IBE | 2026-09-06 00:08:01 | 41.41593 | 2.24313 | 111° | 9km/h | 20424m | 3.2m/s | 0°C | 0% | 0hPa | 0V | 00:00:00 | 00:00:00 | 00:00:00 | |
| EA3GEO | 2026-09-06 00:07:55 | 41.41583 | 2.24274 | 68° | 15km/h | 20398m | 4.6m/s | 0°C | 0% | 0hPa | 0V | 00:00:00 | 00:00:00 | 00:00:00 | |
| EA3IBE | 2026-09-06 00:07:50 | 41.41569 | 2.24268 | 37° | 15km/h | 20376m | 5.6m/s | 0°C | 0% | 0hPa | 0V | 00:00:00 | 00:00:00 | 00:00:00 | |
| EA3GEO | 2026-09-06 00:07:47 | 41.41562 | 2.24252 | 63° | 24km/h | 20361m | 5.5m/s | 0°C | 0% | 0hPa | 0V | 00:00:00 | 00:00:00 | 00:00:00 | |
| EA3IBE | 2026-09-06 00:07:44 | 41.41551 | 2.24237 | 29° | 16km/h | 20347m | 5.4m/s | 0°C | 0% | 0hPa | 0V | 00:00:00 | 00:00:00 | 00:00:00 | |
| EA3GEO | 2026-09-06 00:07:40 | 41.41535 | 2.24234 | 12° | 16km/h | 20328m | 4.6m/s | 0°C | 0% | 0hPa | 0V | 00:00:00 | 00:00:00 | 00:00:00 | |
| EA3IBE | 2026-09-06 00:07:38 | 41.41529 | 2.24230 | 40° | 15km/h | 20318m | 3.4m/s | 0°C | 0% | 0hPa | 0V | 00:00:00 | 00:00:00 | 00:00:00 | |
| EA3GEO | 2026-09-06 00:07:35 | 41.41517 | 2.24222 | 17° | 18km/h | 20304m | 4.6m/s | 0°C | 0% | 0hPa | 0V | 00:00:00 | 00:00:00 | 00:00:00 | |
| EA3IBE | 2026-09-06 00:07:33 | 41.41509 | 2.24220 | 4° | 15km/h | 20294m | 3.7m/s | 0°C | 0% | 0hPa | 0V | 00:00:00 | 00:00:00 | 00:00:00 | |
| EA3GEO | 2026-09-06 00:07:30 | 41.41496 | 2.24220 | 7° | 16km/h | 20280m | 3.7m/s | 0°C | 0% | 0hPa | 0V | 00:00:00 | 00:00:00 | 00:00:00 | |
| EA3IBE | 2026-09-06 00:07:28 | 41.41490 | 2.24218 | 39° | 5km/h | 20270m | 5.6m/s | 0°C | 0% | 0hPa | 0V | 00:00:00 | 00:00:00 | 00:00:00 | |
| EA3IBE | 2026-09-06 00:07:23 | 41.41477 | 2.24216 | 356° | 15km/h | 20246m | 6.0m/s | 0°C | 0% | 0hPa | 0V | 00:00:00 | 00:00:00 | 00:00:00 | |
| EA3IBE | 2026-09-06 00:07:17 | 41.41456 | 2.24218 | 329° | 4km/h | 20217m | 5.0m/s | 0°C | 0% | 0hPa | 0V | 00:00:00 | 00:00:00 | 00:00:00 | |
| EA3GEO | 2026-09-06 00:07:16 | 41.41455 | 2.24219 | 310° | 7km/h | 20213m | 3.2m/s | 0°C | 0% | 0hPa | 0V | 00:00:00 | 00:00:00 | 00:00:00 | |
| EA3IBE | 2026-09-06 00:07:10 | 41.41431 | 2.24228 | 16° | 11km/h | 20184m | 4.5m/s | 0°C | 0% | 0hPa | 0V | 00:00:00 | 00:00:00 | 00:00:00 | |
| EA3GEO | 2026-09-06 00:07:04 | 41.41417 | 2.24238 | 298° | 18km/h | 20154m | 5.1m/s | 0°C | 0% | 0hPa | 0V | 00:00:00 | 00:00:00 | 00:00:00 | |
| EA3IBE | 2026-09-06 00:06:59 | 41.41407 | 2.24256 | 234° | 2km/h | 20129m | 3.9m/s | 0°C | 0% | 0hPa | 0V | 00:00:00 | 00:00:00 | 00:00:00 | |
| EA3GEO | 2026-09-06 00:06:58 | 41.41407 | 2.24257 | 266° | 4km/h | 20125m | 5.5m/s | 0°C | 0% | 0hPa | 0V | 00:00:00 | 00:00:00 | 00:00:00 | |
| EA3IBE | 2026-09-06 00:06:53 | 41.41405 | 2.24272 | 263° | 9km/h | 20100m | 4.6m/s | 0°C | 0% | 0hPa | 0V | 00:00:00 | 00:00:00 | 00:00:00 | |
| EA3GEO | 2026-09-06 00:06:51 | 41.41405 | 2.24280 | 274° | 11km/h | 20089m | 4.4m/s | 0°C | 0% | 0hPa | 0V | 00:00:00 | 00:00:00 | 00:00:00 | |
| EA3IBE | 2026-09-06 00:06:48 | 41.41407 | 2.24287 | 220° | 5km/h | 20076m | 4.5m/s | 0°C | 0% | 0hPa | 0V | 00:00:00 | 00:00:00 | 00:00:00 | |
| EA3IBE | 2026-09-06 00:06:43 | 41.41408 | 2.24296 | 217° | 11km/h | 20052m | 5.9m/s | 0°C | 0% | 0hPa | 0V | 00:00:00 | 00:00:00 | 00:00:00 | |
| EA3IBE | 2026-09-06 00:06:38 | 41.41418 | 2.24306 | 214° | 7km/h | 20028m | 5.3m/s | 0°C | 0% | 0hPa | 0V | 00:00:00 | 00:00:00 | 00:00:00 | |
| EA3IBE | 2026-09-06 00:06:32 | 41.41434 | 2.24312 | 171° | 13km/h | 19998m | 5.0m/s | 0°C | 0% | 0hPa | 0V | 00:00:00 | 00:00:00 | 00:00:00 | |
| EA3IBE | 2026-09-06 00:06:27 | 41.41450 | 2.24317 | 197° | 18km/h | 19974m | 5.2m/s | 0°C | 0% | 0hPa | 0V | 00:00:00 | 00:00:00 | 00:00:00 | |
| EA3GEO | 2026-09-06 00:06:26 | 41.41454 | 2.24319 | 190° | 18km/h | 19969m | 3.9m/s | 0°C | 0% | 0hPa | 0V | 00:00:00 | 00:00:00 | 00:00:00 | |
| EA3IBE | 2026-09-06 00:06:22 | 41.41467 | 2.24321 | 167° | 11km/h | 19950m | 5.5m/s | 0°C | 0% | 0hPa | 0V | 00:00:00 | 00:00:00 | 00:00:00 | |
| EA3GEO | 2026-09-06 00:06:21 | 41.41469 | 2.24319 | 160° | 16km/h | 19945m | 5.2m/s | 0°C | 0% | 0hPa | 0V | 00:00:00 | 00:00:00 | 00:00:00 | |
| EA3IBE | 2026-09-06 00:06:16 | 41.41490 | 2.24317 | 185° | 20km/h | 19921m | 6.0m/s | 0°C | 0% | 0hPa | 0V | 00:00:00 | 00:00:00 | 00:00:00 | |
| EA3GEO | 2026-09-06 00:06:11 | 41.41514 | 2.24319 | 188° | 16km/h | 19892m | 5.3m/s | 0°C | 0% | 0hPa | 0V | 00:00:00 | 00:00:00 | 00:00:00 | |
| EA3IBE | 2026-09-06 00:06:10 | 41.41518 | 2.24320 | 192° | 16km/h | 19888m | 3.8m/s | 0°C | 0% | 0hPa | 0V | 00:00:00 | 00:00:00 | 00:00:00 | |
| EA3IBE | 2026-09-06 00:06:04 | 41.41530 | 2.24322 | 157° | 15km/h | 19863m | 5.2m/s | 0°C | 0% | 0hPa | 0V | 00:00:00 | 00:00:00 | 00:00:00 | |
| EA3GEO | 2026-09-06 00:05:59 | 41.41547 | 2.24315 | 178° | 13km/h | 19839m | 5.7m/s | 0°C | 0% | 0hPa | 0V | 00:00:00 | 00:00:00 | 00:00:00 | |
| EA3IBE | 2026-09-06 00:05:58 | 41.41550 | 2.24315 | 187° | 13km/h | 19834m | 4.3m/s | 0°C | 0% | 0hPa | 0V | 00:00:00 | 00:00:00 | 00:00:00 | |
| EA3GEO | 2026-09-06 00:05:54 | 41.41561 | 2.24314 | 143° | 16km/h | 19813m | 6.1m/s | 0°C | 0% | 0hPa | 0V | 00:00:00 | 00:00:00 | 00:00:00 | |
| EA3IBE | 2026-09-06 00:05:53 | 41.41564 | 2.24310 | 138° | 18km/h | 19808m | 3.5m/s | 0°C | 0% | 0hPa | 0V | 00:00:00 | 00:00:00 | 00:00:00 | |
| EA3IBE | 2026-09-06 00:05:50 | 41.41577 | 2.24305 | 188° | 15km/h | 19784m | 4.7m/s | 0°C | 0% | 0hPa | 0V | 00:00:00 | 00:00:00 | 00:00:00 | |
| EA3GEO | 2026-09-06 00:05:47 | 41.41580 | 2.24306 | 184° | 11km/h | 19780m | 3.7m/s | 0°C | 0% | 0hPa | 0V | 00:00:00 | 00:00:00 | 00:00:00 | |
| EA3IBE | 2026-09-06 00:05:43 | 41.41584 | 2.24300 | 109° | 11km/h | 19760m | 5.5m/s | 0°C | 0% | 0hPa | 0V | 00:00:00 | 00:00:00 | 00:00:00 | |
| EA3GEO | 2026-09-06 00:05:41 | 41.41588 | 2.24294 | 154° | 13km/h | 19751m | 3.9m/s | 0°C | 0% | 0hPa | 0V | 00:00:00 | 00:00:00 | 00:00:00 | |
| EA3IBE | 2026-09-06 00:05:38 | 41.41594 | 2.24295 | 217° | 9km/h | 19737m | 4.3m/s | 0°C | 0% | 0hPa | 0V | 00:00:00 | 00:00:00 | 00:00:00 | |
| EA3GEO | 2026-09-06 00:05:34 | 41.41603 | 2.24292 | 118° | 9km/h | 19719m | 5.4m/s | 0°C | 0% | 0hPa | 0V | 00:00:00 | 00:00:00 | 00:00:00 | |
| EA3IBE | 2026-09-06 00:05:33 | 41.41604 | 2.24290 | 95° | 9km/h | 19714m | 4.7m/s | 0°C | 0% | 0hPa | 0V | 00:00:00 | 00:00:00 | 00:00:00 | |
| EA3GEO | 2026-09-06 00:05:29 | 41.41611 | 2.24282 | 184° | 11km/h | 19696m | 3.2m/s | 0°C | 0% | 0hPa | 0V | 00:00:00 | 00:00:00 | 00:00:00 | |
| EA3IBE | 2026-09-06 00:05:28 | 41.41613 | 2.24283 | 200° | 9km/h | 19692m | 5.8m/s | 0°C | 0% | 0hPa | 0V | 00:00:00 | 00:00:00 | 00:00:00 | |
| EA3IBE | 2026-09-06 00:05:23 | 41.41625 | 2.24281 | 154° | 9km/h | 19658m | 3.5m/s | 0°C | 0% | 0hPa | 0V | 00:00:00 | 00:00:00 | 00:00:00 | |
| EA3GEO | 2026-09-06 00:05:22 | 41.41625 | 2.24281 | 154° | 9km/h | 19658m | 3.5m/s | 0°C | 0% | 0hPa | 0V | 00:00:00 | 00:00:00 | 00:00:00 | |
| EA3GEO | 2026-09-06 00:05:16 | 41.41640 | 2.24282 | 219° | 7km/h | 19634m | 4.1m/s | 0°C | 0% | 0hPa | 0V | 00:00:00 | 00:00:00 | 00:00:00 | |
| EA3IBE | 2026-09-06 00:05:15 | 41.41642 | 2.24283 | 200° | 7km/h | 19629m | 4.6m/s | 0°C | 0% | 0hPa | 0V | 00:00:00 | 00:00:00 | 00:00:00 | |
| EA3GEO | 2026-09-06 00:05:11 | 41.41658 | 2.24280 | 166° | 16km/h | 19606m | 4.0m/s | 0°C | 0% | 0hPa | 0V | 00:00:00 | 00:00:00 | 00:00:00 | |
| EA3IBE | 2026-09-06 00:05:09 | 41.41662 | 2.24278 | 165° | 18km/h | 19601m | 5.6m/s | 0°C | 0% | 0hPa | 0V | 00:00:00 | 00:00:00 | 00:00:00 | |
| EA3GEO | 2026-09-06 00:05:05 | 41.41673 | 2.24278 | 250° | 5km/h | 19583m | 3.4m/s | 0°C | 0% | 0hPa | 0V | 00:00:00 | 00:00:00 | 00:00:00 | |
| EA3IBE | 2026-09-06 00:05:04 | 41.41674 | 2.24279 | 205° | 4km/h | 19579m | 4.9m/s | 0°C | 0% | 0hPa | 0V | 00:00:00 | 00:00:00 | 00:00:00 | |
| EA3GEO | 2026-09-06 00:05:01 | 41.41688 | 2.24277 | 193° | 18km/h | 19560m | 5.2m/s | 0°C | 0% | 0hPa | 0V | 00:00:00 | 00:00:00 | 00:00:00 | |
| EA3IBE | 2026-09-06 00:05:00 | 41.41693 | 2.24279 | 198° | 16km/h | 19555m | 4.3m/s | 0°C | 0% | 0hPa | 0V | 00:00:00 | 00:00:00 | 00:00:00 | |
| EA3GEO | 2026-09-06 00:04:55 | 41.41705 | 2.24279 | 181° | 9km/h | 19536m | 5.4m/s | 0°C | 0% | 0hPa | 0V | 00:00:00 | 00:00:00 | 00:00:00 | |
| EA3IBE | 2026-09-06 00:04:53 | 41.41710 | 2.24278 | 167° | 13km/h | 19528m | 4.5m/s | 0°C | 0% | 0hPa | 0V | 00:00:00 | 00:00:00 | 00:00:00 | |
| EA3IBE | 2026-09-06 00:04:49 | 41.41730 | 2.24272 | 194° | 15km/h | 19505m | 4.1m/s | 0°C | 0% | 0hPa | 0V | 00:00:00 | 00:00:00 | 00:00:00 | |
| EA3GEO | 2026-09-06 00:04:44 | 41.41744 | 2.24268 | 159° | 16km/h | 19487m | 4.7m/s | 0°C | 0% | 0hPa | 0V | 00:00:00 | 00:00:00 | 00:00:00 | |
| EA3IBE | 2026-09-06 00:04:42 | 41.41751 | 2.24265 | 164° | 15km/h | 19478m | 3.5m/s | 0°C | 0% | 0hPa | 0V | 00:00:00 | 00:00:00 | 00:00:00 | |
| EA3GEO | 2026-09-06 00:04:39 | 41.41766 | 2.24259 | 184° | 15km/h | 19460m | 5.4m/s | 0°C | 0% | 0hPa | 0V | 00:00:00 | 00:00:00 | 00:00:00 | |
| EA3IBE | 2026-09-06 00:04:36 | 41.41773 | 2.24260 | 172° | 15km/h | 19451m | 5.2m/s | 0°C | 0% | 0hPa | 0V | 00:00:00 | 00:00:00 | 00:00:00 | |
| EA3IBE | 2026-09-06 00:04:32 | 41.41788 | 2.24247 | 152° | 16km/h | 19428m | 4.3m/s | 0°C | 0% | 0hPa | 0V | 00:00:00 | 00:00:00 | 00:00:00 | |
| EA3GEO | 2026-09-06 00:04:27 | 41.41816 | 2.24236 | 183° | 22km/h | 19405m | 3.3m/s | 0°C | 0% | 0hPa | 0V | 00:00:00 | 00:00:00 | 00:00:00 | |
| EA3IBE | 2026-09-06 00:04:25 | 41.41821 | 2.24235 | 172° | 20km/h | 19400m | 5.4m/s | 0°C | 0% | 0hPa | 0V | 00:00:00 | 00:00:00 | 00:00:00 | |
| EA3IBE | 2026-09-06 00:04:20 | 41.41836 | 2.24214 | 124° | 16km/h | 19376m | 4.2m/s | 0°C | 0% | 0hPa | 0V | 00:00:00 | 00:00:00 | 00:00:00 | |
| EA3IBE | 2026-09-06 00:04:15 | 41.41858 | 2.24199 | 167° | 18km/h | 19348m | 4.8m/s | 0°C | 0% | 0hPa | 0V | 00:00:00 | 00:00:00 | 00:00:00 | |
| EA3GEO | 2026-09-06 00:04:12 | 41.41866 | 2.24194 | 145° | 16km/h | 19339m | 5.5m/s | 0°C | 0% | 0hPa | 0V | 00:00:00 | 00:00:00 | 00:00:00 | |
| EA3IBE | 2026-09-06 00:04:09 | 41.41873 | 2.24179 | 115° | 24km/h | 19323m | 4.8m/s | 0°C | 0% | 0hPa | 0V | 00:00:00 | 00:00:00 | 00:00:00 | |
| EA3IBE | 2026-09-06 00:04:05 | 41.41885 | 2.24154 | 147° | 18km/h | 19301m | 5.0m/s | 0°C | 0% | 0hPa | 0V | 00:00:00 | 00:00:00 | 00:00:00 | |
| EA3IBE | 2026-09-06 00:03:59 | 41.41901 | 2.24132 | 121° | 22km/h | 19279m | 5.5m/s | 0°C | 0% | 0hPa | 0V | 00:00:00 | 00:00:00 | 00:00:00 | |
| EA3GEO | 2026-09-06 00:03:55 | 41.41912 | 2.24100 | 133° | 13km/h | 19255m | 5.0m/s | 0°C | 0% | 0hPa | 0V | 00:00:00 | 00:00:00 | 00:00:00 | |
| EA3IBE | 2026-09-06 00:03:54 | 41.41915 | 2.24097 | 147° | 16km/h | 19251m | 4.8m/s | 0°C | 0% | 0hPa | 0V | 00:00:00 | 00:00:00 | 00:00:00 | |
| EA3IBE | 2026-09-06 00:03:48 | 41.41929 | 2.24073 | 128° | 24km/h | 19228m | 4.9m/s | 0°C | 0% | 0hPa | 0V | 00:00:00 | 00:00:00 | 00:00:00 | |
| EA3IBE | 2026-09-06 00:03:43 | 41.41946 | 2.24053 | 154° | 20km/h | 19206m | 4.9m/s | 0°C | 0% | 0hPa | 0V | 00:00:00 | 00:00:00 | 00:00:00 | |
| EA3GEO | 2026-09-06 00:03:39 | 41.41957 | 2.24030 | 106° | 20km/h | 19183m | 5.3m/s | 0°C | 0% | 0hPa | 0V | 00:00:00 | 00:00:00 | 00:00:00 | |
| EA3IBE | 2026-09-06 00:03:37 | 41.41959 | 2.24023 | 116° | 22km/h | 19178m | 4.3m/s | 0°C | 0% | 0hPa | 0V | 00:00:00 | 00:00:00 | 00:00:00 | |
| EA3GEO | 2026-09-06 00:03:33 | 41.41968 | 2.23999 | 116° | 15km/h | 19161m | 4.6m/s | 0°C | 0% | 0hPa | 0V | 00:00:00 | 00:00:00 | 00:00:00 | |
| EA3IBE | 2026-09-06 00:03:32 | 41.41970 | 2.23995 | 126° | 16km/h | 19156m | 5.3m/s | 0°C | 0% | 0hPa | 0V | 00:00:00 | 00:00:00 | 00:00:00 | |
| EA3GEO | 2026-09-06 00:03:27 | 41.41979 | 2.23961 | 111° | 11km/h | 19124m | 5.1m/s | 0°C | 0% | 0hPa | 0V | 00:00:00 | 00:00:00 | 00:00:00 | |
| EA3IBE | 2026-09-06 00:03:24 | 41.41982 | 2.23943 | 110° | 15km/h | 19106m | 3.7m/s | 0°C | 0% | 0hPa | 0V | 00:00:00 | 00:00:00 | 00:00:00 | |
| EA3GEO | 2026-09-06 00:03:23 | 41.41982 | 2.23939 | 106° | 11km/h | 19102m | 4.8m/s | 0°C | 0% | 0hPa | 0V | 00:00:00 | 00:00:00 | 00:00:00 | |
| EA3IBE | 2026-09-06 00:03:21 | 41.41984 | 2.23932 | 115° | 11km/h | 19083m | 4.5m/s | 0°C | 0% | 0hPa | 0V | 00:00:00 | 00:00:00 | 00:00:00 | |
| EA3GEO | 2026-09-06 00:03:19 | 41.41985 | 2.23928 | 101° | 15km/h | 19079m | 4.0m/s | 0°C | 0% | 0hPa | 0V | 00:00:00 | 00:00:00 | 00:00:00 | |
| EA3IBE | 2026-09-06 00:03:17 | 41.41985 | 2.23907 | 115° | 11km/h | 19061m | 3.7m/s | 0°C | 0% | 0hPa | 0V | 00:00:00 | 00:00:00 | 00:00:00 | |
| EA3IBE | 2026-09-06 00:03:14 | 41.41996 | 2.23900 | 158° | 16km/h | 19038m | 3.2m/s | 0°C | 0% | 0hPa | 0V | 00:00:00 | 00:00:00 | 00:00:00 | |
| EA3GEO | 2026-09-06 00:03:12 | 41.42001 | 2.23889 | 95° | 15km/h | 19023m | 4.5m/s | 0°C | 0% | 0hPa | 0V | 00:00:00 | 00:00:00 | 00:00:00 | |
| EA3IBE | 2026-09-06 00:03:08 | 41.42003 | 2.23879 | 127° | 4km/h | 19011m | 3.7m/s | 0°C | 0% | 0hPa | 0V | 00:00:00 | 00:00:00 | 00:00:00 | |
| EA3GEO | 2026-09-06 00:03:06 | 41.42004 | 2.23879 | 171° | 7km/h | 18997m | 5.7m/s | 0°C | 0% | 0hPa | 0V | 00:00:00 | 00:00:00 | 00:00:00 | |
| EA3IBE | 2026-09-06 00:03:03 | 41.42009 | 2.23875 | 132° | 13km/h | 18989m | 3.4m/s | 0°C | 0% | 0hPa | 0V | 00:00:00 | 00:00:00 | 00:00:00 | |
| EA3GEO | 2026-09-06 00:02:59 | 41.42008 | 2.23863 | 93° | 4km/h | 18967m | 4.6m/s | 0°C | 0% | 0hPa | 0V | 00:00:00 | 00:00:00 | 00:00:00 | |
| EA3IBE | 2026-09-06 00:02:53 | 41.42014 | 2.23860 | 161° | 9km/h | 18940m | 3.1m/s | 0°C | 0% | 0hPa | 0V | 00:00:00 | 00:00:00 | 00:00:00 | |
| EA3IBE | 2026-09-06 00:02:48 | 41.42017 | 2.23864 | 219° | 7km/h | 18913m | 4.0m/s | 0°C | 0% | 0hPa | 0V | 00:00:00 | 00:00:00 | 00:00:00 | |
| EA3IBE | 2026-09-06 00:02:37 | 41.42022 | 2.23857 | 95° | 11km/h | 18886m | 5.1m/s | 0°C | 0% | 0hPa | 0V | 00:00:00 | 00:00:00 | 00:00:00 | |
| EA3IBE | 2026-09-06 00:02:30 | 41.42022 | 2.23852 | 25° | 2km/h | 18863m | 4.2m/s | 0°C | 0% | 0hPa | 0V | 00:00:00 | 00:00:00 | 00:00:00 | |
| EA3GEO | 2026-09-06 00:02:23 | 41.42030 | 2.23840 | 93° | 9km/h | 18836m | 4.2m/s | 0°C | 0% | 0hPa | 0V | 00:00:00 | 00:00:00 | 00:00:00 | |
| EA3GEO | 2026-09-06 00:02:17 | 41.42032 | 2.23825 | 131° | 13km/h | 18809m | 5.1m/s | 0°C | 0% | 0hPa | 0V | 00:00:00 | 00:00:00 | 00:00:00 | |
| EA3IBE | 2026-09-06 00:02:12 | 41.42040 | 2.23807 | 106° | 13km/h | 18792m | 4.2m/s | 0°C | 0% | 0hPa | 0V | 00:00:00 | 00:00:00 | 00:00:00 | |
| EA3GEO | 2026-09-06 00:02:10 | 41.42042 | 2.23801 | 141° | 7km/h | 18782m | 4.5m/s | 0°C | 0% | 0hPa | 0V | 00:00:00 | 00:00:00 | 00:00:00 | |
| EA3GEO | 2026-09-06 00:02:03 | 41.42051 | 2.23777 | 124° | 18km/h | 18755m | 4.0m/s | 0°C | 0% | 0hPa | 0V | 00:00:00 | 00:00:00 | 00:00:00 | |
| EA3IBE | 2026-09-06 00:02:00 | 41.42053 | 2.23755 | 94° | 15km/h | 18737m | 5.4m/s | 0°C | 0% | 0hPa | 0V | 00:00:00 | 00:00:00 | 00:00:00 | |
| EA3GEO | 2026-09-06 00:01:59 | 41.42054 | 2.23750 | 101° | 15km/h | 18732m | 4.0m/s | 0°C | 0% | 0hPa | 0V | 00:00:00 | 00:00:00 | 00:00:00 | |
| EA3IBE | 2026-09-06 00:01:57 | 41.42058 | 2.23721 | 115° | 26km/h | 18714m | 5.4m/s | 0°C | 0% | 0hPa | 0V | 00:00:00 | 00:00:00 | 00:00:00 | |
| EA3GEO | 2026-09-06 00:01:56 | 41.42063 | 2.23707 | 107° | 22km/h | 18706m | 4.8m/s | 0°C | 0% | 0hPa | 0V | 00:00:00 | 00:00:00 | 00:00:00 | |
| EA3IBE | 2026-09-06 00:01:54 | 41.42064 | 2.23685 | 87° | 11km/h | 18688m | 4.3m/s | 0°C | 0% | 0hPa | 0V | 00:00:00 | 00:00:00 | 00:00:00 | |
| EA3GEO | 2026-09-06 00:01:49 | 41.42062 | 2.23672 | 89° | 15km/h | 18674m | 4.6m/s | 0°C | 0% | 0hPa | 0V | 00:00:00 | 00:00:00 | 00:00:00 | |
| EA3IBE | 2026-09-06 00:01:46 | 41.42064 | 2.23660 | 107° | 9km/h | 18661m | 5.2m/s | 0°C | 0% | 0hPa | 0V | 00:00:00 | 00:00:00 | 00:00:00 | |
| EA3GEO | 2026-09-06 00:01:44 | 41.42065 | 2.23649 | 105° | 13km/h | 18647m | 5.0m/s | 0°C | 0% | 0hPa | 0V | 00:00:00 | 00:00:00 | 00:00:00 | |
| EA3IBE | 2026-09-06 00:01:39 | 41.42066 | 2.23633 | 88° | 18km/h | 18634m | 3.9m/s | 0°C | 0% | 0hPa | 0V | 00:00:00 | 00:00:00 | 00:00:00 | |
| EA3GEO | 2026-09-06 00:01:35 | 41.42067 | 2.23621 | 109° | 15km/h | 18624m | 4.0m/s | 0°C | 0% | 0hPa | 0V | 00:00:00 | 00:00:00 | 00:00:00 | |
| EA3IBE | 2026-09-06 00:01:34 | 41.42067 | 2.23612 | 52° | 7km/h | 18611m | 4.6m/s | 0°C | 0% | 0hPa | 0V | 00:00:00 | 00:00:00 | 00:00:00 | |
| EA3GEO | 2026-09-06 00:01:32 | 41.42067 | 2.23604 | 104° | 13km/h | 18596m | 4.2m/s | 0°C | 0% | 0hPa | 0V | 00:00:00 | 00:00:00 | 00:00:00 | |
| EA3IBE | 2026-09-06 00:01:28 | 41.42068 | 2.23593 | 117° | 11km/h | 18582m | 5.1m/s | 0°C | 0% | 0hPa | 0V | 00:00:00 | 00:00:00 | 00:00:00 | |
| EA3GEO | 2026-09-06 00:01:25 | 41.42073 | 2.23585 | 131° | 5km/h | 18567m | 5.0m/s | 0°C | 0% | 0hPa | 0V | 00:00:00 | 00:00:00 | 00:00:00 | |
| EA3IBE | 2026-09-06 00:01:24 | 41.42075 | 2.23583 | 150° | 5km/h | 18559m | 5.2m/s | 0°C | 0% | 0hPa | 0V | 00:00:00 | 00:00:00 | 00:00:00 | |
| EA3GEO | 2026-09-06 00:01:19 | 41.42075 | 2.23577 | 47° | 13km/h | 18542m | 3.8m/s | 0°C | 0% | 0hPa | 0V | 00:00:00 | 00:00:00 | 00:00:00 | |
| EA3IBE | 2026-09-06 00:01:17 | 41.42072 | 2.23563 | 100° | 13km/h | 18528m | 3.0m/s | 0°C | 0% | 0hPa | 0V | 00:00:00 | 00:00:00 | 00:00:00 | |
| EA3GEO | 2026-09-06 00:01:13 | 41.42073 | 2.23562 | 263° | 9km/h | 18515m | 4.0m/s | 0°C | 0% | 0hPa | 0V | 00:00:00 | 00:00:00 | 00:00:00 | |
| EA3IBE | 2026-09-06 00:01:10 | 41.42075 | 2.23566 | 208° | 5km/h | 18506m | 4.7m/s | 0°C | 0% | 0hPa | 0V | 00:00:00 | 00:00:00 | 00:00:00 | |
| EA3GEO | 2026-09-06 00:01:07 | 41.42073 | 2.23560 | 56° | 11km/h | 18488m | 4.4m/s | 0°C | 0% | 0hPa | 0V | 00:00:00 | 00:00:00 | 00:00:00 | |
| EA3IBE | 2026-09-06 00:01:04 | 41.42072 | 2.23557 | 72° | 13km/h | 18483m | 5.0m/s | 0°C | 0% | 0hPa | 0V | 00:00:00 | 00:00:00 | 00:00:00 | |
| EA3IBE | 2026-09-06 00:01:00 | 41.42071 | 2.23554 | 263° | 11km/h | 18461m | 4.7m/s | 0°C | 0% | 0hPa | 0V | 00:00:00 | 00:00:00 | 00:00:00 | |
| EA3GEO | 2026-09-06 00:00:53 | 41.42074 | 2.23559 | 75° | 5km/h | 18437m | 5.8m/s | 0°C | 0% | 0hPa | 0V | 00:00:00 | 00:00:00 | 00:00:00 | |
| EA3IBE | 2026-09-06 00:00:51 | 41.42074 | 2.23553 | 0° | 0km/h | 18424m | 5.2m/s | 0°C | 0% | 0hPa | 0V | 00:00:00 | 00:00:00 | 00:00:00 | |
| EA3GEO | 2026-09-06 00:00:46 | 41.42087 | 2.23564 | 230° | 5km/h | 18396m | 4.4m/s | 0°C | 0% | 0hPa | 0V | 00:00:00 | 00:00:00 | 00:00:00 | |
| EA3GEO | 2026-09-06 00:00:38 | 41.42109 | 2.23570 | 196° | 16km/h | 18355m | 4.3m/s | 0°C | 0% | 0hPa | 0V | 00:00:00 | 00:00:00 | 00:00:00 | |
| EA3IBE | 2026-09-06 00:00:36 | 41.42115 | 2.23573 | 221° | 7km/h | 18345m | 4.6m/s | 0°C | 0% | 0hPa | 0V | 00:00:00 | 00:00:00 | 00:00:00 | |
| EA3GEO | 2026-09-06 00:00:29 | 41.42121 | 2.23573 | 163° | 7km/h | 18326m | 5.3m/s | 0°C | 0% | 0hPa | 0V | 00:00:00 | 00:00:00 | 00:00:00 | |
| EA3IBE | 2026-09-06 00:00:28 | 41.42123 | 2.23572 | 164° | 5km/h | 18321m | 3.8m/s | 0°C | 0% | 0hPa | 0V | 00:00:00 | 00:00:00 | 00:00:00 | |
| EA3IBE | 2026-09-06 00:00:21 | 41.42138 | 2.23569 | 155° | 9km/h | 18287m | 4.7m/s | 0°C | 0% | 0hPa | 0V | 00:00:00 | 00:00:00 | 00:00:00 | |
| EA3GEO | 2026-09-06 00:00:20 | 41.42145 | 2.23559 | 122° | 13km/h | 18268m | 5.4m/s | 0°C | 0% | 0hPa | 0V | 00:00:00 | 00:00:00 | 00:00:00 | |
| EA3IBE | 2026-09-06 00:00:17 | 41.42151 | 2.23551 | 175° | 7km/h | 18254m | 4.0m/s | 0°C | 0% | 0hPa | 0V | 00:00:00 | 00:00:00 | 00:00:00 | |
| EA3IBE | 2026-09-06 00:00:11 | 41.42160 | 2.23542 | 112° | 7km/h | 18231m | 4.3m/s | 0°C | 0% | 0hPa | 0V | 00:00:00 | 00:00:00 | 00:00:00 | |
| EA3IBE | 2026-09-05 23:59:58 | 41.42167 | 2.23521 | 55° | 5km/h | 18181m | 4.9m/s | 0°C | 0% | 0hPa | 0V | 00:00:00 | 00:00:00 | 00:00:00 | |
| EA3IBE | 2026-09-05 23:59:50 | 41.42168 | 2.23515 | 159° | 9km/h | 18145m | 3.7m/s | 0°C | 0% | 0hPa | 0V | 00:00:00 | 00:00:00 | 00:00:00 | |
| EA3IBE | 2026-09-05 23:59:44 | 41.42179 | 2.23514 | 172° | 7km/h | 18117m | 5.4m/s | 0°C | 0% | 0hPa | 0V | 00:00:00 | 00:00:00 | 00:00:00 | |
| EA3IBE | 2026-09-05 23:59:38 | 41.42188 | 2.23504 | 116° | 9km/h | 18087m | 4.9m/s | 0°C | 0% | 0hPa | 0V | 00:00:00 | 00:00:00 | 00:00:00 | |
| EA3IBE | 2026-09-05 23:59:32 | 41.42201 | 2.23491 | 155° | 9km/h | 18059m | 3.7m/s | 0°C | 0% | 0hPa | 0V | 00:00:00 | 00:00:00 | 00:00:00 | |
| EA3IBE | 2026-09-05 23:59:27 | 41.42212 | 2.23482 | 128° | 13km/h | 18035m | 5.2m/s | 0°C | 0% | 0hPa | 0V | 00:00:00 | 00:00:00 | 00:00:00 | |
| EA3IBE | 2026-09-05 23:59:21 | 41.42230 | 2.23459 | 157° | 20km/h | 18008m | 4.9m/s | 0°C | 0% | 0hPa | 0V | 00:00:00 | 00:00:00 | 00:00:00 | |
| EA3GEO | 2026-09-05 23:59:18 | 41.42244 | 2.23447 | 122° | 11km/h | 17991m | 3.6m/s | 0°C | 0% | 0hPa | 0V | 00:00:00 | 00:00:00 | 00:00:00 | |
| EA3IBE | 2026-09-05 23:59:16 | 41.42246 | 2.23444 | 129° | 15km/h | 17986m | 5.4m/s | 0°C | 0% | 0hPa | 0V | 00:00:00 | 00:00:00 | 00:00:00 | |
| EA3GEO | 2026-09-05 23:59:12 | 41.42261 | 2.23425 | 139° | 24km/h | 17968m | 4.3m/s | 0°C | 0% | 0hPa | 0V | 00:00:00 | 00:00:00 | 00:00:00 | |
| EA3IBE | 2026-09-05 23:59:10 | 41.42270 | 2.23415 | 146° | 24km/h | 17958m | 3.7m/s | 0°C | 0% | 0hPa | 0V | 00:00:00 | 00:00:00 | 00:00:00 | |
| EA3GEO | 2026-09-05 23:59:07 | 41.42280 | 2.23404 | 134° | 15km/h | 17945m | 3.5m/s | 0°C | 0% | 0hPa | 0V | 00:00:00 | 00:00:00 | 00:00:00 | |
| EA3IBE | 2026-09-05 23:59:04 | 41.42292 | 2.23389 | 138° | 24km/h | 17930m | 5.3m/s | 0°C | 0% | 0hPa | 0V | 00:00:00 | 00:00:00 | 00:00:00 | |
| EA3IBE | 2026-09-05 23:58:59 | 41.42316 | 2.23360 | 130° | 24km/h | 17909m | 5.4m/s | 0°C | 0% | 0hPa | 0V | 00:00:00 | 00:00:00 | 00:00:00 | |
| EA3IBE | 2026-09-05 23:58:54 | 41.42332 | 2.23334 | 142° | 26km/h | 17887m | 4.3m/s | 0°C | 0% | 0hPa | 0V | 00:00:00 | 00:00:00 | 00:00:00 | |
| EA3GEO | 2026-09-05 23:58:52 | 41.42341 | 2.23322 | 131° | 26km/h | 17878m | 4.3m/s | 0°C | 0% | 0hPa | 0V | 00:00:00 | 00:00:00 | 00:00:00 | |
| EA3IBE | 2026-09-05 23:58:49 | 41.42357 | 2.23301 | 141° | 31km/h | 17865m | 4.1m/s | 0°C | 0% | 0hPa | 0V | 00:00:00 | 00:00:00 | 00:00:00 | |
| EA3GEO | 2026-09-05 23:58:46 | 41.42370 | 2.23282 | 127° | 20km/h | 17852m | 3.4m/s | 0°C | 0% | 0hPa | 0V | 00:00:00 | 00:00:00 | 00:00:00 | |
| EA3IBE | 2026-09-05 23:58:43 | 41.42382 | 2.23266 | 138° | 24km/h | 17838m | 4.6m/s | 0°C | 0% | 0hPa | 0V | 00:00:00 | 00:00:00 | 00:00:00 | |
| EA3GEO | 2026-09-05 23:58:40 | 41.42396 | 2.23248 | 139° | 29km/h | 17824m | 5.6m/s | 0°C | 0% | 0hPa | 0V | 00:00:00 | 00:00:00 | 00:00:00 | |
| EA3IBE | 2026-09-05 23:58:38 | 41.42406 | 2.23234 | 133° | 27km/h | 17816m | 5.2m/s | 0°C | 0% | 0hPa | 0V | 00:00:00 | 00:00:00 | 00:00:00 | |
| EA3GEO | 2026-09-05 23:58:35 | 41.42418 | 2.23217 | 143° | 22km/h | 17802m | 5.4m/s | 0°C | 0% | 0hPa | 0V | 00:00:00 | 00:00:00 | 00:00:00 | |
| EA3IBE | 2026-09-05 23:58:33 | 41.42427 | 2.23209 | 145° | 22km/h | 17793m | 4.2m/s | 0°C | 0% | 0hPa | 0V | 00:00:00 | 00:00:00 | 00:00:00 | |
| EA3GEO | 2026-09-05 23:58:29 | 41.42441 | 2.23184 | 132° | 26km/h | 17775m | 4.9m/s | 0°C | 0% | 0hPa | 0V | 00:00:00 | 00:00:00 | 00:00:00 | |
| EA3IBE | 2026-09-05 23:58:25 | 41.42458 | 2.23159 | 132° | 24km/h | 17758m | 4.3m/s | 0°C | 0% | 0hPa | 0V | 00:00:00 | 00:00:00 | 00:00:00 | |
| EA3GEO | 2026-09-05 23:58:24 | 41.42462 | 2.23154 | 142° | 24km/h | 17753m | 5.5m/s | 0°C | 0% | 0hPa | 0V | 00:00:00 | 00:00:00 | 00:00:00 | |
| EA3IBE | 2026-09-05 23:58:20 | 41.42477 | 2.23135 | 120° | 22km/h | 17735m | 3.7m/s | 0°C | 0% | 0hPa | 0V | 00:00:00 | 00:00:00 | 00:00:00 | |
| EA3GEO | 2026-09-05 23:58:19 | 41.42481 | 2.23127 | 123° | 27km/h | 17731m | 5.6m/s | 0°C | 0% | 0hPa | 0V | 00:00:00 | 00:00:00 | 00:00:00 | |
| EA3IBE | 2026-09-05 23:58:15 | 41.42496 | 2.23095 | 116° | 24km/h | 17712m | 3.8m/s | 0°C | 0% | 0hPa | 0V | 00:00:00 | 00:00:00 | 00:00:00 | |
| EA3GEO | 2026-09-05 23:58:14 | 41.42499 | 2.23088 | 116° | 24km/h | 17708m | 4.1m/s | 0°C | 0% | 0hPa | 0V | 00:00:00 | 00:00:00 | 00:00:00 | |
| EA3IBE | 2026-09-05 23:58:08 | 41.42513 | 2.23039 | 128° | 29km/h | 17681m | 4.8m/s | 0°C | 0% | 0hPa | 0V | 00:00:00 | 00:00:00 | 00:00:00 | |
| EA3GEO | 2026-09-05 23:58:03 | 41.42531 | 2.23013 | 126° | 22km/h | 17659m | 4.7m/s | 0°C | 0% | 0hPa | 0V | 00:00:00 | 00:00:00 | 00:00:00 | |
| EA3IBE | 2026-09-05 23:58:02 | 41.42534 | 2.23007 | 119° | 22km/h | 17655m | 4.2m/s | 0°C | 0% | 0hPa | 0V | 00:00:00 | 00:00:00 | 00:00:00 | |
| EA3GEO | 2026-09-05 23:57:57 | 41.42550 | 2.22970 | 130° | 27km/h | 17632m | 4.0m/s | 0°C | 0% | 0hPa | 0V | 00:00:00 | 00:00:00 | 00:00:00 | |
| EA3IBE | 2026-09-05 23:57:56 | 41.42554 | 2.22963 | 127° | 24km/h | 17628m | 4.8m/s | 0°C | 0% | 0hPa | 0V | 00:00:00 | 00:00:00 | 00:00:00 | |
| EA3GEO | 2026-09-05 23:57:51 | 41.42573 | 2.22928 | 119° | 29km/h | 17608m | 3.9m/s | 0°C | 0% | 0hPa | 0V | 00:00:00 | 00:00:00 | 00:00:00 | |
| EA3IBE | 2026-09-05 23:57:50 | 41.42576 | 2.22919 | 108° | 29km/h | 17603m | 4.9m/s | 0°C | 0% | 0hPa | 0V | 00:00:00 | 00:00:00 | 00:00:00 | |
| EA3GEO | 2026-09-05 23:57:46 | 41.42587 | 2.22880 | 124° | 29km/h | 17585m | 4.6m/s | 0°C | 0% | 0hPa | 0V | 00:00:00 | 00:00:00 | 00:00:00 | |
| EA3IBE | 2026-09-05 23:57:45 | 41.42591 | 2.22873 | 127° | 24km/h | 17581m | 4.9m/s | 0°C | 0% | 0hPa | 0V | 00:00:00 | 00:00:00 | 00:00:00 | |
| EA3GEO | 2026-09-05 23:57:40 | 41.42606 | 2.22837 | 110° | 26km/h | 17557m | 4.1m/s | 0°C | 0% | 0hPa | 0V | 00:00:00 | 00:00:00 | 00:00:00 | |
| EA3IBE | 2026-09-05 23:57:38 | 41.42612 | 2.22819 | 114° | 31km/h | 17548m | 4.6m/s | 0°C | 0% | 0hPa | 0V | 00:00:00 | 00:00:00 | 00:00:00 | |
| EA3IBE | 2026-09-05 23:57:33 | 41.42625 | 2.22782 | 126° | 22km/h | 17525m | 3.9m/s | 0°C | 0% | 0hPa | 0V | 00:00:00 | 00:00:00 | 00:00:00 | |
| EA3IBE | 2026-09-05 23:57:26 | 41.42640 | 2.22732 | 96° | 24km/h | 17494m | 3.6m/s | 0°C | 0% | 0hPa | 0V | 00:00:00 | 00:00:00 | 00:00:00 | |
| EA3GEO | 2026-09-05 23:57:21 | 41.42643 | 2.22698 | 108° | 16km/h | 17472m | 3.5m/s | 0°C | 0% | 0hPa | 0V | 00:00:00 | 00:00:00 | 00:00:00 | |
| EA3IBE | 2026-09-05 23:57:20 | 41.42645 | 2.22692 | 125° | 20km/h | 17467m | 5.7m/s | 0°C | 0% | 0hPa | 0V | 00:00:00 | 00:00:00 | 00:00:00 | |
| EA3GEO | 2026-09-05 23:57:14 | 41.42661 | 2.22651 | 97° | 27km/h | 17439m | 4.8m/s | 0°C | 0% | 0hPa | 0V | 00:00:00 | 00:00:00 | 00:00:00 | |
| EA3IBE | 2026-09-05 23:57:09 | 41.42664 | 2.22608 | 117° | 26km/h | 17415m | 4.4m/s | 0°C | 0% | 0hPa | 0V | 00:00:00 | 00:00:00 | 00:00:00 | |
| EA3GEO | 2026-09-05 23:57:07 | 41.42669 | 2.22595 | 118° | 22km/h | 17406m | 3.9m/s | 0°C | 0% | 0hPa | 0V | 00:00:00 | 00:00:00 | 00:00:00 | |
| EA3IBE | 2026-09-05 23:57:03 | 41.42673 | 2.22558 | 82° | 31km/h | 17389m | 5.2m/s | 0°C | 0% | 0hPa | 0V | 00:00:00 | 00:00:00 | 00:00:00 | |
| EA3GEO | 2026-09-05 23:57:01 | 41.42671 | 2.22539 | 88° | 29km/h | 17379m | 5.4m/s | 0°C | 0% | 0hPa | 0V | 00:00:00 | 00:00:00 | 00:00:00 | |
| EA3IBE | 2026-09-05 23:56:57 | 41.42677 | 2.22502 | 99° | 29km/h | 17361m | 3.9m/s | 0°C | 0% | 0hPa | 0V | 00:00:00 | 00:00:00 | 00:00:00 | |
| EA3GEO | 2026-09-05 23:56:55 | 41.42678 | 2.22480 | 93° | 35km/h | 17352m | 4.3m/s | 0°C | 0% | 0hPa | 0V | 00:00:00 | 00:00:00 | 00:00:00 | |
| EA3IBE | 2026-09-05 23:56:52 | 41.42677 | 2.22450 | 83° | 22km/h | 17338m | 3.7m/s | 0°C | 0% | 0hPa | 0V | 00:00:00 | 00:00:00 | 00:00:00 | |
| EA3GEO | 2026-09-05 23:56:49 | 41.42678 | 2.22427 | 107° | 27km/h | 17325m | 3.5m/s | 0°C | 0% | 0hPa | 0V | 00:00:00 | 00:00:00 | 00:00:00 | |
| EA3IBE | 2026-09-05 23:56:47 | 41.42682 | 2.22410 | 104° | 26km/h | 17316m | 4.1m/s | 0°C | 0% | 0hPa | 0V | 00:00:00 | 00:00:00 | 00:00:00 | |
| EA3GEO | 2026-09-05 23:56:44 | 41.42687 | 2.22380 | 103° | 35km/h | 17302m | 4.0m/s | 0°C | 0% | 0hPa | 0V | 00:00:00 | 00:00:00 | 00:00:00 | |
| EA3IBE | 2026-09-05 23:56:41 | 41.42690 | 2.22351 | 102° | 20km/h | 17289m | 3.6m/s | 0°C | 0% | 0hPa | 0V | 00:00:00 | 00:00:00 | 00:00:00 | |
| EA3GEO | 2026-09-05 23:56:39 | 41.42694 | 2.22340 | 128° | 22km/h | 17279m | 4.2m/s | 0°C | 0% | 0hPa | 0V | 00:00:00 | 00:00:00 | 00:00:00 | |
| EA3IBE | 2026-09-05 23:56:35 | 41.42706 | 2.22312 | 111° | 27km/h | 17261m | 5.6m/s | 0°C | 0% | 0hPa | 0V | 00:00:00 | 00:00:00 | 00:00:00 | |
| EA3GEO | 2026-09-05 23:56:34 | 41.42708 | 2.22303 | 106° | 31km/h | 17257m | 3.5m/s | 0°C | 0% | 0hPa | 0V | 00:00:00 | 00:00:00 | 00:00:00 | |
| EA3IBE | 2026-09-05 23:56:30 | 41.42712 | 2.22265 | 111° | 27km/h | 17238m | 4.7m/s | 0°C | 0% | 0hPa | 0V | 00:00:00 | 00:00:00 | 00:00:00 | |
| EA3GEO | 2026-09-05 23:56:28 | 41.42718 | 2.22249 | 119° | 24km/h | 17230m | 5.1m/s | 0°C | 0% | 0hPa | 0V | 00:00:00 | 00:00:00 | 00:00:00 | |
| EA3IBE | 2026-09-05 23:56:24 | 41.42726 | 2.22223 | 115° | 24km/h | 17211m | 4.2m/s | 0°C | 0% | 0hPa | 0V | 00:00:00 | 00:00:00 | 00:00:00 | |
| EA3GEO | 2026-09-05 23:56:23 | 41.42728 | 2.22216 | 110° | 26km/h | 17207m | 4.2m/s | 0°C | 0% | 0hPa | 0V | 00:00:00 | 00:00:00 | 00:00:00 | |
| EA3IBE | 2026-09-05 23:56:19 | 41.42732 | 2.22182 | 109° | 26km/h | 17189m | 4.9m/s | 0°C | 0% | 0hPa | 0V | 00:00:00 | 00:00:00 | 00:00:00 | |
| EA3GEO | 2026-09-05 23:56:17 | 41.42736 | 2.22167 | 108° | 20km/h | 17179m | 5.6m/s | 0°C | 0% | 0hPa | 0V | 00:00:00 | 00:00:00 | 00:00:00 | |
| EA3IBE | 2026-09-05 23:56:14 | 41.42739 | 2.22149 | 102° | 18km/h | 17164m | 5.0m/s | 0°C | 0% | 0hPa | 0V | 00:00:00 | 00:00:00 | 00:00:00 | |
| EA3GEO | 2026-09-05 23:56:11 | 41.42741 | 2.22126 | 100° | 26km/h | 17149m | 4.4m/s | 0°C | 0% | 0hPa | 0V | 00:00:00 | 00:00:00 | 00:00:00 | |
| EA3IBE | 2026-09-05 23:56:09 | 41.42744 | 2.22110 | 108° | 22km/h | 17140m | 3.9m/s | 0°C | 0% | 0hPa | 0V | 00:00:00 | 00:00:00 | 00:00:00 | |
| EA3IBE | 2026-09-05 23:55:59 | 41.42751 | 2.22044 | 92° | 24km/h | 17094m | 5.7m/s | 0°C | 0% | 0hPa | 0V | 00:00:00 | 00:00:00 | 00:00:00 | |
| EA3GEO | 2026-09-05 23:55:58 | 41.42751 | 2.22035 | 82° | 26km/h | 17089m | 4.5m/s | 0°C | 0% | 0hPa | 0V | 00:00:00 | 00:00:00 | 00:00:00 | |
| EA3IBE | 2026-09-05 23:55:53 | 41.42750 | 2.21999 | 81° | 20km/h | 17066m | 4.6m/s | 0°C | 0% | 0hPa | 0V | 00:00:00 | 00:00:00 | 00:00:00 | |
| EA3GEO | 2026-09-05 23:55:52 | 41.42749 | 2.21993 | 86° | 20km/h | 17062m | 3.5m/s | 0°C | 0% | 0hPa | 0V | 00:00:00 | 00:00:00 | 00:00:00 | |
| EA3IBE | 2026-09-05 23:55:48 | 41.42750 | 2.21965 | 81° | 22km/h | 17043m | 4.5m/s | 0°C | 0% | 0hPa | 0V | 00:00:00 | 00:00:00 | 00:00:00 | |
| EA3IBE | 2026-09-05 23:55:42 | 41.42743 | 2.21917 | 91° | 27km/h | 17015m | 5.7m/s | 0°C | 0% | 0hPa | 0V | 00:00:00 | 00:00:00 | 00:00:00 | |
| EA3GEO | 2026-09-05 23:55:41 | 41.42744 | 2.21907 | 102° | 27km/h | 17010m | 3.8m/s | 0°C | 0% | 0hPa | 0V | 00:00:00 | 00:00:00 | 00:00:00 | |
| EA3IBE | 2026-09-05 23:55:36 | 41.42744 | 2.21869 | 84° | 20km/h | 16987m | 4.9m/s | 0°C | 0% | 0hPa | 0V | 00:00:00 | 00:00:00 | 00:00:00 | |
| EA3GEO | 2026-09-05 23:55:35 | 41.42743 | 2.21863 | 83° | 20km/h | 16983m | 3.8m/s | 0°C | 0% | 0hPa | 0V | 00:00:00 | 00:00:00 | 00:00:00 | |
| EA3GEO | 2026-09-05 23:55:30 | 41.42740 | 2.21832 | 88° | 15km/h | 16960m | 5.4m/s | 0°C | 0% | 0hPa | 0V | 00:00:00 | 00:00:00 | 00:00:00 | |
| EA3IBE | 2026-09-05 23:55:26 | 41.42738 | 2.21811 | 86° | 20km/h | 16941m | 4.9m/s | 0°C | 0% | 0hPa | 0V | 00:00:00 | 00:00:00 | 00:00:00 | |
| EA3IBE | 2026-09-05 23:55:15 | 41.42728 | 2.21745 | 76° | 20km/h | 16891m | 3.9m/s | 0°C | 0% | 0hPa | 0V | 00:00:00 | 00:00:00 | 00:00:00 | |
| EA3GEO | 2026-09-05 23:55:14 | 41.42727 | 2.21739 | 75° | 18km/h | 16887m | 4.6m/s | 0°C | 0% | 0hPa | 0V | 00:00:00 | 00:00:00 | 00:00:00 | |
| EA3IBE | 2026-09-05 23:55:09 | 41.42723 | 2.21714 | 71° | 13km/h | 16864m | 4.0m/s | 0°C | 0% | 0hPa | 0V | 00:00:00 | 00:00:00 | 00:00:00 | |
| EA3GEO | 2026-09-05 23:55:08 | 41.42723 | 2.21710 | 96° | 13km/h | 16859m | 5.2m/s | 0°C | 0% | 0hPa | 0V | 00:00:00 | 00:00:00 | 00:00:00 | |
| EA3IBE | 2026-09-05 23:55:03 | 41.42728 | 2.21682 | 110° | 13km/h | 16837m | 5.4m/s | 0°C | 0% | 0hPa | 0V | 00:00:00 | 00:00:00 | 00:00:00 | |
| EA3GEO | 2026-09-05 23:55:02 | 41.42729 | 2.21679 | 120° | 7km/h | 16833m | 3.7m/s | 0°C | 0% | 0hPa | 0V | 00:00:00 | 00:00:00 | 00:00:00 | |
| EA3IBE | 2026-09-05 23:54:57 | 41.42730 | 2.21667 | 109° | 15km/h | 16809m | 4.9m/s | 0°C | 0% | 0hPa | 0V | 00:00:00 | 00:00:00 | 00:00:00 | |
| EA3GEO | 2026-09-05 23:54:56 | 41.42731 | 2.21661 | 102° | 18km/h | 16804m | 5.7m/s | 0°C | 0% | 0hPa | 0V | 00:00:00 | 00:00:00 | 00:00:00 | |
| EA3IBE | 2026-09-05 23:54:51 | 41.42736 | 2.21641 | 134° | 4km/h | 16783m | 5.3m/s | 0°C | 0% | 0hPa | 0V | 00:00:00 | 00:00:00 | 00:00:00 | |
| EA3GEO | 2026-09-05 23:54:50 | 41.42736 | 2.21640 | 75° | 4km/h | 16778m | 4.0m/s | 0°C | 0% | 0hPa | 0V | 00:00:00 | 00:00:00 | 00:00:00 | |
| EA3IBE | 2026-09-05 23:54:45 | 41.42740 | 2.21622 | 100° | 16km/h | 16756m | 4.1m/s | 0°C | 0% | 0hPa | 0V | 00:00:00 | 00:00:00 | 00:00:00 | |
| EA3IBE | 2026-09-05 23:54:40 | 41.42745 | 2.21600 | 91° | 9km/h | 16733m | 3.9m/s | 0°C | 0% | 0hPa | 0V | 00:00:00 | 00:00:00 | 00:00:00 | |
| EA3GEO | 2026-09-05 23:54:39 | 41.42745 | 2.21597 | 105° | 11km/h | 16729m | 4.7m/s | 0°C | 0% | 0hPa | 0V | 00:00:00 | 00:00:00 | 00:00:00 | |
| EA3IBE | 2026-09-05 23:54:35 | 41.42751 | 2.21575 | 101° | 18km/h | 16711m | 4.1m/s | 0°C | 0% | 0hPa | 0V | 00:00:00 | 00:00:00 | 00:00:00 | |
| EA3GEO | 2026-09-05 23:54:33 | 41.42753 | 2.21561 | 101° | 24km/h | 16702m | 4.3m/s | 0°C | 0% | 0hPa | 0V | 00:00:00 | 00:00:00 | 00:00:00 | |
| EA3IBE | 2026-09-05 23:54:29 | 41.42751 | 2.21530 | 87° | 22km/h | 16685m | 4.3m/s | 0°C | 0% | 0hPa | 0V | 00:00:00 | 00:00:00 | 00:00:00 | |
| EA3GEO | 2026-09-05 23:54:27 | 41.42753 | 2.21516 | 110° | 22km/h | 16677m | 3.0m/s | 0°C | 0% | 0hPa | 0V | 00:00:00 | 00:00:00 | 00:00:00 | |
| EA3IBE | 2026-09-05 23:54:23 | 41.42756 | 2.21491 | 96° | 22km/h | 16661m | 4.9m/s | 0°C | 0% | 0hPa | 0V | 00:00:00 | 00:00:00 | 00:00:00 | |
| EA3GEO | 2026-09-05 23:54:21 | 41.42757 | 2.21476 | 91° | 20km/h | 16652m | 5.3m/s | 0°C | 0% | 0hPa | 0V | 00:00:00 | 00:00:00 | 00:00:00 | |
| EA3IBE | 2026-09-05 23:54:18 | 41.42758 | 2.21460 | 111° | 16km/h | 16639m | 4.6m/s | 0°C | 0% | 0hPa | 0V | 00:00:00 | 00:00:00 | 00:00:00 | |
| EA3GEO | 2026-09-05 23:54:15 | 41.42760 | 2.21446 | 75° | 13km/h | 16626m | 4.2m/s | 0°C | 0% | 0hPa | 0V | 00:00:00 | 00:00:00 | 00:00:00 | |
| EA3IBE | 2026-09-05 23:54:13 | 41.42758 | 2.21436 | 84° | 18km/h | 16617m | 4.6m/s | 0°C | 0% | 0hPa | 0V | 00:00:00 | 00:00:00 | 00:00:00 | |
| EA3GEO | 2026-09-05 23:54:10 | 41.42758 | 2.21421 | 101° | 13km/h | 16603m | 4.8m/s | 0°C | 0% | 0hPa | 0V | 00:00:00 | 00:00:00 | 00:00:00 | |
| EA3IBE | 2026-09-05 23:54:06 | 41.42761 | 2.21406 | 98° | 11km/h | 16586m | 4.4m/s | 0°C | 0% | 0hPa | 0V | 00:00:00 | 00:00:00 | 00:00:00 | |
| EA3GEO | 2026-09-05 23:54:04 | 41.42762 | 2.21397 | 103° | 16km/h | 16577m | 3.4m/s | 0°C | 0% | 0hPa | 0V | 00:00:00 | 00:00:00 | 00:00:00 | |
| EA3IBE | 2026-09-05 23:54:01 | 41.42762 | 2.21382 | 82° | 18km/h | 16564m | 4.6m/s | 0°C | 0% | 0hPa | 0V | 00:00:00 | 00:00:00 | 00:00:00 | |
| EA3GEO | 2026-09-05 23:53:56 | 41.42759 | 2.21349 | 90° | 16km/h | 16542m | 5.1m/s | 0°C | 0% | 0hPa | 0V | 00:00:00 | 00:00:00 | 00:00:00 | |
| EA3IBE | 2026-09-05 23:53:55 | 41.42760 | 2.21343 | 98° | 16km/h | 16538m | 3.8m/s | 0°C | 0% | 0hPa | 0V | 00:00:00 | 00:00:00 | 00:00:00 | |
| EA3GEO | 2026-09-05 23:53:51 | 41.42760 | 2.21321 | 97° | 18km/h | 16521m | 4.3m/s | 0°C | 0% | 0hPa | 0V | 00:00:00 | 00:00:00 | 00:00:00 | |
| EA3IBE | 2026-09-05 23:53:50 | 41.42760 | 2.21314 | 92° | 18km/h | 16517m | 3.1m/s | 0°C | 0% | 0hPa | 0V | 00:00:00 | 00:00:00 | 00:00:00 | |
| EA3GEO | 2026-09-05 23:53:45 | 41.42752 | 2.21282 | 76° | 24km/h | 16496m | 3.7m/s | 0°C | 0% | 0hPa | 0V | 00:00:00 | 00:00:00 | 00:00:00 | |
| EA3IBE | 2026-09-05 23:53:44 | 41.42750 | 2.21274 | 73° | 27km/h | 16491m | 5.5m/s | 0°C | 0% | 0hPa | 0V | 00:00:00 | 00:00:00 | 00:00:00 | |
| EA3IBE | 2026-09-05 23:53:39 | 41.42739 | 2.21233 | 49° | 20km/h | 16469m | 3.9m/s | 0°C | 0% | 0hPa | 0V | 00:00:00 | 00:00:00 | 00:00:00 | |
| EA3IBE | 2026-09-05 23:53:34 | 41.42734 | 2.21204 | 87° | 27km/h | 16447m | 4.1m/s | 0°C | 0% | 0hPa | 0V | 00:00:00 | 00:00:00 | 00:00:00 | |
| EA3GEO | 2026-09-05 23:53:33 | 41.42733 | 2.21194 | 86° | 29km/h | 16444m | 3.6m/s | 0°C | 0% | 0hPa | 0V | 00:00:00 | 00:00:00 | 00:00:00 | |
| EA3IBE | 2026-09-05 23:53:27 | 41.42728 | 2.21154 | 86° | 7km/h | 16417m | 4.5m/s | 0°C | 0% | 0hPa | 0V | 00:00:00 | 00:00:00 | 00:00:00 | |
| EA3IBE | 2026-09-05 23:53:21 | 41.42730 | 2.21115 | 96° | 22km/h | 16393m | 4.3m/s | 0°C | 0% | 0hPa | 0V | 00:00:00 | 00:00:00 | 00:00:00 | |
| EA3IBE | 2026-09-05 23:53:16 | 41.42730 | 2.21084 | 114° | 18km/h | 16372m | 3.6m/s | 0°C | 0% | 0hPa | 0V | 00:00:00 | 00:00:00 | 00:00:00 | |
| EA3GEO | 2026-09-05 23:53:15 | 41.42732 | 2.21078 | 109° | 18km/h | 16367m | 5.2m/s | 0°C | 0% | 0hPa | 0V | 00:00:00 | 00:00:00 | 00:00:00 | |
| EA3IBE | 2026-09-05 23:53:10 | 41.42738 | 2.21042 | 88° | 24km/h | 16345m | 4.0m/s | 0°C | 0% | 0hPa | 0V | 00:00:00 | 00:00:00 | 00:00:00 | |
| EA3IBE | 2026-09-05 23:53:03 | 41.42742 | 2.21006 | 110° | 11km/h | 16316m | 5.1m/s | 0°C | 0% | 0hPa | 0V | 00:00:00 | 00:00:00 | 00:00:00 | |
| EA3IBE | 2026-09-05 23:52:58 | 41.42748 | 2.20981 | 112° | 22km/h | 16293m | 4.4m/s | 0°C | 0% | 0hPa | 0V | 00:00:00 | 00:00:00 | 00:00:00 | |
| EA3GEO | 2026-09-05 23:52:57 | 41.42750 | 2.20974 | 107° | 20km/h | 16289m | 4.4m/s | 0°C | 0% | 0hPa | 0V | 00:00:00 | 00:00:00 | 00:00:00 | |
| EA3GEO | 2026-09-05 23:52:52 | 41.42757 | 2.20950 | 118° | 15km/h | 16267m | 5.0m/s | 0°C | 0% | 0hPa | 0V | 00:00:00 | 00:00:00 | 00:00:00 | |
| EA3GEO | 2026-09-05 23:52:46 | 41.42764 | 2.20913 | 90° | 20km/h | 16242m | 4.0m/s | 0°C | 0% | 0hPa | 0V | 00:00:00 | 00:00:00 | 00:00:00 | |
| EA3IBE | 2026-09-05 23:52:44 | 41.42766 | 2.20899 | 111° | 22km/h | 16233m | 4.1m/s | 0°C | 0% | 0hPa | 0V | 00:00:00 | 00:00:00 | 00:00:00 | |
| EA3IBE | 2026-09-05 23:52:39 | 41.42771 | 2.20869 | 102° | 20km/h | 16211m | 3.7m/s | 0°C | 0% | 0hPa | 0V | 00:00:00 | 00:00:00 | 00:00:00 | |
| EA3IBE | 2026-09-05 23:52:33 | 41.42771 | 2.20823 | 108° | 20km/h | 16184m | 3.7m/s | 0°C | 0% | 0hPa | 0V | 00:00:00 | 00:00:00 | 00:00:00 | |
| EA3GEO | 2026-09-05 23:52:31 | 41.42771 | 2.20812 | 77° | 16km/h | 16175m | 4.2m/s | 0°C | 0% | 0hPa | 0V | 00:00:00 | 00:00:00 | 00:00:00 | |
| EA3IBE | 2026-09-05 23:52:28 | 41.42767 | 2.20792 | 71° | 27km/h | 16160m | 3.1m/s | 0°C | 0% | 0hPa | 0V | 00:00:00 | 00:00:00 | 00:00:00 | |
| EA3GEO | 2026-09-05 23:52:24 | 41.42755 | 2.20756 | 79° | 29km/h | 16142m | 4.5m/s | 0°C | 0% | 0hPa | 0V | 00:00:00 | 00:00:00 | 00:00:00 | |
| EA3IBE | 2026-09-05 23:52:22 | 41.42753 | 2.20739 | 81° | 24km/h | 16133m | 5.0m/s | 0°C | 0% | 0hPa | 0V | 00:00:00 | 00:00:00 | 00:00:00 | |
| EA3GEO | 2026-09-05 23:52:18 | 41.42747 | 2.20712 | 65° | 20km/h | 16116m | 4.0m/s | 0°C | 0% | 0hPa | 0V | 00:00:00 | 00:00:00 | 00:00:00 | |
| EA3IBE | 2026-09-05 23:52:16 | 41.42740 | 2.20701 | 47° | 20km/h | 16107m | 4.0m/s | 0°C | 0% | 0hPa | 0V | 00:00:00 | 00:00:00 | 00:00:00 | |
| EA3GEO | 2026-09-05 23:52:12 | 41.42734 | 2.20678 | 95° | 16km/h | 16091m | 4.5m/s | 0°C | 0% | 0hPa | 0V | 00:00:00 | 00:00:00 | 00:00:00 | |
| EA3IBE | 2026-09-05 23:52:11 | 41.42734 | 2.20672 | 95° | 20km/h | 16086m | 4.6m/s | 0°C | 0% | 0hPa | 0V | 00:00:00 | 00:00:00 | 00:00:00 | |
| EA3IBE | 2026-09-05 23:52:06 | 41.42728 | 2.20638 | 68° | 22km/h | 16064m | 5.0m/s | 0°C | 0% | 0hPa | 0V | 00:00:00 | 00:00:00 | 00:00:00 | |
| EA3GEO | 2026-09-05 23:52:01 | 41.42723 | 2.20607 | 91° | 22km/h | 16043m | 4.8m/s | 0°C | 0% | 0hPa | 0V | 00:00:00 | 00:00:00 | 00:00:00 | |
| EA3IBE | 2026-09-05 23:52:00 | 41.42723 | 2.20600 | 90° | 24km/h | 16039m | 3.2m/s | 0°C | 0% | 0hPa | 0V | 00:00:00 | 00:00:00 | 00:00:00 | |
| EA3IBE | 2026-09-05 23:51:55 | 41.42719 | 2.20566 | 81° | 22km/h | 16017m | 4.6m/s | 0°C | 0% | 0hPa | 0V | 00:00:00 | 00:00:00 | 00:00:00 | |
| EA3IBE | 2026-09-05 23:51:49 | 41.42717 | 2.20521 | 81° | 20km/h | 15990m | 3.6m/s | 0°C | 0% | 0hPa | 0V | 00:00:00 | 00:00:00 | 00:00:00 | |
| EA3GEO | 2026-09-05 23:51:44 | 41.42710 | 2.20483 | 72° | 18km/h | 15970m | 4.6m/s | 0°C | 0% | 0hPa | 0V | 00:00:00 | 00:00:00 | 00:00:00 | |
| EA3IBE | 2026-09-05 23:51:43 | 41.42709 | 2.20478 | 72° | 16km/h | 15966m | 3.8m/s | 0°C | 0% | 0hPa | 0V | 00:00:00 | 00:00:00 | 00:00:00 | |
| EA3IBE | 2026-09-05 23:51:38 | 41.42706 | 2.20441 | 82° | 22km/h | 15944m | 3.8m/s | 0°C | 0% | 0hPa | 0V | 00:00:00 | 00:00:00 | 00:00:00 | |
| EA3GEO | 2026-09-05 23:51:33 | 41.42693 | 2.20412 | 42° | 18km/h | 15922m | 5.2m/s | 0°C | 0% | 0hPa | 0V | 00:00:00 | 00:00:00 | 00:00:00 | |
| EA3IBE | 2026-09-05 23:51:32 | 41.42690 | 2.20408 | 44° | 20km/h | 15918m | 2.9m/s | 0°C | 0% | 0hPa | 0V | 00:00:00 | 00:00:00 | 00:00:00 | |
| EA3IBE | 2026-09-05 23:51:27 | 41.42675 | 2.20384 | 58° | 22km/h | 15897m | 3.2m/s | 0°C | 0% | 0hPa | 0V | 00:00:00 | 00:00:00 | 00:00:00 | |
| EA3GEO | 2026-09-05 23:51:22 | 41.42666 | 2.20353 | 68° | 16km/h | 15875m | 3.8m/s | 0°C | 0% | 0hPa | 0V | 00:00:00 | 00:00:00 | 00:00:00 | |
| EA3IBE | 2026-09-05 23:51:21 | 41.42665 | 2.20348 | 79° | 13km/h | 15870m | 4.7m/s | 0°C | 0% | 0hPa | 0V | 00:00:00 | 00:00:00 | 00:00:00 | |
| EA3IBE | 2026-09-05 23:51:16 | 41.42660 | 2.20324 | 81° | 18km/h | 15849m | 4.8m/s | 0°C | 0% | 0hPa | 0V | 00:00:00 | 00:00:00 | 00:00:00 | |
| EA3IBE | 2026-09-05 23:51:10 | 41.42657 | 2.20295 | 83° | 13km/h | 15823m | 4.6m/s | 0°C | 0% | 0hPa | 0V | 00:00:00 | 00:00:00 | 00:00:00 | |
| EA3IBE | 2026-09-05 23:51:04 | 41.42656 | 2.20272 | 101° | 13km/h | 15796m | 5.1m/s | 0°C | 0% | 0hPa | 0V | 00:00:00 | 00:00:00 | 00:00:00 | |
| EA3GEO | 2026-09-05 23:51:02 | 41.42657 | 2.20262 | 102° | 16km/h | 15787m | 5.9m/s | 0°C | 0% | 0hPa | 0V | 00:00:00 | 00:00:00 | 00:00:00 | |
| EA3IBE | 2026-09-05 23:50:59 | 41.42659 | 2.20242 | 90° | 16km/h | 15775m | 5.7m/s | 0°C | 0% | 0hPa | 0V | 00:00:00 | 00:00:00 | 00:00:00 | |
| EA3GEO | 2026-09-05 23:50:57 | 41.42658 | 2.20233 | 90° | 13km/h | 15766m | 5.7m/s | 0°C | 0% | 0hPa | 0V | 00:00:00 | 00:00:00 | 00:00:00 | |
| EA3IBE | 2026-09-05 23:50:54 | 41.42660 | 2.20216 | 99° | 16km/h | 15751m | 5.5m/s | 0°C | 0% | 0hPa | 0V | 00:00:00 | 00:00:00 | 00:00:00 | |
| EA3IBE | 2026-09-05 23:50:49 | 41.42655 | 2.20177 | 69° | 26km/h | 15728m | 4.0m/s | 0°C | 0% | 0hPa | 0V | 00:00:00 | 00:00:00 | 00:00:00 | |
| EA3IBE | 2026-09-05 23:50:43 | 41.42653 | 2.20135 | 106° | 24km/h | 15701m | 4.2m/s | 0°C | 0% | 0hPa | 0V | 00:00:00 | 00:00:00 | 00:00:00 | |
| EA3GEO | 2026-09-05 23:50:38 | 41.42643 | 2.20094 | 63° | 16km/h | 15674m | 4.8m/s | 0°C | 0% | 0hPa | 0V | 00:00:00 | 00:00:00 | 00:00:00 | |
| EA3IBE | 2026-09-05 23:50:36 | 41.42642 | 2.20090 | 87° | 11km/h | 15670m | 4.9m/s | 0°C | 0% | 0hPa | 0V | 00:00:00 | 00:00:00 | 00:00:00 | |
| EA3IBE | 2026-09-05 23:50:31 | 41.42650 | 2.20059 | 81° | 24km/h | 15648m | 6.1m/s | 0°C | 0% | 0hPa | 0V | 00:00:00 | 00:00:00 | 00:00:00 | |
| EA3IBE | 2026-09-05 23:50:26 | 41.42636 | 2.20034 | 94° | 4km/h | 15623m | 4.1m/s | 0°C | 0% | 0hPa | 0V | 00:00:00 | 00:00:00 | 00:00:00 | |
| EA3IBE | 2026-09-05 23:50:18 | 41.42635 | 2.19996 | 78° | 22km/h | 15577m | 3.9m/s | 0°C | 0% | 0hPa | 0V | 00:00:00 | 00:00:00 | 00:00:00 | |
| EA3IBE | 2026-09-05 23:50:10 | 41.42633 | 2.19949 | 115° | 22km/h | 15535m | 4.3m/s | 0°C | 0% | 0hPa | 0V | 00:00:00 | 00:00:00 | 00:00:00 | |
| EA3IBE | 2026-09-05 23:50:05 | 41.42629 | 2.19907 | 78° | 24km/h | 15505m | 1.8m/s | 0°C | 0% | 0hPa | 0V | 00:00:00 | 00:00:00 | 00:00:00 | |
| EA3GEO | 2026-09-05 23:50:02 | 41.42629 | 2.19885 | 108° | 18km/h | 15488m | 7.0m/s | 0°C | 0% | 0hPa | 0V | 00:00:00 | 00:00:00 | 00:00:00 | |
| EA3IBE | 2026-09-05 23:49:58 | 41.42636 | 2.19857 | 101° | 22km/h | 15466m | 10.7m/s | 0°C | 0% | 0hPa | 0V | 00:00:00 | 00:00:00 | 00:00:00 | |
| EA3GEO | 2026-09-05 23:49:56 | 41.42633 | 2.19841 | 69° | 31km/h | 15453m | 7.6m/s | 0°C | 0% | 0hPa | 0V | 00:00:00 | 00:00:00 | 00:00:00 | |
| EA3IBE | 2026-09-05 23:49:51 | 41.42630 | 2.19799 | 105° | 26km/h | 15425m | 7.8m/s | 0°C | 0% | 0hPa | 0V | 00:00:00 | 00:00:00 | 00:00:00 | |
| EA3GEO | 2026-09-05 23:49:50 | 41.42630 | 2.19790 | 82° | 26km/h | 15419m | 4.6m/s | 0°C | 0% | 0hPa | 0V | 00:00:00 | 00:00:00 | 00:00:00 | |
| EA3IBE | 2026-09-05 23:49:45 | 41.42622 | 2.19750 | 78° | 18km/h | 15388m | 3.3m/s | 0°C | 0% | 0hPa | 0V | 00:00:00 | 00:00:00 | 00:00:00 | |
| EA3GEO | 2026-09-05 23:49:39 | 41.42617 | 2.19717 | 73° | 16km/h | 15354m | 4.2m/s | 0°C | 0% | 0hPa | 0V | 00:00:00 | 00:00:00 | 00:00:00 | |
| EA3IBE | 2026-09-05 23:49:36 | 41.42611 | 2.19701 | 70° | 13km/h | 15336m | 4.4m/s | 0°C | 0% | 0hPa | 0V | 00:00:00 | 00:00:00 | 00:00:00 | |
| EA3GEO | 2026-09-05 23:49:33 | 41.42610 | 2.19686 | 86° | 20km/h | 15321m | 2.7m/s | 0°C | 0% | 0hPa | 0V | 00:00:00 | 00:00:00 | 00:00:00 | |
| EA3GEO | 2026-09-05 23:49:27 | 41.42607 | 2.19652 | 74° | 16km/h | 15289m | 6.6m/s | 0°C | 0% | 0hPa | 0V | 00:00:00 | 00:00:00 | 00:00:00 | |
| EA3GEO | 2026-09-05 23:49:22 | 41.42602 | 2.19626 | 100° | 22km/h | 15263m | 6.9m/s | 0°C | 0% | 0hPa | 0V | 00:00:00 | 00:00:00 | 00:00:00 | |
| EA3IBE | 2026-09-05 23:49:15 | 41.42606 | 2.19581 | 87° | 26km/h | 15224m | 5.4m/s | 0°C | 0% | 0hPa | 0V | 00:00:00 | 00:00:00 | 00:00:00 | |
| EA3GEO | 2026-09-05 23:49:13 | 41.42607 | 2.19568 | 104° | 15km/h | 15215m | 4.5m/s | 0°C | 0% | 0hPa | 0V | 00:00:00 | 00:00:00 | 00:00:00 | |
| EA3GEO | 2026-09-05 23:49:02 | 41.42609 | 2.19506 | 114° | 27km/h | 15152m | 8.6m/s | 0°C | 0% | 0hPa | 0V | 00:00:00 | 00:00:00 | 00:00:00 | |
| EA3IBE | 2026-09-05 23:49:01 | 41.42612 | 2.19499 | 135° | 24km/h | 15146m | 3.7m/s | 0°C | 0% | 0hPa | 0V | 00:00:00 | 00:00:00 | 00:00:00 | |
| EA3GEO | 2026-09-05 23:48:56 | 41.42614 | 2.19479 | 67° | 26km/h | 15120m | 4.6m/s | 0°C | 0% | 0hPa | 0V | 00:00:00 | 00:00:00 | 00:00:00 | |
| EA3GEO | 2026-09-05 23:48:51 | 41.42604 | 2.19446 | 76° | 11km/h | 15090m | 7.0m/s | 0°C | 0% | 0hPa | 0V | 00:00:00 | 00:00:00 | 00:00:00 | |
| EA3IBE | 2026-09-05 23:48:50 | 41.42604 | 2.19442 | 100° | 15km/h | 15083m | 7.7m/s | 0°C | 0% | 0hPa | 0V | 00:00:00 | 00:00:00 | 00:00:00 | |
| EA3GEO | 2026-09-05 23:48:45 | 41.42607 | 2.19412 | 71° | 13km/h | 15054m | 5.4m/s | 0°C | 0% | 0hPa | 0V | 00:00:00 | 00:00:00 | 00:00:00 | |
| EA3IBE | 2026-09-05 23:48:40 | 41.42597 | 2.19391 | 85° | 18km/h | 15028m | 7.0m/s | 0°C | 0% | 0hPa | 0V | 00:00:00 | 00:00:00 | 00:00:00 | |
| EA3GEO | 2026-09-05 23:48:39 | 41.42597 | 2.19385 | 96° | 16km/h | 15022m | 5.1m/s | 0°C | 0% | 0hPa | 0V | 00:00:00 | 00:00:00 | 00:00:00 | |
| EA3IBE | 2026-09-05 23:48:34 | 41.42586 | 2.19368 | 31° | 16km/h | 14994m | 4.4m/s | 0°C | 0% | 0hPa | 0V | 00:00:00 | 00:00:00 | 00:00:00 | |
| EA3GEO | 2026-09-05 23:48:29 | 41.42573 | 2.19353 | 24° | 5km/h | 14967m | 6.8m/s | 0°C | 0% | 0hPa | 0V | 00:00:00 | 00:00:00 | 00:00:00 | |
| EA3IBE | 2026-09-05 23:48:27 | 41.42573 | 2.19351 | 128° | 7km/h | 14956m | 3.5m/s | 0°C | 0% | 0hPa | 0V | 00:00:00 | 00:00:00 | 00:00:00 | |
| EA3GEO | 2026-09-05 23:48:22 | 41.42566 | 2.19339 | 1° | 13km/h | 14926m | 5.4m/s | 0°C | 0% | 0hPa | 0V | 00:00:00 | 00:00:00 | 00:00:00 | |
| EA3IBE | 2026-09-05 23:48:21 | 41.42563 | 2.19340 | 344° | 13km/h | 14921m | 4.3m/s | 0°C | 0% | 0hPa | 0V | 00:00:00 | 00:00:00 | 00:00:00 | |
| EA3GEO | 2026-09-05 23:48:17 | 41.42554 | 2.19339 | 102° | 11km/h | 14899m | 3.4m/s | 0°C | 0% | 0hPa | 0V | 00:00:00 | 00:00:00 | 00:00:00 | |
| EA3IBE | 2026-09-05 23:48:16 | 41.42555 | 2.19336 | 122° | 13km/h | 14895m | 4.7m/s | 0°C | 0% | 0hPa | 0V | 00:00:00 | 00:00:00 | 00:00:00 | |
| EA3GEO | 2026-09-05 23:48:12 | 41.42558 | 2.19332 | 306° | 11km/h | 14870m | 4.9m/s | 0°C | 0% | 0hPa | 0V | 00:00:00 | 00:00:00 | 00:00:00 | |
| EA3IBE | 2026-09-05 23:48:10 | 41.42552 | 2.19336 | 355° | 15km/h | 14859m | 5.8m/s | 0°C | 0% | 0hPa | 0V | 00:00:00 | 00:00:00 | 00:00:00 | |
| EA3GEO | 2026-09-05 23:48:05 | 41.42551 | 2.19323 | 124° | 7km/h | 14836m | 0.8m/s | 0°C | 0% | 0hPa | 0V | 00:00:00 | 00:00:00 | 00:00:00 | |
| EA3IBE | 2026-09-05 23:48:04 | 41.42553 | 2.19322 | 151° | 5km/h | 14832m | 7.7m/s | 0°C | 0% | 0hPa | 0V | 00:00:00 | 00:00:00 | 00:00:00 | |
| EA3GEO | 2026-09-05 23:47:59 | 41.42556 | 2.19323 | 85° | 5km/h | 14805m | 9.3m/s | 0°C | 0% | 0hPa | 0V | 00:00:00 | 00:00:00 | 00:00:00 | |
| EA3IBE | 2026-09-05 23:47:58 | 41.42555 | 2.19319 | 80° | 16km/h | 14799m | 4.1m/s | 0°C | 0% | 0hPa | 0V | 00:00:00 | 00:00:00 | 00:00:00 | |
| EA3GEO | 2026-09-05 23:47:54 | 41.42551 | 2.19306 | 149° | 9km/h | 14780m | 4.8m/s | 0°C | 0% | 0hPa | 0V | 00:00:00 | 00:00:00 | 00:00:00 | |
| EA3IBE | 2026-09-05 23:47:53 | 41.42553 | 2.19305 | 183° | 9km/h | 14775m | 6.9m/s | 0°C | 0% | 0hPa | 0V | 00:00:00 | 00:00:00 | 00:00:00 | |
| EA3IBE | 2026-09-05 23:47:48 | 41.42564 | 2.19301 | 99° | 15km/h | 14749m | 6.2m/s | 0°C | 0% | 0hPa | 0V | 00:00:00 | 00:00:00 | 00:00:00 | |
| EA3GEO | 2026-09-05 23:47:43 | 41.42568 | 2.19274 | 102° | 11km/h | 14721m | 9.0m/s | 0°C | 0% | 0hPa | 0V | 00:00:00 | 00:00:00 | 00:00:00 | |
| EA3IBE | 2026-09-05 23:47:42 | 41.42570 | 2.19270 | 139° | 18km/h | 14714m | 6.4m/s | 0°C | 0% | 0hPa | 0V | 00:00:00 | 00:00:00 | 00:00:00 | |
| EA3GEO | 2026-09-05 23:47:38 | 41.42583 | 2.19250 | 113° | 16km/h | 14689m | 3.7m/s | 0°C | 0% | 0hPa | 0V | 00:00:00 | 00:00:00 | 00:00:00 | |
| EA3IBE | 2026-09-05 23:47:36 | 41.42588 | 2.19242 | 125° | 13km/h | 14678m | 3.8m/s | 0°C | 0% | 0hPa | 0V | 00:00:00 | 00:00:00 | 00:00:00 | |
| EA3GEO | 2026-09-05 23:47:32 | 41.42589 | 2.19216 | 86° | 22km/h | 14658m | 12.6m/s | 0°C | 0% | 0hPa | 0V | 00:00:00 | 00:00:00 | 00:00:00 | |
| EA3IBE | 2026-09-05 23:47:30 | 41.42590 | 2.19205 | 114° | 13km/h | 14647m | 8.1m/s | 0°C | 0% | 0hPa | 0V | 00:00:00 | 00:00:00 | 00:00:00 | |
| EA3GEO | 2026-09-05 23:47:27 | 41.42601 | 2.19195 | 132° | 18km/h | 14634m | 3.8m/s | 0°C | 0% | 0hPa | 0V | 00:00:00 | 00:00:00 | 00:00:00 | |
| EA3IBE | 2026-09-05 23:47:25 | 41.42605 | 2.19188 | 48° | 5km/h | 14622m | 6.0m/s | 0°C | 0% | 0hPa | 0V | 00:00:00 | 00:00:00 | 00:00:00 | |
| EA3GEO | 2026-09-05 23:47:22 | 41.42601 | 2.19181 | 109° | 9km/h | 14603m | 5.9m/s | 0°C | 0% | 0hPa | 0V | 00:00:00 | 00:00:00 | 00:00:00 | |
| EA3IBE | 2026-09-05 23:47:19 | 41.42607 | 2.19166 | 114° | 18km/h | 14586m | 2.6m/s | 0°C | 0% | 0hPa | 0V | 00:00:00 | 00:00:00 | 00:00:00 | |
| EA3GEO | 2026-09-05 23:47:16 | 41.42613 | 2.19149 | 113° | 15km/h | 14572m | 5.3m/s | 0°C | 0% | 0hPa | 0V | 00:00:00 | 00:00:00 | 00:00:00 | |
| EA3IBE | 2026-09-05 23:47:13 | 41.42614 | 2.19128 | 100° | 22km/h | 14552m | 9.2m/s | 0°C | 0% | 0hPa | 0V | 00:00:00 | 00:00:00 | 00:00:00 | |
| EA3GEO | 2026-09-05 23:47:11 | 41.42614 | 2.19116 | 72° | 13km/h | 14540m | 3.6m/s | 0°C | 0% | 0hPa | 0V | 00:00:00 | 00:00:00 | 00:00:00 | |
| EA3IBE | 2026-09-05 23:47:07 | 41.42611 | 2.19097 | 98° | 20km/h | 14519m | 2.2m/s | 0°C | 0% | 0hPa | 0V | 00:00:00 | 00:00:00 | 00:00:00 | |
| EA3GEO | 2026-09-05 23:47:06 | 41.42612 | 2.19091 | 111° | 20km/h | 14515m | 6.2m/s | 0°C | 0% | 0hPa | 0V | 00:00:00 | 00:00:00 | 00:00:00 | |
| EA3IBE | 2026-09-05 23:46:56 | 41.42615 | 2.19043 | 132° | 16km/h | 14457m | 5.4m/s | 0°C | 0% | 0hPa | 0V | 00:00:00 | 00:00:00 | 00:00:00 | |
| EA3IBE | 2026-09-05 23:46:51 | 41.42615 | 2.19017 | 39° | 26km/h | 14429m | 9.4m/s | 0°C | 0% | 0hPa | 0V | 00:00:00 | 00:00:00 | 00:00:00 | |
| EA3GEO | 2026-09-05 23:46:50 | 41.42609 | 2.19010 | 51° | 38km/h | 14421m | 6.5m/s | 0°C | 0% | 0hPa | 0V | 00:00:00 | 00:00:00 | 00:00:00 | |
| EA3GEO | 2026-09-05 23:46:45 | 41.42595 | 2.18977 | 50° | 13km/h | 14395m | 4.9m/s | 0°C | 0% | 0hPa | 0V | 00:00:00 | 00:00:00 | 00:00:00 | |
| EA3GEO | 2026-09-05 23:46:39 | 41.42577 | 2.18950 | 61° | 27km/h | 14353m | 3.9m/s | 0°C | 0% | 0hPa | 0V | 00:00:00 | 00:00:00 | 00:00:00 | |
| EA3IBE | 2026-09-05 23:46:33 | 41.42560 | 2.18899 | 48° | 18km/h | 14323m | 4.6m/s | 0°C | 0% | 0hPa | 0V | 00:00:00 | 00:00:00 | 00:00:00 | |
| EA3IBE | 2026-09-05 23:46:27 | 41.42535 | 2.18860 | 83° | 29km/h | 14290m | 2.6m/s | 0°C | 0% | 0hPa | 0V | 00:00:00 | 00:00:00 | 00:00:00 | |
| EA3IBE | 2026-09-05 23:46:22 | 41.42511 | 2.18818 | 30° | 40km/h | 14260m | 7.7m/s | 0°C | 0% | 0hPa | 0V | 00:00:00 | 00:00:00 | 00:00:00 | |
| EA3GEO | 2026-09-05 23:46:21 | 41.42503 | 2.18812 | 26° | 31km/h | 14253m | 8.3m/s | 0°C | 0% | 0hPa | 0V | 00:00:00 | 00:00:00 | 00:00:00 | |
| EA3GEO | 2026-09-05 23:46:16 | 41.42490 | 2.18787 | 62° | 26km/h | 14212m | 7.8m/s | 0°C | 0% | 0hPa | 0V | 00:00:00 | 00:00:00 | 00:00:00 | |
| EA3IBE | 2026-09-05 23:46:11 | 41.42463 | 2.18747 | 29° | 27km/h | 14172m | 9.4m/s | 0°C | 0% | 0hPa | 0V | 00:00:00 | 00:00:00 | 00:00:00 | |
| EA3GEO | 2026-09-05 23:46:10 | 41.42457 | 2.18745 | 3° | 26km/h | 14163m | 7.6m/s | 0°C | 0% | 0hPa | 0V | 00:00:00 | 00:00:00 | 00:00:00 | |
| EA3GEO | 2026-09-05 23:46:04 | 41.42421 | 2.18740 | 3° | 16km/h | 14125m | 2.6m/s | 0°C | 0% | 0hPa | 0V | 00:00:00 | 00:00:00 | 00:00:00 | |
| EA3IBE | 2026-09-05 23:45:59 | 41.42397 | 2.18740 | 352° | 24km/h | 14103m | 3.4m/s | 0°C | 0% | 0hPa | 0V | 00:00:00 | 00:00:00 | 00:00:00 | |
| EA3GEO | 2026-09-05 23:45:58 | 41.42391 | 2.18740 | 2° | 26km/h | 14099m | 5.0m/s | 0°C | 0% | 0hPa | 0V | 00:00:00 | 00:00:00 | 00:00:00 | |
| EA3IBE | 2026-09-05 23:45:54 | 41.42371 | 2.18738 | 22° | 13km/h | 14082m | 3.7m/s | 0°C | 0% | 0hPa | 0V | 00:00:00 | 00:00:00 | 00:00:00 | |
| EA3GEO | 2026-09-05 23:45:52 | 41.42363 | 2.18734 | 10° | 20km/h | 14073m | 3.2m/s | 0°C | 0% | 0hPa | 0V | 00:00:00 | 00:00:00 | 00:00:00 | |
| EA3IBE | 2026-09-05 23:45:49 | 41.42348 | 2.18737 | 349° | 18km/h | 14063m | 2.8m/s | 0°C | 0% | 0hPa | 0V | 00:00:00 | 00:00:00 | 00:00:00 | |
| EA3GEO | 2026-09-05 23:45:47 | 41.42338 | 2.18735 | 29° | 22km/h | 14054m | 5.1m/s | 0°C | 0% | 0hPa | 0V | 00:00:00 | 00:00:00 | 00:00:00 | |
| EA3IBE | 2026-09-05 23:45:43 | 41.42318 | 2.18722 | 354° | 20km/h | 14036m | 3.3m/s | 0°C | 0% | 0hPa | 0V | 00:00:00 | 00:00:00 | 00:00:00 | |
| EA3GEO | 2026-09-05 23:45:41 | 41.42309 | 2.18723 | 358° | 18km/h | 14028m | 3.9m/s | 0°C | 0% | 0hPa | 0V | 00:00:00 | 00:00:00 | 00:00:00 | |
| EA3IBE | 2026-09-05 23:45:38 | 41.42299 | 2.18721 | 40° | 13km/h | 14016m | 3.2m/s | 0°C | 0% | 0hPa | 0V | 00:00:00 | 00:00:00 | 00:00:00 | |
| EA3GEO | 2026-09-05 23:45:36 | 41.42293 | 2.18714 | 32° | 20km/h | 14009m | 5.2m/s | 0°C | 0% | 0hPa | 0V | 00:00:00 | 00:00:00 | 00:00:00 | |
| EA3GEO | 2026-09-05 23:45:31 | 41.42270 | 2.18699 | 28° | 16km/h | 13987m | 5.7m/s | 0°C | 0% | 0hPa | 0V | 00:00:00 | 00:00:00 | 00:00:00 | |
| EA3IBE | 2026-09-05 23:45:25 | 41.42245 | 2.18675 | 27° | 15km/h | 13960m | 4.7m/s | 0°C | 0% | 0hPa | 0V | 00:00:00 | 00:00:00 | 00:00:00 | |
| EA3GEO | 2026-09-05 23:45:21 | 41.42228 | 2.18659 | 38° | 24km/h | 13939m | 3.9m/s | 0°C | 0% | 0hPa | 0V | 00:00:00 | 00:00:00 | 00:00:00 | |
| EA3IBE | 2026-09-05 23:45:20 | 41.42228 | 2.18659 | 38° | 24km/h | 13939m | 3.9m/s | 0°C | 0% | 0hPa | 0V | 00:00:00 | 00:00:00 | 00:00:00 | |
| EA3GEO | 2026-09-05 23:45:14 | 41.42207 | 2.18632 | 45° | 18km/h | 13913m | 4.0m/s | 0°C | 0% | 0hPa | 0V | 00:00:00 | 00:00:00 | 00:00:00 | |
| EA3GEO | 2026-09-05 23:45:09 | 41.42195 | 2.18616 | 44° | 11km/h | 13889m | 4.3m/s | 0°C | 0% | 0hPa | 0V | 00:00:00 | 00:00:00 | 00:00:00 | |
| EA3IBE | 2026-09-05 23:45:04 | 41.42184 | 2.18590 | 53° | 22km/h | 13869m | 3.8m/s | 0°C | 0% | 0hPa | 0V | 00:00:00 | 00:00:00 | 00:00:00 | |
| EA3GEO | 2026-09-05 23:44:58 | 41.42170 | 2.18559 | 75° | 15km/h | 13842m | 3.8m/s | 0°C | 0% | 0hPa | 0V | 00:00:00 | 00:00:00 | 00:00:00 | |
| EA3IBE | 2026-09-05 23:44:57 | 41.42169 | 2.18554 | 66° | 16km/h | 13838m | 4.1m/s | 0°C | 0% | 0hPa | 0V | 00:00:00 | 00:00:00 | 00:00:00 | |
| EA3GEO | 2026-09-05 23:44:52 | 41.42153 | 2.18529 | 56° | 20km/h | 13815m | 4.6m/s | 0°C | 0% | 0hPa | 0V | 00:00:00 | 00:00:00 | 00:00:00 | |
| EA3IBE | 2026-09-05 23:44:51 | 41.42150 | 2.18524 | 54° | 16km/h | 13811m | 4.4m/s | 0°C | 0% | 0hPa | 0V | 00:00:00 | 00:00:00 | 00:00:00 | |
| EA3GEO | 2026-09-05 23:44:47 | 41.42146 | 2.18508 | 57° | 11km/h | 13794m | 5.2m/s | 0°C | 0% | 0hPa | 0V | 00:00:00 | 00:00:00 | 00:00:00 | |
| EA3IBE | 2026-09-05 23:44:44 | 41.42138 | 2.18498 | 49° | 16km/h | 13781m | 4.6m/s | 0°C | 0% | 0hPa | 0V | 00:00:00 | 00:00:00 | 00:00:00 | |
| EA3GEO | 2026-09-05 23:44:40 | 41.42128 | 2.18483 | 62° | 13km/h | 13763m | 5.0m/s | 0°C | 0% | 0hPa | 0V | 00:00:00 | 00:00:00 | 00:00:00 | |
| EA3IBE | 2026-09-05 23:44:39 | 41.42127 | 2.18480 | 59° | 7km/h | 13759m | 3.3m/s | 0°C | 0% | 0hPa | 0V | 00:00:00 | 00:00:00 | 00:00:00 | |
| EA3IBE | 2026-09-05 23:44:34 | 41.42117 | 2.18480 | 5° | 4km/h | 13738m | 3.9m/s | 0°C | 0% | 0hPa | 0V | 00:00:00 | 00:00:00 | 00:00:00 | |
| EA3GEO | 2026-09-05 23:44:28 | 41.42118 | 2.18490 | 223° | 9km/h | 13711m | 4.6m/s | 0°C | 0% | 0hPa | 0V | 00:00:00 | 00:00:00 | 00:00:00 | |
| EA3IBE | 2026-09-05 23:44:27 | 41.42119 | 2.18492 | 254° | 7km/h | 13706m | 4.5m/s | 0°C | 0% | 0hPa | 0V | 00:00:00 | 00:00:00 | 00:00:00 | |
| EA3GEO | 2026-09-05 23:44:23 | 41.42121 | 2.18497 | 360° | 2km/h | 13689m | 5.4m/s | 0°C | 0% | 0hPa | 0V | 00:00:00 | 00:00:00 | 00:00:00 | |
| EA3IBE | 2026-09-05 23:44:22 | 41.42121 | 2.18497 | 23° | 5km/h | 13684m | 3.8m/s | 0°C | 0% | 0hPa | 0V | 00:00:00 | 00:00:00 | 00:00:00 | |
| EA3GEO | 2026-09-05 23:44:17 | 41.42115 | 2.18496 | 319° | 7km/h | 13663m | 4.1m/s | 0°C | 0% | 0hPa | 0V | 00:00:00 | 00:00:00 | 00:00:00 | |
| EA3IBE | 2026-09-05 23:44:16 | 41.42114 | 2.18497 | 322° | 4km/h | 13658m | 4.9m/s | 0°C | 0% | 0hPa | 0V | 00:00:00 | 00:00:00 | 00:00:00 | |
| EA3GEO | 2026-09-05 23:44:12 | 41.42108 | 2.18495 | 22° | 9km/h | 13641m | 5.0m/s | 0°C | 0% | 0hPa | 0V | 00:00:00 | 00:00:00 | 00:00:00 | |
| EA3IBE | 2026-09-05 23:44:11 | 41.42106 | 2.18493 | 26° | 7km/h | 13636m | 4.4m/s | 0°C | 0% | 0hPa | 0V | 00:00:00 | 00:00:00 | 00:00:00 | |
| EA3GEO | 2026-09-05 23:44:06 | 41.42102 | 2.18492 | 0° | 0km/h | 13613m | 5.4m/s | 0°C | 0% | 0hPa | 0V | 00:00:00 | 00:00:00 | 00:00:00 | |
| EA3IBE | 2026-09-05 23:44:04 | 41.42101 | 2.18490 | 54° | 4km/h | 13604m | 4.6m/s | 0°C | 0% | 0hPa | 0V | 00:00:00 | 00:00:00 | 00:00:00 | |
| EA3GEO | 2026-09-05 23:44:01 | 41.42093 | 2.18486 | 17° | 16km/h | 13590m | 3.7m/s | 0°C | 0% | 0hPa | 0V | 00:00:00 | 00:00:00 | 00:00:00 | |
| EA3IBE | 2026-09-05 23:43:59 | 41.42088 | 2.18484 | 37° | 7km/h | 13582m | 3.7m/s | 0°C | 0% | 0hPa | 0V | 00:00:00 | 00:00:00 | 00:00:00 | |
| EA3GEO | 2026-09-05 23:43:56 | 41.42085 | 2.18483 | 315° | 5km/h | 13569m | 3.6m/s | 0°C | 0% | 0hPa | 0V | 00:00:00 | 00:00:00 | 00:00:00 | |
| EA3IBE | 2026-09-05 23:43:53 | 41.42083 | 2.18484 | 21° | 5km/h | 13557m | 5.0m/s | 0°C | 0% | 0hPa | 0V | 00:00:00 | 00:00:00 | 00:00:00 | |
| EA3GEO | 2026-09-05 23:43:50 | 41.42078 | 2.18479 | 43° | 11km/h | 13543m | 4.7m/s | 0°C | 0% | 0hPa | 0V | 00:00:00 | 00:00:00 | 00:00:00 | |
| EA3IBE | 2026-09-05 23:43:47 | 41.42069 | 2.18478 | 329° | 15km/h | 13530m | 2.9m/s | 0°C | 0% | 0hPa | 0V | 00:00:00 | 00:00:00 | 00:00:00 | |
| EA3GEO | 2026-09-05 23:43:45 | 41.42066 | 2.18482 | 291° | 5km/h | 13521m | 5.6m/s | 0°C | 0% | 0hPa | 0V | 00:00:00 | 00:00:00 | 00:00:00 | |
| EA3IBE | 2026-09-05 23:43:42 | 41.42061 | 2.18483 | 360° | 13km/h | 13507m | 3.3m/s | 0°C | 0% | 0hPa | 0V | 00:00:00 | 00:00:00 | 00:00:00 | |
| EA3GEO | 2026-09-05 23:43:33 | 41.42036 | 2.18486 | 330° | 15km/h | 13469m | 5.9m/s | 0°C | 0% | 0hPa | 0V | 00:00:00 | 00:00:00 | 00:00:00 | |
| EA3IBE | 2026-09-05 23:43:31 | 41.42029 | 2.18491 | 344° | 15km/h | 13460m | 4.0m/s | 0°C | 0% | 0hPa | 0V | 00:00:00 | 00:00:00 | 00:00:00 | |
| EA3GEO | 2026-09-05 23:43:27 | 41.42014 | 2.18492 | 9° | 13km/h | 13442m | 6.0m/s | 0°C | 0% | 0hPa | 0V | 00:00:00 | 00:00:00 | 00:00:00 | |
| EA3GEO | 2026-09-05 23:43:22 | 41.42000 | 2.18493 | 343° | 15km/h | 13421m | 5.1m/s | 0°C | 0% | 0hPa | 0V | 00:00:00 | 00:00:00 | 00:00:00 | |
| EA3GEO | 2026-09-05 23:43:17 | 41.41982 | 2.18495 | 359° | 15km/h | 13399m | 5.2m/s | 0°C | 0% | 0hPa | 0V | 00:00:00 | 00:00:00 | 00:00:00 | |
| EA3IBE | 2026-09-05 23:43:15 | 41.41976 | 2.18496 | 360° | 13km/h | 13390m | 2.8m/s | 0°C | 0% | 0hPa | 0V | 00:00:00 | 00:00:00 | 00:00:00 | |
| EA3GEO | 2026-09-05 23:43:10 | 41.41958 | 2.18491 | 24° | 20km/h | 13367m | 5.0m/s | 0°C | 0% | 0hPa | 0V | 00:00:00 | 00:00:00 | 00:00:00 | |
| EA3GEO | 2026-09-05 23:43:04 | 41.41936 | 2.18484 | 4° | 13km/h | 13340m | 5.8m/s | 0°C | 0% | 0hPa | 0V | 00:00:00 | 00:00:00 | 00:00:00 | |
| EA3GEO | 2026-09-05 23:42:58 | 41.41917 | 2.18473 | 32° | 15km/h | 13314m | 5.1m/s | 0°C | 0% | 0hPa | 0V | 00:00:00 | 00:00:00 | 00:00:00 | |
| EA3IBE | 2026-09-05 23:42:52 | 41.41892 | 2.18469 | 2° | 20km/h | 13287m | 4.1m/s | 0°C | 0% | 0hPa | 0V | 00:00:00 | 00:00:00 | 00:00:00 | |
| EA3GEO | 2026-09-05 23:42:47 | 41.41874 | 2.18460 | 43° | 13km/h | 13265m | 3.9m/s | 0°C | 0% | 0hPa | 0V | 00:00:00 | 00:00:00 | 00:00:00 | |
| EA3GEO | 2026-09-05 23:42:41 | 41.41851 | 2.18452 | 361° | 18km/h | 13238m | 5.2m/s | 0°C | 0% | 0hPa | 0V | 00:00:00 | 00:00:00 | 00:00:00 | |
| EA3IBE | 2026-09-05 23:42:40 | 41.41846 | 2.18451 | 10° | 20km/h | 13234m | 3.7m/s | 0°C | 0% | 0hPa | 0V | 00:00:00 | 00:00:00 | 00:00:00 | |
| EA3GEO | 2026-09-05 23:42:36 | 41.41829 | 2.18447 | 15° | 15km/h | 13216m | 5.9m/s | 0°C | 0% | 0hPa | 0V | 00:00:00 | 00:00:00 | 00:00:00 | |
| EA3GEO | 2026-09-05 23:42:31 | 41.41808 | 2.18439 | 12° | 15km/h | 13194m | 4.9m/s | 0°C | 0% | 0hPa | 0V | 00:00:00 | 00:00:00 | 00:00:00 | |
| EA3IBE | 2026-09-05 23:42:30 | 41.41805 | 2.18438 | 29° | 13km/h | 13190m | 4.3m/s | 0°C | 0% | 0hPa | 0V | 00:00:00 | 00:00:00 | 00:00:00 | |
| EA3GEO | 2026-09-05 23:42:25 | 41.41786 | 2.18426 | 15° | 20km/h | 13167m | 5.5m/s | 0°C | 0% | 0hPa | 0V | 00:00:00 | 00:00:00 | 00:00:00 | |
| EA3GEO | 2026-09-05 23:42:19 | 41.41757 | 2.18422 | 17° | 18km/h | 13141m | 4.5m/s | 0°C | 0% | 0hPa | 0V | 00:00:00 | 00:00:00 | 00:00:00 | |
| EA3GEO | 2026-09-05 23:42:13 | 41.41725 | 2.18412 | 8° | 18km/h | 13116m | 4.7m/s | 0°C | 0% | 0hPa | 0V | 00:00:00 | 00:00:00 | 00:00:00 | |
| EA3GEO | 2026-09-05 23:42:08 | 41.41699 | 2.18409 | 355° | 20km/h | 13095m | 3.4m/s | 0°C | 0% | 0hPa | 0V | 00:00:00 | 00:00:00 | 00:00:00 | |
| EA3GEO | 2026-09-05 23:42:02 | 41.41670 | 2.18403 | 9° | 22km/h | 13071m | 5.6m/s | 0°C | 0% | 0hPa | 0V | 00:00:00 | 00:00:00 | 00:00:00 | |
| EA3GEO | 2026-09-05 23:41:57 | 41.41642 | 2.18399 | 16° | 26km/h | 13049m | 3.6m/s | 0°C | 0% | 0hPa | 0V | 00:00:00 | 00:00:00 | 00:00:00 | |
| EA3GEO | 2026-09-05 23:41:51 | 41.41606 | 2.18390 | 11° | 24km/h | 13025m | 5.8m/s | 0°C | 0% | 0hPa | 0V | 00:00:00 | 00:00:00 | 00:00:00 | |
| EA3GEO | 2026-09-05 23:41:46 | 41.41577 | 2.18383 | 10° | 22km/h | 13004m | 6.0m/s | 0°C | 0% | 0hPa | 0V | 00:00:00 | 00:00:00 | 00:00:00 | |
| EA3IBE | 2026-09-05 23:41:44 | 41.41566 | 2.18381 | 8° | 24km/h | 12996m | 4.1m/s | 0°C | 0% | 0hPa | 0V | 00:00:00 | 00:00:00 | 00:00:00 | |
| EA3GEO | 2026-09-05 23:41:40 | 41.41540 | 2.18379 | 1° | 26km/h | 12980m | 3.5m/s | 0°C | 0% | 0hPa | 0V | 00:00:00 | 00:00:00 | 00:00:00 | |
| EA3IBE | 2026-09-05 23:41:34 | 41.41499 | 2.18374 | 3° | 26km/h | 12955m | 3.2m/s | 0°C | 0% | 0hPa | 0V | 00:00:00 | 00:00:00 | 00:00:00 | |
| EA3GEO | 2026-09-05 23:41:33 | 41.41492 | 2.18375 | 351° | 24km/h | 12951m | 5.8m/s | 0°C | 0% | 0hPa | 0V | 00:00:00 | 00:00:00 | 00:00:00 | |
| EA3IBE | 2026-09-05 23:41:29 | 41.41465 | 2.18379 | 7° | 33km/h | 12933m | 3.4m/s | 0°C | 0% | 0hPa | 0V | 00:00:00 | 00:00:00 | 00:00:00 | |
| EA3GEO | 2026-09-05 23:41:28 | 41.41457 | 2.18377 | 9° | 31km/h | 12929m | 6.1m/s | 0°C | 0% | 0hPa | 0V | 00:00:00 | 00:00:00 | 00:00:00 | |
| EA3GEO | 2026-09-05 23:41:22 | 41.41421 | 2.18375 | 5° | 27km/h | 12905m | 3.7m/s | 0°C | 0% | 0hPa | 0V | 00:00:00 | 00:00:00 | 00:00:00 | |
| EA3IBE | 2026-09-05 23:41:16 | 41.41377 | 2.18378 | 353° | 26km/h | 12877m | 4.9m/s | 0°C | 0% | 0hPa | 0V | 00:00:00 | 00:00:00 | 00:00:00 | |
| EA3GEO | 2026-09-05 23:41:11 | 41.41344 | 2.18382 | 359° | 26km/h | 12857m | 4.3m/s | 0°C | 0% | 0hPa | 0V | 00:00:00 | 00:00:00 | 00:00:00 | |
| EA3IBE | 2026-09-05 23:41:08 | 41.41326 | 2.18382 | 3° | 22km/h | 12845m | 4.6m/s | 0°C | 0% | 0hPa | 0V | 00:00:00 | 00:00:00 | 00:00:00 | |
| EA3GEO | 2026-09-05 23:41:06 | 41.41315 | 2.18384 | 342° | 22km/h | 12837m | 4.6m/s | 0°C | 0% | 0hPa | 0V | 00:00:00 | 00:00:00 | 00:00:00 | |
| EA3GEO | 2026-09-05 23:41:00 | 41.41273 | 2.18393 | 356° | 26km/h | 12813m | 5.6m/s | 0°C | 0% | 0hPa | 0V | 00:00:00 | 00:00:00 | 00:00:00 | |
| EA3IBE | 2026-09-05 23:40:58 | 41.41261 | 2.18394 | 358° | 20km/h | 12804m | 5.6m/s | 0°C | 0% | 0hPa | 0V | 00:00:00 | 00:00:00 | 00:00:00 | |
| EA3GEO | 2026-09-05 23:40:55 | 41.41245 | 2.18397 | 348° | 27km/h | 12791m | 4.3m/s | 0°C | 0% | 0hPa | 0V | 00:00:00 | 00:00:00 | 00:00:00 | |
| EA3IBE | 2026-09-05 23:40:53 | 41.41231 | 2.18401 | 353° | 29km/h | 12781m | 5.7m/s | 0°C | 0% | 0hPa | 0V | 00:00:00 | 00:00:00 | 00:00:00 | |
| EA3GEO | 2026-09-05 23:40:49 | 41.41200 | 2.18406 | 357° | 27km/h | 12763m | 5.0m/s | 0°C | 0% | 0hPa | 0V | 00:00:00 | 00:00:00 | 00:00:00 | |
| EA3IBE | 2026-09-05 23:40:48 | 41.41194 | 2.18406 | 2° | 20km/h | 12759m | 4.0m/s | 0°C | 0% | 0hPa | 0V | 00:00:00 | 00:00:00 | 00:00:00 | |
| EA3GEO | 2026-09-05 23:40:43 | 41.41163 | 2.18414 | 352° | 27km/h | 12738m | 4.4m/s | 0°C | 0% | 0hPa | 0V | 00:00:00 | 00:00:00 | 00:00:00 | |
| EA3IBE | 2026-09-05 23:40:41 | 41.41150 | 2.18417 | 353° | 24km/h | 12731m | 3.2m/s | 0°C | 0% | 0hPa | 0V | 00:00:00 | 00:00:00 | 00:00:00 | |
| EA3GEO | 2026-09-05 23:40:37 | 41.41124 | 2.18421 | 360° | 24km/h | 12714m | 5.2m/s | 0°C | 0% | 0hPa | 0V | 00:00:00 | 00:00:00 | 00:00:00 | |
| EA3GEO | 2026-09-05 23:40:31 | 41.41085 | 2.18432 | 333° | 24km/h | 12688m | 4.4m/s | 0°C | 0% | 0hPa | 0V | 00:00:00 | 00:00:00 | 00:00:00 | |
| EA3IBE | 2026-09-05 23:40:27 | 41.41056 | 2.18439 | 2° | 35km/h | 12671m | 3.6m/s | 0°C | 0% | 0hPa | 0V | 00:00:00 | 00:00:00 | 00:00:00 | |
| EA3GEO | 2026-09-05 23:40:26 | 41.41048 | 2.18439 | 3° | 31km/h | 12667m | 5.5m/s | 0°C | 0% | 0hPa | 0V | 00:00:00 | 00:00:00 | 00:00:00 | |
| EA3GEO | 2026-09-05 23:40:21 | 41.41014 | 2.18447 | 348° | 29km/h | 12645m | 3.6m/s | 0°C | 0% | 0hPa | 0V | 00:00:00 | 00:00:00 | 00:00:00 | |
| EA3IBE | 2026-09-05 23:40:19 | 41.40999 | 2.18451 | 349° | 27km/h | 12637m | 5.1m/s | 0°C | 0% | 0hPa | 0V | 00:00:00 | 00:00:00 | 00:00:00 | |
| EA3GEO | 2026-09-05 23:40:15 | 41.40971 | 2.18458 | 345° | 26km/h | 12618m | 5.0m/s | 0°C | 0% | 0hPa | 0V | 00:00:00 | 00:00:00 | 00:00:00 | |
| EA3IBE | 2026-09-05 23:40:14 | 41.40964 | 2.18460 | 345° | 26km/h | 12614m | 3.7m/s | 0°C | 0% | 0hPa | 0V | 00:00:00 | 00:00:00 | 00:00:00 | |
| EA3GEO | 2026-09-05 23:40:09 | 41.40930 | 2.18476 | 336° | 31km/h | 12592m | 3.8m/s | 0°C | 0% | 0hPa | 0V | 00:00:00 | 00:00:00 | 00:00:00 | |
| EA3IBE | 2026-09-05 23:40:07 | 41.40915 | 2.18481 | 358° | 31km/h | 12582m | 4.0m/s | 0°C | 0% | 0hPa | 0V | 00:00:00 | 00:00:00 | 00:00:00 | |
| EA3GEO | 2026-09-05 23:40:04 | 41.40895 | 2.18482 | 353° | 26km/h | 12570m | 3.8m/s | 0°C | 0% | 0hPa | 0V | 00:00:00 | 00:00:00 | 00:00:00 | |
| EA3GEO | 2026-09-05 23:39:59 | 41.40857 | 2.18504 | 326° | 33km/h | 12550m | 3.8m/s | 0°C | 0% | 0hPa | 0V | 00:00:00 | 00:00:00 | 00:00:00 | |
| EA3IBE | 2026-09-05 23:39:58 | 41.40850 | 2.18510 | 335° | 35km/h | 12546m | 3.7m/s | 0°C | 0% | 0hPa | 0V | 00:00:00 | 00:00:00 | 00:00:00 | |
| EA3GEO | 2026-09-05 23:39:53 | 41.40814 | 2.18520 | 346° | 26km/h | 12526m | 4.2m/s | 0°C | 0% | 0hPa | 0V | 00:00:00 | 00:00:00 | 00:00:00 | |
| EA3IBE | 2026-09-05 23:39:50 | 41.40794 | 2.18526 | 350° | 24km/h | 12513m | 5.5m/s | 0°C | 0% | 0hPa | 0V | 00:00:00 | 00:00:00 | 00:00:00 | |
| EA3GEO | 2026-09-05 23:39:47 | 41.40773 | 2.18531 | 348° | 35km/h | 12502m | 3.5m/s | 0°C | 0% | 0hPa | 0V | 00:00:00 | 00:00:00 | 00:00:00 | |
| EA3IBE | 2026-09-05 23:39:44 | 41.40751 | 2.18543 | 333° | 29km/h | 12488m | 6.2m/s | 0°C | 0% | 0hPa | 0V | 00:00:00 | 00:00:00 | 00:00:00 | |
| EA3GEO | 2026-09-05 23:39:42 | 41.40738 | 2.18550 | 342° | 26km/h | 12479m | 4.9m/s | 0°C | 0% | 0hPa | 0V | 00:00:00 | 00:00:00 | 00:00:00 | |
| EA3IBE | 2026-09-05 23:39:39 | 41.40719 | 2.18557 | 346° | 26km/h | 12466m | 5.7m/s | 0°C | 0% | 0hPa | 0V | 00:00:00 | 00:00:00 | 00:00:00 | |
| EA3GEO | 2026-09-05 23:39:36 | 41.40697 | 2.18565 | 344° | 27km/h | 12452m | 4.4m/s | 0°C | 0% | 0hPa | 0V | 00:00:00 | 00:00:00 | 00:00:00 | |
| EA3IBE | 2026-09-05 23:39:33 | 41.40675 | 2.18572 | 345° | 33km/h | 12439m | 3.7m/s | 0°C | 0% | 0hPa | 0V | 00:00:00 | 00:00:00 | 00:00:00 | |
| EA3GEO | 2026-09-05 23:39:30 | 41.40654 | 2.18583 | 340° | 29km/h | 12426m | 5.1m/s | 0°C | 0% | 0hPa | 0V | 00:00:00 | 00:00:00 | 00:00:00 | |
| EA3IBE | 2026-09-05 23:39:26 | 41.40627 | 2.18593 | 348° | 24km/h | 12410m | 4.4m/s | 0°C | 0% | 0hPa | 0V | 00:00:00 | 00:00:00 | 00:00:00 | |
| EA3GEO | 2026-09-05 23:39:25 | 41.40620 | 2.18595 | 353° | 31km/h | 12405m | 4.8m/s | 0°C | 0% | 0hPa | 0V | 00:00:00 | 00:00:00 | 00:00:00 | |
| EA3IBE | 2026-09-05 23:39:23 | 41.40590 | 2.18606 | 335° | 29km/h | 12389m | 3.8m/s | 0°C | 0% | 0hPa | 0V | 00:00:00 | 00:00:00 | 00:00:00 | |
| EA3GEO | 2026-09-05 23:39:22 | 41.40541 | 2.18620 | 351° | 26km/h | 12360m | 3.1m/s | 0°C | 0% | 0hPa | 0V | 00:00:00 | 00:00:00 | 00:00:00 | |
| EA3IBE | 2026-09-05 23:39:21 | 41.40535 | 2.18622 | 347° | 22km/h | 12356m | 6.2m/s | 0°C | 0% | 0hPa | 0V | 00:00:00 | 00:00:00 | 00:00:00 | |
| EA3GEO | 2026-09-05 23:39:12 | 41.40507 | 2.18633 | 344° | 31km/h | 12338m | 4.1m/s | 0°C | 0% | 0hPa | 0V | 00:00:00 | 00:00:00 | 00:00:00 | |
| EA3IBE | 2026-09-05 23:39:07 | 41.40493 | 2.18637 | 349° | 26km/h | 12330m | 4.0m/s | 0°C | 0% | 0hPa | 0V | 00:00:00 | 00:00:00 | 00:00:00 | |
| EA3GEO | 2026-09-05 23:39:03 | 41.40465 | 2.18645 | 355° | 31km/h | 12311m | 6.0m/s | 0°C | 0% | 0hPa | 0V | 00:00:00 | 00:00:00 | 00:00:00 | |
| EA3IBE | 2026-09-05 23:39:01 | 41.40451 | 2.18645 | 360° | 24km/h | 12301m | 2.9m/s | 0°C | 0% | 0hPa | 0V | 00:00:00 | 00:00:00 | 00:00:00 | |
| EA3GEO | 2026-09-05 23:38:57 | 41.40428 | 2.18652 | 345° | 24km/h | 12285m | 3.7m/s | 0°C | 0% | 0hPa | 0V | 00:00:00 | 00:00:00 | 00:00:00 | |
| EA3IBE | 2026-09-05 23:38:53 | 41.40399 | 2.18658 | 358° | 29km/h | 12269m | 5.2m/s | 0°C | 0% | 0hPa | 0V | 00:00:00 | 00:00:00 | 00:00:00 | |
| EA3GEO | 2026-09-05 23:38:51 | 41.40388 | 2.18658 | 4° | 18km/h | 12260m | 4.3m/s | 0°C | 0% | 0hPa | 0V | 00:00:00 | 00:00:00 | 00:00:00 | |
| EA3GEO | 2026-09-05 23:38:46 | 41.40358 | 2.18661 | 346° | 24km/h | 12239m | 5.2m/s | 0°C | 0% | 0hPa | 0V | 00:00:00 | 00:00:00 | 00:00:00 | |
| EA3IBE | 2026-09-05 23:38:44 | 41.40347 | 2.18666 | 345° | 27km/h | 12231m | 6.0m/s | 0°C | 0% | 0hPa | 0V | 00:00:00 | 00:00:00 | 00:00:00 | |
| EA3GEO | 2026-09-05 23:38:40 | 41.40322 | 2.18671 | 4° | 27km/h | 12213m | 6.1m/s | 0°C | 0% | 0hPa | 0V | 00:00:00 | 00:00:00 | 00:00:00 | |
| EA3GEO | 2026-09-05 23:38:35 | 41.40288 | 2.18670 | 4° | 27km/h | 12193m | 5.1m/s | 0°C | 0% | 0hPa | 0V | 00:00:00 | 00:00:00 | 00:00:00 | |
| EA3IBE | 2026-09-05 23:38:33 | 41.40271 | 2.18676 | 340° | 22km/h | 12182m | 5.4m/s | 0°C | 0% | 0hPa | 0V | 00:00:00 | 00:00:00 | 00:00:00 | |
| EA3GEO | 2026-09-05 23:38:29 | 41.40252 | 2.18680 | 360° | 26km/h | 12167m | 5.5m/s | 0°C | 0% | 0hPa | 0V | 00:00:00 | 00:00:00 | 00:00:00 | |
| EA3IBE | 2026-09-05 23:38:27 | 41.40240 | 2.18680 | 357° | 26km/h | 12156m | 5.3m/s | 0°C | 0% | 0hPa | 0V | 00:00:00 | 00:00:00 | 00:00:00 | |
| EA3GEO | 2026-09-05 23:38:23 | 41.40216 | 2.18686 | 354° | 22km/h | 12139m | 4.3m/s | 0°C | 0% | 0hPa | 0V | 00:00:00 | 00:00:00 | 00:00:00 | |
| EA3GEO | 2026-09-05 23:38:18 | 41.40182 | 2.18687 | 352° | 24km/h | 12121m | 3.6m/s | 0°C | 0% | 0hPa | 0V | 00:00:00 | 00:00:00 | 00:00:00 | |
| EA3IBE | 2026-09-05 23:38:12 | 41.40145 | 2.18695 | 361° | 22km/h | 12095m | 4.3m/s | 0°C | 0% | 0hPa | 0V | 00:00:00 | 00:00:00 | 00:00:00 | |
| EA3IBE | 2026-09-05 23:38:07 | 41.40113 | 2.18699 | 354° | 26km/h | 12075m | 5.4m/s | 0°C | 0% | 0hPa | 0V | 00:00:00 | 00:00:00 | 00:00:00 | |
| EA3GEO | 2026-09-05 23:38:06 | 41.40106 | 2.18699 | 359° | 27km/h | 12070m | 4.7m/s | 0°C | 0% | 0hPa | 0V | 00:00:00 | 00:00:00 | 00:00:00 | |
| EA3GEO | 2026-09-05 23:38:01 | 41.40069 | 2.18703 | 357° | 27km/h | 12049m | 4.7m/s | 0°C | 0% | 0hPa | 0V | 00:00:00 | 00:00:00 | 00:00:00 | |
| EA3GEO | 2026-09-05 23:37:55 | 41.40030 | 2.18706 | 351° | 22km/h | 12024m | 4.1m/s | 0°C | 0% | 0hPa | 0V | 00:00:00 | 00:00:00 | 00:00:00 | |
| EA3IBE | 2026-09-05 23:37:53 | 41.40018 | 2.18706 | 3° | 31km/h | 12015m | 3.3m/s | 0°C | 0% | 0hPa | 0V | 00:00:00 | 00:00:00 | 00:00:00 | |
| EA3GEO | 2026-09-05 23:37:49 | 41.39986 | 2.18706 | 3° | 33km/h | 11998m | 3.2m/s | 0°C | 0% | 0hPa | 0V | 00:00:00 | 00:00:00 | 00:00:00 | |
| EA3IBE | 2026-09-05 23:37:48 | 41.39977 | 2.18706 | 359° | 29km/h | 11994m | 4.4m/s | 0°C | 0% | 0hPa | 0V | 00:00:00 | 00:00:00 | 00:00:00 | |
| EA3GEO | 2026-09-05 23:37:44 | 41.39951 | 2.18708 | 359° | 29km/h | 11979m | 2.7m/s | 0°C | 0% | 0hPa | 0V | 00:00:00 | 00:00:00 | 00:00:00 | |
| EA3IBE | 2026-09-05 23:37:42 | 41.39937 | 2.18709 | 360° | 29km/h | 11970m | 4.5m/s | 0°C | 0% | 0hPa | 0V | 00:00:00 | 00:00:00 | 00:00:00 | |
| EA3GEO | 2026-09-05 23:37:38 | 41.39903 | 2.18708 | 360° | 31km/h | 11955m | 2.8m/s | 0°C | 0% | 0hPa | 0V | 00:00:00 | 00:00:00 | 00:00:00 | |
| EA3IBE | 2026-09-05 23:37:33 | 41.39867 | 2.18710 | 358° | 27km/h | 11937m | 4.7m/s | 0°C | 0% | 0hPa | 0V | 00:00:00 | 00:00:00 | 00:00:00 | |
| EA3GEO | 2026-09-05 23:37:32 | 41.39860 | 2.18711 | 352° | 24km/h | 11933m | 4.9m/s | 0°C | 0% | 0hPa | 0V | 00:00:00 | 00:00:00 | 00:00:00 | |
| EA3GEO | 2026-09-05 23:37:27 | 41.39821 | 2.18714 | 355° | 27km/h | 11913m | 5.1m/s | 0°C | 0% | 0hPa | 0V | 00:00:00 | 00:00:00 | 00:00:00 | |
| EA3IBE | 2026-09-05 23:37:26 | 41.39814 | 2.18716 | 355° | 27km/h | 11908m | 4.8m/s | 0°C | 0% | 0hPa | 0V | 00:00:00 | 00:00:00 | 00:00:00 | |
| EA3GEO | 2026-09-05 23:37:21 | 41.39779 | 2.18719 | 4° | 33km/h | 11887m | 3.8m/s | 0°C | 0% | 0hPa | 0V | 00:00:00 | 00:00:00 | 00:00:00 | |
| EA3IBE | 2026-09-05 23:37:17 | 41.39748 | 2.18722 | 353° | 31km/h | 11871m | 4.2m/s | 0°C | 0% | 0hPa | 0V | 00:00:00 | 00:00:00 | 00:00:00 | |
| EA3GEO | 2026-09-05 23:37:15 | 41.39734 | 2.18724 | 350° | 24km/h | 11863m | 5.3m/s | 0°C | 0% | 0hPa | 0V | 00:00:00 | 00:00:00 | 00:00:00 | |
| EA3GEO | 2026-09-05 23:37:10 | 41.39700 | 2.18727 | 3° | 27km/h | 11843m | 3.2m/s | 0°C | 0% | 0hPa | 0V | 00:00:00 | 00:00:00 | 00:00:00 | |
| EA3IBE | 2026-09-05 23:37:09 | 41.39693 | 2.18727 | 361° | 29km/h | 11839m | 4.2m/s | 0°C | 0% | 0hPa | 0V | 00:00:00 | 00:00:00 | 00:00:00 | |
| EA3GEO | 2026-09-05 23:37:04 | 41.39655 | 2.18727 | 356° | 29km/h | 11820m | 3.3m/s | 0°C | 0% | 0hPa | 0V | 00:00:00 | 00:00:00 | 00:00:00 | |
| EA3IBE | 2026-09-05 23:37:00 | 41.39627 | 2.18728 | 357° | 29km/h | 11802m | 4.4m/s | 0°C | 0% | 0hPa | 0V | 00:00:00 | 00:00:00 | 00:00:00 | |
| EA3GEO | 2026-09-05 23:36:58 | 41.39612 | 2.18730 | 356° | 26km/h | 11793m | 5.1m/s | 0°C | 0% | 0hPa | 0V | 00:00:00 | 00:00:00 | 00:00:00 | |
| EA3GEO | 2026-09-05 23:36:53 | 41.39579 | 2.18734 | 346° | 26km/h | 11775m | 4.3m/s | 0°C | 0% | 0hPa | 0V | 00:00:00 | 00:00:00 | 00:00:00 | |
| EA3IBE | 2026-09-05 23:36:49 | 41.39551 | 2.18744 | 352° | 26km/h | 11758m | 4.3m/s | 0°C | 0% | 0hPa | 0V | 00:00:00 | 00:00:00 | 00:00:00 | |
| EA3GEO | 2026-09-05 23:36:48 | 41.39545 | 2.18745 | 357° | 26km/h | 11754m | 4.6m/s | 0°C | 0% | 0hPa | 0V | 00:00:00 | 00:00:00 | 00:00:00 | |
| EA3IBE | 2026-09-05 23:36:43 | 41.39510 | 2.18744 | 7° | 22km/h | 11735m | 4.6m/s | 0°C | 0% | 0hPa | 0V | 00:00:00 | 00:00:00 | 00:00:00 | |
| EA3GEO | 2026-09-05 23:36:42 | 41.39504 | 2.18743 | 8° | 24km/h | 11731m | 4.4m/s | 0°C | 0% | 0hPa | 0V | 00:00:00 | 00:00:00 | 00:00:00 | |
| EA3GEO | 2026-09-05 23:36:37 | 41.39468 | 2.18744 | 2° | 37km/h | 11710m | 4.0m/s | 0°C | 0% | 0hPa | 0V | 00:00:00 | 00:00:00 | 00:00:00 | |
| EA3GEO | 2026-09-05 23:36:32 | 41.39430 | 2.18747 | 360° | 22km/h | 11690m | 3.5m/s | 0°C | 0% | 0hPa | 0V | 00:00:00 | 00:00:00 | 00:00:00 | |
| EA3GEO | 2026-09-05 23:36:26 | 41.39387 | 2.18745 | 360° | 38km/h | 11669m | 3.6m/s | 0°C | 0% | 0hPa | 0V | 00:00:00 | 00:00:00 | 00:00:00 | |
| EA3IBE | 2026-09-05 23:36:22 | 41.39356 | 2.18747 | 5° | 24km/h | 11655m | 4.3m/s | 0°C | 0% | 0hPa | 0V | 00:00:00 | 00:00:00 | 00:00:00 | |
| EA3GEO | 2026-09-05 23:36:20 | 41.39344 | 2.18748 | 349° | 26km/h | 11644m | 5.5m/s | 0°C | 0% | 0hPa | 0V | 00:00:00 | 00:00:00 | 00:00:00 | |
| EA3GEO | 2026-09-05 23:36:09 | 41.39267 | 2.18754 | 349° | 29km/h | 11601m | 3.1m/s | 0°C | 0% | 0hPa | 0V | 00:00:00 | 00:00:00 | 00:00:00 | |
| EA3GEO | 2026-09-05 23:36:03 | 41.39231 | 2.18753 | 360° | 24km/h | 11578m | 4.3m/s | 0°C | 0% | 0hPa | 0V | 00:00:00 | 00:00:00 | 00:00:00 | |
| EA3IBE | 2026-09-05 23:36:02 | 41.39224 | 2.18753 | 2° | 29km/h | 11574m | 4.4m/s | 0°C | 0% | 0hPa | 0V | 00:00:00 | 00:00:00 | 00:00:00 | |
| EA3GEO | 2026-09-05 23:35:58 | 41.39192 | 2.18756 | 6° | 29km/h | 11558m | 5.2m/s | 0°C | 0% | 0hPa | 0V | 00:00:00 | 00:00:00 | 00:00:00 | |
| EA3IBE | 2026-09-05 23:35:53 | 41.39163 | 2.18753 | 6° | 26km/h | 11536m | 5.6m/s | 0°C | 0% | 0hPa | 0V | 00:00:00 | 00:00:00 | 00:00:00 | |
| EA3GEO | 2026-09-05 23:35:52 | 41.39156 | 2.18751 | 8° | 29km/h | 11532m | 4.4m/s | 0°C | 0% | 0hPa | 0V | 00:00:00 | 00:00:00 | 00:00:00 | |
| EA3GEO | 2026-09-05 23:35:41 | 41.39083 | 2.18762 | 334° | 18km/h | 11483m | 5.1m/s | 0°C | 0% | 0hPa | 0V | 00:00:00 | 00:00:00 | 00:00:00 | |
| EA3GEO | 2026-09-05 23:35:36 | 41.39058 | 2.18764 | 17° | 33km/h | 11458m | 5.6m/s | 0°C | 0% | 0hPa | 0V | 00:00:00 | 00:00:00 | 00:00:00 | |
| EA3GEO | 2026-09-05 23:35:30 | 41.39020 | 2.18773 | 357° | 11km/h | 11434m | 5.4m/s | 0°C | 0% | 0hPa | 0V | 00:00:00 | 00:00:00 | 00:00:00 | |
| EA3GEO | 2026-09-05 23:35:25 | 41.38996 | 2.18769 | 1° | 27km/h | 11410m | 5.0m/s | 0°C | 0% | 0hPa | 0V | 00:00:00 | 00:00:00 | 00:00:00 | |
| EA3GEO | 2026-09-05 23:35:20 | 41.38964 | 2.18779 | 343° | 27km/h | 11387m | 3.9m/s | 0°C | 0% | 0hPa | 0V | 00:00:00 | 00:00:00 | 00:00:00 | |
| EA3IBE | 2026-09-05 23:35:10 | 41.38898 | 2.18780 | 357° | 33km/h | 11338m | 4.3m/s | 0°C | 0% | 0hPa | 0V | 00:00:00 | 00:00:00 | 00:00:00 | |
| EA3GEO | 2026-09-05 23:35:09 | 41.38891 | 2.18780 | 1° | 22km/h | 11333m | 6.0m/s | 0°C | 0% | 0hPa | 0V | 00:00:00 | 00:00:00 | 00:00:00 | |
| EA3GEO | 2026-09-05 23:35:04 | 41.38877 | 2.18778 | 2° | 29km/h | 11305m | 4.8m/s | 0°C | 0% | 0hPa | 0V | 00:00:00 | 00:00:00 | 00:00:00 | |
| EA3GEO | 2026-09-05 23:34:59 | 41.38851 | 2.18792 | 319° | 11km/h | 11269m | 7.0m/s | 0°C | 0% | 0hPa | 0V | 00:00:00 | 00:00:00 | 00:00:00 | |
| EA3GEO | 2026-09-05 23:34:52 | 41.38808 | 2.18796 | 317° | 27km/h | 11225m | 5.0m/s | 0°C | 0% | 0hPa | 0V | 00:00:00 | 00:00:00 | 00:00:00 | |
| EA3IBE | 2026-09-05 23:34:49 | 41.38795 | 2.18808 | 12° | 13km/h | 11207m | 6.1m/s | 0°C | 0% | 0hPa | 0V | 00:00:00 | 00:00:00 | 00:00:00 | |
| EA3GEO | 2026-09-05 23:34:47 | 41.38790 | 2.18797 | 73° | 22km/h | 11195m | 5.5m/s | 0°C | 0% | 0hPa | 0V | 00:00:00 | 00:00:00 | 00:00:00 | |
| EA3GEO | 2026-09-05 23:34:41 | 41.38768 | 2.18791 | 299° | 16km/h | 11164m | 5.9m/s | 0°C | 0% | 0hPa | 0V | 00:00:00 | 00:00:00 | 00:00:00 | |
| EA3GEO | 2026-09-05 23:34:36 | 41.38758 | 2.18780 | 12° | 20km/h | 11132m | 7.5m/s | 0°C | 0% | 0hPa | 0V | 00:00:00 | 00:00:00 | 00:00:00 | |
| EA3IBE | 2026-09-05 23:34:31 | 41.38730 | 2.18789 | 21° | 18km/h | 11107m | 6.8m/s | 0°C | 0% | 0hPa | 0V | 00:00:00 | 00:00:00 | 00:00:00 | |
| EA3GEO | 2026-09-05 23:34:30 | 41.38725 | 2.18786 | 31° | 24km/h | 11100m | 7.0m/s | 0°C | 0% | 0hPa | 0V | 00:00:00 | 00:00:00 | 00:00:00 | |
| EA3GEO | 2026-09-05 23:34:25 | 41.38709 | 2.18756 | 67° | 13km/h | 11072m | 7.5m/s | 0°C | 0% | 0hPa | 0V | 00:00:00 | 00:00:00 | 00:00:00 | |
| EA3GEO | 2026-09-05 23:34:19 | 41.38681 | 2.18757 | 35° | 27km/h | 11030m | 4.7m/s | 0°C | 0% | 0hPa | 0V | 00:00:00 | 00:00:00 | 00:00:00 | |
| EA3GEO | 2026-09-05 23:34:13 | 41.38671 | 2.18743 | 320° | 18km/h | 11000m | 7.2m/s | 0°C | 0% | 0hPa | 0V | 00:00:00 | 00:00:00 | 00:00:00 | |
| EA3GEO | 2026-09-05 23:34:07 | 41.38642 | 2.18756 | 164° | 7km/h | 10962m | 5.1m/s | 0°C | 0% | 0hPa | 0V | 00:00:00 | 00:00:00 | 00:00:00 | |
| EA3GEO | 2026-09-05 23:34:01 | 41.38637 | 2.18774 | 356° | 26km/h | 10929m | 5.7m/s | 0°C | 0% | 0hPa | 0V | 00:00:00 | 00:00:00 | 00:00:00 | |
| EA3GEO | 2026-09-05 23:33:55 | 41.38625 | 2.18772 | 259° | 13km/h | 10894m | 5.5m/s | 0°C | 0% | 0hPa | 0V | 00:00:00 | 00:00:00 | 00:00:00 | |
| EA3IBE | 2026-09-05 23:33:51 | 41.38618 | 2.18774 | 31° | 13km/h | 10873m | 7.6m/s | 0°C | 0% | 0hPa | 0V | 00:00:00 | 00:00:00 | 00:00:00 | |
| EA3GEO | 2026-09-05 23:33:50 | 41.38615 | 2.18773 | 2° | 13km/h | 10865m | 5.7m/s | 0°C | 0% | 0hPa | 0V | 00:00:00 | 00:00:00 | 00:00:00 | |
| EA3GEO | 2026-09-05 23:33:44 | 41.38608 | 2.18796 | 295° | 9km/h | 10829m | 8.5m/s | 0°C | 0% | 0hPa | 0V | 00:00:00 | 00:00:00 | 00:00:00 | |
| EA3IBE | 2026-09-05 23:33:38 | 41.38612 | 2.18786 | 84° | 4km/h | 10792m | 7.8m/s | 0°C | 0% | 0hPa | 0V | 00:00:00 | 00:00:00 | 00:00:00 | |
| EA3GEO | 2026-09-05 23:33:33 | 41.38613 | 2.18789 | 0° | 0km/h | 10760m | 8.5m/s | 0°C | 0% | 0hPa | 0V | 00:00:00 | 00:00:00 | 00:00:00 | |
| EA3GEO | 2026-09-05 23:33:28 | 41.38615 | 2.18789 | 177° | 4km/h | 10727m | 7.6m/s | 0°C | 0% | 0hPa | 0V | 00:00:00 | 00:00:00 | 00:00:00 | |
| EA3GEO | 2026-09-05 23:33:22 | 41.38621 | 2.18787 | 156° | 13km/h | 10690m | 6.9m/s | 0°C | 0% | 0hPa | 0V | 00:00:00 | 00:00:00 | 00:00:00 | |
| EA3GEO | 2026-09-05 23:33:16 | 41.38628 | 2.18773 | 99° | 9km/h | 10656m | 7.0m/s | 0°C | 0% | 0hPa | 0V | 00:00:00 | 00:00:00 | 00:00:00 | |
| EA3GEO | 2026-09-05 23:33:10 | 41.38635 | 2.18765 | 101° | 4km/h | 10617m | 8.5m/s | 0°C | 0% | 0hPa | 0V | 00:00:00 | 00:00:00 | 00:00:00 | |
| EA3IBE | 2026-09-05 23:33:09 | 41.38635 | 2.18764 | 114° | 4km/h | 10610m | 5.2m/s | 0°C | 0% | 0hPa | 0V | 00:00:00 | 00:00:00 | 00:00:00 | |
| EA3GEO | 2026-09-05 23:33:04 | 41.38640 | 2.18768 | 192° | 7km/h | 10579m | 4.6m/s | 0°C | 0% | 0hPa | 0V | 00:00:00 | 00:00:00 | 00:00:00 | |
| EA3GEO | 2026-09-05 23:32:58 | 41.38641 | 2.18767 | 248° | 4km/h | 10543m | 4.3m/s | 0°C | 0% | 0hPa | 0V | 00:00:00 | 00:00:00 | 00:00:00 | |
| EA3GEO | 2026-09-05 23:32:52 | 41.38645 | 2.18782 | 221° | 5km/h | 10511m | 3.3m/s | 0°C | 0% | 0hPa | 0V | 00:00:00 | 00:00:00 | 00:00:00 | |
| EA3IBE | 2026-09-05 23:32:48 | 41.38648 | 2.18789 | 240° | 4km/h | 10484m | 5.4m/s | 0°C | 0% | 0hPa | 0V | 00:00:00 | 00:00:00 | 00:00:00 | |
| EA3GEO | 2026-09-05 23:32:47 | 41.38648 | 2.18790 | 305° | 2km/h | 10479m | 3.8m/s | 0°C | 0% | 0hPa | 0V | 00:00:00 | 00:00:00 | 00:00:00 | |
| EA3GEO | 2026-09-05 23:32:41 | 41.38651 | 2.18802 | 265° | 9km/h | 10444m | 2.9m/s | 0°C | 0% | 0hPa | 0V | 00:00:00 | 00:00:00 | 00:00:00 | |
| EA3IBE | 2026-09-05 23:32:40 | 41.38651 | 2.18805 | 240° | 9km/h | 10439m | 7.7m/s | 0°C | 0% | 0hPa | 0V | 00:00:00 | 00:00:00 | 00:00:00 | |
| EA3GEO | 2026-09-05 23:32:35 | 41.38651 | 2.18814 | 279° | 5km/h | 10404m | 2.6m/s | 0°C | 0% | 0hPa | 0V | 00:00:00 | 00:00:00 | 00:00:00 | |
| EA3GEO | 2026-09-05 23:32:30 | 41.38650 | 2.18826 | 209° | 7km/h | 10375m | 4.8m/s | 0°C | 0% | 0hPa | 0V | 00:00:00 | 00:00:00 | 00:00:00 | |
| EA3IBE | 2026-09-05 23:32:26 | 41.38653 | 2.18832 | 275° | 13km/h | 10349m | 3.5m/s | 0°C | 0% | 0hPa | 0V | 00:00:00 | 00:00:00 | 00:00:00 | |
| EA3GEO | 2026-09-05 23:32:24 | 41.38651 | 2.18840 | 309° | 9km/h | 10341m | 7.9m/s | 0°C | 0% | 0hPa | 0V | 00:00:00 | 00:00:00 | 00:00:00 | |
| EA3GEO | 2026-09-05 23:32:18 | 41.38647 | 2.18859 | 260° | 9km/h | 10302m | 2.8m/s | 0°C | 0% | 0hPa | 0V | 00:00:00 | 00:00:00 | 00:00:00 | |
| EA3GEO | 2026-09-05 23:32:12 | 41.38643 | 2.18873 | 283° | 7km/h | 10268m | 3.5m/s | 0°C | 0% | 0hPa | 0V | 00:00:00 | 00:00:00 | 00:00:00 | |
| EA3GEO | 2026-09-05 23:32:07 | 41.38640 | 2.18889 | 332° | 7km/h | 10234m | 5.5m/s | 0°C | 0% | 0hPa | 0V | 00:00:00 | 00:00:00 | 00:00:00 | |
| EA3IBE | 2026-09-05 23:32:04 | 41.38637 | 2.18892 | 316° | 7km/h | 10221m | 4.5m/s | 0°C | 0% | 0hPa | 0V | 00:00:00 | 00:00:00 | 00:00:00 | |
| EA3GEO | 2026-09-05 23:32:02 | 41.38636 | 2.18895 | 332° | 9km/h | 10207m | 9.7m/s | 0°C | 0% | 0hPa | 0V | 00:00:00 | 00:00:00 | 00:00:00 | |
| EA3GEO | 2026-09-05 23:31:56 | 41.38628 | 2.18914 | 299° | 4km/h | 10171m | 4.6m/s | 0°C | 0% | 0hPa | 0V | 00:00:00 | 00:00:00 | 00:00:00 | |
| EA3IBE | 2026-09-05 23:31:50 | 41.38620 | 2.18921 | 9° | 9km/h | 10133m | 3.2m/s | 0°C | 0% | 0hPa | 0V | 00:00:00 | 00:00:00 | 00:00:00 | |
| EA3GEO | 2026-09-05 23:31:44 | 41.38617 | 2.18935 | 274° | 16km/h | 10093m | 4.3m/s | 0°C | 0% | 0hPa | 0V | 00:00:00 | 00:00:00 | 00:00:00 | |
| EA3GEO | 2026-09-05 23:31:38 | 41.38619 | 2.18960 | 261° | 11km/h | 10061m | 8.9m/s | 0°C | 0% | 0hPa | 0V | 00:00:00 | 00:00:00 | 00:00:00 | |
| EA3IBE | 2026-09-05 23:31:37 | 41.38619 | 2.18964 | 241° | 11km/h | 10053m | 7.4m/s | 0°C | 0% | 0hPa | 0V | 00:00:00 | 00:00:00 | 00:00:00 | |
| EA3GEO | 2026-09-05 23:31:32 | 41.38619 | 2.18986 | 266° | 16km/h | 10027m | 5.6m/s | 0°C | 0% | 0hPa | 0V | 00:00:00 | 00:00:00 | 00:00:00 | |
| EA3IBE | 2026-09-05 23:31:30 | 41.38619 | 2.18995 | 273° | 13km/h | 10012m | 7.7m/s | 0°C | 0% | 0hPa | 0V | 00:00:00 | 00:00:00 | 00:00:00 | |
| EA3GEO | 2026-09-05 23:31:27 | 41.38617 | 2.19006 | 298° | 15km/h | 9992m | 4.4m/s | 0°C | 0% | 0hPa | 0V | 00:00:00 | 00:00:00 | 00:00:00 | |
| EA3IBE | 2026-09-05 23:31:24 | 41.38612 | 2.19022 | 284° | 16km/h | 9980m | 5.9m/s | 0°C | 0% | 0hPa | 0V | 00:00:00 | 00:00:00 | 00:00:00 | |
| EA3GEO | 2026-09-05 23:31:21 | 41.38610 | 2.19036 | 297° | 11km/h | 9958m | 7.8m/s | 0°C | 0% | 0hPa | 0V | 00:00:00 | 00:00:00 | 00:00:00 | |
| EA3IBE | 2026-09-05 23:31:18 | 41.38607 | 2.19045 | 271° | 15km/h | 9938m | 4.6m/s | 0°C | 0% | 0hPa | 0V | 00:00:00 | 00:00:00 | 00:00:00 | |
| EA3GEO | 2026-09-05 23:31:15 | 41.38608 | 2.19066 | 266° | 20km/h | 9924m | 6.8m/s | 0°C | 0% | 0hPa | 0V | 00:00:00 | 00:00:00 | 00:00:00 | |
| EA3IBE | 2026-09-05 23:31:09 | 41.38609 | 2.19083 | 248° | 11km/h | 9882m | 4.1m/s | 0°C | 0% | 0hPa | 0V | 00:00:00 | 00:00:00 | 00:00:00 | |
| EA3GEO | 2026-09-05 23:31:04 | 41.38613 | 2.19100 | 233° | 16km/h | 9856m | 8.4m/s | 0°C | 0% | 0hPa | 0V | 00:00:00 | 00:00:00 | 00:00:00 | |
| EA3GEO | 2026-09-05 23:30:59 | 41.38618 | 2.19118 | 235° | 15km/h | 9827m | 5.3m/s | 0°C | 0% | 0hPa | 0V | 00:00:00 | 00:00:00 | 00:00:00 | |
| EA3GEO | 2026-09-05 23:30:53 | 41.38631 | 2.19140 | 255° | 13km/h | 9786m | 5.1m/s | 0°C | 0% | 0hPa | 0V | 00:00:00 | 00:00:00 | 00:00:00 | |
| EA3IBE | 2026-09-05 23:30:52 | 41.38632 | 2.19145 | 256° | 13km/h | 9780m | 4.7m/s | 0°C | 0% | 0hPa | 0V | 00:00:00 | 00:00:00 | 00:00:00 | |
| EA3GEO | 2026-09-05 23:30:48 | 41.38638 | 2.19163 | 249° | 15km/h | 9758m | 6.9m/s | 0°C | 0% | 0hPa | 0V | 00:00:00 | 00:00:00 | 00:00:00 | |
| EA3IBE | 2026-09-05 23:30:47 | 41.38638 | 2.19167 | 252° | 9km/h | 9751m | 7.8m/s | 0°C | 0% | 0hPa | 0V | 00:00:00 | 00:00:00 | 00:00:00 | |
| EA3GEO | 2026-09-05 23:30:42 | 41.38645 | 2.19185 | 240° | 11km/h | 9723m | 3.4m/s | 0°C | 0% | 0hPa | 0V | 00:00:00 | 00:00:00 | 00:00:00 | |
| EA3IBE | 2026-09-05 23:30:39 | 41.38649 | 2.19195 | 238° | 11km/h | 9703m | 8.1m/s | 0°C | 0% | 0hPa | 0V | 00:00:00 | 00:00:00 | 00:00:00 | |
| EA3GEO | 2026-09-05 23:30:36 | 41.38653 | 2.19202 | 246° | 9km/h | 9684m | 3.1m/s | 0°C | 0% | 0hPa | 0V | 00:00:00 | 00:00:00 | 00:00:00 | |
| EA3IBE | 2026-09-05 23:30:33 | 41.38656 | 2.19216 | 249° | 18km/h | 9672m | 4.8m/s | 0°C | 0% | 0hPa | 0V | 00:00:00 | 00:00:00 | 00:00:00 | |
| EA3GEO | 2026-09-05 23:30:30 | 41.38661 | 2.19233 | 256° | 15km/h | 9653m | 8.4m/s | 0°C | 0% | 0hPa | 0V | 00:00:00 | 00:00:00 | 00:00:00 | |
| EA3IBE | 2026-09-05 23:30:25 | 41.38663 | 2.19253 | 230° | 13km/h | 9623m | 3.0m/s | 0°C | 0% | 0hPa | 0V | 00:00:00 | 00:00:00 | 00:00:00 | |
| EA3GEO | 2026-09-05 23:30:24 | 41.38665 | 2.19257 | 237° | 15km/h | 9620m | 4.3m/s | 0°C | 0% | 0hPa | 0V | 00:00:00 | 00:00:00 | 00:00:00 | |
| EA3GEO | 2026-09-05 23:30:19 | 41.38667 | 2.19276 | 298° | 2km/h | 9591m | 8.8m/s | 0°C | 0% | 0hPa | 0V | 00:00:00 | 00:00:00 | 00:00:00 | |
| EA3IBE | 2026-09-05 23:30:16 | 41.38670 | 2.19288 | 242° | 7km/h | 9565m | 4.8m/s | 0°C | 0% | 0hPa | 0V | 00:00:00 | 00:00:00 | 00:00:00 | |
| EA3GEO | 2026-09-05 23:30:13 | 41.38671 | 2.19294 | 276° | 11km/h | 9558m | 2.6m/s | 0°C | 0% | 0hPa | 0V | 00:00:00 | 00:00:00 | 00:00:00 | |
| EA3IBE | 2026-09-05 23:30:08 | 41.38674 | 2.19316 | 265° | 18km/h | 9537m | 2.3m/s | 0°C | 0% | 0hPa | 0V | 00:00:00 | 00:00:00 | 00:00:00 | |
| EA3GEO | 2026-09-05 23:30:03 | 41.38678 | 2.19335 | 248° | 13km/h | 9517m | 4.8m/s | 0°C | 0% | 0hPa | 0V | 00:00:00 | 00:00:00 | 00:00:00 | |
| EA3IBE | 2026-09-05 23:29:59 | 41.38677 | 2.19353 | 280° | 16km/h | 9499m | 2.2m/s | 0°C | 0% | 0hPa | 0V | 00:00:00 | 00:00:00 | 00:00:00 | |
| EA3GEO | 2026-09-05 23:29:57 | 41.38677 | 2.19360 | 275° | 7km/h | 9491m | 4.1m/s | 0°C | 0% | 0hPa | 0V | 00:00:00 | 00:00:00 | 00:00:00 | |
| EA3IBE | 2026-09-05 23:29:53 | 41.38681 | 2.19376 | 257° | 16km/h | 9476m | 5.3m/s | 0°C | 0% | 0hPa | 0V | 00:00:00 | 00:00:00 | 00:00:00 | |
| EA3GEO | 2026-09-05 23:29:51 | 41.38682 | 2.19387 | 267° | 16km/h | 9467m | 3.1m/s | 0°C | 0% | 0hPa | 0V | 00:00:00 | 00:00:00 | 00:00:00 | |
| EA3GEO | 2026-09-05 23:29:45 | 41.38688 | 2.19412 | 242° | 16km/h | 9443m | 4.1m/s | 0°C | 0% | 0hPa | 0V | 00:00:00 | 00:00:00 | 00:00:00 | |
| EA3GEO | 2026-09-05 23:29:40 | 41.38692 | 2.19444 | 273° | 18km/h | 9419m | 3.9m/s | 0°C | 0% | 0hPa | 0V | 00:00:00 | 00:00:00 | 00:00:00 | |
| EA3IBE | 2026-09-05 23:29:35 | 41.38685 | 2.19465 | 272° | 15km/h | 9399m | 2.4m/s | 0°C | 0% | 0hPa | 0V | 00:00:00 | 00:00:00 | 00:00:00 | |
| EA3GEO | 2026-09-05 23:29:34 | 41.38686 | 2.19470 | 254° | 13km/h | 9395m | 5.5m/s | 0°C | 0% | 0hPa | 0V | 00:00:00 | 00:00:00 | 00:00:00 | |
| EA3GEO | 2026-09-05 23:29:29 | 41.38697 | 2.19485 | 219° | 16km/h | 9366m | 6.7m/s | 0°C | 0% | 0hPa | 0V | 00:00:00 | 00:00:00 | 00:00:00 | |
| EA3IBE | 2026-09-05 23:29:27 | 41.38700 | 2.19493 | 285° | 11km/h | 9355m | 4.9m/s | 0°C | 0% | 0hPa | 0V | 00:00:00 | 00:00:00 | 00:00:00 | |
| EA3GEO | 2026-09-05 23:29:23 | 41.38691 | 2.19505 | 289° | 7km/h | 9330m | 4.6m/s | 0°C | 0% | 0hPa | 0V | 00:00:00 | 00:00:00 | 00:00:00 | |
| EA3IBE | 2026-09-05 23:29:22 | 41.38691 | 2.19508 | 251° | 7km/h | 9325m | 4.6m/s | 0°C | 0% | 0hPa | 0V | 00:00:00 | 00:00:00 | 00:00:00 | |
| EA3IBE | 2026-09-05 23:29:17 | 41.38699 | 2.19520 | 215° | 15km/h | 9301m | 5.2m/s | 0°C | 0% | 0hPa | 0V | 00:00:00 | 00:00:00 | 00:00:00 | |
| EA3IBE | 2026-09-05 23:29:12 | 41.38702 | 2.19532 | 294° | 11km/h | 9281m | 6.1m/s | 0°C | 0% | 0hPa | 0V | 00:00:00 | 00:00:00 | 00:00:00 | |
| EA3GEO | 2026-09-05 23:29:11 | 41.38701 | 2.19536 | 259° | 11km/h | 9276m | 5.7m/s | 0°C | 0% | 0hPa | 0V | 00:00:00 | 00:00:00 | 00:00:00 | |
| EA3IBE | 2026-09-05 23:29:06 | 41.38705 | 2.19552 | 0° | 0km/h | 9242m | 5.9m/s | 0°C | 0% | 0hPa | 0V | 00:00:00 | 00:00:00 | 00:00:00 | |
| EA3GEO | 2026-09-05 23:29:05 | 41.38705 | 2.19553 | 0° | 0km/h | 9236m | 4.9m/s | 0°C | 0% | 0hPa | 0V | 00:00:00 | 00:00:00 | 00:00:00 | |
| EA3GEO | 2026-09-05 23:29:00 | 41.38704 | 2.19568 | 216° | 9km/h | 9215m | 7.6m/s | 0°C | 0% | 0hPa | 0V | 00:00:00 | 00:00:00 | 00:00:00 | |
| EA3IBE | 2026-09-05 23:28:59 | 41.38705 | 2.19569 | 197° | 7km/h | 9208m | 7.9m/s | 0°C | 0% | 0hPa | 0V | 00:00:00 | 00:00:00 | 00:00:00 | |
| EA3GEO | 2026-09-05 23:28:55 | 41.38708 | 2.19575 | 296° | 9km/h | 9178m | 8.1m/s | 0°C | 0% | 0hPa | 0V | 00:00:00 | 00:00:00 | 00:00:00 | |
| EA3IBE | 2026-09-05 23:28:50 | 41.38700 | 2.19595 | 307° | 15km/h | 9148m | 4.9m/s | 0°C | 0% | 0hPa | 0V | 00:00:00 | 00:00:00 | 00:00:00 | |
| EA3GEO | 2026-09-05 23:28:49 | 41.38698 | 2.19599 | 308° | 15km/h | 9142m | 5.4m/s | 0°C | 0% | 0hPa | 0V | 00:00:00 | 00:00:00 | 00:00:00 | |
| EA3IBE | 2026-09-05 23:28:44 | 41.38695 | 2.19613 | 336° | 9km/h | 9121m | 5.0m/s | 0°C | 0% | 0hPa | 0V | 00:00:00 | 00:00:00 | 00:00:00 | |
| EA3GEO | 2026-09-05 23:28:43 | 41.38693 | 2.19615 | 323° | 9km/h | 9116m | 4.2m/s | 0°C | 0% | 0hPa | 0V | 00:00:00 | 00:00:00 | 00:00:00 | |
| EA3GEO | 2026-09-05 23:28:38 | 41.38691 | 2.19626 | 298° | 9km/h | 9086m | 5.8m/s | 0°C | 0% | 0hPa | 0V | 00:00:00 | 00:00:00 | 00:00:00 | |
| EA3IBE | 2026-09-05 23:28:36 | 41.38689 | 2.19631 | 287° | 5km/h | 9071m | 7.7m/s | 0°C | 0% | 0hPa | 0V | 00:00:00 | 00:00:00 | 00:00:00 | |
| EA3GEO | 2026-09-05 23:28:32 | 41.38686 | 2.19643 | 307° | 13km/h | 9047m | 4.6m/s | 0°C | 0% | 0hPa | 0V | 00:00:00 | 00:00:00 | 00:00:00 | |
| EA3IBE | 2026-09-05 23:28:27 | 41.38673 | 2.19656 | 337° | 11km/h | 9024m | 6.7m/s | 0°C | 0% | 0hPa | 0V | 00:00:00 | 00:00:00 | 00:00:00 | |
| EA3IBE | 2026-09-05 23:28:22 | 41.38669 | 2.19663 | 324° | 4km/h | 8993m | 4.3m/s | 0°C | 0% | 0hPa | 0V | 00:00:00 | 00:00:00 | 00:00:00 | |
| EA3GEO | 2026-09-05 23:28:21 | 41.38667 | 2.19663 | 348° | 7km/h | 8988m | 5.6m/s | 0°C | 0% | 0hPa | 0V | 00:00:00 | 00:00:00 | 00:00:00 | |
| EA3IBE | 2026-09-05 23:28:16 | 41.38656 | 2.19675 | 325° | 5km/h | 8964m | 3.0m/s | 0°C | 0% | 0hPa | 0V | 00:00:00 | 00:00:00 | 00:00:00 | |
| EA3GEO | 2026-09-05 23:28:15 | 41.38655 | 2.19675 | 321° | 4km/h | 8960m | 4.2m/s | 0°C | 0% | 0hPa | 0V | 00:00:00 | 00:00:00 | 00:00:00 | |
| EA3IBE | 2026-09-05 23:28:09 | 41.38652 | 2.19684 | 324° | 7km/h | 8922m | 7.2m/s | 0°C | 0% | 0hPa | 0V | 00:00:00 | 00:00:00 | 00:00:00 | |
| EA3IBE | 2026-09-05 23:28:03 | 41.38652 | 2.19688 | 234° | 5km/h | 8887m | 4.3m/s | 0°C | 0% | 0hPa | 0V | 00:00:00 | 00:00:00 | 00:00:00 | |
| EA3GEO | 2026-09-05 23:27:58 | 41.38642 | 2.19697 | 360° | 15km/h | 8859m | 5.9m/s | 0°C | 0% | 0hPa | 0V | 00:00:00 | 00:00:00 | 00:00:00 | |
| EA3IBE | 2026-09-05 23:27:57 | 41.38638 | 2.19697 | 4° | 15km/h | 8854m | 5.2m/s | 0°C | 0% | 0hPa | 0V | 00:00:00 | 00:00:00 | 00:00:00 | |
| EA3IBE | 2026-09-05 23:27:52 | 41.38633 | 2.19703 | 272° | 5km/h | 8830m | 3.4m/s | 0°C | 0% | 0hPa | 0V | 00:00:00 | 00:00:00 | 00:00:00 | |
| EA3GEO | 2026-09-05 23:27:47 | 41.38638 | 2.19708 | 0° | 0km/h | 8804m | 5.0m/s | 0°C | 0% | 0hPa | 0V | 00:00:00 | 00:00:00 | 00:00:00 | |
| EA3IBE | 2026-09-05 23:27:46 | 41.38637 | 2.19708 | 5° | 7km/h | 8801m | 3.1m/s | 0°C | 0% | 0hPa | 0V | 00:00:00 | 00:00:00 | 00:00:00 | |
| EA3GEO | 2026-09-05 23:27:42 | 41.38631 | 2.19713 | 19° | 2km/h | 8777m | 5.8m/s | 0°C | 0% | 0hPa | 0V | 00:00:00 | 00:00:00 | 00:00:00 | |
| EA3IBE | 2026-09-05 23:27:40 | 41.38631 | 2.19713 | 196° | 7km/h | 8767m | 6.3m/s | 0°C | 0% | 0hPa | 0V | 00:00:00 | 00:00:00 | 00:00:00 | |
| EA3GEO | 2026-09-05 23:27:37 | 41.38636 | 2.19719 | 227° | 4km/h | 8750m | 6.3m/s | 0°C | 0% | 0hPa | 0V | 00:00:00 | 00:00:00 | 00:00:00 | |
| EA3IBE | 2026-09-05 23:27:34 | 41.38634 | 2.19718 | 360° | 5km/h | 8730m | 7.6m/s | 0°C | 0% | 0hPa | 0V | 00:00:00 | 00:00:00 | 00:00:00 | |
| EA3GEO | 2026-09-05 23:27:31 | 41.38628 | 2.19723 | 320° | 11km/h | 8708m | 4.5m/s | 0°C | 0% | 0hPa | 0V | 00:00:00 | 00:00:00 | 00:00:00 | |
| EA3GEO | 2026-09-05 23:27:26 | 41.38619 | 2.19729 | 36° | 11km/h | 8679m | 4.0m/s | 0°C | 0% | 0hPa | 0V | 00:00:00 | 00:00:00 | 00:00:00 | |
| EA3IBE | 2026-09-05 23:27:21 | 41.38609 | 2.19728 | 19° | 5km/h | 8654m | 3.5m/s | 0°C | 0% | 0hPa | 0V | 00:00:00 | 00:00:00 | 00:00:00 | |
| EA3GEO | 2026-09-05 23:27:20 | 41.38608 | 2.19727 | 74° | 9km/h | 8650m | 4.1m/s | 0°C | 0% | 0hPa | 0V | 00:00:00 | 00:00:00 | 00:00:00 | |
| EA3GEO | 2026-09-05 23:27:15 | 41.38605 | 2.19714 | 57° | 9km/h | 8628m | 5.0m/s | 0°C | 0% | 0hPa | 0V | 00:00:00 | 00:00:00 | 00:00:00 | |
| EA3GEO | 2026-09-05 23:27:09 | 41.38597 | 2.19697 | 78° | 13km/h | 8598m | 8.2m/s | 0°C | 0% | 0hPa | 0V | 00:00:00 | 00:00:00 | 00:00:00 | |
| EA3GEO | 2026-09-05 23:27:03 | 41.38591 | 2.19679 | 56° | 7km/h | 8555m | 6.5m/s | 0°C | 0% | 0hPa | 0V | 00:00:00 | 00:00:00 | 00:00:00 | |
| EA3GEO | 2026-09-05 23:26:57 | 41.38589 | 2.19663 | 8° | 9km/h | 8525m | 4.2m/s | 0°C | 0% | 0hPa | 0V | 00:00:00 | 00:00:00 | 00:00:00 | |
| EA3GEO | 2026-09-05 23:26:52 | 41.38579 | 2.19653 | 87° | 11km/h | 8505m | 5.8m/s | 0°C | 0% | 0hPa | 0V | 00:00:00 | 00:00:00 | 00:00:00 | |
| EA3GEO | 2026-09-05 23:26:47 | 41.38577 | 2.19643 | 351° | 4km/h | 8478m | 6.6m/s | 0°C | 0% | 0hPa | 0V | 00:00:00 | 00:00:00 | 00:00:00 | |
| EA3IBE | 2026-09-05 23:26:42 | 41.38569 | 2.19643 | 60° | 4km/h | 8448m | 8.9m/s | 0°C | 0% | 0hPa | 0V | 00:00:00 | 00:00:00 | 00:00:00 | |
| EA3GEO | 2026-09-05 23:26:41 | 41.38568 | 2.19642 | 30° | 7km/h | 8440m | 7.2m/s | 0°C | 0% | 0hPa | 0V | 00:00:00 | 00:00:00 | 00:00:00 | |
| EA3GEO | 2026-09-05 23:26:35 | 41.38563 | 2.19639 | 357° | 7km/h | 8405m | 4.0m/s | 0°C | 0% | 0hPa | 0V | 00:00:00 | 00:00:00 | 00:00:00 | |
| EA3IBE | 2026-09-05 23:26:34 | 41.38560 | 2.19638 | 24° | 9km/h | 8402m | 3.3m/s | 0°C | 0% | 0hPa | 0V | 00:00:00 | 00:00:00 | 00:00:00 | |
| EA3IBE | 2026-09-05 23:26:29 | 41.38555 | 2.19629 | 34° | 4km/h | 8382m | 6.2m/s | 0°C | 0% | 0hPa | 0V | 00:00:00 | 00:00:00 | 00:00:00 | |
| EA3GEO | 2026-09-05 23:26:23 | 41.38540 | 2.19620 | 13° | 13km/h | 8352m | 9.4m/s | 0°C | 0% | 0hPa | 0V | 00:00:00 | 00:00:00 | 00:00:00 | |
| EA3IBE | 2026-09-05 23:26:21 | 41.38535 | 2.19616 | 25° | 7km/h | 8337m | 8.7m/s | 0°C | 0% | 0hPa | 0V | 00:00:00 | 00:00:00 | 00:00:00 | |
| EA3GEO | 2026-09-05 23:26:18 | 41.38528 | 2.19613 | 355° | 13km/h | 8308m | 7.4m/s | 0°C | 0% | 0hPa | 0V | 00:00:00 | 00:00:00 | 00:00:00 | |
| EA3IBE | 2026-09-05 23:26:12 | 41.38512 | 2.19607 | 43° | 11km/h | 8279m | 7.5m/s | 0°C | 0% | 0hPa | 0V | 00:00:00 | 00:00:00 | 00:00:00 | |
| EA3IBE | 2026-09-05 23:26:06 | 41.38497 | 2.19601 | 357° | 9km/h | 8240m | 5.0m/s | 0°C | 0% | 0hPa | 0V | 00:00:00 | 00:00:00 | 00:00:00 | |
| EA3IBE | 2026-09-05 23:26:00 | 41.38482 | 2.19594 | 5° | 11km/h | 8212m | 3.3m/s | 0°C | 0% | 0hPa | 0V | 00:00:00 | 00:00:00 | 00:00:00 | |
| EA3IBE | 2026-09-05 23:25:55 | 41.38475 | 2.19585 | 18° | 4km/h | 8194m | 4.1m/s | 0°C | 0% | 0hPa | 0V | 00:00:00 | 00:00:00 | 00:00:00 | |
| EA3IBE | 2026-09-05 23:25:49 | 41.38469 | 2.19585 | 339° | 5km/h | 8164m | 7.7m/s | 0°C | 0% | 0hPa | 0V | 00:00:00 | 00:00:00 | 00:00:00 | |
| EA3IBE | 2026-09-05 23:25:43 | 41.38446 | 2.19575 | 37° | 9km/h | 8128m | 6.4m/s | 0°C | 0% | 0hPa | 0V | 00:00:00 | 00:00:00 | 00:00:00 | |
| EA3GEO | 2026-09-05 23:25:38 | 41.38444 | 2.19569 | 360° | 4km/h | 8105m | 6.4m/s | 0°C | 0% | 0hPa | 0V | 00:00:00 | 00:00:00 | 00:00:00 | |
| EA3IBE | 2026-09-05 23:25:37 | 41.38442 | 2.19570 | 338° | 9km/h | 8101m | 6.3m/s | 0°C | 0% | 0hPa | 0V | 00:00:00 | 00:00:00 | 00:00:00 | |
| EA3GEO | 2026-09-05 23:25:33 | 41.38429 | 2.19566 | 21° | 16km/h | 8077m | 7.2m/s | 0°C | 0% | 0hPa | 0V | 00:00:00 | 00:00:00 | 00:00:00 | |
| EA3IBE | 2026-09-05 23:25:32 | 41.38426 | 2.19564 | 47° | 11km/h | 8070m | 9.1m/s | 0°C | 0% | 0hPa | 0V | 00:00:00 | 00:00:00 | 00:00:00 | |
| EA3IBE | 2026-09-05 23:25:26 | 41.38414 | 2.19553 | 24° | 16km/h | 8031m | 6.5m/s | 0°C | 0% | 0hPa | 0V | 00:00:00 | 00:00:00 | 00:00:00 | |
| EA3GEO | 2026-09-05 23:25:23 | 41.38404 | 2.19543 | 52° | 16km/h | 8015m | 5.1m/s | 0°C | 0% | 0hPa | 0V | 00:00:00 | 00:00:00 | 00:00:00 | |
| EA3IBE | 2026-09-05 23:25:20 | 41.38394 | 2.19528 | 48° | 26km/h | 7996m | 6.0m/s | 0°C | 0% | 0hPa | 0V | 00:00:00 | 00:00:00 | 00:00:00 | |
| EA3GEO | 2026-09-05 23:25:17 | 41.38385 | 2.19509 | 70° | 18km/h | 7983m | 5.8m/s | 0°C | 0% | 0hPa | 0V | 00:00:00 | 00:00:00 | 00:00:00 | |
| EA3IBE | 2026-09-05 23:25:15 | 41.38380 | 2.19495 | 71° | 15km/h | 7968m | 7.0m/s | 0°C | 0% | 0hPa | 0V | 00:00:00 | 00:00:00 | 00:00:00 | |
| EA3GEO | 2026-09-05 23:25:11 | 41.38379 | 2.19479 | 87° | 16km/h | 7949m | 4.6m/s | 0°C | 0% | 0hPa | 0V | 00:00:00 | 00:00:00 | 00:00:00 | |
| EA3IBE | 2026-09-05 23:25:09 | 41.38377 | 2.19466 | 84° | 18km/h | 7939m | 6.8m/s | 0°C | 0% | 0hPa | 0V | 00:00:00 | 00:00:00 | 00:00:00 | |
| EA3GEO | 2026-09-05 23:25:05 | 41.38376 | 2.19445 | 77° | 11km/h | 7920m | 7.8m/s | 0°C | 0% | 0hPa | 0V | 00:00:00 | 00:00:00 | 00:00:00 | |
| EA3GEO | 2026-09-05 23:25:00 | 41.38371 | 2.19421 | 78° | 18km/h | 7893m | 7.4m/s | 0°C | 0% | 0hPa | 0V | 00:00:00 | 00:00:00 | 00:00:00 | |
| EA3IBE | 2026-09-05 23:24:58 | 41.38369 | 2.19412 | 97° | 13km/h | 7880m | 7.6m/s | 0°C | 0% | 0hPa | 0V | 00:00:00 | 00:00:00 | 00:00:00 | |
| EA3GEO | 2026-09-05 23:24:54 | 41.38366 | 2.19396 | 60° | 13km/h | 7857m | 7.8m/s | 0°C | 0% | 0hPa | 0V | 00:00:00 | 00:00:00 | 00:00:00 | |
| EA3IBE | 2026-09-05 23:24:52 | 41.38363 | 2.19388 | 80° | 13km/h | 7844m | 7.5m/s | 0°C | 0% | 0hPa | 0V | 00:00:00 | 00:00:00 | 00:00:00 | |
| EA3GEO | 2026-09-05 23:24:48 | 41.38355 | 2.19370 | 57° | 15km/h | 7818m | 9.0m/s | 0°C | 0% | 0hPa | 0V | 00:00:00 | 00:00:00 | 00:00:00 | |
| EA3IBE | 2026-09-05 23:24:47 | 41.38353 | 2.19365 | 65° | 18km/h | 7813m | 5.5m/s | 0°C | 0% | 0hPa | 0V | 00:00:00 | 00:00:00 | 00:00:00 | |
| EA3GEO | 2026-09-05 23:24:42 | 41.38343 | 2.19346 | 55° | 11km/h | 7786m | 6.7m/s | 0°C | 0% | 0hPa | 0V | 00:00:00 | 00:00:00 | 00:00:00 | |
| EA3IBE | 2026-09-05 23:24:41 | 41.38341 | 2.19342 | 67° | 16km/h | 7780m | 6.6m/s | 0°C | 0% | 0hPa | 0V | 00:00:00 | 00:00:00 | 00:00:00 | |
| EA3IBE | 2026-09-05 23:24:35 | 41.38330 | 2.19309 | 99° | 20km/h | 7743m | 5.6m/s | 0°C | 0% | 0hPa | 0V | 00:00:00 | 00:00:00 | 00:00:00 | |
| EA3GEO | 2026-09-05 23:24:31 | 41.38325 | 2.19283 | 55° | 26km/h | 7719m | 6.8m/s | 0°C | 0% | 0hPa | 0V | 00:00:00 | 00:00:00 | 00:00:00 | |
| EA3IBE | 2026-09-05 23:24:29 | 41.38319 | 2.19270 | 73° | 20km/h | 7708m | 5.2m/s | 0°C | 0% | 0hPa | 0V | 00:00:00 | 00:00:00 | 00:00:00 | |
| EA3GEO | 2026-09-05 23:24:26 | 41.38317 | 2.19250 | 92° | 20km/h | 7693m | 5.7m/s | 0°C | 0% | 0hPa | 0V | 00:00:00 | 00:00:00 | 00:00:00 | |
| EA3IBE | 2026-09-05 23:24:21 | 41.38310 | 2.19215 | 77° | 26km/h | 7665m | 7.9m/s | 0°C | 0% | 0hPa | 0V | 00:00:00 | 00:00:00 | 00:00:00 | |
| EA3GEO | 2026-09-05 23:24:18 | 41.38310 | 2.19192 | 111° | 20km/h | 7641m | 7.7m/s | 0°C | 0% | 0hPa | 0V | 00:00:00 | 00:00:00 | 00:00:00 | |
| EA3IBE | 2026-09-05 23:24:14 | 41.38316 | 2.19165 | 86° | 24km/h | 7615m | 5.9m/s | 0°C | 0% | 0hPa | 0V | 00:00:00 | 00:00:00 | 00:00:00 | |
| EA3GEO | 2026-09-05 23:24:13 | 41.38314 | 2.19158 | 72° | 22km/h | 7609m | 6.8m/s | 0°C | 0% | 0hPa | 0V | 00:00:00 | 00:00:00 | 00:00:00 | |
| EA3IBE | 2026-09-05 23:24:07 | 41.38304 | 2.19122 | 92° | 20km/h | 7582m | 4.4m/s | 0°C | 0% | 0hPa | 0V | 00:00:00 | 00:00:00 | 00:00:00 | |
| EA3GEO | 2026-09-05 23:24:02 | 41.38299 | 2.19088 | 63° | 15km/h | 7562m | 4.1m/s | 0°C | 0% | 0hPa | 0V | 00:00:00 | 00:00:00 | 00:00:00 | |
| EA3IBE | 2026-09-05 23:23:59 | 41.38297 | 2.19072 | 89° | 20km/h | 7549m | 3.4m/s | 0°C | 0% | 0hPa | 0V | 00:00:00 | 00:00:00 | 00:00:00 | |
| EA3GEO | 2026-09-05 23:23:56 | 41.38296 | 2.19055 | 95° | 13km/h | 7537m | 3.9m/s | 0°C | 0% | 0hPa | 0V | 00:00:00 | 00:00:00 | 00:00:00 | |
| EA3IBE | 2026-09-05 23:23:54 | 41.38297 | 2.19046 | 86° | 16km/h | 7528m | 4.1m/s | 0°C | 0% | 0hPa | 0V | 00:00:00 | 00:00:00 | 00:00:00 | |
| EA3GEO | 2026-09-05 23:23:51 | 41.38298 | 2.19026 | 92° | 18km/h | 7514m | 5.2m/s | 0°C | 0% | 0hPa | 0V | 00:00:00 | 00:00:00 | 00:00:00 | |
| EA3IBE | 2026-09-05 23:23:47 | 41.38290 | 2.19005 | 68° | 20km/h | 7498m | 4.7m/s | 0°C | 0% | 0hPa | 0V | 00:00:00 | 00:00:00 | 00:00:00 | |
| EA3GEO | 2026-09-05 23:23:45 | 41.38287 | 2.18993 | 78° | 22km/h | 7487m | 6.6m/s | 0°C | 0% | 0hPa | 0V | 00:00:00 | 00:00:00 | 00:00:00 | |
| EA3IBE | 2026-09-05 23:23:41 | 41.38277 | 2.18968 | 61° | 35km/h | 7462m | 4.5m/s | 0°C | 0% | 0hPa | 0V | 00:00:00 | 00:00:00 | 00:00:00 | |
| EA3GEO | 2026-09-05 23:23:36 | 41.38268 | 2.18923 | 91° | 18km/h | 7441m | 5.4m/s | 0°C | 0% | 0hPa | 0V | 00:00:00 | 00:00:00 | 00:00:00 | |
| EA3IBE | 2026-09-05 23:23:35 | 41.38268 | 2.18918 | 80° | 11km/h | 7435m | 7.5m/s | 0°C | 0% | 0hPa | 0V | 00:00:00 | 00:00:00 | 00:00:00 | |
| EA3GEO | 2026-09-05 23:23:30 | 41.38255 | 2.18892 | 85° | 20km/h | 7403m | 5.4m/s | 0°C | 0% | 0hPa | 0V | 00:00:00 | 00:00:00 | 00:00:00 | |
| EA3IBE | 2026-09-05 23:23:28 | 41.38256 | 2.18877 | 100° | 27km/h | 7391m | 4.6m/s | 0°C | 0% | 0hPa | 0V | 00:00:00 | 00:00:00 | 00:00:00 | |
| EA3GEO | 2026-09-05 23:23:24 | 41.38261 | 2.18842 | 80° | 20km/h | 7372m | 4.4m/s | 0°C | 0% | 0hPa | 0V | 00:00:00 | 00:00:00 | 00:00:00 | |
| EA3IBE | 2026-09-05 23:23:23 | 41.38260 | 2.18834 | 68° | 24km/h | 7367m | 6.0m/s | 0°C | 0% | 0hPa | 0V | 00:00:00 | 00:00:00 | 00:00:00 | |
| EA3GEO | 2026-09-05 23:23:18 | 41.38243 | 2.18795 | 64° | 29km/h | 7346m | 5.7m/s | 0°C | 0% | 0hPa | 0V | 00:00:00 | 00:00:00 | 00:00:00 | |
| EA3IBE | 2026-09-05 23:23:17 | 41.38240 | 2.18785 | 79° | 35km/h | 7341m | 4.8m/s | 0°C | 0% | 0hPa | 0V | 00:00:00 | 00:00:00 | 00:00:00 | |
| EA3IBE | 2026-09-05 23:23:11 | 41.38244 | 2.18729 | 63° | 29km/h | 7310m | 6.6m/s | 0°C | 0% | 0hPa | 0V | 00:00:00 | 00:00:00 | 00:00:00 | |
| EA3GEO | 2026-09-05 23:23:09 | 41.38238 | 2.18712 | 84° | 24km/h | 7299m | 4.6m/s | 0°C | 0% | 0hPa | 0V | 00:00:00 | 00:00:00 | 00:00:00 | |
| EA3IBE | 2026-09-05 23:23:05 | 41.38246 | 2.18688 | 117° | 18km/h | 7279m | 4.4m/s | 0°C | 0% | 0hPa | 0V | 00:00:00 | 00:00:00 | 00:00:00 | |
| EA3GEO | 2026-09-05 23:23:03 | 41.38248 | 2.18676 | 103° | 15km/h | 7266m | 7.1m/s | 0°C | 0% | 0hPa | 0V | 00:00:00 | 00:00:00 | 00:00:00 | |
| EA3IBE | 2026-09-05 23:22:57 | 41.38258 | 2.18623 | 110° | 35km/h | 7233m | 3.9m/s | 0°C | 0% | 0hPa | 0V | 00:00:00 | 00:00:00 | 00:00:00 | |
| EA3GEO | 2026-09-05 23:22:52 | 41.38264 | 2.18592 | 63° | 18km/h | 7206m | 5.3m/s | 0°C | 0% | 0hPa | 0V | 00:00:00 | 00:00:00 | 00:00:00 | |
| EA3IBE | 2026-09-05 23:22:51 | 41.38261 | 2.18586 | 56° | 24km/h | 7201m | 4.3m/s | 0°C | 0% | 0hPa | 0V | 00:00:00 | 00:00:00 | 00:00:00 | |
| EA3IBE | 2026-09-05 23:22:46 | 41.38262 | 2.18545 | 88° | 37km/h | 7173m | 6.2m/s | 0°C | 0% | 0hPa | 0V | 00:00:00 | 00:00:00 | 00:00:00 | |
| EA3GEO | 2026-09-05 23:22:41 | 41.38251 | 2.18502 | 85° | 11km/h | 7147m | 4.4m/s | 0°C | 0% | 0hPa | 0V | 00:00:00 | 00:00:00 | 00:00:00 | |
| EA3GEO | 2026-09-05 23:22:35 | 41.38266 | 2.18459 | 93° | 38km/h | 7117m | 4.2m/s | 0°C | 0% | 0hPa | 0V | 00:00:00 | 00:00:00 | 00:00:00 | |
| EA3IBE | 2026-09-05 23:22:30 | 41.38269 | 2.18419 | 109° | 7km/h | 7091m | 7.5m/s | 0°C | 0% | 0hPa | 0V | 00:00:00 | 00:00:00 | 00:00:00 | |
| EA3IBE | 2026-09-05 23:22:24 | 41.38271 | 2.18395 | 88° | 18km/h | 7057m | 5.0m/s | 0°C | 0% | 0hPa | 0V | 00:00:00 | 00:00:00 | 00:00:00 | |
| EA3IBE | 2026-09-05 23:22:19 | 41.38269 | 2.18377 | 117° | 5km/h | 7034m | 4.4m/s | 0°C | 0% | 0hPa | 0V | 00:00:00 | 00:00:00 | 00:00:00 | |
| EA3GEO | 2026-09-05 23:22:16 | 41.38264 | 2.18363 | 65° | 22km/h | 7020m | 4.6m/s | 0°C | 0% | 0hPa | 0V | 00:00:00 | 00:00:00 | 00:00:00 | |
| EA3IBE | 2026-09-05 23:22:14 | 41.38261 | 2.18347 | 84° | 20km/h | 7010m | 5.5m/s | 0°C | 0% | 0hPa | 0V | 00:00:00 | 00:00:00 | 00:00:00 | |
| EA3GEO | 2026-09-05 23:22:10 | 41.38256 | 2.18326 | 84° | 16km/h | 6985m | 5.8m/s | 0°C | 0% | 0hPa | 0V | 00:00:00 | 00:00:00 | 00:00:00 | |
| EA3IBE | 2026-09-05 23:22:08 | 41.38255 | 2.18316 | 63° | 11km/h | 6976m | 4.6m/s | 0°C | 0% | 0hPa | 0V | 00:00:00 | 00:00:00 | 00:00:00 | |
| EA3GEO | 2026-09-05 23:22:05 | 41.38251 | 2.18306 | 65° | 18km/h | 6964m | 2.1m/s | 0°C | 0% | 0hPa | 0V | 00:00:00 | 00:00:00 | 00:00:00 | |
| EA3IBE | 2026-09-05 23:22:02 | 41.38246 | 2.18289 | 68° | 22km/h | 6947m | 7.5m/s | 0°C | 0% | 0hPa | 0V | 00:00:00 | 00:00:00 | 00:00:00 | |
| EA3GEO | 2026-09-05 23:21:59 | 41.38241 | 2.18267 | 69° | 22km/h | 6933m | 5.2m/s | 0°C | 0% | 0hPa | 0V | 00:00:00 | 00:00:00 | 00:00:00 | |
| EA3IBE | 2026-09-05 23:21:56 | 41.38238 | 2.18244 | 88° | 26km/h | 6915m | 4.8m/s | 0°C | 0% | 0hPa | 0V | 00:00:00 | 00:00:00 | 00:00:00 | |
| EA3GEO | 2026-09-05 23:21:53 | 41.38239 | 2.18216 | 93° | 27km/h | 6899m | 2.5m/s | 0°C | 0% | 0hPa | 0V | 00:00:00 | 00:00:00 | 00:00:00 | |
| EA3IBE | 2026-09-05 23:21:50 | 41.38244 | 2.18191 | 123° | 26km/h | 6885m | 4.0m/s | 0°C | 0% | 0hPa | 0V | 00:00:00 | 00:00:00 | 00:00:00 | |
| EA3GEO | 2026-09-05 23:21:47 | 41.38253 | 2.18169 | 118° | 24km/h | 6871m | 6.0m/s | 0°C | 0% | 0hPa | 0V | 00:00:00 | 00:00:00 | 00:00:00 | |
| EA3IBE | 2026-09-05 23:21:44 | 41.38263 | 2.18150 | 115° | 20km/h | 6855m | 5.3m/s | 0°C | 0% | 0hPa | 0V | 00:00:00 | 00:00:00 | 00:00:00 | |
| EA3GEO | 2026-09-05 23:21:42 | 41.38269 | 2.18136 | 129° | 26km/h | 6844m | 7.3m/s | 0°C | 0% | 0hPa | 0V | 00:00:00 | 00:00:00 | 00:00:00 | |
| EA3IBE | 2026-09-05 23:21:38 | 41.38282 | 2.18117 | 121° | 9km/h | 6821m | 4.0m/s | 0°C | 0% | 0hPa | 0V | 00:00:00 | 00:00:00 | 00:00:00 | |
| EA3GEO | 2026-09-05 23:21:36 | 41.38285 | 2.18113 | 130° | 9km/h | 6812m | 4.8m/s | 0°C | 0% | 0hPa | 0V | 00:00:00 | 00:00:00 | 00:00:00 | |
| EA3IBE | 2026-09-05 23:21:33 | 41.38288 | 2.18093 | 98° | 24km/h | 6797m | 6.2m/s | 0°C | 0% | 0hPa | 0V | 00:00:00 | 00:00:00 | 00:00:00 | |
| EA3GEO | 2026-09-05 23:21:31 | 41.38290 | 2.18080 | 102° | 18km/h | 6783m | 5.9m/s | 0°C | 0% | 0hPa | 0V | 00:00:00 | 00:00:00 | 00:00:00 | |
| EA3IBE | 2026-09-05 23:21:27 | 41.38289 | 2.18058 | 91° | 24km/h | 6764m | 4.9m/s | 0°C | 0% | 0hPa | 0V | 00:00:00 | 00:00:00 | 00:00:00 | |
| EA3GEO | 2026-09-05 23:21:25 | 41.38289 | 2.18043 | 76° | 20km/h | 6754m | 7.5m/s | 0°C | 0% | 0hPa | 0V | 00:00:00 | 00:00:00 | 00:00:00 | |
| EA3IBE | 2026-09-05 23:21:21 | 41.38280 | 2.18016 | 75° | 22km/h | 6734m | 3.8m/s | 0°C | 0% | 0hPa | 0V | 00:00:00 | 00:00:00 | 00:00:00 | |
| EA3GEO | 2026-09-05 23:21:20 | 41.38279 | 2.18009 | 86° | 20km/h | 6731m | 4.1m/s | 0°C | 0% | 0hPa | 0V | 00:00:00 | 00:00:00 | 00:00:00 | |
| EA3IBE | 2026-09-05 23:21:16 | 41.38277 | 2.17977 | 79° | 31km/h | 6708m | 7.1m/s | 0°C | 0% | 0hPa | 0V | 00:00:00 | 00:00:00 | 00:00:00 | |
| EA3GEO | 2026-09-05 23:21:14 | 41.38276 | 2.17960 | 98° | 20km/h | 6697m | 4.6m/s | 0°C | 0% | 0hPa | 0V | 00:00:00 | 00:00:00 | 00:00:00 | |
| EA3IBE | 2026-09-05 23:21:10 | 41.38277 | 2.17934 | 92° | 27km/h | 6673m | 6.8m/s | 0°C | 0% | 0hPa | 0V | 00:00:00 | 00:00:00 | 00:00:00 | |
| EA3GEO | 2026-09-05 23:21:09 | 41.38277 | 2.17925 | 92° | 27km/h | 6666m | 5.3m/s | 0°C | 0% | 0hPa | 0V | 00:00:00 | 00:00:00 | 00:00:00 | |
| EA3GEO | 2026-09-05 23:21:04 | 41.38273 | 2.17886 | 79° | 20km/h | 6643m | 2.8m/s | 0°C | 0% | 0hPa | 0V | 00:00:00 | 00:00:00 | 00:00:00 | |
| EA3IBE | 2026-09-05 23:20:59 | 41.38271 | 2.17855 | 77° | 18km/h | 6621m | 3.5m/s | 0°C | 0% | 0hPa | 0V | 00:00:00 | 00:00:00 | 00:00:00 | |
| EA3GEO | 2026-09-05 23:20:58 | 41.38270 | 2.17849 | 75° | 18km/h | 6617m | 5.1m/s | 0°C | 0% | 0hPa | 0V | 00:00:00 | 00:00:00 | 00:00:00 | |
| EA3IBE | 2026-09-05 23:20:54 | 41.38266 | 2.17825 | 91° | 15km/h | 6593m | 5.9m/s | 0°C | 0% | 0hPa | 0V | 00:00:00 | 00:00:00 | 00:00:00 | |
| EA3GEO | 2026-09-05 23:20:53 | 41.38266 | 2.17819 | 86° | 18km/h | 6587m | 5.9m/s | 0°C | 0% | 0hPa | 0V | 00:00:00 | 00:00:00 | 00:00:00 | |
| EA3IBE | 2026-09-05 23:20:48 | 41.38264 | 2.17788 | 70° | 16km/h | 6562m | 6.1m/s | 0°C | 0% | 0hPa | 0V | 00:00:00 | 00:00:00 | 00:00:00 | |
| EA3GEO | 2026-09-05 23:20:47 | 41.38264 | 2.17784 | 94° | 13km/h | 6556m | 6.2m/s | 0°C | 0% | 0hPa | 0V | 00:00:00 | 00:00:00 | 00:00:00 | |
| EA3IBE | 2026-09-05 23:20:43 | 41.38256 | 2.17764 | 48° | 22km/h | 6539m | 4.4m/s | 0°C | 0% | 0hPa | 0V | 00:00:00 | 00:00:00 | 00:00:00 | |
| EA3GEO | 2026-09-05 23:20:41 | 41.38249 | 2.17752 | 66° | 22km/h | 6530m | 3.1m/s | 0°C | 0% | 0hPa | 0V | 00:00:00 | 00:00:00 | 00:00:00 | |
| EA3IBE | 2026-09-05 23:20:37 | 41.38238 | 2.17725 | 68° | 33km/h | 6512m | 3.8m/s | 0°C | 0% | 0hPa | 0V | 00:00:00 | 00:00:00 | 00:00:00 | |
| EA3IBE | 2026-09-05 23:20:31 | 41.38228 | 2.17666 | 93° | 29km/h | 6485m | 7.3m/s | 0°C | 0% | 0hPa | 0V | 00:00:00 | 00:00:00 | 00:00:00 | |
| EA3GEO | 2026-09-05 23:20:29 | 41.38230 | 2.17647 | 94° | 31km/h | 6472m | 5.2m/s | 0°C | 0% | 0hPa | 0V | 00:00:00 | 00:00:00 | 00:00:00 | |
| EA3IBE | 2026-09-05 23:20:25 | 41.38235 | 2.17610 | 111° | 24km/h | 6443m | 3.5m/s | 0°C | 0% | 0hPa | 0V | 00:00:00 | 00:00:00 | 00:00:00 | |
| EA3GEO | 2026-09-05 23:20:24 | 41.38237 | 2.17602 | 116° | 22km/h | 6439m | 3.5m/s | 0°C | 0% | 0hPa | 0V | 00:00:00 | 00:00:00 | 00:00:00 | |
| EA3IBE | 2026-09-05 23:20:19 | 41.38244 | 2.17567 | 101° | 16km/h | 6414m | 4.4m/s | 0°C | 0% | 0hPa | 0V | 00:00:00 | 00:00:00 | 00:00:00 | |
| EA3GEO | 2026-09-05 23:20:18 | 41.38245 | 2.17562 | 93° | 18km/h | 6408m | 5.8m/s | 0°C | 0% | 0hPa | 0V | 00:00:00 | 00:00:00 | 00:00:00 | |
| EA3GEO | 2026-09-05 23:20:13 | 41.38250 | 2.17532 | 119° | 22km/h | 6384m | 3.4m/s | 0°C | 0% | 0hPa | 0V | 00:00:00 | 00:00:00 | 00:00:00 | |
| EA3IBE | 2026-09-05 23:20:08 | 41.38256 | 2.17501 | 119° | 13km/h | 6363m | 4.4m/s | 0°C | 0% | 0hPa | 0V | 00:00:00 | 00:00:00 | 00:00:00 | |
| EA3GEO | 2026-09-05 23:20:07 | 41.38258 | 2.17497 | 120° | 18km/h | 6358m | 5.1m/s | 0°C | 0% | 0hPa | 0V | 00:00:00 | 00:00:00 | 00:00:00 | |
| EA3IBE | 2026-09-05 23:20:03 | 41.38265 | 2.17477 | 122° | 20km/h | 6333m | 7.3m/s | 0°C | 0% | 0hPa | 0V | 00:00:00 | 00:00:00 | 00:00:00 | |
| EA3GEO | 2026-09-05 23:20:02 | 41.38267 | 2.17471 | 108° | 18km/h | 6326m | 7.7m/s | 0°C | 0% | 0hPa | 0V | 00:00:00 | 00:00:00 | 00:00:00 | |
| EA3IBE | 2026-09-05 23:19:57 | 41.38272 | 2.17442 | 100° | 22km/h | 6301m | 2.6m/s | 0°C | 0% | 0hPa | 0V | 00:00:00 | 00:00:00 | 00:00:00 | |
| EA3GEO | 2026-09-05 23:19:56 | 41.38273 | 2.17436 | 93° | 15km/h | 6298m | 0.9m/s | 0°C | 0% | 0hPa | 0V | 00:00:00 | 00:00:00 | 00:00:00 | |
| EA3IBE | 2026-09-05 23:19:52 | 41.38278 | 2.17418 | 75° | 16km/h | 6281m | 1.8m/s | 0°C | 0% | 0hPa | 0V | 00:00:00 | 00:00:00 | 00:00:00 | |
| EA3GEO | 2026-09-05 23:19:50 | 41.38278 | 2.17409 | 96° | 13km/h | 6273m | 5.0m/s | 0°C | 0% | 0hPa | 0V | 00:00:00 | 00:00:00 | 00:00:00 | |
| EA3IBE | 2026-09-05 23:19:47 | 41.38279 | 2.17397 | 86° | 13km/h | 6256m | 6.6m/s | 0°C | 0% | 0hPa | 0V | 00:00:00 | 00:00:00 | 00:00:00 | |
| EA3GEO | 2026-09-05 23:19:44 | 41.38280 | 2.17384 | 90° | 16km/h | 6236m | 6.6m/s | 0°C | 0% | 0hPa | 0V | 00:00:00 | 00:00:00 | 00:00:00 | |
| EA3IBE | 2026-09-05 23:19:41 | 41.38285 | 2.17374 | 156° | 16km/h | 6218m | 3.6m/s | 0°C | 0% | 0hPa | 0V | 00:00:00 | 00:00:00 | 00:00:00 | |
| EA3GEO | 2026-09-05 23:19:38 | 41.38292 | 2.17360 | 97° | 18km/h | 6207m | 4.8m/s | 0°C | 0% | 0hPa | 0V | 00:00:00 | 00:00:00 | 00:00:00 | |
| EA3IBE | 2026-09-05 23:19:35 | 41.38295 | 2.17344 | 125° | 18km/h | 6189m | 4.7m/s | 0°C | 0% | 0hPa | 0V | 00:00:00 | 00:00:00 | 00:00:00 | |
| EA3GEO | 2026-09-05 23:19:32 | 41.38305 | 2.17331 | 123° | 13km/h | 6172m | 3.7m/s | 0°C | 0% | 0hPa | 0V | 00:00:00 | 00:00:00 | 00:00:00 | |
| EA3IBE | 2026-09-05 23:19:30 | 41.38308 | 2.17322 | 97° | 13km/h | 6165m | 6.0m/s | 0°C | 0% | 0hPa | 0V | 00:00:00 | 00:00:00 | 00:00:00 | |
| EA3IBE | 2026-09-05 23:19:25 | 41.38314 | 2.17301 | 105° | 15km/h | 6138m | 4.3m/s | 0°C | 0% | 0hPa | 0V | 00:00:00 | 00:00:00 | 00:00:00 | |
| EA3GEO | 2026-09-05 23:19:21 | 41.38318 | 2.17275 | 78° | 18km/h | 6122m | 7.6m/s | 0°C | 0% | 0hPa | 0V | 00:00:00 | 00:00:00 | 00:00:00 | |
| EA3IBE | 2026-09-05 23:19:20 | 41.38317 | 2.17269 | 87° | 18km/h | 6115m | 6.6m/s | 0°C | 0% | 0hPa | 0V | 00:00:00 | 00:00:00 | 00:00:00 | |
| EA3GEO | 2026-09-05 23:19:15 | 41.38317 | 2.17249 | 151° | 9km/h | 6089m | 5.8m/s | 0°C | 0% | 0hPa | 0V | 00:00:00 | 00:00:00 | 00:00:00 | |
| EA3IBE | 2026-09-05 23:19:12 | 41.38321 | 2.17236 | 89° | 18km/h | 6073m | 5.9m/s | 0°C | 0% | 0hPa | 0V | 00:00:00 | 00:00:00 | 00:00:00 | |
| EA3GEO | 2026-09-05 23:19:09 | 41.38317 | 2.17215 | 90° | 24km/h | 6056m | 6.3m/s | 0°C | 0% | 0hPa | 0V | 00:00:00 | 00:00:00 | 00:00:00 | |
| EA3IBE | 2026-09-05 23:19:07 | 41.38317 | 2.17201 | 94° | 24km/h | 6044m | 6.5m/s | 0°C | 0% | 0hPa | 0V | 00:00:00 | 00:00:00 | 00:00:00 | |
| EA3GEO | 2026-09-05 23:19:04 | 41.38321 | 2.17164 | 105° | 27km/h | 6019m | 6.6m/s | 0°C | 0% | 0hPa | 0V | 00:00:00 | 00:00:00 | 00:00:00 | |
| EA3IBE | 2026-09-05 23:19:02 | 41.38323 | 2.17156 | 100° | 24km/h | 6014m | 5.9m/s | 0°C | 0% | 0hPa | 0V | 00:00:00 | 00:00:00 | 00:00:00 | |
| EA3GEO | 2026-09-05 23:18:58 | 41.38334 | 2.17131 | 129° | 24km/h | 5987m | 4.8m/s | 0°C | 0% | 0hPa | 0V | 00:00:00 | 00:00:00 | 00:00:00 | |
| EA3IBE | 2026-09-05 23:18:56 | 41.38340 | 2.17116 | 119° | 20km/h | 5977m | 5.2m/s | 0°C | 0% | 0hPa | 0V | 00:00:00 | 00:00:00 | 00:00:00 | |
| EA3GEO | 2026-09-05 23:18:52 | 41.38347 | 2.17089 | 115° | 16km/h | 5957m | 5.5m/s | 0°C | 0% | 0hPa | 0V | 00:00:00 | 00:00:00 | 00:00:00 | |
| EA3IBE | 2026-09-05 23:18:51 | 41.38349 | 2.17084 | 109° | 18km/h | 5951m | 6.2m/s | 0°C | 0% | 0hPa | 0V | 00:00:00 | 00:00:00 | 00:00:00 | |
| EA3IBE | 2026-09-05 23:18:46 | 41.38358 | 2.17060 | 107° | 16km/h | 5923m | 2.3m/s | 0°C | 0% | 0hPa | 0V | 00:00:00 | 00:00:00 | 00:00:00 | |
| EA3IBE | 2026-09-05 23:18:40 | 41.38357 | 2.17028 | 86° | 15km/h | 5902m | 4.2m/s | 0°C | 0% | 0hPa | 0V | 00:00:00 | 00:00:00 | 00:00:00 | |
| EA3IBE | 2026-09-05 23:18:35 | 41.38359 | 2.16992 | 113° | 16km/h | 5872m | 6.7m/s | 0°C | 0% | 0hPa | 0V | 00:00:00 | 00:00:00 | 00:00:00 | |
| EA3GEO | 2026-09-05 23:18:34 | 41.38360 | 2.16987 | 107° | 18km/h | 5865m | 5.4m/s | 0°C | 0% | 0hPa | 0V | 00:00:00 | 00:00:00 | 00:00:00 | |
| EA3IBE | 2026-09-05 23:18:29 | 41.38365 | 2.16954 | 105° | 33km/h | 5835m | 6.2m/s | 0°C | 0% | 0hPa | 0V | 00:00:00 | 00:00:00 | 00:00:00 | |
| EA3IBE | 2026-09-05 23:18:24 | 41.38378 | 2.16902 | 112° | 37km/h | 5815m | 7.1m/s | 0°C | 0% | 0hPa | 0V | 00:00:00 | 00:00:00 | 00:00:00 | |
| EA3GEO | 2026-09-05 23:18:23 | 41.38381 | 2.16890 | 103° | 35km/h | 5809m | 6.2m/s | 0°C | 0% | 0hPa | 0V | 00:00:00 | 00:00:00 | 00:00:00 | |
| EA3GEO | 2026-09-05 23:18:18 | 41.38388 | 2.16829 | 89° | 44km/h | 5777m | 5.9m/s | 0°C | 0% | 0hPa | 0V | 00:00:00 | 00:00:00 | 00:00:00 | |
| EA3IBE | 2026-09-05 23:18:12 | 41.38398 | 2.16763 | 102° | 33km/h | 5745m | 5.0m/s | 0°C | 0% | 0hPa | 0V | 00:00:00 | 00:00:00 | 00:00:00 | |
| EA3IBE | 2026-09-05 23:18:07 | 41.38410 | 2.16705 | 118° | 26km/h | 5720m | 4.5m/s | 0°C | 0% | 0hPa | 0V | 00:00:00 | 00:00:00 | 00:00:00 | |
| EA3IBE | 2026-09-05 23:18:02 | 41.38426 | 2.16653 | 108° | 38km/h | 5694m | 5.3m/s | 0°C | 0% | 0hPa | 0V | 00:00:00 | 00:00:00 | 00:00:00 | |
| EA3GEO | 2026-09-05 23:18:01 | 41.38429 | 2.16640 | 109° | 33km/h | 5688m | 5.7m/s | 0°C | 0% | 0hPa | 0V | 00:00:00 | 00:00:00 | 00:00:00 | |
| EA3GEO | 2026-09-05 23:17:56 | 41.38442 | 2.16591 | 108° | 26km/h | 5663m | 3.7m/s | 0°C | 0% | 0hPa | 0V | 00:00:00 | 00:00:00 | 00:00:00 | |
| EA3IBE | 2026-09-05 23:17:53 | 41.38451 | 2.16562 | 106° | 35km/h | 5645m | 6.3m/s | 0°C | 0% | 0hPa | 0V | 00:00:00 | 00:00:00 | 00:00:00 | |
| EA3GEO | 2026-09-05 23:17:50 | 41.38454 | 2.16531 | 105° | 24km/h | 5628m | 4.8m/s | 0°C | 0% | 0hPa | 0V | 00:00:00 | 00:00:00 | 00:00:00 | |
| EA3IBE | 2026-09-05 23:17:48 | 41.38458 | 2.16514 | 109° | 31km/h | 5617m | 4.9m/s | 0°C | 0% | 0hPa | 0V | 00:00:00 | 00:00:00 | 00:00:00 | |
| EA3GEO | 2026-09-05 23:17:45 | 41.38460 | 2.16485 | 90° | 24km/h | 5601m | 6.8m/s | 0°C | 0% | 0hPa | 0V | 00:00:00 | 00:00:00 | 00:00:00 | |
| EA3IBE | 2026-09-05 23:17:43 | 41.38458 | 2.16470 | 81° | 20km/h | 5589m | 5.5m/s | 0°C | 0% | 0hPa | 0V | 00:00:00 | 00:00:00 | 00:00:00 | |
| EA3GEO | 2026-09-05 23:17:40 | 41.38456 | 2.16449 | 83° | 20km/h | 5575m | 4.8m/s | 0°C | 0% | 0hPa | 0V | 00:00:00 | 00:00:00 | 00:00:00 | |
| EA3IBE | 2026-09-05 23:17:38 | 41.38453 | 2.16437 | 69° | 18km/h | 5564m | 7.4m/s | 0°C | 0% | 0hPa | 0V | 00:00:00 | 00:00:00 | 00:00:00 | |
| EA3GEO | 2026-09-05 23:17:34 | 41.38440 | 2.16409 | 66° | 29km/h | 5539m | 2.6m/s | 0°C | 0% | 0hPa | 0V | 00:00:00 | 00:00:00 | 00:00:00 | |
| EA3IBE | 2026-09-05 23:17:31 | 41.38431 | 2.16391 | 94° | 16km/h | 5524m | 4.8m/s | 0°C | 0% | 0hPa | 0V | 00:00:00 | 00:00:00 | 00:00:00 | |
| EA3GEO | 2026-09-05 23:17:29 | 41.38432 | 2.16379 | 105° | 20km/h | 5513m | 5.5m/s | 0°C | 0% | 0hPa | 0V | 00:00:00 | 00:00:00 | 00:00:00 | |
| EA3IBE | 2026-09-05 23:17:26 | 41.38428 | 2.16356 | 50° | 27km/h | 5496m | 3.7m/s | 0°C | 0% | 0hPa | 0V | 00:00:00 | 00:00:00 | 00:00:00 | |
| EA3GEO | 2026-09-05 23:17:23 | 41.38416 | 2.16344 | 29° | 7km/h | 5488m | 5.4m/s | 0°C | 0% | 0hPa | 0V | 00:00:00 | 00:00:00 | 00:00:00 | |
| EA3GEO | 2026-09-05 23:17:22 | 41.38427 | 2.16317 | 111° | 16km/h | 5450m | 7.6m/s | 0°C | 0% | 0hPa | 0V | 00:00:00 | 00:00:00 | 00:00:00 | |
| EA3IBE | 2026-09-05 23:17:21 | 41.38428 | 2.16309 | 86° | 9km/h | 5438m | 4.5m/s | 0°C | 0% | 0hPa | 0V | 00:00:00 | 00:00:00 | 00:00:00 | |
| EA3GEO | 2026-09-05 23:17:20 | 41.38431 | 2.16293 | 120° | 24km/h | 5420m | 5.2m/s | 0°C | 0% | 0hPa | 0V | 00:00:00 | 00:00:00 | 00:00:00 | |
| EA3IBE | 2026-09-05 23:17:18 | 41.38440 | 2.16275 | 117° | 37km/h | 5410m | 2.9m/s | 0°C | 0% | 0hPa | 0V | 00:00:00 | 00:00:00 | 00:00:00 | |
| EA3GEO | 2026-09-05 23:17:15 | 41.38445 | 2.16243 | 120° | 9km/h | 5390m | 5.6m/s | 0°C | 0% | 0hPa | 0V | 00:00:00 | 00:00:00 | 00:00:00 | |
| EA3IBE | 2026-09-05 23:17:11 | 41.38445 | 2.16241 | 126° | 9km/h | 5383m | 6.6m/s | 0°C | 0% | 0hPa | 0V | 00:00:00 | 00:00:00 | 00:00:00 | |
| EA3IBE | 2026-09-05 23:16:54 | 41.38454 | 2.16196 | 99° | 16km/h | 5322m | 5.9m/s | 0°C | 0% | 0hPa | 0V | 00:00:00 | 00:00:00 | 00:00:00 | |
| EA3GEO | 2026-09-05 23:16:53 | 41.38454 | 2.16190 | 91° | 20km/h | 5315m | 7.4m/s | 0°C | 0% | 0hPa | 0V | 00:00:00 | 00:00:00 | 00:00:00 | |
| EA3GEO | 2026-09-05 23:16:48 | 41.38451 | 2.16160 | 150° | 15km/h | 5285m | 5.8m/s | 0°C | 0% | 0hPa | 0V | 00:00:00 | 00:00:00 | 00:00:00 | |
| EA3IBE | 2026-09-05 23:16:42 | 41.38467 | 2.16118 | 77° | 20km/h | 5259m | 7.5m/s | 0°C | 0% | 0hPa | 0V | 00:00:00 | 00:00:00 | 00:00:00 | |
| EA3IBE | 2026-09-05 23:16:37 | 41.38473 | 2.16088 | 120° | 22km/h | 5225m | 6.9m/s | 0°C | 0% | 0hPa | 0V | 00:00:00 | 00:00:00 | 00:00:00 | |
| EA3GEO | 2026-09-05 23:16:36 | 41.38476 | 2.16081 | 117° | 18km/h | 5218m | 5.8m/s | 0°C | 0% | 0hPa | 0V | 00:00:00 | 00:00:00 | 00:00:00 | |
| EA3IBE | 2026-09-05 23:16:30 | 41.38492 | 2.16057 | 158° | 11km/h | 5179m | 6.7m/s | 0°C | 0% | 0hPa | 0V | 00:00:00 | 00:00:00 | 00:00:00 | |
| EA3GEO | 2026-09-05 23:16:25 | 41.38503 | 2.16043 | 123° | 15km/h | 5153m | 5.4m/s | 0°C | 0% | 0hPa | 0V | 00:00:00 | 00:00:00 | 00:00:00 | |
| EA3IBE | 2026-09-05 23:16:24 | 41.38505 | 2.16039 | 136° | 13km/h | 5146m | 6.9m/s | 0°C | 0% | 0hPa | 0V | 00:00:00 | 00:00:00 | 00:00:00 | |
| EA3GEO | 2026-09-05 23:16:20 | 41.38516 | 2.16030 | 132° | 9km/h | 5123m | 3.6m/s | 0°C | 0% | 0hPa | 0V | 00:00:00 | 00:00:00 | 00:00:00 | |
| EA3IBE | 2026-09-05 23:16:18 | 41.38517 | 2.16024 | 98° | 11km/h | 5114m | 5.2m/s | 0°C | 0% | 0hPa | 0V | 00:00:00 | 00:00:00 | 00:00:00 | |
| EA3GEO | 2026-09-05 23:16:14 | 41.38523 | 2.16010 | 152° | 15km/h | 5097m | 3.1m/s | 0°C | 0% | 0hPa | 0V | 00:00:00 | 00:00:00 | 00:00:00 | |
| EA3IBE | 2026-09-05 23:16:13 | 41.38526 | 2.16009 | 162° | 11km/h | 5093m | 3.5m/s | 0°C | 0% | 0hPa | 0V | 00:00:00 | 00:00:00 | 00:00:00 | |
| EA3GEO | 2026-09-05 23:16:09 | 41.38527 | 2.16000 | 59° | 16km/h | 5077m | 5.2m/s | 0°C | 0% | 0hPa | 0V | 00:00:00 | 00:00:00 | 00:00:00 | |
| EA3IBE | 2026-09-05 23:16:08 | 41.38525 | 2.15994 | 82° | 18km/h | 5071m | 7.7m/s | 0°C | 0% | 0hPa | 0V | 00:00:00 | 00:00:00 | 00:00:00 | |
| EA3GEO | 2026-09-05 23:16:03 | 41.38520 | 2.15961 | 80° | 22km/h | 5035m | 5.6m/s | 0°C | 0% | 0hPa | 0V | 00:00:00 | 00:00:00 | 00:00:00 | |
| EA3IBE | 2026-09-05 23:16:02 | 41.38519 | 2.15955 | 82° | 16km/h | 5029m | 4.7m/s | 0°C | 0% | 0hPa | 0V | 00:00:00 | 00:00:00 | 00:00:00 | |
| EA3IBE | 2026-09-05 23:15:57 | 41.38530 | 2.15913 | 108° | 27km/h | 5006m | 3.0m/s | 0°C | 0% | 0hPa | 0V | 00:00:00 | 00:00:00 | 00:00:00 | |
| EA3IBE | 2026-09-05 23:15:51 | 41.38543 | 2.15860 | 105° | 24km/h | 4974m | 3.9m/s | 0°C | 0% | 0hPa | 0V | 00:00:00 | 00:00:00 | 00:00:00 | |
| EA3GEO | 2026-09-05 23:15:46 | 41.38562 | 2.15838 | 143° | 20km/h | 4951m | 3.4m/s | 0°C | 0% | 0hPa | 0V | 00:00:00 | 00:00:00 | 00:00:00 | |
| EA3IBE | 2026-09-05 23:15:45 | 41.38565 | 2.15833 | 122° | 24km/h | 4948m | 3.8m/s | 0°C | 0% | 0hPa | 0V | 00:00:00 | 00:00:00 | 00:00:00 | |
| EA3IBE | 2026-09-05 23:15:40 | 41.38574 | 2.15786 | 115° | 29km/h | 4926m | 3.5m/s | 0°C | 0% | 0hPa | 0V | 00:00:00 | 00:00:00 | 00:00:00 | |
| EA3GEO | 2026-09-05 23:15:35 | 41.38587 | 2.15753 | 139° | 27km/h | 4893m | 7.1m/s | 0°C | 0% | 0hPa | 0V | 00:00:00 | 00:00:00 | 00:00:00 | |
| EA3IBE | 2026-09-05 23:15:30 | 41.38614 | 2.15724 | 138° | 20km/h | 4865m | 4.8m/s | 0°C | 0% | 0hPa | 0V | 00:00:00 | 00:00:00 | 00:00:00 | |
| EA3GEO | 2026-09-05 23:15:29 | 41.38619 | 2.15720 | 161° | 24km/h | 4859m | 5.9m/s | 0°C | 0% | 0hPa | 0V | 00:00:00 | 00:00:00 | 00:00:00 | |
| EA3IBE | 2026-09-05 23:15:24 | 41.38643 | 2.15702 | 121° | 20km/h | 4830m | 5.0m/s | 0°C | 0% | 0hPa | 0V | 00:00:00 | 00:00:00 | 00:00:00 | |
| EA3GEO | 2026-09-05 23:15:23 | 41.38646 | 2.15696 | 106° | 20km/h | 4824m | 5.2m/s | 0°C | 0% | 0hPa | 0V | 00:00:00 | 00:00:00 | 00:00:00 | |
| EA3IBE | 2026-09-05 23:15:19 | 41.38649 | 2.15669 | 96° | 18km/h | 4802m | 5.8m/s | 0°C | 0% | 0hPa | 0V | 00:00:00 | 00:00:00 | 00:00:00 | |
| EA3GEO | 2026-09-05 23:15:18 | 41.38650 | 2.15663 | 103° | 22km/h | 4798m | 3.7m/s | 0°C | 0% | 0hPa | 0V | 00:00:00 | 00:00:00 | 00:00:00 | |
| EA3IBE | 2026-09-05 23:15:14 | 41.38663 | 2.15628 | 121° | 37km/h | 4781m | 4.6m/s | 0°C | 0% | 0hPa | 0V | 00:00:00 | 00:00:00 | 00:00:00 | |
| EA3GEO | 2026-09-05 23:15:12 | 41.38670 | 2.15610 | 114° | 22km/h | 4772m | 4.7m/s | 0°C | 0% | 0hPa | 0V | 00:00:00 | 00:00:00 | 00:00:00 | |
| EA3IBE | 2026-09-05 23:15:09 | 41.38673 | 2.15598 | 95° | 9km/h | 4759m | 2.4m/s | 0°C | 0% | 0hPa | 0V | 00:00:00 | 00:00:00 | 00:00:00 | |
| EA3GEO | 2026-09-05 23:15:07 | 41.38673 | 2.15591 | 83° | 13km/h | 4752m | 4.5m/s | 0°C | 0% | 0hPa | 0V | 00:00:00 | 00:00:00 | 00:00:00 | |
| EA3IBE | 2026-09-05 23:15:03 | 41.38681 | 2.15554 | 104° | 31km/h | 4730m | 6.8m/s | 0°C | 0% | 0hPa | 0V | 00:00:00 | 00:00:00 | 00:00:00 | |
| EA3IBE | 2026-09-05 23:14:58 | 41.38688 | 2.15521 | 164° | 26km/h | 4697m | 3.7m/s | 0°C | 0% | 0hPa | 0V | 00:00:00 | 00:00:00 | 00:00:00 | |
| EA3GEO | 2026-09-05 23:14:56 | 41.38700 | 2.15514 | 143° | 26km/h | 4688m | 4.0m/s | 0°C | 0% | 0hPa | 0V | 00:00:00 | 00:00:00 | 00:00:00 | |
| EA3IBE | 2026-09-05 23:14:53 | 41.38709 | 2.15498 | 104° | 22km/h | 4668m | 7.6m/s | 0°C | 0% | 0hPa | 0V | 00:00:00 | 00:00:00 | 00:00:00 | |
| EA3GEO | 2026-09-05 23:14:50 | 41.38706 | 2.15479 | 79° | 20km/h | 4649m | 2.5m/s | 0°C | 0% | 0hPa | 0V | 00:00:00 | 00:00:00 | 00:00:00 | |
| EA3IBE | 2026-09-05 23:14:47 | 41.38709 | 2.15462 | 139° | 24km/h | 4636m | 5.8m/s | 0°C | 0% | 0hPa | 0V | 00:00:00 | 00:00:00 | 00:00:00 | |
| EA3GEO | 2026-09-05 23:14:44 | 41.38725 | 2.15441 | 125° | 35km/h | 4622m | 3.3m/s | 0°C | 0% | 0hPa | 0V | 00:00:00 | 00:00:00 | 00:00:00 | |
| EA3IBE | 2026-09-05 23:14:41 | 41.38734 | 2.15425 | 123° | 5km/h | 4610m | 3.8m/s | 0°C | 0% | 0hPa | 0V | 00:00:00 | 00:00:00 | 00:00:00 | |
| EA3GEO | 2026-09-05 23:14:38 | 41.38735 | 2.15419 | 108° | 15km/h | 4600m | 2.8m/s | 0°C | 0% | 0hPa | 0V | 00:00:00 | 00:00:00 | 00:00:00 | |
| EA3IBE | 2026-09-05 23:14:36 | 41.38739 | 2.15407 | 125° | 24km/h | 4589m | 8.0m/s | 0°C | 0% | 0hPa | 0V | 00:00:00 | 00:00:00 | 00:00:00 | |
| EA3GEO | 2026-09-05 23:14:32 | 41.38748 | 2.15375 | 82° | 18km/h | 4565m | 3.2m/s | 0°C | 0% | 0hPa | 0V | 00:00:00 | 00:00:00 | 00:00:00 | |
| EA3IBE | 2026-09-05 23:14:30 | 41.38743 | 2.15365 | 63° | 16km/h | 4557m | 2.3m/s | 0°C | 0% | 0hPa | 0V | 00:00:00 | 00:00:00 | 00:00:00 | |
| EA3GEO | 2026-09-05 23:14:26 | 41.38749 | 2.15340 | 131° | 29km/h | 4536m | 5.0m/s | 0°C | 0% | 0hPa | 0V | 00:00:00 | 00:00:00 | 00:00:00 | |
| EA3IBE | 2026-09-05 23:14:25 | 41.38754 | 2.15332 | 133° | 33km/h | 4531m | 4.1m/s | 0°C | 0% | 0hPa | 0V | 00:00:00 | 00:00:00 | 00:00:00 | |
| EA3GEO | 2026-09-05 23:14:21 | 41.38771 | 2.15299 | 122° | 20km/h | 4513m | 3.3m/s | 0°C | 0% | 0hPa | 0V | 00:00:00 | 00:00:00 | 00:00:00 | |
| EA3IBE | 2026-09-05 23:14:19 | 41.38775 | 2.15287 | 113° | 18km/h | 4500m | 7.5m/s | 0°C | 0% | 0hPa | 0V | 00:00:00 | 00:00:00 | 00:00:00 | |
| EA3GEO | 2026-09-05 23:14:15 | 41.38780 | 2.15250 | 114° | 26km/h | 4477m | 4.9m/s | 0°C | 0% | 0hPa | 0V | 00:00:00 | 00:00:00 | 00:00:00 | |
| EA3IBE | 2026-09-05 23:14:14 | 41.38782 | 2.15242 | 119° | 22km/h | 4472m | 6.3m/s | 0°C | 0% | 0hPa | 0V | 00:00:00 | 00:00:00 | 00:00:00 | |
| EA3GEO | 2026-09-05 23:14:09 | 41.38802 | 2.15228 | 165° | 15km/h | 4442m | 8.1m/s | 0°C | 0% | 0hPa | 0V | 00:00:00 | 00:00:00 | 00:00:00 | |
| EA3IBE | 2026-09-05 23:14:08 | 41.38805 | 2.15226 | 126° | 13km/h | 4435m | 7.0m/s | 0°C | 0% | 0hPa | 0V | 00:00:00 | 00:00:00 | 00:00:00 | |
| EA3GEO | 2026-09-05 23:14:04 | 41.38818 | 2.15205 | 141° | 22km/h | 4413m | 5.0m/s | 0°C | 0% | 0hPa | 0V | 00:00:00 | 00:00:00 | 00:00:00 | |
| EA3IBE | 2026-09-05 23:14:03 | 41.38822 | 2.15201 | 152° | 20km/h | 4409m | 4.9m/s | 0°C | 0% | 0hPa | 0V | 00:00:00 | 00:00:00 | 00:00:00 | |
| EA3IBE | 2026-09-05 23:13:58 | 41.38836 | 2.15195 | 120° | 5km/h | 4384m | 3.7m/s | 0°C | 0% | 0hPa | 0V | 00:00:00 | 00:00:00 | 00:00:00 | |
| EA3IBE | 2026-09-05 23:13:52 | 41.38843 | 2.15189 | 113° | 22km/h | 4352m | 5.1m/s | 0°C | 0% | 0hPa | 0V | 00:00:00 | 00:00:00 | 00:00:00 | |
| EA3GEO | 2026-09-05 23:13:47 | 41.38854 | 2.15152 | 139° | 15km/h | 4332m | 5.8m/s | 0°C | 0% | 0hPa | 0V | 00:00:00 | 00:00:00 | 00:00:00 | |
| EA3IBE | 2026-09-05 23:13:46 | 41.38857 | 2.15149 | 156° | 16km/h | 4324m | 8.2m/s | 0°C | 0% | 0hPa | 0V | 00:00:00 | 00:00:00 | 00:00:00 | |
| EA3GEO | 2026-09-05 23:13:41 | 41.38872 | 2.15125 | 110° | 16km/h | 4292m | 5.9m/s | 0°C | 0% | 0hPa | 0V | 00:00:00 | 00:00:00 | 00:00:00 | |
| EA3IBE | 2026-09-05 23:13:40 | 41.38872 | 2.15119 | 80° | 15km/h | 4289m | 1.1m/s | 0°C | 0% | 0hPa | 0V | 00:00:00 | 00:00:00 | 00:00:00 | |
| EA3GEO | 2026-09-05 23:13:35 | 41.38883 | 2.15083 | 119° | 16km/h | 4271m | 6.1m/s | 0°C | 0% | 0hPa | 0V | 00:00:00 | 00:00:00 | 00:00:00 | |
| EA3IBE | 2026-09-05 23:13:34 | 41.38884 | 2.15078 | 94° | 9km/h | 4264m | 7.8m/s | 0°C | 0% | 0hPa | 0V | 00:00:00 | 00:00:00 | 00:00:00 | |
| EA3GEO | 2026-09-05 23:13:29 | 41.38874 | 2.15065 | 89° | 20km/h | 4238m | 5.6m/s | 0°C | 0% | 0hPa | 0V | 00:00:00 | 00:00:00 | 00:00:00 | |
| EA3IBE | 2026-09-05 23:13:28 | 41.38875 | 2.15058 | 105° | 24km/h | 4233m | 4.6m/s | 0°C | 0% | 0hPa | 0V | 00:00:00 | 00:00:00 | 00:00:00 | |
| EA3GEO | 2026-09-05 23:13:23 | 41.38885 | 2.15032 | 156° | 15km/h | 4201m | 7.4m/s | 0°C | 0% | 0hPa | 0V | 00:00:00 | 00:00:00 | 00:00:00 | |
| EA3IBE | 2026-09-05 23:13:22 | 41.38889 | 2.15030 | 138° | 18km/h | 4194m | 5.9m/s | 0°C | 0% | 0hPa | 0V | 00:00:00 | 00:00:00 | 00:00:00 | |
| EA3GEO | 2026-09-05 23:13:18 | 41.38900 | 2.15016 | 142° | 18km/h | 4170m | 6.3m/s | 0°C | 0% | 0hPa | 0V | 00:00:00 | 00:00:00 | 00:00:00 | |
| EA3IBE | 2026-09-05 23:13:17 | 41.38904 | 2.15014 | 146° | 18km/h | 4165m | 4.2m/s | 0°C | 0% | 0hPa | 0V | 00:00:00 | 00:00:00 | 00:00:00 | |
| EA3GEO | 2026-09-05 23:13:13 | 41.38901 | 2.15008 | 16° | 13km/h | 4148m | 4.2m/s | 0°C | 0% | 0hPa | 0V | 00:00:00 | 00:00:00 | 00:00:00 | |
| EA3IBE | 2026-09-05 23:13:12 | 41.38898 | 2.15006 | 42° | 13km/h | 4145m | 2.5m/s | 0°C | 0% | 0hPa | 0V | 00:00:00 | 00:00:00 | 00:00:00 | |
| EA3GEO | 2026-09-05 23:13:07 | 41.38893 | 2.14986 | 86° | 15km/h | 4117m | 4.3m/s | 0°C | 0% | 0hPa | 0V | 00:00:00 | 00:00:00 | 00:00:00 | |
| EA3IBE | 2026-09-05 23:13:06 | 41.38892 | 2.14982 | 54° | 15km/h | 4112m | 5.1m/s | 0°C | 0% | 0hPa | 0V | 00:00:00 | 00:00:00 | 00:00:00 | |
| EA3GEO | 2026-09-05 23:13:02 | 41.38890 | 2.14980 | 190° | 2km/h | 4096m | 3.1m/s | 0°C | 0% | 0hPa | 0V | 00:00:00 | 00:00:00 | 00:00:00 | |
| EA3IBE | 2026-09-05 23:13:01 | 41.38891 | 2.14980 | 145° | 5km/h | 4093m | 3.3m/s | 0°C | 0% | 0hPa | 0V | 00:00:00 | 00:00:00 | 00:00:00 | |
| EA3IBE | 2026-09-05 23:12:56 | 41.38898 | 2.14976 | 106° | 5km/h | 4064m | 6.6m/s | 0°C | 0% | 0hPa | 0V | 00:00:00 | 00:00:00 | 00:00:00 | |
| EA3GEO | 2026-09-05 23:12:51 | 41.38905 | 2.14975 | 146° | 13km/h | 4037m | 5.1m/s | 0°C | 0% | 0hPa | 0V | 00:00:00 | 00:00:00 | 00:00:00 | |
| EA3IBE | 2026-09-05 23:12:50 | 41.38907 | 2.14972 | 116° | 15km/h | 4033m | 3.8m/s | 0°C | 0% | 0hPa | 0V | 00:00:00 | 00:00:00 | 00:00:00 | |
| EA3GEO | 2026-09-05 23:12:46 | 41.38911 | 2.14943 | 109° | 26km/h | 4019m | 3.1m/s | 0°C | 0% | 0hPa | 0V | 00:00:00 | 00:00:00 | 00:00:00 | |
| EA3IBE | 2026-09-05 23:12:45 | 41.38914 | 2.14936 | 136° | 20km/h | 4015m | 3.5m/s | 0°C | 0% | 0hPa | 0V | 00:00:00 | 00:00:00 | 00:00:00 | |
| EA3GEO | 2026-09-05 23:12:40 | 41.38924 | 2.14930 | 60° | 4km/h | 3984m | 6.4m/s | 0°C | 0% | 0hPa | 0V | 00:00:00 | 00:00:00 | 00:00:00 | |
| EA3IBE | 2026-09-05 23:12:39 | 41.38922 | 2.14929 | 9° | 13km/h | 3978m | 5.8m/s | 0°C | 0% | 0hPa | 0V | 00:00:00 | 00:00:00 | 00:00:00 | |
| EA3GEO | 2026-09-05 23:12:35 | 41.38921 | 2.14924 | 147° | 9km/h | 3957m | 7.5m/s | 0°C | 0% | 0hPa | 0V | 00:00:00 | 00:00:00 | 00:00:00 | |
| EA3IBE | 2026-09-05 23:12:34 | 41.38923 | 2.14922 | 135° | 15km/h | 3950m | 6.1m/s | 0°C | 0% | 0hPa | 0V | 00:00:00 | 00:00:00 | 00:00:00 | |
| EA3IBE | 2026-09-05 23:12:29 | 41.38942 | 2.14909 | 150° | 20km/h | 3924m | 2.7m/s | 0°C | 0% | 0hPa | 0V | 00:00:00 | 00:00:00 | 00:00:00 | |
| EA3IBE | 2026-09-05 23:12:23 | 41.38958 | 2.14899 | 193° | 15km/h | 3891m | 5.5m/s | 0°C | 0% | 0hPa | 0V | 00:00:00 | 00:00:00 | 00:00:00 | |
| EA3IBE | 2026-09-05 23:12:18 | 41.38974 | 2.14884 | 94° | 20km/h | 3864m | 6.2m/s | 0°C | 0% | 0hPa | 0V | 00:00:00 | 00:00:00 | 00:00:00 | |
| EA3IBE | 2026-09-05 23:12:12 | 41.38985 | 2.14866 | 163° | 13km/h | 3835m | 3.7m/s | 0°C | 0% | 0hPa | 0V | 00:00:00 | 00:00:00 | 00:00:00 | |
| EA3IBE | 2026-09-05 23:12:07 | 41.39000 | 2.14842 | 91° | 11km/h | 3816m | 3.6m/s | 0°C | 0% | 0hPa | 0V | 00:00:00 | 00:00:00 | 00:00:00 | |
| EA3GEO | 2026-09-05 23:12:06 | 41.38999 | 2.14839 | 29° | 9km/h | 3810m | 7.4m/s | 0°C | 0% | 0hPa | 0V | 00:00:00 | 00:00:00 | 00:00:00 | |
| EA3GEO | 2026-09-05 23:12:01 | 41.38993 | 2.14834 | 70° | 16km/h | 3777m | 2.9m/s | 0°C | 0% | 0hPa | 0V | 00:00:00 | 00:00:00 | 00:00:00 | |
| EA3IBE | 2026-09-05 23:11:56 | 41.39002 | 2.14814 | 204° | 7km/h | 3756m | 3.5m/s | 0°C | 0% | 0hPa | 0V | 00:00:00 | 00:00:00 | 00:00:00 | |
| EA3GEO | 2026-09-05 23:11:55 | 41.39003 | 2.14815 | 191° | 2km/h | 3751m | 5.2m/s | 0°C | 0% | 0hPa | 0V | 00:00:00 | 00:00:00 | 00:00:00 | |
| EA3IBE | 2026-09-05 23:11:51 | 41.39000 | 2.14810 | 314° | 4km/h | 3724m | 6.8m/s | 0°C | 0% | 0hPa | 0V | 00:00:00 | 00:00:00 | 00:00:00 | |
| EA3GEO | 2026-09-05 23:11:49 | 41.38999 | 2.14811 | 20° | 4km/h | 3710m | 6.0m/s | 0°C | 0% | 0hPa | 0V | 00:00:00 | 00:00:00 | 00:00:00 | |
| EA3IBE | 2026-09-05 23:11:46 | 41.39003 | 2.14806 | 118° | 15km/h | 3694m | 4.8m/s | 0°C | 0% | 0hPa | 0V | 00:00:00 | 00:00:00 | 00:00:00 | |
| EA3GEO | 2026-09-05 23:11:44 | 41.39006 | 2.14794 | 101° | 20km/h | 3686m | 3.8m/s | 0°C | 0% | 0hPa | 0V | 00:00:00 | 00:00:00 | 00:00:00 | |
| EA3IBE | 2026-09-05 23:11:40 | 41.39004 | 2.14787 | 260° | 5km/h | 3666m | 7.2m/s | 0°C | 0% | 0hPa | 0V | 00:00:00 | 00:00:00 | 00:00:00 | |
| EA3IBE | 2026-09-05 23:11:35 | 41.39010 | 2.14783 | 7° | 4km/h | 3636m | 7.4m/s | 0°C | 0% | 0hPa | 0V | 00:00:00 | 00:00:00 | 00:00:00 | |
| EA3GEO | 2026-09-05 23:11:32 | 41.39010 | 2.14790 | 264° | 5km/h | 3619m | 1.5m/s | 0°C | 0% | 0hPa | 0V | 00:00:00 | 00:00:00 | 00:00:00 | |
| EA3IBE | 2026-09-05 23:11:29 | 41.39006 | 2.14786 | 40° | 15km/h | 3605m | 5.4m/s | 0°C | 0% | 0hPa | 0V | 00:00:00 | 00:00:00 | 00:00:00 | |
| EA3GEO | 2026-09-05 23:11:27 | 41.39001 | 2.14777 | 84° | 16km/h | 3596m | 1.9m/s | 0°C | 0% | 0hPa | 0V | 00:00:00 | 00:00:00 | 00:00:00 | |
| EA3IBE | 2026-09-05 23:11:23 | 41.39004 | 2.14760 | 98° | 9km/h | 3574m | 5.9m/s | 0°C | 0% | 0hPa | 0V | 00:00:00 | 00:00:00 | 00:00:00 | |
| EA3GEO | 2026-09-05 23:11:21 | 41.39005 | 2.14752 | 94° | 13km/h | 3559m | 7.6m/s | 0°C | 0% | 0hPa | 0V | 00:00:00 | 00:00:00 | 00:00:00 | |
| EA3IBE | 2026-09-05 23:11:18 | 41.39009 | 2.14738 | 124° | 7km/h | 3543m | 4.8m/s | 0°C | 0% | 0hPa | 0V | 00:00:00 | 00:00:00 | 00:00:00 | |
| EA3GEO | 2026-09-05 23:11:16 | 41.39014 | 2.14738 | 184° | 11km/h | 3532m | 4.8m/s | 0°C | 0% | 0hPa | 0V | 00:00:00 | 00:00:00 | 00:00:00 | |
| EA3IBE | 2026-09-05 23:11:13 | 41.39023 | 2.14737 | 159° | 11km/h | 3518m | 3.1m/s | 0°C | 0% | 0hPa | 0V | 00:00:00 | 00:00:00 | 00:00:00 | |
| EA3GEO | 2026-09-05 23:11:10 | 41.39028 | 2.14726 | 87° | 11km/h | 3501m | 5.1m/s | 0°C | 0% | 0hPa | 0V | 00:00:00 | 00:00:00 | 00:00:00 | |
| EA3IBE | 2026-09-05 23:11:07 | 41.39025 | 2.14721 | 319° | 5km/h | 3491m | 3.9m/s | 0°C | 0% | 0hPa | 0V | 00:00:00 | 00:00:00 | 00:00:00 | |
| EA3GEO | 2026-09-05 23:11:05 | 41.39021 | 2.14721 | 20° | 11km/h | 3483m | 2.4m/s | 0°C | 0% | 0hPa | 0V | 00:00:00 | 00:00:00 | 00:00:00 | |
| EA3IBE | 2026-09-05 23:11:01 | 41.39012 | 2.14709 | 69° | 11km/h | 3469m | 5.4m/s | 0°C | 0% | 0hPa | 0V | 00:00:00 | 00:00:00 | 00:00:00 | |
| EA3GEO | 2026-09-05 23:11:00 | 41.39013 | 2.14705 | 109° | 11km/h | 3461m | 9.1m/s | 0°C | 0% | 0hPa | 0V | 00:00:00 | 00:00:00 | 00:00:00 | |
| EA3IBE | 2026-09-05 23:10:56 | 41.39017 | 2.14693 | 111° | 4km/h | 3436m | 5.7m/s | 0°C | 0% | 0hPa | 0V | 00:00:00 | 00:00:00 | 00:00:00 | |
| EA3GEO | 2026-09-05 23:10:54 | 41.39016 | 2.14688 | 70° | 15km/h | 3425m | 3.6m/s | 0°C | 0% | 0hPa | 0V | 00:00:00 | 00:00:00 | 00:00:00 | |
| EA3IBE | 2026-09-05 23:10:51 | 41.39018 | 2.14671 | 125° | 20km/h | 3414m | 3.7m/s | 0°C | 0% | 0hPa | 0V | 00:00:00 | 00:00:00 | 00:00:00 | |
| EA3GEO | 2026-09-05 23:10:49 | 41.39026 | 2.14662 | 142° | 22km/h | 3407m | 4.0m/s | 0°C | 0% | 0hPa | 0V | 00:00:00 | 00:00:00 | 00:00:00 | |
| EA3IBE | 2026-09-05 23:10:45 | 41.39039 | 2.14646 | 121° | 4km/h | 3387m | 5.6m/s | 0°C | 0% | 0hPa | 0V | 00:00:00 | 00:00:00 | 00:00:00 | |
| EA3GEO | 2026-09-05 23:10:43 | 41.39039 | 2.14645 | 0° | 0km/h | 3374m | 5.5m/s | 0°C | 0% | 0hPa | 0V | 00:00:00 | 00:00:00 | 00:00:00 | |
| EA3IBE | 2026-09-05 23:10:39 | 41.39034 | 2.14640 | 35° | 18km/h | 3354m | 3.2m/s | 0°C | 0% | 0hPa | 0V | 00:00:00 | 00:00:00 | 00:00:00 | |
| EA3GEO | 2026-09-05 23:10:37 | 41.39028 | 2.14634 | 64° | 13km/h | 3349m | 4.2m/s | 0°C | 0% | 0hPa | 0V | 00:00:00 | 00:00:00 | 00:00:00 | |
| EA3IBE | 2026-09-05 23:10:33 | 41.39028 | 2.14611 | 60° | 15km/h | 3327m | 7.0m/s | 0°C | 0% | 0hPa | 0V | 00:00:00 | 00:00:00 | 00:00:00 | |
| EA3IBE | 2026-09-05 23:10:28 | 41.39019 | 2.14608 | 213° | 4km/h | 3302m | 5.4m/s | 0°C | 0% | 0hPa | 0V | 00:00:00 | 00:00:00 | 00:00:00 | |
| EA3GEO | 2026-09-05 23:10:26 | 41.39027 | 2.14602 | 124° | 20km/h | 3286m | 7.7m/s | 0°C | 0% | 0hPa | 0V | 00:00:00 | 00:00:00 | 00:00:00 | |
| EA3IBE | 2026-09-05 23:10:23 | 41.39029 | 2.14597 | 194° | 4km/h | 3271m | 5.7m/s | 0°C | 0% | 0hPa | 0V | 00:00:00 | 00:00:00 | 00:00:00 | |
| EA3GEO | 2026-09-05 23:10:20 | 41.39029 | 2.14594 | 59° | 9km/h | 3253m | 4.8m/s | 0°C | 0% | 0hPa | 0V | 00:00:00 | 00:00:00 | 00:00:00 | |
| EA3IBE | 2026-09-05 23:10:18 | 41.39025 | 2.14587 | 54° | 13km/h | 3245m | 3.1m/s | 0°C | 0% | 0hPa | 0V | 00:00:00 | 00:00:00 | 00:00:00 | |
| EA3GEO | 2026-09-05 23:10:15 | 41.39019 | 2.14574 | 81° | 18km/h | 3236m | 3.0m/s | 0°C | 0% | 0hPa | 0V | 00:00:00 | 00:00:00 | 00:00:00 | |
| EA3IBE | 2026-09-05 23:10:12 | 41.39020 | 2.14564 | 162° | 4km/h | 3221m | 7.4m/s | 0°C | 0% | 0hPa | 0V | 00:00:00 | 00:00:00 | 00:00:00 | |
| EA3GEO | 2026-09-05 23:10:09 | 41.39015 | 2.14562 | 30° | 7km/h | 3199m | 7.8m/s | 0°C | 0% | 0hPa | 0V | 00:00:00 | 00:00:00 | 00:00:00 | |
| EA3IBE | 2026-09-05 23:10:07 | 41.39017 | 2.14556 | 144° | 15km/h | 3186m | 5.9m/s | 0°C | 0% | 0hPa | 0V | 00:00:00 | 00:00:00 | 00:00:00 | |
| EA3GEO | 2026-09-05 23:10:04 | 41.39025 | 2.14542 | 109° | 22km/h | 3167m | 6.5m/s | 0°C | 0% | 0hPa | 0V | 00:00:00 | 00:00:00 | 00:00:00 | |
| EA3IBE | 2026-09-05 23:10:02 | 41.39025 | 2.14526 | 83° | 29km/h | 3158m | 3.6m/s | 0°C | 0% | 0hPa | 0V | 00:00:00 | 00:00:00 | 00:00:00 | |
| EA3GEO | 2026-09-05 23:09:58 | 41.39024 | 2.14493 | 125° | 16km/h | 3138m | 4.9m/s | 0°C | 0% | 0hPa | 0V | 00:00:00 | 00:00:00 | 00:00:00 | |
| EA3IBE | 2026-09-05 23:09:56 | 41.39030 | 2.14487 | 161° | 11km/h | 3127m | 4.8m/s | 0°C | 0% | 0hPa | 0V | 00:00:00 | 00:00:00 | 00:00:00 | |
| EA3GEO | 2026-09-05 23:09:53 | 41.39031 | 2.14482 | 45° | 9km/h | 3108m | 5.7m/s | 0°C | 0% | 0hPa | 0V | 00:00:00 | 00:00:00 | 00:00:00 | |
| EA3IBE | 2026-09-05 23:09:51 | 41.39026 | 2.14476 | 33° | 11km/h | 3098m | 4.4m/s | 0°C | 0% | 0hPa | 0V | 00:00:00 | 00:00:00 | 00:00:00 | |
| EA3GEO | 2026-09-05 23:09:47 | 41.39022 | 2.14478 | 327° | 7km/h | 3084m | 4.2m/s | 0°C | 0% | 0hPa | 0V | 00:00:00 | 00:00:00 | 00:00:00 | |
| EA3IBE | 2026-09-05 23:09:46 | 41.39020 | 2.14479 | 6° | 15km/h | 3079m | 5.3m/s | 0°C | 0% | 0hPa | 0V | 00:00:00 | 00:00:00 | 00:00:00 | |
| EA3GEO | 2026-09-05 23:09:42 | 41.39009 | 2.14464 | 88° | 22km/h | 3053m | 6.5m/s | 0°C | 0% | 0hPa | 0V | 00:00:00 | 00:00:00 | 00:00:00 | |
| EA3IBE | 2026-09-05 23:09:40 | 41.39009 | 2.14446 | 99° | 29km/h | 3043m | 4.2m/s | 0°C | 0% | 0hPa | 0V | 00:00:00 | 00:00:00 | 00:00:00 | |
| EA3GEO | 2026-09-05 23:09:36 | 41.39006 | 2.14418 | 57° | 9km/h | 3025m | 4.2m/s | 0°C | 0% | 0hPa | 0V | 00:00:00 | 00:00:00 | 00:00:00 | |
| EA3IBE | 2026-09-05 23:09:35 | 41.39004 | 2.14417 | 10° | 7km/h | 3019m | 6.4m/s | 0°C | 0% | 0hPa | 0V | 00:00:00 | 00:00:00 | 00:00:00 | |
| EA3IBE | 2026-09-05 23:09:30 | 41.39008 | 2.14394 | 136° | 18km/h | 2990m | 4.5m/s | 0°C | 0% | 0hPa | 0V | 00:00:00 | 00:00:00 | 00:00:00 | |
| EA3GEO | 2026-09-05 23:09:25 | 41.39008 | 2.14384 | 43° | 11km/h | 2968m | 8.4m/s | 0°C | 0% | 0hPa | 0V | 00:00:00 | 00:00:00 | 00:00:00 | |
| EA3IBE | 2026-09-05 23:09:24 | 41.39006 | 2.14379 | 72° | 20km/h | 2960m | 7.9m/s | 0°C | 0% | 0hPa | 0V | 00:00:00 | 00:00:00 | 00:00:00 | |
| EA3GEO | 2026-09-05 23:09:19 | 41.38995 | 2.14356 | 48° | 18km/h | 2924m | 5.8m/s | 0°C | 0% | 0hPa | 0V | 00:00:00 | 00:00:00 | 00:00:00 | |
| EA3IBE | 2026-09-05 23:09:18 | 41.38992 | 2.14349 | 60° | 29km/h | 2919m | 4.5m/s | 0°C | 0% | 0hPa | 0V | 00:00:00 | 00:00:00 | 00:00:00 | |
| EA3IBE | 2026-09-05 23:09:13 | 41.38984 | 2.14318 | 164° | 7km/h | 2895m | 4.2m/s | 0°C | 0% | 0hPa | 0V | 00:00:00 | 00:00:00 | 00:00:00 | |
| EA3GEO | 2026-09-05 23:09:08 | 41.38973 | 2.14313 | 39° | 20km/h | 2870m | 4.8m/s | 0°C | 0% | 0hPa | 0V | 00:00:00 | 00:00:00 | 00:00:00 | |
| EA3IBE | 2026-09-05 23:09:07 | 41.38971 | 2.14307 | 79° | 24km/h | 2864m | 4.9m/s | 0°C | 0% | 0hPa | 0V | 00:00:00 | 00:00:00 | 00:00:00 | |
| EA3IBE | 2026-09-05 23:09:02 | 41.38968 | 2.14275 | 44° | 9km/h | 2832m | 5.0m/s | 0°C | 0% | 0hPa | 0V | 00:00:00 | 00:00:00 | 00:00:00 | |
| EA3IBE | 2026-09-05 23:08:57 | 41.38965 | 2.14277 | 140° | 7km/h | 2815m | 3.9m/s | 0°C | 0% | 0hPa | 0V | 00:00:00 | 00:00:00 | 00:00:00 | |
| EA3GEO | 2026-09-05 23:08:56 | 41.38967 | 2.14274 | 120° | 18km/h | 2809m | 5.4m/s | 0°C | 0% | 0hPa | 0V | 00:00:00 | 00:00:00 | 00:00:00 | |
| EA3IBE | 2026-09-05 23:08:52 | 41.38971 | 2.14250 | 115° | 18km/h | 2785m | 6.3m/s | 0°C | 0% | 0hPa | 0V | 00:00:00 | 00:00:00 | 00:00:00 | |
| EA3GEO | 2026-09-05 23:08:50 | 41.38975 | 2.14242 | 126° | 18km/h | 2776m | 3.3m/s | 0°C | 0% | 0hPa | 0V | 00:00:00 | 00:00:00 | 00:00:00 | |
| EA3IBE | 2026-09-05 23:08:46 | 41.38975 | 2.14213 | 69° | 18km/h | 2758m | 5.5m/s | 0°C | 0% | 0hPa | 0V | 00:00:00 | 00:00:00 | 00:00:00 | |
| EA3GEO | 2026-09-05 23:08:45 | 41.38974 | 2.14208 | 74° | 13km/h | 2753m | 5.6m/s | 0°C | 0% | 0hPa | 0V | 00:00:00 | 00:00:00 | 00:00:00 | |
| EA3IBE | 2026-09-05 23:08:41 | 41.38972 | 2.14202 | 18° | 15km/h | 2728m | 4.3m/s | 0°C | 0% | 0hPa | 0V | 00:00:00 | 00:00:00 | 00:00:00 | |
| EA3GEO | 2026-09-05 23:08:40 | 41.38968 | 2.14200 | 21° | 22km/h | 2724m | 3.6m/s | 0°C | 0% | 0hPa | 0V | 00:00:00 | 00:00:00 | 00:00:00 | |
| EA3IBE | 2026-09-05 23:08:36 | 41.38946 | 2.14193 | 3° | 16km/h | 2710m | 4.4m/s | 0°C | 0% | 0hPa | 0V | 00:00:00 | 00:00:00 | 00:00:00 | |
| EA3GEO | 2026-09-05 23:08:34 | 41.38945 | 2.14193 | 139° | 7km/h | 2699m | 6.3m/s | 0°C | 0% | 0hPa | 0V | 00:00:00 | 00:00:00 | 00:00:00 | |
| EA3IBE | 2026-09-05 23:08:31 | 41.38948 | 2.14180 | 88° | 16km/h | 2682m | 4.9m/s | 0°C | 0% | 0hPa | 0V | 00:00:00 | 00:00:00 | 00:00:00 | |
| EA3GEO | 2026-09-05 23:08:29 | 41.38945 | 2.14168 | 60° | 18km/h | 2666m | 6.1m/s | 0°C | 0% | 0hPa | 0V | 00:00:00 | 00:00:00 | 00:00:00 | |
| EA3IBE | 2026-09-05 23:08:25 | 41.38933 | 2.14148 | 57° | 18km/h | 2646m | 4.8m/s | 0°C | 0% | 0hPa | 0V | 00:00:00 | 00:00:00 | 00:00:00 | |
| EA3GEO | 2026-09-05 23:08:23 | 41.38928 | 2.14134 | 63° | 27km/h | 2636m | 3.7m/s | 0°C | 0% | 0hPa | 0V | 00:00:00 | 00:00:00 | 00:00:00 | |
| EA3IBE | 2026-09-05 23:08:20 | 41.38919 | 2.14111 | 70° | 24km/h | 2623m | 5.7m/s | 0°C | 0% | 0hPa | 0V | 00:00:00 | 00:00:00 | 00:00:00 | |
| EA3GEO | 2026-09-05 23:08:18 | 41.38916 | 2.14099 | 101° | 13km/h | 2611m | 5.5m/s | 0°C | 0% | 0hPa | 0V | 00:00:00 | 00:00:00 | 00:00:00 | |
| EA3IBE | 2026-09-05 23:08:15 | 41.38920 | 2.14093 | 31° | 4km/h | 2596m | 4.7m/s | 0°C | 0% | 0hPa | 0V | 00:00:00 | 00:00:00 | 00:00:00 | |
| EA3IBE | 2026-09-05 23:08:10 | 41.38897 | 2.14075 | 29° | 27km/h | 2576m | 6.0m/s | 0°C | 0% | 0hPa | 0V | 00:00:00 | 00:00:00 | 00:00:00 | |
| EA3GEO | 2026-09-05 23:08:08 | 41.38891 | 2.14070 | 35° | 5km/h | 2564m | 6.2m/s | 0°C | 0% | 0hPa | 0V | 00:00:00 | 00:00:00 | 00:00:00 | |
| EA3IBE | 2026-09-05 23:08:04 | 41.38892 | 2.14071 | 121° | 7km/h | 2544m | 5.4m/s | 0°C | 0% | 0hPa | 0V | 00:00:00 | 00:00:00 | 00:00:00 | |
| EA3GEO | 2026-09-05 23:08:02 | 41.38890 | 2.14066 | 31° | 16km/h | 2532m | 6.2m/s | 0°C | 0% | 0hPa | 0V | 00:00:00 | 00:00:00 | 00:00:00 | |
| EA3IBE | 2026-09-05 23:07:59 | 41.38874 | 2.14068 | 344° | 18km/h | 2515m | 5.8m/s | 0°C | 0% | 0hPa | 0V | 00:00:00 | 00:00:00 | 00:00:00 | |
| EA3GEO | 2026-09-05 23:07:56 | 41.38865 | 2.14067 | 44° | 16km/h | 2498m | 7.0m/s | 0°C | 0% | 0hPa | 0V | 00:00:00 | 00:00:00 | 00:00:00 | |
| EA3GEO | 2026-09-05 23:07:50 | 41.38856 | 2.14047 | 257° | 7km/h | 2464m | 5.0m/s | 0°C | 0% | 0hPa | 0V | 00:00:00 | 00:00:00 | 00:00:00 | |
| EA3IBE | 2026-09-05 23:07:49 | 41.38857 | 2.14048 | 186° | 5km/h | 2459m | 5.9m/s | 0°C | 0% | 0hPa | 0V | 00:00:00 | 00:00:00 | 00:00:00 | |
| EA3GEO | 2026-09-05 23:07:44 | 41.38851 | 2.14036 | 26° | 26km/h | 2430m | 3.2m/s | 0°C | 0% | 0hPa | 0V | 00:00:00 | 00:00:00 | 00:00:00 | |
| EA3IBE | 2026-09-05 23:07:43 | 41.38845 | 2.14032 | 19° | 26km/h | 2427m | 4.0m/s | 0°C | 0% | 0hPa | 0V | 00:00:00 | 00:00:00 | 00:00:00 | |
| EA3GEO | 2026-09-05 23:07:39 | 41.38832 | 2.14025 | 352° | 7km/h | 2410m | 6.5m/s | 0°C | 0% | 0hPa | 0V | 00:00:00 | 00:00:00 | 00:00:00 | |
| EA3IBE | 2026-09-05 23:07:38 | 41.38830 | 2.14025 | 353° | 5km/h | 2403m | 7.0m/s | 0°C | 0% | 0hPa | 0V | 00:00:00 | 00:00:00 | 00:00:00 | |
| EA3IBE | 2026-09-05 23:07:33 | 41.38805 | 2.14019 | 357° | 24km/h | 2380m | 5.7m/s | 0°C | 0% | 0hPa | 0V | 00:00:00 | 00:00:00 | 00:00:00 | |
| EA3IBE | 2026-09-05 23:07:28 | 41.38797 | 2.14023 | 8° | 11km/h | 2352m | 6.7m/s | 0°C | 0% | 0hPa | 0V | 00:00:00 | 00:00:00 | 00:00:00 | |
| EA3GEO | 2026-09-05 23:07:27 | 41.38794 | 2.14022 | 15° | 11km/h | 2345m | 5.6m/s | 0°C | 0% | 0hPa | 0V | 00:00:00 | 00:00:00 | 00:00:00 | |
| EA3GEO | 2026-09-05 23:07:22 | 41.38780 | 2.13999 | 56° | 15km/h | 2324m | 3.2m/s | 0°C | 0% | 0hPa | 0V | 00:00:00 | 00:00:00 | 00:00:00 | |
| EA3IBE | 2026-09-05 23:07:17 | 41.38770 | 2.13982 | 30° | 18km/h | 2291m | 3.4m/s | 0°C | 0% | 0hPa | 0V | 00:00:00 | 00:00:00 | 00:00:00 | |
| EA3GEO | 2026-09-05 23:07:16 | 41.38766 | 2.13980 | 23° | 18km/h | 2288m | 3.3m/s | 0°C | 0% | 0hPa | 0V | 00:00:00 | 00:00:00 | 00:00:00 | |
| EA3IBE | 2026-09-05 23:07:12 | 41.38745 | 2.13972 | 356° | 20km/h | 2273m | 3.4m/s | 0°C | 0% | 0hPa | 0V | 00:00:00 | 00:00:00 | 00:00:00 | |
| EA3GEO | 2026-09-05 23:07:11 | 41.38741 | 2.13972 | 7° | 15km/h | 2268m | 4.2m/s | 0°C | 0% | 0hPa | 0V | 00:00:00 | 00:00:00 | 00:00:00 | |
| EA3IBE | 2026-09-05 23:07:07 | 41.38739 | 2.13965 | 126° | 16km/h | 2244m | 3.7m/s | 0°C | 0% | 0hPa | 0V | 00:00:00 | 00:00:00 | 00:00:00 | |
| EA3GEO | 2026-09-05 23:07:05 | 41.38743 | 2.13955 | 108° | 18km/h | 2236m | 3.5m/s | 0°C | 0% | 0hPa | 0V | 00:00:00 | 00:00:00 | 00:00:00 | |
| EA3IBE | 2026-09-05 23:07:02 | 41.38737 | 2.13941 | 2° | 16km/h | 2221m | 4.5m/s | 0°C | 0% | 0hPa | 0V | 00:00:00 | 00:00:00 | 00:00:00 | |
| EA3GEO | 2026-09-05 23:07:00 | 41.38730 | 2.13942 | 331° | 7km/h | 2209m | 5.1m/s | 0°C | 0% | 0hPa | 0V | 00:00:00 | 00:00:00 | 00:00:00 | |
| EA3IBE | 2026-09-05 23:06:56 | 41.38727 | 2.13941 | 40° | 13km/h | 2188m | 7.3m/s | 0°C | 0% | 0hPa | 0V | 00:00:00 | 00:00:00 | 00:00:00 | |
| EA3GEO | 2026-09-05 23:06:55 | 41.38723 | 2.13938 | 25° | 18km/h | 2182m | 3.7m/s | 0°C | 0% | 0hPa | 0V | 00:00:00 | 00:00:00 | 00:00:00 | |
| EA3IBE | 2026-09-05 23:06:51 | 41.38713 | 2.13919 | 95° | 18km/h | 2168m | 4.4m/s | 0°C | 0% | 0hPa | 0V | 00:00:00 | 00:00:00 | 00:00:00 | |
| EA3GEO | 2026-09-05 23:06:49 | 41.38714 | 2.13912 | 126° | 7km/h | 2160m | 5.3m/s | 0°C | 0% | 0hPa | 0V | 00:00:00 | 00:00:00 | 00:00:00 | |
| EA3IBE | 2026-09-05 23:06:46 | 41.38710 | 2.13903 | 63° | 15km/h | 2142m | 7.2m/s | 0°C | 0% | 0hPa | 0V | 00:00:00 | 00:00:00 | 00:00:00 | |
| EA3GEO | 2026-09-05 23:06:43 | 41.38713 | 2.13892 | 145° | 15km/h | 2123m | 1.5m/s | 0°C | 0% | 0hPa | 0V | 00:00:00 | 00:00:00 | 00:00:00 | |
| EA3IBE | 2026-09-05 23:06:41 | 41.38718 | 2.13889 | 187° | 5km/h | 2116m | 4.1m/s | 0°C | 0% | 0hPa | 0V | 00:00:00 | 00:00:00 | 00:00:00 | |
| EA3GEO | 2026-09-05 23:06:38 | 41.38716 | 2.13885 | 61° | 16km/h | 2098m | 4.3m/s | 0°C | 0% | 0hPa | 0V | 00:00:00 | 00:00:00 | 00:00:00 | |
| EA3IBE | 2026-09-05 23:06:36 | 41.38715 | 2.13875 | 103° | 15km/h | 2085m | 4.8m/s | 0°C | 0% | 0hPa | 0V | 00:00:00 | 00:00:00 | 00:00:00 | |
| EA3GEO | 2026-09-05 23:06:32 | 41.38721 | 2.13854 | 89° | 18km/h | 2068m | 6.3m/s | 0°C | 0% | 0hPa | 0V | 00:00:00 | 00:00:00 | 00:00:00 | |
| EA3IBE | 2026-09-05 23:06:30 | 41.38718 | 2.13842 | 48° | 18km/h | 2056m | 5.0m/s | 0°C | 0% | 0hPa | 0V | 00:00:00 | 00:00:00 | 00:00:00 | |
| EA3GEO | 2026-09-05 23:06:26 | 41.38706 | 2.13839 | 341° | 9km/h | 2031m | 6.2m/s | 0°C | 0% | 0hPa | 0V | 00:00:00 | 00:00:00 | 00:00:00 | |
| EA3IBE | 2026-09-05 23:06:25 | 41.38704 | 2.13839 | 13° | 13km/h | 2023m | 5.8m/s | 0°C | 0% | 0hPa | 0V | 00:00:00 | 00:00:00 | 00:00:00 | |
| EA3GEO | 2026-09-05 23:06:21 | 41.38690 | 2.13828 | 74° | 16km/h | 2005m | 3.9m/s | 0°C | 0% | 0hPa | 0V | 00:00:00 | 00:00:00 | 00:00:00 | |
| EA3IBE | 2026-09-05 23:06:19 | 41.38689 | 2.13819 | 91° | 15km/h | 1992m | 6.4m/s | 0°C | 0% | 0hPa | 0V | 00:00:00 | 00:00:00 | 00:00:00 | |
| EA3GEO | 2026-09-05 23:06:16 | 41.38688 | 2.13814 | 306° | 11km/h | 1975m | 6.7m/s | 0°C | 0% | 0hPa | 0V | 00:00:00 | 00:00:00 | 00:00:00 | |
| EA3IBE | 2026-09-05 23:06:14 | 41.38683 | 2.13818 | 9° | 13km/h | 1964m | 3.2m/s | 0°C | 0% | 0hPa | 0V | 00:00:00 | 00:00:00 | 00:00:00 | |
| EA3GEO | 2026-09-05 23:06:10 | 41.38675 | 2.13811 | 110° | 11km/h | 1940m | 5.0m/s | 0°C | 0% | 0hPa | 0V | 00:00:00 | 00:00:00 | 00:00:00 | |
| EA3IBE | 2026-09-05 23:06:09 | 41.38677 | 2.13807 | 128° | 16km/h | 1934m | 6.1m/s | 0°C | 0% | 0hPa | 0V | 00:00:00 | 00:00:00 | 00:00:00 | |
| EA3GEO | 2026-09-05 23:06:05 | 41.38673 | 2.13793 | 32° | 9km/h | 1907m | 5.7m/s | 0°C | 0% | 0hPa | 0V | 00:00:00 | 00:00:00 | 00:00:00 | |
| EA3IBE | 2026-09-05 23:06:04 | 41.38670 | 2.13791 | 18° | 13km/h | 1901m | 4.8m/s | 0°C | 0% | 0hPa | 0V | 00:00:00 | 00:00:00 | 00:00:00 | |
| EA3GEO | 2026-09-05 23:05:59 | 41.38652 | 2.13783 | 49° | 15km/h | 1879m | 2.4m/s | 0°C | 0% | 0hPa | 0V | 00:00:00 | 00:00:00 | 00:00:00 | |
| EA3IBE | 2026-09-05 23:05:59 | 41.38652 | 2.13783 | 49° | 15km/h | 1879m | 2.4m/s | 0°C | 0% | 0hPa | 0V | 00:00:00 | 00:00:00 | 00:00:00 | |
| EA3GEO | 2026-09-05 23:05:53 | 41.38661 | 2.13774 | 264° | 11km/h | 1849m | 4.9m/s | 0°C | 0% | 0hPa | 0V | 00:00:00 | 00:00:00 | 00:00:00 | |
| EA3IBE | 2026-09-05 23:05:53 | 41.38661 | 2.13774 | 264° | 11km/h | 1849m | 4.9m/s | 0°C | 0% | 0hPa | 0V | 00:00:00 | 00:00:00 | 00:00:00 | |
| EA3GEO | 2026-09-05 23:05:48 | 41.38652 | 2.13775 | 46° | 9km/h | 1820m | 6.0m/s | 0°C | 0% | 0hPa | 0V | 00:00:00 | 00:00:00 | 00:00:00 | |
| EA3IBE | 2026-09-05 23:05:48 | 41.38652 | 2.13775 | 46° | 9km/h | 1820m | 6.0m/s | 0°C | 0% | 0hPa | 0V | 00:00:00 | 00:00:00 | 00:00:00 | |
| EA3IBE | 2026-09-05 23:05:43 | 41.38641 | 2.13763 | 99° | 7km/h | 1789m | 5.4m/s | 0°C | 0% | 0hPa | 0V | 00:00:00 | 00:00:00 | 00:00:00 | |
| EA3GEO | 2026-09-05 23:05:42 | 41.38643 | 2.13761 | 181° | 7km/h | 1783m | 3.6m/s | 0°C | 0% | 0hPa | 0V | 00:00:00 | 00:00:00 | 00:00:00 | |
| EA3IBE | 2026-09-05 23:05:37 | 41.38644 | 2.13775 | 334° | 11km/h | 1763m | 4.0m/s | 0°C | 0% | 0hPa | 0V | 00:00:00 | 00:00:00 | 00:00:00 | |
| EA3GEO | 2026-09-05 23:05:36 | 41.38642 | 2.13777 | 335° | 11km/h | 1758m | 4.4m/s | 0°C | 0% | 0hPa | 0V | 00:00:00 | 00:00:00 | 00:00:00 | |
| EA3IBE | 2026-09-05 23:05:32 | 41.38641 | 2.13780 | 233° | 7km/h | 1738m | 5.5m/s | 0°C | 0% | 0hPa | 0V | 00:00:00 | 00:00:00 | 00:00:00 | |
| EA3GEO | 2026-09-05 23:05:30 | 41.38641 | 2.13786 | 281° | 5km/h | 1729m | 2.8m/s | 0°C | 0% | 0hPa | 0V | 00:00:00 | 00:00:00 | 00:00:00 | |
| EA3IBE | 2026-09-05 23:05:26 | 41.38637 | 2.13785 | 83° | 7km/h | 1710m | 4.8m/s | 0°C | 0% | 0hPa | 0V | 00:00:00 | 00:00:00 | 00:00:00 | |
| EA3GEO | 2026-09-05 23:05:24 | 41.38637 | 2.13784 | 116° | 2km/h | 1700m | 5.5m/s | 0°C | 0% | 0hPa | 0V | 00:00:00 | 00:00:00 | 00:00:00 | |
| EA3IBE | 2026-09-05 23:05:21 | 41.38639 | 2.13775 | 136° | 16km/h | 1681m | 5.7m/s | 0°C | 0% | 0hPa | 0V | 00:00:00 | 00:00:00 | 00:00:00 | |
| EA3GEO | 2026-09-05 23:05:18 | 41.38645 | 2.13773 | 289° | 4km/h | 1662m | 6.5m/s | 0°C | 0% | 0hPa | 0V | 00:00:00 | 00:00:00 | 00:00:00 | |
| EA3IBE | 2026-09-05 23:05:16 | 41.38640 | 2.13775 | 352° | 11km/h | 1650m | 4.1m/s | 0°C | 0% | 0hPa | 0V | 00:00:00 | 00:00:00 | 00:00:00 | |
| EA3GEO | 2026-09-05 23:05:12 | 41.38641 | 2.13771 | 130° | 16km/h | 1633m | 6.4m/s | 0°C | 0% | 0hPa | 0V | 00:00:00 | 00:00:00 | 00:00:00 | |
| EA3IBE | 2026-09-05 23:05:11 | 41.38643 | 2.13764 | 115° | 26km/h | 1627m | 5.6m/s | 0°C | 0% | 0hPa | 0V | 00:00:00 | 00:00:00 | 00:00:00 | |
| EA3GEO | 2026-09-05 23:05:07 | 41.38643 | 2.13739 | 54° | 13km/h | 1612m | 6.1m/s | 0°C | 0% | 0hPa | 0V | 00:00:00 | 00:00:00 | 00:00:00 | |
| EA3IBE | 2026-09-05 23:05:05 | 41.38642 | 2.13735 | 0° | 0km/h | 1599m | 6.0m/s | 0°C | 0% | 0hPa | 0V | 00:00:00 | 00:00:00 | 00:00:00 | |
| EA3GEO | 2026-09-05 23:05:01 | 41.38653 | 2.13725 | 118° | 22km/h | 1580m | 3.7m/s | 0°C | 0% | 0hPa | 0V | 00:00:00 | 00:00:00 | 00:00:00 | |
| EA3IBE | 2026-09-05 23:05:00 | 41.38655 | 2.13718 | 113° | 20km/h | 1577m | 1.2m/s | 0°C | 0% | 0hPa | 0V | 00:00:00 | 00:00:00 | 00:00:00 | |
| EA3GEO | 2026-09-05 23:04:56 | 41.38660 | 2.13713 | 241° | 7km/h | 1560m | 4.5m/s | 0°C | 0% | 0hPa | 0V | 00:00:00 | 00:00:00 | 00:00:00 | |
| EA3IBE | 2026-09-05 23:04:54 | 41.38664 | 2.13716 | 189° | 11km/h | 1551m | 2.4m/s | 0°C | 0% | 0hPa | 0V | 00:00:00 | 00:00:00 | 00:00:00 | |
| EA3GEO | 2026-09-05 23:04:50 | 41.38678 | 2.13713 | 177° | 7km/h | 1533m | 5.1m/s | 0°C | 0% | 0hPa | 0V | 00:00:00 | 00:00:00 | 00:00:00 | |
| EA3IBE | 2026-09-05 23:04:49 | 41.38679 | 2.13712 | 124° | 2km/h | 1528m | 5.4m/s | 0°C | 0% | 0hPa | 0V | 00:00:00 | 00:00:00 | 00:00:00 | |
| EA3GEO | 2026-09-05 23:04:44 | 41.38669 | 2.13711 | 293° | 7km/h | 1503m | 4.9m/s | 0°C | 0% | 0hPa | 0V | 00:00:00 | 00:00:00 | 00:00:00 | |
| EA3IBE | 2026-09-05 23:04:43 | 41.38668 | 2.13712 | 0° | 0km/h | 1496m | 5.4m/s | 0°C | 0% | 0hPa | 0V | 00:00:00 | 00:00:00 | 00:00:00 | |
| EA3GEO | 2026-09-05 23:04:39 | 41.38664 | 2.13691 | 95° | 24km/h | 1473m | 3.7m/s | 0°C | 0% | 0hPa | 0V | 00:00:00 | 00:00:00 | 00:00:00 | |
| EA3IBE | 2026-09-05 23:04:38 | 41.38664 | 2.13683 | 101° | 22km/h | 1469m | 2.2m/s | 0°C | 0% | 0hPa | 0V | 00:00:00 | 00:00:00 | 00:00:00 | |
| EA3GEO | 2026-09-05 23:04:33 | 41.38671 | 2.13668 | 2° | 9km/h | 1444m | 4.5m/s | 0°C | 0% | 0hPa | 0V | 00:00:00 | 00:00:00 | 00:00:00 | |
| EA3IBE | 2026-09-05 23:04:32 | 41.38668 | 2.13669 | 348° | 7km/h | 1439m | 5.1m/s | 0°C | 0% | 0hPa | 0V | 00:00:00 | 00:00:00 | 00:00:00 | |
| EA3GEO | 2026-09-05 23:04:28 | 41.38670 | 2.13658 | 97° | 22km/h | 1418m | 6.1m/s | 0°C | 0% | 0hPa | 0V | 00:00:00 | 00:00:00 | 00:00:00 | |
| EA3IBE | 2026-09-05 23:04:26 | 41.38667 | 2.13641 | 71° | 26km/h | 1406m | 4.1m/s | 0°C | 0% | 0hPa | 0V | 00:00:00 | 00:00:00 | 00:00:00 | |
| EA3GEO | 2026-09-05 23:04:22 | 41.38666 | 2.13629 | 213° | 2km/h | 1384m | 4.6m/s | 0°C | 0% | 0hPa | 0V | 00:00:00 | 00:00:00 | 00:00:00 | |
| EA3IBE | 2026-09-05 23:04:21 | 41.38666 | 2.13630 | 19° | 2km/h | 1380m | 3.8m/s | 0°C | 0% | 0hPa | 0V | 00:00:00 | 00:00:00 | 00:00:00 | |
| EA3GEO | 2026-09-05 23:04:16 | 41.38666 | 2.13615 | 67° | 24km/h | 1353m | 5.4m/s | 0°C | 0% | 0hPa | 0V | 00:00:00 | 00:00:00 | 00:00:00 | |
| EA3IBE | 2026-09-05 23:04:15 | 41.38663 | 2.13609 | 52° | 22km/h | 1347m | 5.3m/s | 0°C | 0% | 0hPa | 0V | 00:00:00 | 00:00:00 | 00:00:00 | |
| EA3GEO | 2026-09-05 23:04:10 | 41.38651 | 2.13590 | 110° | 9km/h | 1318m | 5.3m/s | 0°C | 0% | 0hPa | 0V | 00:00:00 | 00:00:00 | 00:00:00 | |
| EA3IBE | 2026-09-05 23:04:10 | 41.38651 | 2.13590 | 110° | 9km/h | 1318m | 5.3m/s | 0°C | 0% | 0hPa | 0V | 00:00:00 | 00:00:00 | 00:00:00 | |
| EA3GEO | 2026-09-05 23:04:04 | 41.38638 | 2.13564 | 60° | 26km/h | 1290m | 4.1m/s | 0°C | 0% | 0hPa | 0V | 00:00:00 | 00:00:00 | 00:00:00 | |
| EA3IBE | 2026-09-05 23:04:04 | 41.38638 | 2.13564 | 60° | 26km/h | 1290m | 4.1m/s | 0°C | 0% | 0hPa | 0V | 00:00:00 | 00:00:00 | 00:00:00 | |
| EA3IBE | 2026-09-05 23:03:59 | 41.38639 | 2.13539 | 107° | 20km/h | 1265m | 3.5m/s | 0°C | 0% | 0hPa | 0V | 00:00:00 | 00:00:00 | 00:00:00 | |
| EA3GEO | 2026-09-05 23:03:59 | 41.38639 | 2.13539 | 107° | 20km/h | 1265m | 3.5m/s | 0°C | 0% | 0hPa | 0V | 00:00:00 | 00:00:00 | 00:00:00 | |
| EA3GEO | 2026-09-05 23:03:53 | 41.38647 | 2.13483 | 76° | 13km/h | 1232m | 4.8m/s | 0°C | 0% | 0hPa | 0V | 00:00:00 | 00:00:00 | 00:00:00 | |
| EA3IBE | 2026-09-05 23:03:53 | 41.38647 | 2.13483 | 76° | 13km/h | 1232m | 4.8m/s | 0°C | 0% | 0hPa | 0V | 00:00:00 | 00:00:00 | 00:00:00 | |
| EA3IBE | 2026-09-05 23:03:48 | 41.38640 | 2.13458 | 76° | 26km/h | 1202m | 7.5m/s | 0°C | 0% | 0hPa | 0V | 00:00:00 | 00:00:00 | 00:00:00 | |
| EA3GEO | 2026-09-05 23:03:47 | 41.38639 | 2.13449 | 84° | 27km/h | 1194m | 6.4m/s | 0°C | 0% | 0hPa | 0V | 00:00:00 | 00:00:00 | 00:00:00 | |
| EA3IBE | 2026-09-05 23:03:43 | 41.38634 | 2.13396 | 90° | 42km/h | 1175m | 2.3m/s | 0°C | 0% | 0hPa | 0V | 00:00:00 | 00:00:00 | 00:00:00 | |
| EA3GEO | 2026-09-05 23:03:41 | 41.38634 | 2.13372 | 101° | 29km/h | 1169m | 2.9m/s | 0°C | 0% | 0hPa | 0V | 00:00:00 | 00:00:00 | 00:00:00 | |
| EA3IBE | 2026-09-05 23:03:37 | 41.38633 | 2.13345 | 69° | 20km/h | 1147m | 5.8m/s | 0°C | 0% | 0hPa | 0V | 00:00:00 | 00:00:00 | 00:00:00 | |
| EA3GEO | 2026-09-05 23:03:35 | 41.38632 | 2.13330 | 85° | 26km/h | 1134m | 6.6m/s | 0°C | 0% | 0hPa | 0V | 00:00:00 | 00:00:00 | 00:00:00 | |
| EA3GEO | 2026-09-05 23:03:30 | 41.38630 | 2.13292 | 67° | 16km/h | 1114m | 1.9m/s | 0°C | 0% | 0hPa | 0V | 00:00:00 | 00:00:00 | 00:00:00 | |
| EA3IBE | 2026-09-05 23:03:26 | 41.38630 | 2.13257 | 90° | 44km/h | 1100m | 5.1m/s | 0°C | 0% | 0hPa | 0V | 00:00:00 | 00:00:00 | 00:00:00 | |
| EA3GEO | 2026-09-05 23:03:25 | 41.38629 | 2.13242 | 86° | 44km/h | 1094m | 5.9m/s | 0°C | 0% | 0hPa | 0V | 00:00:00 | 00:00:00 | 00:00:00 | |
| EA3IBE | 2026-09-05 23:03:21 | 41.38616 | 2.13187 | 78° | 44km/h | 1069m | 5.8m/s | 0°C | 0% | 0hPa | 0V | 00:00:00 | 00:00:00 | 00:00:00 | |
| EA3GEO | 2026-09-05 23:03:20 | 41.38614 | 2.13173 | 87° | 37km/h | 1063m | 5.4m/s | 0°C | 0% | 0hPa | 0V | 00:00:00 | 00:00:00 | 00:00:00 | |
| EA3IBE | 2026-09-05 23:03:16 | 41.38615 | 2.13136 | 91° | 22km/h | 1045m | 3.0m/s | 0°C | 0% | 0hPa | 0V | 00:00:00 | 00:00:00 | 00:00:00 | |
| EA3GEO | 2026-09-05 23:03:14 | 41.38616 | 2.13122 | 86° | 18km/h | 1039m | 2.8m/s | 0°C | 0% | 0hPa | 0V | 00:00:00 | 00:00:00 | 00:00:00 | |
| EA3IBE | 2026-09-05 23:03:11 | 41.38611 | 2.13099 | 69° | 35km/h | 1029m | 3.6m/s | 0°C | 0% | 0hPa | 0V | 00:00:00 | 00:00:00 | 00:00:00 | |
| EA3GEO | 2026-09-05 23:03:09 | 41.38607 | 2.13074 | 90° | 40km/h | 1015m | 5.6m/s | 0°C | 0% | 0hPa | 0V | 00:00:00 | 00:00:00 | 00:00:00 | |
| EA3IBE | 2026-09-05 23:03:05 | 41.38613 | 2.13025 | 93° | 35km/h | 1001m | 4.6m/s | 0°C | 0% | 0hPa | 0V | 00:00:00 | 00:00:00 | 00:00:00 | |
| EA3GEO | 2026-09-05 23:03:03 | 41.38608 | 2.13001 | 69° | 44km/h | 991m | 5.1m/s | 0°C | 0% | 0hPa | 0V | 00:00:00 | 00:00:00 | 00:00:00 | |
| EA3IBE | 2026-09-05 23:02:59 | 41.38598 | 2.12945 | 88° | 40km/h | 968m | 5.1m/s | 0°C | 0% | 0hPa | 0V | 00:00:00 | 00:00:00 | 00:00:00 | |
| EA3GEO | 2026-09-05 23:02:57 | 41.38598 | 2.12922 | 84° | 31km/h | 959m | 6.3m/s | 0°C | 0% | 0hPa | 0V | 00:00:00 | 00:00:00 | 00:00:00 | |
| EA3IBE | 2026-09-05 23:02:54 | 41.38591 | 2.12894 | 65° | 38km/h | 944m | 4.4m/s | 0°C | 0% | 0hPa | 0V | 00:00:00 | 00:00:00 | 00:00:00 | |
| EA3GEO | 2026-09-05 23:02:52 | 41.38585 | 2.12865 | 86° | 46km/h | 934m | 4.2m/s | 0°C | 0% | 0hPa | 0V | 00:00:00 | 00:00:00 | 00:00:00 | |
| EA3IBE | 2026-09-05 23:02:49 | 41.38581 | 2.12829 | 75° | 24km/h | 915m | 3.7m/s | 0°C | 0% | 0hPa | 0V | 00:00:00 | 00:00:00 | 00:00:00 | |
| EA3GEO | 2026-09-05 23:02:46 | 41.38577 | 2.12809 | 70° | 24km/h | 894m | 6.2m/s | 0°C | 0% | 0hPa | 0V | 00:00:00 | 00:00:00 | 00:00:00 | |
| EA3IBE | 2026-09-05 23:02:41 | 41.38569 | 2.12748 | 90° | 40km/h | 868m | 2.3m/s | 0°C | 0% | 0hPa | 0V | 00:00:00 | 00:00:00 | 00:00:00 | |
| EA3GEO | 2026-09-05 23:02:40 | 41.38569 | 2.12734 | 90° | 40km/h | 864m | 2.9m/s | 0°C | 0% | 0hPa | 0V | 00:00:00 | 00:00:00 | 00:00:00 | |
| EA3IBE | 2026-09-05 23:02:36 | 41.38567 | 2.12680 | 93° | 40km/h | 843m | 5.5m/s | 0°C | 0% | 0hPa | 0V | 00:00:00 | 00:00:00 | 00:00:00 | |
| EA3GEO | 2026-09-05 23:02:35 | 41.38567 | 2.12666 | 88° | 42km/h | 838m | 3.6m/s | 0°C | 0% | 0hPa | 0V | 00:00:00 | 00:00:00 | 00:00:00 | |
| EA3IBE | 2026-09-05 23:02:30 | 41.38551 | 2.12595 | 61° | 35km/h | 820m | 4.6m/s | 0°C | 0% | 0hPa | 0V | 00:00:00 | 00:00:00 | 00:00:00 | |
| EA3GEO | 2026-09-05 23:02:30 | 41.38551 | 2.12595 | 61° | 35km/h | 820m | 4.6m/s | 0°C | 0% | 0hPa | 0V | 00:00:00 | 00:00:00 | 00:00:00 | |
| EA3GEO | 2026-09-05 23:02:24 | 41.38527 | 2.12517 | 65° | 46km/h | 791m | 4.3m/s | 0°C | 0% | 0hPa | 0V | 00:00:00 | 00:00:00 | 00:00:00 | |
| EA3GEO | 2026-09-05 23:02:19 | 41.38508 | 2.12460 | 95° | 31km/h | 763m | 6.7m/s | 0°C | 0% | 0hPa | 0V | 00:00:00 | 00:00:00 | 00:00:00 | |
| EA3IBE | 2026-09-05 23:02:15 | 41.38510 | 2.12431 | 60° | 15km/h | 741m | 2.7m/s | 0°C | 0% | 0hPa | 0V | 00:00:00 | 00:00:00 | 00:00:00 | |
| EA3GEO | 2026-09-05 23:02:13 | 41.38505 | 2.12423 | 54° | 18km/h | 732m | 4.9m/s | 0°C | 0% | 0hPa | 0V | 00:00:00 | 00:00:00 | 00:00:00 | |
| EA3IBE | 2026-09-05 23:02:10 | 41.38493 | 2.12404 | 65° | 33km/h | 718m | 6.5m/s | 0°C | 0% | 0hPa | 0V | 00:00:00 | 00:00:00 | 00:00:00 | |
| EA3GEO | 2026-09-05 23:02:07 | 41.38490 | 2.12368 | 89° | 37km/h | 700m | 6.9m/s | 0°C | 0% | 0hPa | 0V | 00:00:00 | 00:00:00 | 00:00:00 | |
| EA3IBE | 2026-09-05 23:02:05 | 41.38486 | 2.12345 | 65° | 31km/h | 684m | 5.7m/s | 0°C | 0% | 0hPa | 0V | 00:00:00 | 00:00:00 | 00:00:00 | |
| EA3GEO | 2026-09-05 23:02:02 | 41.38475 | 2.12325 | 52° | 18km/h | 669m | 3.9m/s | 0°C | 0% | 0hPa | 0V | 00:00:00 | 00:00:00 | 00:00:00 | |
| EA3IBE | 2026-09-05 23:01:57 | 41.38453 | 2.12295 | 54° | 29km/h | 650m | 1.9m/s | 0°C | 0% | 0hPa | 0V | 00:00:00 | 00:00:00 | 00:00:00 | |
| EA3GEO | 2026-09-05 23:01:56 | 41.38447 | 2.12286 | 57° | 33km/h | 646m | 3.9m/s | 0°C | 0% | 0hPa | 0V | 00:00:00 | 00:00:00 | 00:00:00 | |
| EA3GEO | 2026-09-05 23:01:50 | 41.38447 | 2.12225 | 107° | 16km/h | 613m | 4.3m/s | 0°C | 0% | 0hPa | 0V | 00:00:00 | 00:00:00 | 00:00:00 | |
| EA3IBE | 2026-09-05 23:01:49 | 41.38446 | 2.12220 | 71° | 18km/h | 608m | 4.2m/s | 0°C | 0% | 0hPa | 0V | 00:00:00 | 00:00:00 | 00:00:00 | |
| EA3GEO | 2026-09-05 23:01:45 | 41.38440 | 2.12183 | 89° | 33km/h | 587m | 5.0m/s | 0°C | 0% | 0hPa | 0V | 00:00:00 | 00:00:00 | 00:00:00 | |
| EA3IBE | 2026-09-05 23:01:43 | 41.38439 | 2.12167 | 76° | 18km/h | 576m | 5.0m/s | 0°C | 0% | 0hPa | 0V | 00:00:00 | 00:00:00 | 00:00:00 | |
| EA3GEO | 2026-09-05 23:01:39 | 41.38438 | 2.12129 | 108° | 35km/h | 551m | 3.8m/s | 0°C | 0% | 0hPa | 0V | 00:00:00 | 00:00:00 | 00:00:00 | |
| EA3IBE | 2026-09-05 23:01:38 | 41.38440 | 2.12117 | 105° | 31km/h | 546m | 4.6m/s | 0°C | 0% | 0hPa | 0V | 00:00:00 | 00:00:00 | 00:00:00 | |
| EA3GEO | 2026-09-05 23:01:33 | 41.38441 | 2.12082 | 131° | 18km/h | 516m | 5.8m/s | 0°C | 0% | 0hPa | 0V | 00:00:00 | 00:00:00 | 00:00:00 | |
| EA3GEO | 2026-09-05 23:01:28 | 41.38445 | 2.12040 | 88° | 20km/h | 488m | 5.3m/s | 0°C | 0% | 0hPa | 0V | 00:00:00 | 00:00:00 | 00:00:00 | |
| EA3GEO | 2026-09-05 23:01:23 | 41.38450 | 2.11992 | 117° | 20km/h | 461m | 4.4m/s | 0°C | 0% | 0hPa | 0V | 00:00:00 | 00:00:00 | 00:00:00 | |
| EA3GEO | 2026-09-05 23:01:17 | 41.38449 | 2.11966 | 75° | 26km/h | 436m | 3.9m/s | 0°C | 0% | 0hPa | 0V | 00:00:00 | 00:00:00 | 00:00:00 | |
| EA3GEO | 2026-09-05 23:01:12 | 41.38449 | 2.11918 | 117° | 24km/h | 412m | 5.1m/s | 0°C | 0% | 0hPa | 0V | 00:00:00 | 00:00:00 | 00:00:00 | |
| EA3GEO | 2026-09-05 23:01:07 | 41.38458 | 2.11899 | 104° | 16km/h | 387m | 5.4m/s | 0°C | 0% | 0hPa | 0V | 00:00:00 | 00:00:00 | 00:00:00 | |
| EA3GEO | 2026-09-05 23:01:01 | 41.38463 | 2.11877 | 48° | 9km/h | 354m | 4.7m/s | 0°C | 0% | 0hPa | 0V | 00:00:00 | 00:00:00 | 00:00:00 | |
| EA3GEO | 2026-09-05 23:00:55 | 41.38469 | 2.11842 | 129° | 7km/h | 327m | 4.6m/s | 0°C | 0% | 0hPa | 0V | 00:00:00 | 00:00:00 | 00:00:00 | |
| EA3GEO | 2026-09-05 23:00:50 | 41.38469 | 2.11826 | 117° | 18km/h | 303m | 6.6m/s | 0°C | 0% | 0hPa | 0V | 00:00:00 | 00:00:00 | 00:00:00 | |
| EA3GEO | 2026-09-05 23:00:43 | 41.38475 | 2.11800 | 154° | 15km/h | 269m | 3.3m/s | 0°C | 0% | 0hPa | 0V | 00:00:00 | 00:00:00 | 00:00:00 | |
| EA3GEO | 2026-09-05 23:00:38 | 41.38469 | 2.11790 | 88° | 13km/h | 245m | 4.1m/s | 0°C | 0% | 0hPa | 0V | 00:00:00 | 00:00:00 | 00:00:00 |